<?xml version="1.0" encoding="UTF-8" standalone="no" ?>
<gpx xmlns="http://www.topografix.com/GPX/1/1" xmlns:xsi="http://www.w3.org/2001/XMLSchema-instance" xsi:schemaLocation="http://www.topografix.com/GPX/1/1 http://www.topografix.com/GPX/1/1/gpx.xsd" version="1.1" creator="VisuGPX - https://www.visugpx.com">
  <metadata>
    <name>Itinéraire prévu Norvège</name>
  </metadata>
  <trk>
    <name><![CDATA[2_Tømmervåg-Trondheim: 204km]]></name>
    <trkseg>
      <trkpt lat="63.1531" lon="7.95485">
        <ele>1.303913</ele>
        <time>2020-07-15T11:40:11.644Z</time>
      </trkpt>
      <trkpt lat="63.1531" lon="7.95485">
        <ele>1.303913</ele>
        <time>2020-07-15T11:40:11.646Z</time>
      </trkpt>
      <trkpt lat="63.15344" lon="7.95564">
        <ele>1.303913</ele>
        <time>2020-07-15T11:40:21.743Z</time>
      </trkpt>
      <trkpt lat="63.15345" lon="7.95569">
        <ele>1.303913</ele>
        <time>2020-07-15T11:40:22.238Z</time>
      </trkpt>
      <trkpt lat="63.15371" lon="7.95623">
        <ele>1.303913</ele>
        <time>2020-07-15T11:40:30.175Z</time>
      </trkpt>
      <trkpt lat="63.15377" lon="7.95632">
        <ele>1.469975</ele>
        <time>2020-07-15T11:40:31.668Z</time>
      </trkpt>
      <trkpt lat="63.15388" lon="7.95648">
        <ele>2.009582</ele>
        <time>2020-07-15T11:40:34.786Z</time>
      </trkpt>
      <trkpt lat="63.15421" lon="7.95677">
        <ele>3.373334</ele>
        <time>2020-07-15T11:40:44.055Z</time>
      </trkpt>
      <trkpt lat="63.15429" lon="7.95681">
        <ele>3.671847</ele>
        <time>2020-07-15T11:40:46.294Z</time>
      </trkpt>
      <trkpt lat="63.15446" lon="7.95685">
        <ele>4.343833</ele>
        <time>2020-07-15T11:40:51.357Z</time>
      </trkpt>
      <trkpt lat="63.15456" lon="7.95686">
        <ele>4.7516</ele>
        <time>2020-07-15T11:40:55.044Z</time>
      </trkpt>
      <trkpt lat="63.15464" lon="7.95686">
        <ele>5.062309</ele>
        <time>2020-07-15T11:40:57.866Z</time>
      </trkpt>
      <trkpt lat="63.1547" lon="7.95685">
        <ele>5.283804</ele>
        <time>2020-07-15T11:40:59.969Z</time>
      </trkpt>
      <trkpt lat="63.15487" lon="7.95682">
        <ele>5.938346</ele>
        <time>2020-07-15T11:41:04.840Z</time>
      </trkpt>
      <trkpt lat="63.15525" lon="7.95671">
        <ele>7.423715</ele>
        <time>2020-07-15T11:41:18.031Z</time>
      </trkpt>
      <trkpt lat="63.15542" lon="7.95666">
        <ele>8.113592</ele>
        <time>2020-07-15T11:41:24.858Z</time>
      </trkpt>
      <trkpt lat="63.15579" lon="7.95652">
        <ele>9.850173</ele>
        <time>2020-07-15T11:41:37.436Z</time>
      </trkpt>
      <trkpt lat="63.15588" lon="7.95647">
        <ele>10.318745</ele>
        <time>2020-07-15T11:41:39.970Z</time>
      </trkpt>
      <trkpt lat="63.15598" lon="7.9564">
        <ele>10.849025</ele>
        <time>2020-07-15T11:41:44.069Z</time>
      </trkpt>
      <trkpt lat="63.15603" lon="7.95637">
        <ele>11.067302</ele>
        <time>2020-07-15T11:41:45.902Z</time>
      </trkpt>
      <trkpt lat="63.15625" lon="7.95618">
        <ele>12.220407</ele>
        <time>2020-07-15T11:41:53.229Z</time>
      </trkpt>
      <trkpt lat="63.15654" lon="7.95585">
        <ele>13.797362</ele>
        <time>2020-07-15T11:42:03.998Z</time>
      </trkpt>
      <trkpt lat="63.15661" lon="7.95621">
        <ele>14.652515</ele>
        <time>2020-07-15T11:42:10.871Z</time>
      </trkpt>
      <trkpt lat="63.15664" lon="7.9562">
        <ele>14.800518</ele>
        <time>2020-07-15T11:42:11.740Z</time>
      </trkpt>
      <trkpt lat="63.1567" lon="7.95618">
        <ele>15.08506</ele>
        <time>2020-07-15T11:42:13.557Z</time>
      </trkpt>
      <trkpt lat="63.15669" lon="7.95606">
        <ele>15.344667</ele>
        <time>2020-07-15T11:42:15.150Z</time>
      </trkpt>
      <trkpt lat="63.15675" lon="7.95577">
        <ele>16.042083</ele>
        <time>2020-07-15T11:42:20.735Z</time>
      </trkpt>
      <trkpt lat="63.15732" lon="7.95474">
        <ele>19.202793</ele>
        <time>2020-07-15T11:42:43.957Z</time>
      </trkpt>
      <trkpt lat="63.1574" lon="7.95457">
        <ele>19.685675</ele>
        <time>2020-07-15T11:42:47.302Z</time>
      </trkpt>
      <trkpt lat="63.15757" lon="7.95427">
        <ele>20.561972</ele>
        <time>2020-07-15T11:42:54.169Z</time>
      </trkpt>
      <trkpt lat="63.15796" lon="7.95367">
        <ele>22.501609</ele>
        <time>2020-07-15T11:43:08.874Z</time>
      </trkpt>
      <trkpt lat="63.15852" lon="7.95309">
        <ele>24.883328</ele>
        <time>2020-07-15T11:43:29.079Z</time>
      </trkpt>
      <trkpt lat="63.15928" lon="7.95245">
        <ele>27.319707</ele>
        <time>2020-07-15T11:43:53.477Z</time>
      </trkpt>
      <trkpt lat="63.15959" lon="7.9522">
        <ele>28.31128</ele>
        <time>2020-07-15T11:44:02.247Z</time>
      </trkpt>
      <trkpt lat="63.16003" lon="7.95182">
        <ele>29.715389</ele>
        <time>2020-07-15T11:44:13.889Z</time>
      </trkpt>
      <trkpt lat="63.16024" lon="7.95173">
        <ele>30.072331</ele>
        <time>2020-07-15T11:44:19.371Z</time>
      </trkpt>
      <trkpt lat="63.16027" lon="7.95171">
        <ele>30.122114</ele>
        <time>2020-07-15T11:44:20.241Z</time>
      </trkpt>
      <trkpt lat="63.16022" lon="7.95146">
        <ele>30.305658</ele>
        <time>2020-07-15T11:44:22.989Z</time>
      </trkpt>
      <trkpt lat="63.16043" lon="7.95124">
        <ele>30.661348</ele>
        <time>2020-07-15T11:44:28.541Z</time>
      </trkpt>
      <trkpt lat="63.16095" lon="7.95063">
        <ele>31.53145</ele>
        <time>2020-07-15T11:44:40.943Z</time>
      </trkpt>
      <trkpt lat="63.16107" lon="7.95047">
        <ele>31.739638</ele>
        <time>2020-07-15T11:44:44.088Z</time>
      </trkpt>
      <trkpt lat="63.16137" lon="7.95007">
        <ele>32.257445</ele>
        <time>2020-07-15T11:44:51.836Z</time>
      </trkpt>
      <trkpt lat="63.16197" lon="7.94924">
        <ele>33.533059</ele>
        <time>2020-07-15T11:45:08.216Z</time>
      </trkpt>
      <trkpt lat="63.16232" lon="7.94876">
        <ele>34.295242</ele>
        <time>2020-07-15T11:45:18.372Z</time>
      </trkpt>
      <trkpt lat="63.16291" lon="7.94799">
        <ele>35.569366</ele>
        <time>2020-07-15T11:45:35.146Z</time>
      </trkpt>
      <trkpt lat="63.16314" lon="7.94772">
        <ele>35.996058</ele>
        <time>2020-07-15T11:45:41.283Z</time>
      </trkpt>
      <trkpt lat="63.16333" lon="7.94751">
        <ele>36.282818</ele>
        <time>2020-07-15T11:45:46.266Z</time>
      </trkpt>
      <trkpt lat="63.16348" lon="7.94736">
        <ele>36.50893</ele>
        <time>2020-07-15T11:45:49.995Z</time>
      </trkpt>
      <trkpt lat="63.16353" lon="7.94731">
        <ele>36.585213</ele>
        <time>2020-07-15T11:45:51.433Z</time>
      </trkpt>
      <trkpt lat="63.16486" lon="7.94613">
        <ele>38.21983</ele>
        <time>2020-07-15T11:46:22.576Z</time>
      </trkpt>
      <trkpt lat="63.16518" lon="7.94576">
        <ele>38.142315</ele>
        <time>2020-07-15T11:46:29.738Z</time>
      </trkpt>
      <trkpt lat="63.16562" lon="7.9449">
        <ele>38.017476</ele>
        <time>2020-07-15T11:46:40.189Z</time>
      </trkpt>
      <trkpt lat="63.16592" lon="7.94376">
        <ele>37.890557</ele>
        <time>2020-07-15T11:46:49.376Z</time>
      </trkpt>
      <trkpt lat="63.16602" lon="7.94318">
        <ele>37.358026</ele>
        <time>2020-07-15T11:46:53.418Z</time>
      </trkpt>
      <trkpt lat="63.16608" lon="7.94286">
        <ele>36.991158</ele>
        <time>2020-07-15T11:46:55.667Z</time>
      </trkpt>
      <trkpt lat="63.16661" lon="7.93984">
        <ele>33.72606</ele>
        <time>2020-07-15T11:47:15.196Z</time>
      </trkpt>
      <trkpt lat="63.1667" lon="7.93939">
        <ele>33.66056</ele>
        <time>2020-07-15T11:47:18.605Z</time>
      </trkpt>
      <trkpt lat="63.1668" lon="7.93898">
        <ele>33.598311</ele>
        <time>2020-07-15T11:47:21.448Z</time>
      </trkpt>
      <trkpt lat="63.16689" lon="7.93864">
        <ele>33.544202</ele>
        <time>2020-07-15T11:47:24.999Z</time>
      </trkpt>
      <trkpt lat="63.16696" lon="7.93844">
        <ele>33.511753</ele>
        <time>2020-07-15T11:47:26.593Z</time>
      </trkpt>
      <trkpt lat="63.167" lon="7.93835">
        <ele>33.494699</ele>
        <time>2020-07-15T11:47:27.361Z</time>
      </trkpt>
      <trkpt lat="63.16704" lon="7.93823">
        <ele>33.474666</ele>
        <time>2020-07-15T11:47:29.583Z</time>
      </trkpt>
      <trkpt lat="63.16748" lon="7.93736">
        <ele>33.299085</ele>
        <time>2020-07-15T11:47:40.761Z</time>
      </trkpt>
      <trkpt lat="63.16787" lon="7.93688">
        <ele>33.026158</ele>
        <time>2020-07-15T11:47:50.464Z</time>
      </trkpt>
      <trkpt lat="63.16829" lon="7.93658">
        <ele>32.420007</ele>
        <time>2020-07-15T11:48:00.547Z</time>
      </trkpt>
      <trkpt lat="63.16885" lon="7.93643">
        <ele>31.636746</ele>
        <time>2020-07-15T11:48:08.758Z</time>
      </trkpt>
      <trkpt lat="63.16948" lon="7.9364">
        <ele>30.77156</ele>
        <time>2020-07-15T11:48:17.003Z</time>
      </trkpt>
      <trkpt lat="63.1697" lon="7.93639">
        <ele>29.930703</ele>
        <time>2020-07-15T11:48:19.764Z</time>
      </trkpt>
      <trkpt lat="63.17006" lon="7.93634">
        <ele>28.390039</ele>
        <time>2020-07-15T11:48:24.321Z</time>
      </trkpt>
      <trkpt lat="63.17021" lon="7.93631">
        <ele>27.77082</ele>
        <time>2020-07-15T11:48:26.132Z</time>
      </trkpt>
      <trkpt lat="63.17121" lon="7.93597">
        <ele>23.499822</ele>
        <time>2020-07-15T11:48:38.298Z</time>
      </trkpt>
      <trkpt lat="63.17159" lon="7.93577">
        <ele>23.103225</ele>
        <time>2020-07-15T11:48:43.497Z</time>
      </trkpt>
      <trkpt lat="63.17183" lon="7.93563">
        <ele>23.081769</ele>
        <time>2020-07-15T11:48:47.212Z</time>
      </trkpt>
      <trkpt lat="63.17226" lon="7.93537">
        <ele>23.042026</ele>
        <time>2020-07-15T11:48:54.962Z</time>
      </trkpt>
      <trkpt lat="63.17254" lon="7.93522">
        <ele>23.016949</ele>
        <time>2020-07-15T11:49:01.093Z</time>
      </trkpt>
      <trkpt lat="63.17269" lon="7.93516">
        <ele>23.003778</ele>
        <time>2020-07-15T11:49:05.110Z</time>
      </trkpt>
      <trkpt lat="63.17287" lon="7.93511">
        <ele>22.987569</ele>
        <time>2020-07-15T11:49:09.305Z</time>
      </trkpt>
      <trkpt lat="63.1731" lon="7.93508">
        <ele>23.167311</ele>
        <time>2020-07-15T11:49:15.748Z</time>
      </trkpt>
      <trkpt lat="63.17364" lon="7.93518">
        <ele>25.051133</ele>
        <time>2020-07-15T11:49:30.569Z</time>
      </trkpt>
      <trkpt lat="63.17384" lon="7.93527">
        <ele>25.797344</ele>
        <time>2020-07-15T11:49:36.987Z</time>
      </trkpt>
      <trkpt lat="63.17407" lon="7.93541">
        <ele>26.61756</ele>
        <time>2020-07-15T11:49:44.467Z</time>
      </trkpt>
      <trkpt lat="63.17445" lon="7.93577">
        <ele>28.068419</ele>
        <time>2020-07-15T11:49:57.357Z</time>
      </trkpt>
      <trkpt lat="63.17486" lon="7.93635">
        <ele>29.536541</ele>
        <time>2020-07-15T11:50:11.998Z</time>
      </trkpt>
      <trkpt lat="63.17541" lon="7.93753">
        <ele>30.821968</ele>
        <time>2020-07-15T11:50:32.621Z</time>
      </trkpt>
      <trkpt lat="63.17567" lon="7.9384">
        <ele>31.613754</ele>
        <time>2020-07-15T11:50:42.575Z</time>
      </trkpt>
      <trkpt lat="63.1765" lon="7.94222">
        <ele>30.685731</ele>
        <time>2020-07-15T11:51:13.799Z</time>
      </trkpt>
      <trkpt lat="63.17678" lon="7.94318">
        <ele>29.789908</ele>
        <time>2020-07-15T11:51:20.590Z</time>
      </trkpt>
      <trkpt lat="63.17693" lon="7.94362">
        <ele>29.113729</ele>
        <time>2020-07-15T11:51:23.871Z</time>
      </trkpt>
      <trkpt lat="63.17728" lon="7.94458">
        <ele>27.619095</ele>
        <time>2020-07-15T11:51:31.101Z</time>
      </trkpt>
      <trkpt lat="63.17751" lon="7.94523">
        <ele>26.598689</ele>
        <time>2020-07-15T11:51:36.045Z</time>
      </trkpt>
      <trkpt lat="63.17828" lon="7.94708">
        <ele>25.079718</ele>
        <time>2020-07-15T11:51:51.884Z</time>
      </trkpt>
      <trkpt lat="63.17873" lon="7.9479">
        <ele>24.757449</ele>
        <time>2020-07-15T11:52:03.428Z</time>
      </trkpt>
      <trkpt lat="63.17922" lon="7.94863">
        <ele>24.413538</ele>
        <time>2020-07-15T11:52:15.710Z</time>
      </trkpt>
      <trkpt lat="63.17972" lon="7.94928">
        <ele>23.971556</ele>
        <time>2020-07-15T11:52:26.581Z</time>
      </trkpt>
      <trkpt lat="63.17993" lon="7.94956">
        <ele>23.78567</ele>
        <time>2020-07-15T11:52:30.457Z</time>
      </trkpt>
      <trkpt lat="63.18027" lon="7.95021">
        <ele>23.448516</ele>
        <time>2020-07-15T11:52:37.499Z</time>
      </trkpt>
      <trkpt lat="63.18031" lon="7.9503">
        <ele>23.403324</ele>
        <time>2020-07-15T11:52:38.388Z</time>
      </trkpt>
      <trkpt lat="63.18044" lon="7.95071">
        <ele>23.231389</ele>
        <time>2020-07-15T11:52:41.565Z</time>
      </trkpt>
      <trkpt lat="63.18061" lon="7.95153">
        <ele>22.248438</ele>
        <time>2020-07-15T11:52:47.177Z</time>
      </trkpt>
      <trkpt lat="63.18085" lon="7.95349">
        <ele>19.18992</ele>
        <time>2020-07-15T11:52:58.743Z</time>
      </trkpt>
      <trkpt lat="63.18108" lon="7.9545">
        <ele>17.492059</ele>
        <time>2020-07-15T11:53:05.220Z</time>
      </trkpt>
      <trkpt lat="63.18134" lon="7.95509">
        <ele>16.65095</ele>
        <time>2020-07-15T11:53:10.145Z</time>
      </trkpt>
      <trkpt lat="63.18197" lon="7.95601">
        <ele>15.302741</ele>
        <time>2020-07-15T11:53:20.581Z</time>
      </trkpt>
      <trkpt lat="63.18223" lon="7.95654">
        <ele>14.674586</ele>
        <time>2020-07-15T11:53:25.763Z</time>
      </trkpt>
      <trkpt lat="63.18402" lon="7.9611">
        <ele>15.519176</ele>
        <time>2020-07-15T11:54:14.253Z</time>
      </trkpt>
      <trkpt lat="63.18464" lon="7.96269">
        <ele>18.518975</ele>
        <time>2020-07-15T11:54:41.288Z</time>
      </trkpt>
      <trkpt lat="63.18572" lon="7.96555">
        <ele>28.965366</ele>
        <time>2020-07-15T11:55:48.476Z</time>
      </trkpt>
      <trkpt lat="63.18601" lon="7.96644">
        <ele>32.429638</ele>
        <time>2020-07-15T11:56:10.442Z</time>
      </trkpt>
      <trkpt lat="63.18628" lon="7.96756">
        <ele>35.996457</ele>
        <time>2020-07-15T11:56:34.208Z</time>
      </trkpt>
      <trkpt lat="63.18656" lon="7.96925">
        <ele>41.086979</ele>
        <time>2020-07-15T11:57:05.199Z</time>
      </trkpt>
      <trkpt lat="63.18703" lon="7.97573">
        <ele>52.706919</ele>
        <time>2020-07-15T11:58:38.290Z</time>
      </trkpt>
      <trkpt lat="63.18716" lon="7.97673">
        <ele>53.568239</ele>
        <time>2020-07-15T11:58:48.948Z</time>
      </trkpt>
      <trkpt lat="63.18736" lon="7.97751">
        <ele>54.303476</ele>
        <time>2020-07-15T11:58:56.364Z</time>
      </trkpt>
      <trkpt lat="63.18761" lon="7.97818">
        <ele>53.665069</ele>
        <time>2020-07-15T11:59:02.329Z</time>
      </trkpt>
      <trkpt lat="63.18831" lon="7.97947">
        <ele>50.277721</ele>
        <time>2020-07-15T11:59:13.949Z</time>
      </trkpt>
      <trkpt lat="63.18969" lon="7.98183">
        <ele>42.70262</ele>
        <time>2020-07-15T11:59:34.668Z</time>
      </trkpt>
      <trkpt lat="63.19308" lon="7.98767">
        <ele>27.13592</ele>
        <time>2020-07-15T12:00:30.167Z</time>
      </trkpt>
      <trkpt lat="63.19353" lon="7.98846">
        <ele>25.806018</ele>
        <time>2020-07-15T12:00:37.981Z</time>
      </trkpt>
      <trkpt lat="63.1938" lon="7.98895">
        <ele>24.99824</ele>
        <time>2020-07-15T12:00:42.784Z</time>
      </trkpt>
      <trkpt lat="63.19415" lon="7.98971">
        <ele>23.870973</ele>
        <time>2020-07-15T12:00:49.580Z</time>
      </trkpt>
      <trkpt lat="63.19459" lon="7.99101">
        <ele>22.469994</ele>
        <time>2020-07-15T12:01:00.096Z</time>
      </trkpt>
      <trkpt lat="63.19468" lon="7.99137">
        <ele>22.205578</ele>
        <time>2020-07-15T12:01:02.770Z</time>
      </trkpt>
      <trkpt lat="63.19476" lon="7.99171">
        <ele>21.950913</ele>
        <time>2020-07-15T12:01:05.416Z</time>
      </trkpt>
      <trkpt lat="63.19483" lon="7.99203">
        <ele>21.722939</ele>
        <time>2020-07-15T12:01:07.768Z</time>
      </trkpt>
      <trkpt lat="63.19517" lon="7.9938">
        <ele>20.467067</ele>
        <time>2020-07-15T12:01:20.757Z</time>
      </trkpt>
      <trkpt lat="63.19609" lon="7.99864">
        <ele>18.194876</ele>
        <time>2020-07-15T12:01:57.269Z</time>
      </trkpt>
      <trkpt lat="63.19612" lon="7.9986">
        <ele>18.17679</ele>
        <time>2020-07-15T12:01:57.876Z</time>
      </trkpt>
      <trkpt lat="63.19616" lon="7.99856">
        <ele>18.158704</ele>
        <time>2020-07-15T12:01:58.472Z</time>
      </trkpt>
      <trkpt lat="63.19618" lon="7.99864">
        <ele>18.139297</ele>
        <time>2020-07-15T12:01:59.191Z</time>
      </trkpt>
      <trkpt lat="63.1962" lon="7.99875">
        <ele>18.112612</ele>
        <time>2020-07-15T12:02:00.142Z</time>
      </trkpt>
      <trkpt lat="63.1963" lon="7.99922">
        <ele>18.003448</ele>
        <time>2020-07-15T12:02:04.032Z</time>
      </trkpt>
      <trkpt lat="63.1964" lon="7.99973">
        <ele>17.882771</ele>
        <time>2020-07-15T12:02:08.383Z</time>
      </trkpt>
      <trkpt lat="63.19683" lon="8.00123">
        <ele>17.67564</ele>
        <time>2020-07-15T12:02:23.273Z</time>
      </trkpt>
      <trkpt lat="63.19725" lon="8.00238">
        <ele>18.093974</ele>
        <time>2020-07-15T12:02:36.833Z</time>
      </trkpt>
      <trkpt lat="63.19736" lon="8.0027">
        <ele>18.208824</ele>
        <time>2020-07-15T12:02:40.860Z</time>
      </trkpt>
      <trkpt lat="63.19765" lon="8.00362">
        <ele>18.528174</ele>
        <time>2020-07-15T12:02:51.516Z</time>
      </trkpt>
      <trkpt lat="63.19779" lon="8.00414">
        <ele>18.698506</ele>
        <time>2020-07-15T12:02:57.507Z</time>
      </trkpt>
      <trkpt lat="63.19788" lon="8.0045">
        <ele>18.858695</ele>
        <time>2020-07-15T12:03:01.414Z</time>
      </trkpt>
      <trkpt lat="63.19807" lon="8.00532">
        <ele>19.234756</ele>
        <time>2020-07-15T12:03:10.663Z</time>
      </trkpt>
      <trkpt lat="63.19835" lon="8.00661">
        <ele>19.814832</ele>
        <time>2020-07-15T12:03:24.570Z</time>
      </trkpt>
      <trkpt lat="63.1984" lon="8.00684">
        <ele>19.919829</ele>
        <time>2020-07-15T12:03:27.090Z</time>
      </trkpt>
      <trkpt lat="63.19876" lon="8.00901">
        <ele>20.543628</ele>
        <time>2020-07-15T12:03:48.945Z</time>
      </trkpt>
      <trkpt lat="63.19906" lon="8.01213">
        <ele>20.866872</ele>
        <time>2020-07-15T12:04:16.808Z</time>
      </trkpt>
      <trkpt lat="63.19905" lon="8.0123">
        <ele>20.824081</ele>
        <time>2020-07-15T12:04:18.558Z</time>
      </trkpt>
      <trkpt lat="63.19919" lon="8.01233">
        <ele>20.748316</ele>
        <time>2020-07-15T12:04:20.731Z</time>
      </trkpt>
      <trkpt lat="63.19932" lon="8.01255">
        <ele>20.657772</ele>
        <time>2020-07-15T12:04:23.662Z</time>
      </trkpt>
      <trkpt lat="63.20012" lon="8.01462">
        <ele>19.941531</ele>
        <time>2020-07-15T12:04:44.080Z</time>
      </trkpt>
      <trkpt lat="63.20022" lon="8.01496">
        <ele>19.670488</ele>
        <time>2020-07-15T12:04:46.956Z</time>
      </trkpt>
      <trkpt lat="63.20026" lon="8.01524">
        <ele>19.478205</ele>
        <time>2020-07-15T12:04:49.072Z</time>
      </trkpt>
      <trkpt lat="63.20029" lon="8.01619">
        <ele>18.838907</ele>
        <time>2020-07-15T12:04:55.808Z</time>
      </trkpt>
      <trkpt lat="63.20027" lon="8.0167">
        <ele>18.500157</ele>
        <time>2020-07-15T12:04:59.335Z</time>
      </trkpt>
      <trkpt lat="63.20021" lon="8.01748">
        <ele>17.975629</ele>
        <time>2020-07-15T12:05:04.718Z</time>
      </trkpt>
      <trkpt lat="63.20022" lon="8.01851">
        <ele>17.278374</ele>
        <time>2020-07-15T12:05:11.752Z</time>
      </trkpt>
      <trkpt lat="63.20026" lon="8.01892">
        <ele>16.974173</ele>
        <time>2020-07-15T12:05:14.630Z</time>
      </trkpt>
      <trkpt lat="63.20035" lon="8.01931">
        <ele>16.644926</ele>
        <time>2020-07-15T12:05:17.611Z</time>
      </trkpt>
      <trkpt lat="63.20071" lon="8.02056">
        <ele>15.55682</ele>
        <time>2020-07-15T12:05:27.510Z</time>
      </trkpt>
      <trkpt lat="63.20133" lon="8.02309">
        <ele>14.459545</ele>
        <time>2020-07-15T12:05:47.870Z</time>
      </trkpt>
      <trkpt lat="63.20144" lon="8.02374">
        <ele>14.485218</ele>
        <time>2020-07-15T12:05:53.537Z</time>
      </trkpt>
      <trkpt lat="63.20146" lon="8.02385">
        <ele>14.489434</ele>
        <time>2020-07-15T12:05:54.507Z</time>
      </trkpt>
      <trkpt lat="63.20149" lon="8.02395">
        <ele>14.49369</ele>
        <time>2020-07-15T12:05:55.765Z</time>
      </trkpt>
      <trkpt lat="63.20221" lon="8.0282">
        <ele>16.325594</ele>
        <time>2020-07-15T12:06:41.823Z</time>
      </trkpt>
      <trkpt lat="63.20239" lon="8.02918">
        <ele>16.990929</ele>
        <time>2020-07-15T12:06:53.489Z</time>
      </trkpt>
      <trkpt lat="63.2025" lon="8.02981">
        <ele>17.449123</ele>
        <time>2020-07-15T12:07:00.920Z</time>
      </trkpt>
      <trkpt lat="63.20284" lon="8.03183">
        <ele>18.931301</ele>
        <time>2020-07-15T12:07:24.086Z</time>
      </trkpt>
      <trkpt lat="63.20306" lon="8.03291">
        <ele>19.750021</ele>
        <time>2020-07-15T12:07:36.289Z</time>
      </trkpt>
      <trkpt lat="63.20318" lon="8.0334">
        <ele>20.155874</ele>
        <time>2020-07-15T12:07:41.884Z</time>
      </trkpt>
      <trkpt lat="63.20334" lon="8.03393">
        <ele>20.617519</ele>
        <time>2020-07-15T12:07:48.187Z</time>
      </trkpt>
      <trkpt lat="63.20341" lon="8.03418">
        <ele>20.827148</ele>
        <time>2020-07-15T12:07:51.225Z</time>
      </trkpt>
      <trkpt lat="63.20373" lon="8.0352">
        <ele>21.729958</ele>
        <time>2020-07-15T12:08:04.243Z</time>
      </trkpt>
      <trkpt lat="63.2041" lon="8.0364">
        <ele>22.856212</ele>
        <time>2020-07-15T12:08:20.365Z</time>
      </trkpt>
      <trkpt lat="63.20416" lon="8.0367">
        <ele>23.36613</ele>
        <time>2020-07-15T12:08:24.001Z</time>
      </trkpt>
      <trkpt lat="63.20418" lon="8.03685">
        <ele>23.598556</ele>
        <time>2020-07-15T12:08:25.876Z</time>
      </trkpt>
      <trkpt lat="63.20418" lon="8.03695">
        <ele>23.75641</ele>
        <time>2020-07-15T12:08:27.127Z</time>
      </trkpt>
      <trkpt lat="63.20416" lon="8.03712">
        <ele>24.032402</ele>
        <time>2020-07-15T12:08:29.429Z</time>
      </trkpt>
      <trkpt lat="63.20419" lon="8.03719">
        <ele>24.191138</ele>
        <time>2020-07-15T12:08:30.943Z</time>
      </trkpt>
      <trkpt lat="63.20441" lon="8.03761">
        <ele>25.183232</ele>
        <time>2020-07-15T12:08:38.837Z</time>
      </trkpt>
      <trkpt lat="63.20444" lon="8.0377">
        <ele>25.336072</ele>
        <time>2020-07-15T12:08:40.192Z</time>
      </trkpt>
      <trkpt lat="63.20448" lon="8.03773">
        <ele>25.481121</ele>
        <time>2020-07-15T12:08:41.808Z</time>
      </trkpt>
      <trkpt lat="63.20455" lon="8.03788">
        <ele>25.81267</ele>
        <time>2020-07-15T12:08:44.899Z</time>
      </trkpt>
      <trkpt lat="63.20462" lon="8.0381">
        <ele>26.226441</ele>
        <time>2020-07-15T12:08:48.941Z</time>
      </trkpt>
      <trkpt lat="63.20465" lon="8.0382">
        <ele>26.406919</ele>
        <time>2020-07-15T12:08:50.766Z</time>
      </trkpt>
      <trkpt lat="63.20477" lon="8.03859">
        <ele>27.131047</ele>
        <time>2020-07-15T12:08:58.500Z</time>
      </trkpt>
      <trkpt lat="63.2049" lon="8.03893">
        <ele>27.815457</ele>
        <time>2020-07-15T12:09:06.469Z</time>
      </trkpt>
      <trkpt lat="63.20512" lon="8.03948">
        <ele>28.984901</ele>
        <time>2020-07-15T12:09:19.103Z</time>
      </trkpt>
      <trkpt lat="63.2052" lon="8.03966">
        <ele>29.444138</ele>
        <time>2020-07-15T12:09:22.755Z</time>
      </trkpt>
      <trkpt lat="63.20572" lon="8.04081">
        <ele>32.541892</ele>
        <time>2020-07-15T12:09:46.527Z</time>
      </trkpt>
      <trkpt lat="63.20577" lon="8.04096">
        <ele>32.910754</ele>
        <time>2020-07-15T12:09:49.535Z</time>
      </trkpt>
      <trkpt lat="63.20586" lon="8.04128">
        <ele>33.634728</ele>
        <time>2020-07-15T12:09:55.309Z</time>
      </trkpt>
      <trkpt lat="63.2065" lon="8.04305">
        <ele>37.481011</ele>
        <time>2020-07-15T12:10:26.996Z</time>
      </trkpt>
      <trkpt lat="63.20669" lon="8.04368">
        <ele>38.465434</ele>
        <time>2020-07-15T12:10:36.984Z</time>
      </trkpt>
      <trkpt lat="63.20675" lon="8.04387">
        <ele>38.78006</ele>
        <time>2020-07-15T12:10:40.257Z</time>
      </trkpt>
      <trkpt lat="63.20734" lon="8.04577">
        <ele>41.762845</ele>
        <time>2020-07-15T12:11:07.512Z</time>
      </trkpt>
      <trkpt lat="63.20817" lon="8.04789">
        <ele>43.892543</ele>
        <time>2020-07-15T12:11:38.701Z</time>
      </trkpt>
      <trkpt lat="63.2082" lon="8.04794">
        <ele>43.953485</ele>
        <time>2020-07-15T12:11:39.898Z</time>
      </trkpt>
      <trkpt lat="63.2085" lon="8.04854">
        <ele>44.629933</ele>
        <time>2020-07-15T12:11:48.575Z</time>
      </trkpt>
      <trkpt lat="63.20879" lon="8.0491">
        <ele>44.697115</ele>
        <time>2020-07-15T12:11:56.501Z</time>
      </trkpt>
      <trkpt lat="63.20876" lon="8.04922">
        <ele>44.695421</ele>
        <time>2020-07-15T12:11:57.860Z</time>
      </trkpt>
      <trkpt lat="63.20913" lon="8.04986">
        <ele>44.681782</ele>
        <time>2020-07-15T12:12:06.496Z</time>
      </trkpt>
      <trkpt lat="63.20918" lon="8.04995">
        <ele>44.679963</ele>
        <time>2020-07-15T12:12:07.430Z</time>
      </trkpt>
      <trkpt lat="63.20988" lon="8.05122">
        <ele>44.650665</ele>
        <time>2020-07-15T12:12:22.354Z</time>
      </trkpt>
      <trkpt lat="63.21055" lon="8.05265">
        <ele>44.555298</ele>
        <time>2020-07-15T12:12:37.184Z</time>
      </trkpt>
      <trkpt lat="63.2107" lon="8.05304">
        <ele>44.531464</ele>
        <time>2020-07-15T12:12:41.228Z</time>
      </trkpt>
      <trkpt lat="63.21079" lon="8.05326">
        <ele>44.517817</ele>
        <time>2020-07-15T12:12:43.711Z</time>
      </trkpt>
      <trkpt lat="63.21152" lon="8.05546">
        <ele>45.794689</ele>
        <time>2020-07-15T12:13:09.098Z</time>
      </trkpt>
      <trkpt lat="63.21203" lon="8.05746">
        <ele>47.588843</ele>
        <time>2020-07-15T12:13:34.790Z</time>
      </trkpt>
      <trkpt lat="63.21267" lon="8.06033">
        <ele>52.65832</ele>
        <time>2020-07-15T12:14:16.284Z</time>
      </trkpt>
      <trkpt lat="63.21378" lon="8.06515">
        <ele>63.049982</ele>
        <time>2020-07-15T12:15:35.516Z</time>
      </trkpt>
      <trkpt lat="63.214" lon="8.06608">
        <ele>64.795176</ele>
        <time>2020-07-15T12:15:50.389Z</time>
      </trkpt>
      <trkpt lat="63.21404" lon="8.06625">
        <ele>65.123096</ele>
        <time>2020-07-15T12:15:53.041Z</time>
      </trkpt>
      <trkpt lat="63.21422" lon="8.06708">
        <ele>66.667216</ele>
        <time>2020-07-15T12:16:05.519Z</time>
      </trkpt>
      <trkpt lat="63.21442" lon="8.06812">
        <ele>68.578383</ele>
        <time>2020-07-15T12:16:20.319Z</time>
      </trkpt>
      <trkpt lat="63.21566" lon="8.0748">
        <ele>72.067022</ele>
        <time>2020-07-15T12:17:32.752Z</time>
      </trkpt>
      <trkpt lat="63.21582" lon="8.07568">
        <ele>71.912809</ele>
        <time>2020-07-15T12:17:38.711Z</time>
      </trkpt>
      <trkpt lat="63.21593" lon="8.07624">
        <ele>70.747677</ele>
        <time>2020-07-15T12:17:42.264Z</time>
      </trkpt>
      <trkpt lat="63.21607" lon="8.07694">
        <ele>69.260145</ele>
        <time>2020-07-15T12:17:46.660Z</time>
      </trkpt>
      <trkpt lat="63.21674" lon="8.08018">
        <ele>62.095835</ele>
        <time>2020-07-15T12:18:05.963Z</time>
      </trkpt>
      <trkpt lat="63.21691" lon="8.08105">
        <ele>60.009033</ele>
        <time>2020-07-15T12:18:11.204Z</time>
      </trkpt>
      <trkpt lat="63.21716" lon="8.08226">
        <ele>57.09066</ele>
        <time>2020-07-15T12:18:18.578Z</time>
      </trkpt>
      <trkpt lat="63.2176" lon="8.08506">
        <ele>51.098768</ele>
        <time>2020-07-15T12:18:34.969Z</time>
      </trkpt>
      <trkpt lat="63.21793" lon="8.08754">
        <ele>46.546393</ele>
        <time>2020-07-15T12:18:49.590Z</time>
      </trkpt>
      <trkpt lat="63.21804" lon="8.08832">
        <ele>45.449477</ele>
        <time>2020-07-15T12:18:54.297Z</time>
      </trkpt>
      <trkpt lat="63.2183" lon="8.08979">
        <ele>43.304974</ele>
        <time>2020-07-15T12:19:03.880Z</time>
      </trkpt>
      <trkpt lat="63.21861" lon="8.09106">
        <ele>42.117789</ele>
        <time>2020-07-15T12:19:13.327Z</time>
      </trkpt>
      <trkpt lat="63.2201" lon="8.09684">
        <ele>40.301716</ele>
        <time>2020-07-15T12:20:02.989Z</time>
      </trkpt>
      <trkpt lat="63.22086" lon="8.09949">
        <ele>40.073052</ele>
        <time>2020-07-15T12:20:27.706Z</time>
      </trkpt>
      <trkpt lat="63.22166" lon="8.10173">
        <ele>39.988656</ele>
        <time>2020-07-15T12:20:50.592Z</time>
      </trkpt>
      <trkpt lat="63.22387" lon="8.10701">
        <ele>39.892681</ele>
        <time>2020-07-15T12:21:48.129Z</time>
      </trkpt>
      <trkpt lat="63.22436" lon="8.10848">
        <ele>39.871381</ele>
        <time>2020-07-15T12:22:02.813Z</time>
      </trkpt>
      <trkpt lat="63.22483" lon="8.11032">
        <ele>39.854998</ele>
        <time>2020-07-15T12:22:19.885Z</time>
      </trkpt>
      <trkpt lat="63.2254" lon="8.11283">
        <ele>39.858693</ele>
        <time>2020-07-15T12:22:42.474Z</time>
      </trkpt>
      <trkpt lat="63.22552" lon="8.11343">
        <ele>39.844316</ele>
        <time>2020-07-15T12:22:47.749Z</time>
      </trkpt>
      <trkpt lat="63.2257" lon="8.11453">
        <ele>39.685931</ele>
        <time>2020-07-15T12:22:57.198Z</time>
      </trkpt>
      <trkpt lat="63.22582" lon="8.11567">
        <ele>39.527493</ele>
        <time>2020-07-15T12:23:06.445Z</time>
      </trkpt>
      <trkpt lat="63.22584" lon="8.11589">
        <ele>39.498169</ele>
        <time>2020-07-15T12:23:08.117Z</time>
      </trkpt>
      <trkpt lat="63.22587" lon="8.1163">
        <ele>39.441969</ele>
        <time>2020-07-15T12:23:11.244Z</time>
      </trkpt>
      <trkpt lat="63.2259" lon="8.11779">
        <ele>38.752973</ele>
        <time>2020-07-15T12:23:22.053Z</time>
      </trkpt>
      <trkpt lat="63.22587" lon="8.11893">
        <ele>37.668839</ele>
        <time>2020-07-15T12:23:29.856Z</time>
      </trkpt>
      <trkpt lat="63.22519" lon="8.1275">
        <ele>29.221366</ele>
        <time>2020-07-15T12:24:23.501Z</time>
      </trkpt>
      <trkpt lat="63.22504" lon="8.12923">
        <ele>27.725316</ele>
        <time>2020-07-15T12:24:34.552Z</time>
      </trkpt>
      <trkpt lat="63.22501" lon="8.1295">
        <ele>27.806438</ele>
        <time>2020-07-15T12:24:36.269Z</time>
      </trkpt>
      <trkpt lat="63.22488" lon="8.13012">
        <ele>28.012807</ele>
        <time>2020-07-15T12:24:41.166Z</time>
      </trkpt>
      <trkpt lat="63.22469" lon="8.13053">
        <ele>28.189715</ele>
        <time>2020-07-15T12:24:45.782Z</time>
      </trkpt>
      <trkpt lat="63.22456" lon="8.1307">
        <ele>28.289991</ele>
        <time>2020-07-15T12:24:48.251Z</time>
      </trkpt>
      <trkpt lat="63.22453" lon="8.13074">
        <ele>28.316223</ele>
        <time>2020-07-15T12:24:49.030Z</time>
      </trkpt>
      <trkpt lat="63.22449" lon="8.13078">
        <ele>28.341804</ele>
        <time>2020-07-15T12:24:49.803Z</time>
      </trkpt>
      <trkpt lat="63.22446" lon="8.13081">
        <ele>28.367027</ele>
        <time>2020-07-15T12:24:50.709Z</time>
      </trkpt>
      <trkpt lat="63.22413" lon="8.13107">
        <ele>28.599417</ele>
        <time>2020-07-15T12:24:58.384Z</time>
      </trkpt>
      <trkpt lat="63.22312" lon="8.13183">
        <ele>32.715484</ele>
        <time>2020-07-15T12:25:30.394Z</time>
      </trkpt>
      <trkpt lat="63.22224" lon="8.13244">
        <ele>37.901183</ele>
        <time>2020-07-15T12:26:05.667Z</time>
      </trkpt>
      <trkpt lat="63.21967" lon="8.13387">
        <ele>57.838826</ele>
        <time>2020-07-15T12:28:04.155Z</time>
      </trkpt>
      <trkpt lat="63.21929" lon="8.13425">
        <ele>60.36397</ele>
        <time>2020-07-15T12:28:21.996Z</time>
      </trkpt>
      <trkpt lat="63.21908" lon="8.1347">
        <ele>62.166995</ele>
        <time>2020-07-15T12:28:32.504Z</time>
      </trkpt>
      <trkpt lat="63.21903" lon="8.13487">
        <ele>62.711764</ele>
        <time>2020-07-15T12:28:36.909Z</time>
      </trkpt>
      <trkpt lat="63.21899" lon="8.13504">
        <ele>63.258738</ele>
        <time>2020-07-15T12:28:40.241Z</time>
      </trkpt>
      <trkpt lat="63.21891" lon="8.13555">
        <ele>64.745445</ele>
        <time>2020-07-15T12:28:46.538Z</time>
      </trkpt>
      <trkpt lat="63.21892" lon="8.13619">
        <ele>63.818123</ele>
        <time>2020-07-15T12:28:50.835Z</time>
      </trkpt>
      <trkpt lat="63.21899" lon="8.13673">
        <ele>62.84746</ele>
        <time>2020-07-15T12:28:54.813Z</time>
      </trkpt>
      <trkpt lat="63.21931" lon="8.13813">
        <ele>60.148723</ele>
        <time>2020-07-15T12:29:03.582Z</time>
      </trkpt>
      <trkpt lat="63.21934" lon="8.13838">
        <ele>59.704225</ele>
        <time>2020-07-15T12:29:04.988Z</time>
      </trkpt>
      <trkpt lat="63.21935" lon="8.13854">
        <ele>59.426174</ele>
        <time>2020-07-15T12:29:05.808Z</time>
      </trkpt>
      <trkpt lat="63.21936" lon="8.13868">
        <ele>59.184526</ele>
        <time>2020-07-15T12:29:06.498Z</time>
      </trkpt>
      <trkpt lat="63.21936" lon="8.1388">
        <ele>58.966003</ele>
        <time>2020-07-15T12:29:07.081Z</time>
      </trkpt>
      <trkpt lat="63.21931" lon="8.13939">
        <ele>57.938122</ele>
        <time>2020-07-15T12:29:10.240Z</time>
      </trkpt>
      <trkpt lat="63.21921" lon="8.13983">
        <ele>56.791572</ele>
        <time>2020-07-15T12:29:12.691Z</time>
      </trkpt>
      <trkpt lat="63.21891" lon="8.14048">
        <ele>54.590489</ele>
        <time>2020-07-15T12:29:17.524Z</time>
      </trkpt>
      <trkpt lat="63.21879" lon="8.14061">
        <ele>53.892403</ele>
        <time>2020-07-15T12:29:18.966Z</time>
      </trkpt>
      <trkpt lat="63.21872" lon="8.14067">
        <ele>53.505905</ele>
        <time>2020-07-15T12:29:19.799Z</time>
      </trkpt>
      <trkpt lat="63.21843" lon="8.14076">
        <ele>51.95046</ele>
        <time>2020-07-15T12:29:23.203Z</time>
      </trkpt>
      <trkpt lat="63.21811" lon="8.14062">
        <ele>50.268333</ele>
        <time>2020-07-15T12:29:27.383Z</time>
      </trkpt>
      <trkpt lat="63.21656" lon="8.13896">
        <ele>50.078149</ele>
        <time>2020-07-15T12:30:03.237Z</time>
      </trkpt>
      <trkpt lat="63.21594" lon="8.13867">
        <ele>50.732763</ele>
        <time>2020-07-15T12:30:19.344Z</time>
      </trkpt>
      <trkpt lat="63.21589" lon="8.13868">
        <ele>50.78299</ele>
        <time>2020-07-15T12:30:20.958Z</time>
      </trkpt>
      <trkpt lat="63.21583" lon="8.13867">
        <ele>50.843084</ele>
        <time>2020-07-15T12:30:22.445Z</time>
      </trkpt>
      <trkpt lat="63.21565" lon="8.13868">
        <ele>51.021029</ele>
        <time>2020-07-15T12:30:26.604Z</time>
      </trkpt>
      <trkpt lat="63.21545" lon="8.13869">
        <ele>51.212733</ele>
        <time>2020-07-15T12:30:31.722Z</time>
      </trkpt>
      <trkpt lat="63.21508" lon="8.13854">
        <ele>51.58036</ele>
        <time>2020-07-15T12:30:40.745Z</time>
      </trkpt>
      <trkpt lat="63.21433" lon="8.13782">
        <ele>51.911598</ele>
        <time>2020-07-15T12:30:54.658Z</time>
      </trkpt>
      <trkpt lat="63.21404" lon="8.13777">
        <ele>51.015679</ele>
        <time>2020-07-15T12:30:58.889Z</time>
      </trkpt>
      <trkpt lat="63.21369" lon="8.13793">
        <ele>49.906881</ele>
        <time>2020-07-15T12:31:03.667Z</time>
      </trkpt>
      <trkpt lat="63.21351" lon="8.13811">
        <ele>49.312476</ele>
        <time>2020-07-15T12:31:06.206Z</time>
      </trkpt>
      <trkpt lat="63.21348" lon="8.13813">
        <ele>49.22714</ele>
        <time>2020-07-15T12:31:06.567Z</time>
      </trkpt>
      <trkpt lat="63.21327" lon="8.1384">
        <ele>48.483014</ele>
        <time>2020-07-15T12:31:09.602Z</time>
      </trkpt>
      <trkpt lat="63.21237" lon="8.13961">
        <ele>44.973161</ele>
        <time>2020-07-15T12:31:22.696Z</time>
      </trkpt>
      <trkpt lat="63.2116" lon="8.14067">
        <ele>41.658815</ele>
        <time>2020-07-15T12:31:34.277Z</time>
      </trkpt>
      <trkpt lat="63.21104" lon="8.14153">
        <ele>39.568136</ele>
        <time>2020-07-15T12:31:43.339Z</time>
      </trkpt>
      <trkpt lat="63.21079" lon="8.14204">
        <ele>38.799667</ele>
        <time>2020-07-15T12:31:48.010Z</time>
      </trkpt>
      <trkpt lat="63.21073" lon="8.14221">
        <ele>38.579487</ele>
        <time>2020-07-15T12:31:49.351Z</time>
      </trkpt>
      <trkpt lat="63.21068" lon="8.14232">
        <ele>38.424413</ele>
        <time>2020-07-15T12:31:50.298Z</time>
      </trkpt>
      <trkpt lat="63.2105" lon="8.14279">
        <ele>37.786947</ele>
        <time>2020-07-15T12:31:54.203Z</time>
      </trkpt>
      <trkpt lat="63.21028" lon="8.14336">
        <ele>37.018349</ele>
        <time>2020-07-15T12:31:58.920Z</time>
      </trkpt>
      <trkpt lat="63.20982" lon="8.1443">
        <ele>35.716006</ele>
        <time>2020-07-15T12:32:07.803Z</time>
      </trkpt>
      <trkpt lat="63.20944" lon="8.14479">
        <ele>34.938683</ele>
        <time>2020-07-15T12:32:14.222Z</time>
      </trkpt>
      <trkpt lat="63.20903" lon="8.14509">
        <ele>34.193157</ele>
        <time>2020-07-15T12:32:20.604Z</time>
      </trkpt>
      <trkpt lat="63.20819" lon="8.1455">
        <ele>32.309761</ele>
        <time>2020-07-15T12:32:33.427Z</time>
      </trkpt>
      <trkpt lat="63.20755" lon="8.14608">
        <ele>29.522716</ele>
        <time>2020-07-15T12:32:42.274Z</time>
      </trkpt>
      <trkpt lat="63.20743" lon="8.14624">
        <ele>28.968747</ele>
        <time>2020-07-15T12:32:44.063Z</time>
      </trkpt>
      <trkpt lat="63.20739" lon="8.1463">
        <ele>28.770459</ele>
        <time>2020-07-15T12:32:44.600Z</time>
      </trkpt>
      <trkpt lat="63.20705" lon="8.14692">
        <ele>27.020807</ele>
        <time>2020-07-15T12:32:50.024Z</time>
      </trkpt>
      <trkpt lat="63.20694" lon="8.14717">
        <ele>26.381761</ele>
        <time>2020-07-15T12:32:52.039Z</time>
      </trkpt>
      <trkpt lat="63.20682" lon="8.1475">
        <ele>25.568605</ele>
        <time>2020-07-15T12:32:54.222Z</time>
      </trkpt>
      <trkpt lat="63.20618" lon="8.14997">
        <ele>18.759797</ele>
        <time>2020-07-15T12:33:09.365Z</time>
      </trkpt>
      <trkpt lat="63.20614" lon="8.15008">
        <ele>18.407953</ele>
        <time>2020-07-15T12:33:10.101Z</time>
      </trkpt>
      <trkpt lat="63.20594" lon="8.1506">
        <ele>16.783325</ele>
        <time>2020-07-15T12:33:14.040Z</time>
      </trkpt>
      <trkpt lat="63.20592" lon="8.15066">
        <ele>16.615169</ele>
        <time>2020-07-15T12:33:14.414Z</time>
      </trkpt>
      <trkpt lat="63.2059" lon="8.15082">
        <ele>16.210645</ele>
        <time>2020-07-15T12:33:15.405Z</time>
      </trkpt>
      <trkpt lat="63.20589" lon="8.15095">
        <ele>16.036686</ele>
        <time>2020-07-15T12:33:16.110Z</time>
      </trkpt>
      <trkpt lat="63.20614" lon="8.15468">
        <ele>10.68063</ele>
        <time>2020-07-15T12:33:38.920Z</time>
      </trkpt>
      <trkpt lat="63.20617" lon="8.155">
        <ele>10.274528</ele>
        <time>2020-07-15T12:33:40.772Z</time>
      </trkpt>
      <trkpt lat="63.20618" lon="8.15507">
        <ele>10.189608</ele>
        <time>2020-07-15T12:33:41.170Z</time>
      </trkpt>
      <trkpt lat="63.20626" lon="8.15564">
        <ele>9.478183</ele>
        <time>2020-07-15T12:33:44.751Z</time>
      </trkpt>
      <trkpt lat="63.20633" lon="8.15603">
        <ele>8.978001</ele>
        <time>2020-07-15T12:33:47.159Z</time>
      </trkpt>
      <trkpt lat="63.20639" lon="8.15641">
        <ele>8.483753</ele>
        <time>2020-07-15T12:33:49.530Z</time>
      </trkpt>
      <trkpt lat="63.20646" lon="8.15673">
        <ele>8.061218</ele>
        <time>2020-07-15T12:33:51.590Z</time>
      </trkpt>
      <trkpt lat="63.20664" lon="8.15751">
        <ele>7.012148</ele>
        <time>2020-07-15T12:33:56.865Z</time>
      </trkpt>
      <trkpt lat="63.20671" lon="8.15777">
        <ele>6.646466</ele>
        <time>2020-07-15T12:33:58.728Z</time>
      </trkpt>
      <trkpt lat="63.20673" lon="8.15785">
        <ele>6.531525</ele>
        <time>2020-07-15T12:33:59.238Z</time>
      </trkpt>
      <trkpt lat="63.20699" lon="8.15867">
        <ele>6.189048</ele>
        <time>2020-07-15T12:34:05.625Z</time>
      </trkpt>
      <trkpt lat="63.20717" lon="8.15916">
        <ele>6.904948</ele>
        <time>2020-07-15T12:34:09.788Z</time>
      </trkpt>
      <trkpt lat="63.20923" lon="8.16441">
        <ele>18.97612</ele>
        <time>2020-07-15T12:35:48.742Z</time>
      </trkpt>
      <trkpt lat="63.20934" lon="8.16469">
        <ele>20.133705</ele>
        <time>2020-07-15T12:35:57.619Z</time>
      </trkpt>
      <trkpt lat="63.20988" lon="8.16605">
        <ele>25.703951</ele>
        <time>2020-07-15T12:36:33.634Z</time>
      </trkpt>
      <trkpt lat="63.20996" lon="8.16626">
        <ele>26.552613</ele>
        <time>2020-07-15T12:36:38.682Z</time>
      </trkpt>
      <trkpt lat="63.21015" lon="8.16676">
        <ele>28.549048</ele>
        <time>2020-07-15T12:36:51.312Z</time>
      </trkpt>
      <trkpt lat="63.2106" lon="8.16838">
        <ele>31.748104</ele>
        <time>2020-07-15T12:37:21.441Z</time>
      </trkpt>
      <trkpt lat="63.21095" lon="8.17034">
        <ele>32.644957</ele>
        <time>2020-07-15T12:37:39.041Z</time>
      </trkpt>
      <trkpt lat="63.21108" lon="8.17232">
        <ele>31.118414</ele>
        <time>2020-07-15T12:37:51.074Z</time>
      </trkpt>
      <trkpt lat="63.21108" lon="8.17502">
        <ele>26.54134</ele>
        <time>2020-07-15T12:38:06.134Z</time>
      </trkpt>
      <trkpt lat="63.21113" lon="8.17607">
        <ele>25.361548</ele>
        <time>2020-07-15T12:38:12.104Z</time>
      </trkpt>
      <trkpt lat="63.21132" lon="8.17734">
        <ele>24.003716</ele>
        <time>2020-07-15T12:38:20.124Z</time>
      </trkpt>
      <trkpt lat="63.2116" lon="8.17836">
        <ele>22.805297</ele>
        <time>2020-07-15T12:38:27.867Z</time>
      </trkpt>
      <trkpt lat="63.21171" lon="8.17867">
        <ele>22.411</ele>
        <time>2020-07-15T12:38:30.561Z</time>
      </trkpt>
      <trkpt lat="63.21179" lon="8.1789">
        <ele>22.350772</ele>
        <time>2020-07-15T12:38:32.707Z</time>
      </trkpt>
      <trkpt lat="63.21298" lon="8.18172">
        <ele>26.23806</ele>
        <time>2020-07-15T12:39:17.658Z</time>
      </trkpt>
      <trkpt lat="63.21306" lon="8.18192">
        <ele>26.699036</ele>
        <time>2020-07-15T12:39:21.797Z</time>
      </trkpt>
      <trkpt lat="63.21333" lon="8.18256">
        <ele>28.238495</ele>
        <time>2020-07-15T12:39:34.485Z</time>
      </trkpt>
      <trkpt lat="63.21385" lon="8.18402">
        <ele>31.457247</ele>
        <time>2020-07-15T12:40:01.271Z</time>
      </trkpt>
      <trkpt lat="63.21436" lon="8.1859">
        <ele>34.245316</ele>
        <time>2020-07-15T12:40:29.490Z</time>
      </trkpt>
      <trkpt lat="63.21458" lon="8.18695">
        <ele>35.281428</ele>
        <time>2020-07-15T12:40:41.680Z</time>
      </trkpt>
      <trkpt lat="63.21485" lon="8.1886">
        <ele>36.797995</ele>
        <time>2020-07-15T12:40:58.476Z</time>
      </trkpt>
      <trkpt lat="63.21523" lon="8.19216">
        <ele>38.55106</ele>
        <time>2020-07-15T12:41:31.726Z</time>
      </trkpt>
      <trkpt lat="63.21547" lon="8.19305">
        <ele>40.408096</ele>
        <time>2020-07-15T12:41:43.839Z</time>
      </trkpt>
      <trkpt lat="63.21577" lon="8.19355">
        <ele>42.169908</ele>
        <time>2020-07-15T12:41:54.647Z</time>
      </trkpt>
      <trkpt lat="63.21595" lon="8.19372">
        <ele>43.077111</ele>
        <time>2020-07-15T12:42:00.549Z</time>
      </trkpt>
      <trkpt lat="63.21612" lon="8.19379">
        <ele>43.88691</ele>
        <time>2020-07-15T12:42:06.562Z</time>
      </trkpt>
      <trkpt lat="63.217" lon="8.19379">
        <ele>49.04831</ele>
        <time>2020-07-15T12:42:41.090Z</time>
      </trkpt>
      <trkpt lat="63.21726" lon="8.19398">
        <ele>51.731738</ele>
        <time>2020-07-15T12:42:53.608Z</time>
      </trkpt>
      <trkpt lat="63.21746" lon="8.19428">
        <ele>54.149525</ele>
        <time>2020-07-15T12:43:05.394Z</time>
      </trkpt>
      <trkpt lat="63.21766" lon="8.19489">
        <ele>57.533178</ele>
        <time>2020-07-15T12:43:24.067Z</time>
      </trkpt>
      <trkpt lat="63.21791" lon="8.19665">
        <ele>65.695154</ele>
        <time>2020-07-15T12:44:08.530Z</time>
      </trkpt>
      <trkpt lat="63.21808" lon="8.19746">
        <ele>69.288612</ele>
        <time>2020-07-15T12:44:29.749Z</time>
      </trkpt>
      <trkpt lat="63.21817" lon="8.19779">
        <ele>70.856606</ele>
        <time>2020-07-15T12:44:40.014Z</time>
      </trkpt>
      <trkpt lat="63.21901" lon="8.20062">
        <ele>81.778539</ele>
        <time>2020-07-15T12:45:45.546Z</time>
      </trkpt>
      <trkpt lat="63.21943" lon="8.20217">
        <ele>83.407445</ele>
        <time>2020-07-15T12:46:04.799Z</time>
      </trkpt>
      <trkpt lat="63.21969" lon="8.20349">
        <ele>84.354483</ele>
        <time>2020-07-15T12:46:15.122Z</time>
      </trkpt>
      <trkpt lat="63.22013" lon="8.20765">
        <ele>74.206784</ele>
        <time>2020-07-15T12:46:38.478Z</time>
      </trkpt>
      <trkpt lat="63.22034" lon="8.20875">
        <ele>68.974071</ele>
        <time>2020-07-15T12:46:44.429Z</time>
      </trkpt>
      <trkpt lat="63.22045" lon="8.20923">
        <ele>66.631197</ele>
        <time>2020-07-15T12:46:47.049Z</time>
      </trkpt>
      <trkpt lat="63.22075" lon="8.21061">
        <ele>59.909134</ele>
        <time>2020-07-15T12:46:54.466Z</time>
      </trkpt>
      <trkpt lat="63.22116" lon="8.21215">
        <ele>51.150727</ele>
        <time>2020-07-15T12:47:03.043Z</time>
      </trkpt>
      <trkpt lat="63.22152" lon="8.21282">
        <ele>45.96391</ele>
        <time>2020-07-15T12:47:08.079Z</time>
      </trkpt>
      <trkpt lat="63.22161" lon="8.21291">
        <ele>44.861084</ele>
        <time>2020-07-15T12:47:09.112Z</time>
      </trkpt>
      <trkpt lat="63.22175" lon="8.21303">
        <ele>43.188159</ele>
        <time>2020-07-15T12:47:10.781Z</time>
      </trkpt>
      <trkpt lat="63.22193" lon="8.21313">
        <ele>41.133603</ele>
        <time>2020-07-15T12:47:12.822Z</time>
      </trkpt>
      <trkpt lat="63.22209" lon="8.21318">
        <ele>39.341694</ele>
        <time>2020-07-15T12:47:14.614Z</time>
      </trkpt>
      <trkpt lat="63.2222" lon="8.21322">
        <ele>38.218864</ele>
        <time>2020-07-15T12:47:15.895Z</time>
      </trkpt>
      <trkpt lat="63.22244" lon="8.21328">
        <ele>36.36505</ele>
        <time>2020-07-15T12:47:18.548Z</time>
      </trkpt>
      <trkpt lat="63.22282" lon="8.21339">
        <ele>33.46994</ele>
        <time>2020-07-15T12:47:22.766Z</time>
      </trkpt>
      <trkpt lat="63.2235" lon="8.2137">
        <ele>28.159009</ele>
        <time>2020-07-15T12:47:30.689Z</time>
      </trkpt>
      <trkpt lat="63.22365" lon="8.2138">
        <ele>26.965916</ele>
        <time>2020-07-15T12:47:32.508Z</time>
      </trkpt>
      <trkpt lat="63.2239" lon="8.214">
        <ele>24.944399</ele>
        <time>2020-07-15T12:47:35.672Z</time>
      </trkpt>
      <trkpt lat="63.2241" lon="8.21419">
        <ele>23.895751</ele>
        <time>2020-07-15T12:47:38.320Z</time>
      </trkpt>
      <trkpt lat="63.2243" lon="8.21438">
        <ele>22.925416</ele>
        <time>2020-07-15T12:47:40.848Z</time>
      </trkpt>
      <trkpt lat="63.22448" lon="8.2146">
        <ele>21.953969</ele>
        <time>2020-07-15T12:47:43.475Z</time>
      </trkpt>
      <trkpt lat="63.22524" lon="8.21576">
        <ele>17.71564</ele>
        <time>2020-07-15T12:47:54.814Z</time>
      </trkpt>
      <trkpt lat="63.22563" lon="8.21662">
        <ele>15.628415</ele>
        <time>2020-07-15T12:48:01.878Z</time>
      </trkpt>
      <trkpt lat="63.22592" lon="8.21741">
        <ele>14.224884</ele>
        <time>2020-07-15T12:48:07.906Z</time>
      </trkpt>
      <trkpt lat="63.22665" lon="8.22027">
        <ele>10.303739</ele>
        <time>2020-07-15T12:48:27.717Z</time>
      </trkpt>
      <trkpt lat="63.22675" lon="8.22103">
        <ele>9.729864</ele>
        <time>2020-07-15T12:48:32.847Z</time>
      </trkpt>
      <trkpt lat="63.22675" lon="8.22163">
        <ele>9.298714</ele>
        <time>2020-07-15T12:48:36.860Z</time>
      </trkpt>
      <trkpt lat="63.22672" lon="8.22208">
        <ele>8.968533</ele>
        <time>2020-07-15T12:48:39.875Z</time>
      </trkpt>
      <trkpt lat="63.22661" lon="8.22287">
        <ele>8.373487</ele>
        <time>2020-07-15T12:48:45.695Z</time>
      </trkpt>
      <trkpt lat="63.22653" lon="8.22386">
        <ele>8.041479</ele>
        <time>2020-07-15T12:48:53.278Z</time>
      </trkpt>
      <trkpt lat="63.22655" lon="8.22477">
        <ele>7.940535</ele>
        <time>2020-07-15T12:49:00.096Z</time>
      </trkpt>
      <trkpt lat="63.22672" lon="8.22592">
        <ele>7.805975</ele>
        <time>2020-07-15T12:49:10.436Z</time>
      </trkpt>
      <trkpt lat="63.22699" lon="8.22684">
        <ele>7.683514</ele>
        <time>2020-07-15T12:49:19.289Z</time>
      </trkpt>
      <trkpt lat="63.2271" lon="8.22714">
        <ele>7.474207</ele>
        <time>2020-07-15T12:49:22.298Z</time>
      </trkpt>
      <trkpt lat="63.22729" lon="8.22771">
        <ele>6.954236</ele>
        <time>2020-07-15T12:49:27.315Z</time>
      </trkpt>
      <trkpt lat="63.22762" lon="8.22886">
        <ele>5.969359</ele>
        <time>2020-07-15T12:49:35.938Z</time>
      </trkpt>
      <trkpt lat="63.2277" lon="8.22928">
        <ele>5.63038</ele>
        <time>2020-07-15T12:49:39.027Z</time>
      </trkpt>
      <trkpt lat="63.22774" lon="8.22952">
        <ele>5.447707</ele>
        <time>2020-07-15T12:49:40.431Z</time>
      </trkpt>
      <trkpt lat="63.22792" lon="8.23131">
        <ele>4.027974</ele>
        <time>2020-07-15T12:49:52.101Z</time>
      </trkpt>
      <trkpt lat="63.22793" lon="8.23177">
        <ele>3.648698</ele>
        <time>2020-07-15T12:49:54.840Z</time>
      </trkpt>
      <trkpt lat="63.22793" lon="8.23205">
        <ele>3.414809</ele>
        <time>2020-07-15T12:49:56.632Z</time>
      </trkpt>
      <trkpt lat="63.22789" lon="8.23293">
        <ele>2.686752</ele>
        <time>2020-07-15T12:50:02.010Z</time>
      </trkpt>
      <trkpt lat="63.22779" lon="8.23394">
        <ele>1.834689</ele>
        <time>2020-07-15T12:50:08.607Z</time>
      </trkpt>
      <trkpt lat="63.22697" lon="8.24022">
        <ele>4.230374</ele>
        <time>2020-07-15T12:51:03.993Z</time>
      </trkpt>
      <trkpt lat="63.22691" lon="8.24115">
        <ele>5.382028</ele>
        <time>2020-07-15T12:51:15.839Z</time>
      </trkpt>
      <trkpt lat="63.22691" lon="8.24208">
        <ele>6.532564</ele>
        <time>2020-07-15T12:51:31.879Z</time>
      </trkpt>
      <trkpt lat="63.22692" lon="8.24244">
        <ele>7.61585</ele>
        <time>2020-07-15T12:51:37.902Z</time>
      </trkpt>
      <trkpt lat="63.22693" lon="8.24262">
        <ele>8.208415</ele>
        <time>2020-07-15T12:51:42.829Z</time>
      </trkpt>
      <trkpt lat="63.22715" lon="8.24434">
        <ele>13.901903</ele>
        <time>2020-07-15T12:52:17.091Z</time>
      </trkpt>
      <trkpt lat="63.22723" lon="8.24471">
        <ele>15.192316</ele>
        <time>2020-07-15T12:52:24.399Z</time>
      </trkpt>
      <trkpt lat="63.22734" lon="8.24518">
        <ele>16.881532</ele>
        <time>2020-07-15T12:52:35.589Z</time>
      </trkpt>
      <trkpt lat="63.22772" lon="8.24632">
        <ele>19.707464</ele>
        <time>2020-07-15T12:53:00.899Z</time>
      </trkpt>
      <trkpt lat="63.22867" lon="8.24842">
        <ele>21.700963</ele>
        <time>2020-07-15T12:53:30.956Z</time>
      </trkpt>
      <trkpt lat="63.22901" lon="8.24959">
        <ele>19.157091</ele>
        <time>2020-07-15T12:53:38.550Z</time>
      </trkpt>
      <trkpt lat="63.22918" lon="8.25045">
        <ele>16.656518</ele>
        <time>2020-07-15T12:53:43.361Z</time>
      </trkpt>
      <trkpt lat="63.22927" lon="8.2511">
        <ele>14.839932</ele>
        <time>2020-07-15T12:53:46.819Z</time>
      </trkpt>
      <trkpt lat="63.22932" lon="8.25159">
        <ele>13.500443</ele>
        <time>2020-07-15T12:53:49.378Z</time>
      </trkpt>
      <trkpt lat="63.22948" lon="8.25307">
        <ele>10.971129</ele>
        <time>2020-07-15T12:53:57.355Z</time>
      </trkpt>
      <trkpt lat="63.2295" lon="8.2532">
        <ele>10.910675</ele>
        <time>2020-07-15T12:53:58.002Z</time>
      </trkpt>
      <trkpt lat="63.22951" lon="8.25329">
        <ele>10.868279</ele>
        <time>2020-07-15T12:53:58.528Z</time>
      </trkpt>
      <trkpt lat="63.22995" lon="8.2561">
        <ele>9.541047</ele>
        <time>2020-07-15T12:54:20.282Z</time>
      </trkpt>
      <trkpt lat="63.23043" lon="8.25823">
        <ele>19.770297</ele>
        <time>2020-07-15T12:55:12.435Z</time>
      </trkpt>
      <trkpt lat="63.23057" lon="8.25873">
        <ele>22.381554</ele>
        <time>2020-07-15T12:55:26.330Z</time>
      </trkpt>
      <trkpt lat="63.23063" lon="8.25896">
        <ele>23.558433</ele>
        <time>2020-07-15T12:55:34.485Z</time>
      </trkpt>
      <trkpt lat="63.2313" lon="8.26128">
        <ele>36.667148</ele>
        <time>2020-07-15T12:56:51.011Z</time>
      </trkpt>
      <trkpt lat="63.23186" lon="8.26367">
        <ele>47.97674</ele>
        <time>2020-07-15T12:57:46.904Z</time>
      </trkpt>
      <trkpt lat="63.23195" lon="8.26397">
        <ele>48.62873</ele>
        <time>2020-07-15T12:57:53.613Z</time>
      </trkpt>
      <trkpt lat="63.232" lon="8.26414">
        <ele>48.980785</ele>
        <time>2020-07-15T12:57:55.884Z</time>
      </trkpt>
      <trkpt lat="63.23247" lon="8.26543">
        <ele>51.987257</ele>
        <time>2020-07-15T12:58:17.738Z</time>
      </trkpt>
      <trkpt lat="63.23285" lon="8.26621">
        <ele>54.044244</ele>
        <time>2020-07-15T12:58:29.971Z</time>
      </trkpt>
      <trkpt lat="63.23316" lon="8.26677">
        <ele>53.688252</ele>
        <time>2020-07-15T12:58:36.903Z</time>
      </trkpt>
      <trkpt lat="63.23319" lon="8.26687">
        <ele>53.631559</ele>
        <time>2020-07-15T12:58:37.949Z</time>
      </trkpt>
      <trkpt lat="63.23453" lon="8.2692">
        <ele>50.662969</ele>
        <time>2020-07-15T12:59:02.707Z</time>
      </trkpt>
      <trkpt lat="63.23457" lon="8.26922">
        <ele>50.469385</ele>
        <time>2020-07-15T12:59:03.282Z</time>
      </trkpt>
      <trkpt lat="63.23506" lon="8.27008">
        <ele>47.58472</ele>
        <time>2020-07-15T12:59:11.117Z</time>
      </trkpt>
      <trkpt lat="63.23586" lon="8.27153">
        <ele>42.046304</ele>
        <time>2020-07-15T12:59:23.130Z</time>
      </trkpt>
      <trkpt lat="63.2363" lon="8.27247">
        <ele>37.399525</ele>
        <time>2020-07-15T12:59:30.040Z</time>
      </trkpt>
      <trkpt lat="63.2365" lon="8.27283">
        <ele>35.409973</ele>
        <time>2020-07-15T12:59:32.983Z</time>
      </trkpt>
      <trkpt lat="63.2368" lon="8.27328">
        <ele>32.671653</ele>
        <time>2020-07-15T12:59:37.019Z</time>
      </trkpt>
      <trkpt lat="63.23713" lon="8.2736">
        <ele>29.939374</ele>
        <time>2020-07-15T12:59:41.028Z</time>
      </trkpt>
      <trkpt lat="63.23838" lon="8.27416">
        <ele>20.294724</ele>
        <time>2020-07-15T12:59:55.491Z</time>
      </trkpt>
      <trkpt lat="63.23872" lon="8.27442">
        <ele>17.602637</ele>
        <time>2020-07-15T12:59:59.541Z</time>
      </trkpt>
      <trkpt lat="63.23919" lon="8.27501">
        <ele>15.348122</ele>
        <time>2020-07-15T13:00:05.791Z</time>
      </trkpt>
      <trkpt lat="63.23959" lon="8.27586">
        <ele>13.556785</ele>
        <time>2020-07-15T13:00:12.937Z</time>
      </trkpt>
      <trkpt lat="63.23971" lon="8.27621">
        <ele>12.92776</ele>
        <time>2020-07-15T13:00:15.384Z</time>
      </trkpt>
      <trkpt lat="63.23982" lon="8.27659">
        <ele>12.288018</ele>
        <time>2020-07-15T13:00:18.682Z</time>
      </trkpt>
      <trkpt lat="63.24059" lon="8.27941">
        <ele>11.518975</ele>
        <time>2020-07-15T13:00:47.233Z</time>
      </trkpt>
      <trkpt lat="63.2416" lon="8.28244">
        <ele>11.613444</ele>
        <time>2020-07-15T13:01:22.745Z</time>
      </trkpt>
      <trkpt lat="63.24224" lon="8.28405">
        <ele>11.08715</ele>
        <time>2020-07-15T13:01:36.769Z</time>
      </trkpt>
      <trkpt lat="63.24254" lon="8.2846">
        <ele>10.373478</ele>
        <time>2020-07-15T13:01:42.067Z</time>
      </trkpt>
      <trkpt lat="63.2429" lon="8.28508">
        <ele>9.592476</ele>
        <time>2020-07-15T13:01:47.881Z</time>
      </trkpt>
      <trkpt lat="63.24299" lon="8.28519">
        <ele>9.397415</ele>
        <time>2020-07-15T13:01:49.199Z</time>
      </trkpt>
      <trkpt lat="63.24331" lon="8.28553">
        <ele>8.746307</ele>
        <time>2020-07-15T13:01:54.206Z</time>
      </trkpt>
      <trkpt lat="63.2436" lon="8.28586">
        <ele>8.139688</ele>
        <time>2020-07-15T13:01:59.135Z</time>
      </trkpt>
      <trkpt lat="63.24403" lon="8.28644">
        <ele>8.477955</ele>
        <time>2020-07-15T13:02:07.103Z</time>
      </trkpt>
      <trkpt lat="63.2446" lon="8.28748">
        <ele>9.344042</ele>
        <time>2020-07-15T13:02:21.905Z</time>
      </trkpt>
      <trkpt lat="63.24508" lon="8.28872">
        <ele>10.485296</ele>
        <time>2020-07-15T13:02:42.329Z</time>
      </trkpt>
      <trkpt lat="63.24537" lon="8.28986">
        <ele>12.943685</ele>
        <time>2020-07-15T13:02:59.989Z</time>
      </trkpt>
      <trkpt lat="63.24548" lon="8.29043">
        <ele>14.108626</ele>
        <time>2020-07-15T13:03:08.824Z</time>
      </trkpt>
      <trkpt lat="63.24554" lon="8.29089">
        <ele>15.012283</ele>
        <time>2020-07-15T13:03:15.837Z</time>
      </trkpt>
      <trkpt lat="63.24572" lon="8.29216">
        <ele>17.504254</ele>
        <time>2020-07-15T13:03:35.330Z</time>
      </trkpt>
      <trkpt lat="63.24608" lon="8.29469">
        <ele>23.229963</ele>
        <time>2020-07-15T13:04:15.903Z</time>
      </trkpt>
      <trkpt lat="63.24651" lon="8.29694">
        <ele>28.085405</ele>
        <time>2020-07-15T13:04:51.777Z</time>
      </trkpt>
      <trkpt lat="63.24772" lon="8.30154">
        <ele>35.861285</ele>
        <time>2020-07-15T13:06:02.294Z</time>
      </trkpt>
      <trkpt lat="63.24876" lon="8.30602">
        <ele>38.295099</ele>
        <time>2020-07-15T13:06:48.086Z</time>
      </trkpt>
      <trkpt lat="63.24889" lon="8.30663">
        <ele>38.351461</ele>
        <time>2020-07-15T13:06:53.035Z</time>
      </trkpt>
      <trkpt lat="63.24928" lon="8.30848">
        <ele>37.33841</ele>
        <time>2020-07-15T13:07:07.343Z</time>
      </trkpt>
      <trkpt lat="63.2496" lon="8.30995">
        <ele>36.533087</ele>
        <time>2020-07-15T13:07:18.206Z</time>
      </trkpt>
      <trkpt lat="63.25023" lon="8.31249">
        <ele>34.410486</ele>
        <time>2020-07-15T13:07:37.239Z</time>
      </trkpt>
      <trkpt lat="63.25105" lon="8.31512">
        <ele>31.32123</ele>
        <time>2020-07-15T13:07:57.864Z</time>
      </trkpt>
      <trkpt lat="63.2513" lon="8.31581">
        <ele>30.337706</ele>
        <time>2020-07-15T13:08:03.203Z</time>
      </trkpt>
      <trkpt lat="63.25156" lon="8.3165">
        <ele>29.336152</ele>
        <time>2020-07-15T13:08:08.564Z</time>
      </trkpt>
      <trkpt lat="63.25173" lon="8.31691">
        <ele>28.6108</ele>
        <time>2020-07-15T13:08:11.874Z</time>
      </trkpt>
      <trkpt lat="63.2519" lon="8.31733">
        <ele>27.710325</ele>
        <time>2020-07-15T13:08:15.167Z</time>
      </trkpt>
      <trkpt lat="63.25205" lon="8.31768">
        <ele>26.947546</ele>
        <time>2020-07-15T13:08:17.866Z</time>
      </trkpt>
      <trkpt lat="63.25275" lon="8.31911">
        <ele>23.622916</ele>
        <time>2020-07-15T13:08:29.943Z</time>
      </trkpt>
      <trkpt lat="63.25309" lon="8.31974">
        <ele>22.372059</ele>
        <time>2020-07-15T13:08:35.776Z</time>
      </trkpt>
      <trkpt lat="63.25328" lon="8.32009">
        <ele>21.927827</ele>
        <time>2020-07-15T13:08:39.157Z</time>
      </trkpt>
      <trkpt lat="63.25353" lon="8.32063">
        <ele>21.301295</ele>
        <time>2020-07-15T13:08:44.033Z</time>
      </trkpt>
      <trkpt lat="63.25371" lon="8.32122">
        <ele>20.717204</ele>
        <time>2020-07-15T13:08:48.666Z</time>
      </trkpt>
      <trkpt lat="63.25384" lon="8.32198">
        <ele>20.0458</ele>
        <time>2020-07-15T13:08:54.116Z</time>
      </trkpt>
      <trkpt lat="63.25389" lon="8.32262">
        <ele>19.517479</ele>
        <time>2020-07-15T13:08:58.723Z</time>
      </trkpt>
      <trkpt lat="63.25383" lon="8.32388">
        <ele>18.874901</ele>
        <time>2020-07-15T13:09:08.393Z</time>
      </trkpt>
      <trkpt lat="63.25352" lon="8.32616">
        <ele>17.732999</ele>
        <time>2020-07-15T13:09:25.097Z</time>
      </trkpt>
      <trkpt lat="63.25337" lon="8.32718">
        <ele>16.83425</ele>
        <time>2020-07-15T13:09:31.960Z</time>
      </trkpt>
      <trkpt lat="63.25335" lon="8.32729">
        <ele>16.711453</ele>
        <time>2020-07-15T13:09:32.576Z</time>
      </trkpt>
      <trkpt lat="63.25331" lon="8.32758">
        <ele>16.375563</ele>
        <time>2020-07-15T13:09:34.523Z</time>
      </trkpt>
      <trkpt lat="63.25322" lon="8.32848">
        <ele>15.360561</ele>
        <time>2020-07-15T13:09:40.286Z</time>
      </trkpt>
      <trkpt lat="63.25322" lon="8.32928">
        <ele>14.490566</ele>
        <time>2020-07-15T13:09:45.087Z</time>
      </trkpt>
      <trkpt lat="63.25324" lon="8.32956">
        <ele>14.178844</ele>
        <time>2020-07-15T13:09:46.808Z</time>
      </trkpt>
      <trkpt lat="63.25325" lon="8.32964">
        <ele>14.091696</ele>
        <time>2020-07-15T13:09:47.219Z</time>
      </trkpt>
      <trkpt lat="63.25348" lon="8.33078">
        <ele>12.924081</ele>
        <time>2020-07-15T13:09:54.696Z</time>
      </trkpt>
      <trkpt lat="63.25415" lon="8.3326">
        <ele>11.607585</ele>
        <time>2020-07-15T13:10:09.948Z</time>
      </trkpt>
      <trkpt lat="63.25455" lon="8.33368">
        <ele>10.976575</ele>
        <time>2020-07-15T13:10:21.517Z</time>
      </trkpt>
      <trkpt lat="63.25473" lon="8.33416">
        <ele>11.297295</ele>
        <time>2020-07-15T13:10:27.609Z</time>
      </trkpt>
      <trkpt lat="63.25501" lon="8.33504">
        <ele>11.858859</ele>
        <time>2020-07-15T13:10:37.440Z</time>
      </trkpt>
      <trkpt lat="63.25522" lon="8.33592">
        <ele>12.374444</ele>
        <time>2020-07-15T13:10:47.530Z</time>
      </trkpt>
      <trkpt lat="63.25528" lon="8.33622">
        <ele>12.545288</ele>
        <time>2020-07-15T13:10:51.349Z</time>
      </trkpt>
      <trkpt lat="63.25531" lon="8.3364">
        <ele>12.644623</ele>
        <time>2020-07-15T13:10:52.938Z</time>
      </trkpt>
      <trkpt lat="63.25547" lon="8.3376">
        <ele>13.313942</ele>
        <time>2020-07-15T13:11:06.848Z</time>
      </trkpt>
      <trkpt lat="63.2556" lon="8.33949">
        <ele>14.362722</ele>
        <time>2020-07-15T13:11:25.374Z</time>
      </trkpt>
      <trkpt lat="63.25564" lon="8.34002">
        <ele>14.658899</ele>
        <time>2020-07-15T13:11:30.322Z</time>
      </trkpt>
      <trkpt lat="63.25568" lon="8.34044">
        <ele>14.892642</ele>
        <time>2020-07-15T13:11:34.308Z</time>
      </trkpt>
      <trkpt lat="63.25573" lon="8.34087">
        <ele>15.142463</ele>
        <time>2020-07-15T13:11:38.403Z</time>
      </trkpt>
      <trkpt lat="63.25578" lon="8.34116">
        <ele>15.376657</ele>
        <time>2020-07-15T13:11:41.353Z</time>
      </trkpt>
      <trkpt lat="63.25588" lon="8.34163">
        <ele>15.783144</ele>
        <time>2020-07-15T13:11:45.998Z</time>
      </trkpt>
      <trkpt lat="63.25606" lon="8.34237">
        <ele>16.46058</ele>
        <time>2020-07-15T13:11:54.483Z</time>
      </trkpt>
      <trkpt lat="63.25626" lon="8.34303">
        <ele>17.092255</ele>
        <time>2020-07-15T13:12:02.580Z</time>
      </trkpt>
      <trkpt lat="63.25642" lon="8.34356">
        <ele>17.598148</ele>
        <time>2020-07-15T13:12:09.344Z</time>
      </trkpt>
      <trkpt lat="63.25652" lon="8.34398">
        <ele>17.986643</ele>
        <time>2020-07-15T13:12:15.010Z</time>
      </trkpt>
      <trkpt lat="63.25658" lon="8.34427">
        <ele>18.238709</ele>
        <time>2020-07-15T13:12:18.467Z</time>
      </trkpt>
      <trkpt lat="63.25664" lon="8.34457">
        <ele>18.757281</ele>
        <time>2020-07-15T13:12:22.207Z</time>
      </trkpt>
      <trkpt lat="63.25665" lon="8.34469">
        <ele>19.049726</ele>
        <time>2020-07-15T13:12:24.171Z</time>
      </trkpt>
      <trkpt lat="63.25676" lon="8.34596">
        <ele>22.079593</ele>
        <time>2020-07-15T13:12:41.267Z</time>
      </trkpt>
      <trkpt lat="63.25677" lon="8.34681">
        <ele>24.08989</ele>
        <time>2020-07-15T13:12:54.201Z</time>
      </trkpt>
      <trkpt lat="63.25689" lon="8.35376">
        <ele>44.94585</ele>
        <time>2020-07-15T13:15:04.886Z</time>
      </trkpt>
      <trkpt lat="63.25695" lon="8.3552">
        <ele>48.937571</ele>
        <time>2020-07-15T13:15:30.923Z</time>
      </trkpt>
      <trkpt lat="63.25714" lon="8.35647">
        <ele>52.085973</ele>
        <time>2020-07-15T13:15:50.498Z</time>
      </trkpt>
      <trkpt lat="63.25725" lon="8.35699">
        <ele>52.04639</ele>
        <time>2020-07-15T13:15:57.770Z</time>
      </trkpt>
      <trkpt lat="63.2576" lon="8.35868">
        <ele>51.917483</ele>
        <time>2020-07-15T13:16:13.608Z</time>
      </trkpt>
      <trkpt lat="63.2578" lon="8.35988">
        <ele>51.829563</ele>
        <time>2020-07-15T13:16:21.530Z</time>
      </trkpt>
      <trkpt lat="63.25785" lon="8.36106">
        <ele>49.195983</ele>
        <time>2020-07-15T13:16:27.857Z</time>
      </trkpt>
      <trkpt lat="63.25778" lon="8.36207">
        <ele>46.709451</ele>
        <time>2020-07-15T13:16:33.237Z</time>
      </trkpt>
      <trkpt lat="63.25759" lon="8.36342">
        <ele>43.276934</ele>
        <time>2020-07-15T13:16:40.760Z</time>
      </trkpt>
      <trkpt lat="63.25754" lon="8.36378">
        <ele>42.358624</ele>
        <time>2020-07-15T13:16:42.738Z</time>
      </trkpt>
      <trkpt lat="63.2575" lon="8.36403">
        <ele>41.876178</ele>
        <time>2020-07-15T13:16:44.223Z</time>
      </trkpt>
      <trkpt lat="63.25742" lon="8.36551">
        <ele>39.705219</ele>
        <time>2020-07-15T13:16:52.496Z</time>
      </trkpt>
      <trkpt lat="63.25742" lon="8.36588">
        <ele>39.167985</ele>
        <time>2020-07-15T13:16:54.653Z</time>
      </trkpt>
      <trkpt lat="63.25742" lon="8.36588">
        <ele>39.167985</ele>
        <time>2020-07-15T13:16:54.703Z</time>
      </trkpt>
      <trkpt lat="63.25742" lon="8.36588">
        <ele>39.167985</ele>
        <time>2020-07-15T13:16:54.709Z</time>
      </trkpt>
      <trkpt lat="63.25743" lon="8.36633">
        <ele>38.500143</ele>
        <time>2020-07-15T13:16:57.354Z</time>
      </trkpt>
      <trkpt lat="63.25751" lon="8.36848">
        <ele>36.234331</ele>
        <time>2020-07-15T13:17:11.640Z</time>
      </trkpt>
      <trkpt lat="63.25764" lon="8.36948">
        <ele>36.147522</ele>
        <time>2020-07-15T13:17:19.454Z</time>
      </trkpt>
      <trkpt lat="63.25771" lon="8.36976">
        <ele>36.122106</ele>
        <time>2020-07-15T13:17:22.055Z</time>
      </trkpt>
      <trkpt lat="63.25776" lon="8.36998">
        <ele>36.100461</ele>
        <time>2020-07-15T13:17:24.325Z</time>
      </trkpt>
      <trkpt lat="63.25823" lon="8.37132">
        <ele>35.960168</ele>
        <time>2020-07-15T13:17:38.952Z</time>
      </trkpt>
      <trkpt lat="63.25829" lon="8.3715">
        <ele>35.924045</ele>
        <time>2020-07-15T13:17:41.052Z</time>
      </trkpt>
      <trkpt lat="63.25835" lon="8.3717">
        <ele>35.879034</ele>
        <time>2020-07-15T13:17:43.179Z</time>
      </trkpt>
      <trkpt lat="63.25846" lon="8.3721">
        <ele>35.794711</ele>
        <time>2020-07-15T13:17:47.259Z</time>
      </trkpt>
      <trkpt lat="63.2585" lon="8.37234">
        <ele>35.747122</ele>
        <time>2020-07-15T13:17:49.504Z</time>
      </trkpt>
      <trkpt lat="63.25853" lon="8.37246">
        <ele>35.722971</ele>
        <time>2020-07-15T13:17:50.777Z</time>
      </trkpt>
      <trkpt lat="63.25876" lon="8.37416">
        <ele>35.397121</ele>
        <time>2020-07-15T13:18:04.728Z</time>
      </trkpt>
      <trkpt lat="63.25883" lon="8.3745">
        <ele>35.327074</ele>
        <time>2020-07-15T13:18:07.624Z</time>
      </trkpt>
      <trkpt lat="63.25887" lon="8.37465">
        <ele>35.295837</ele>
        <time>2020-07-15T13:18:08.868Z</time>
      </trkpt>
      <trkpt lat="63.25906" lon="8.37525">
        <ele>34.536012</ele>
        <time>2020-07-15T13:18:13.317Z</time>
      </trkpt>
      <trkpt lat="63.25929" lon="8.37575">
        <ele>33.012302</ele>
        <time>2020-07-15T13:18:17.641Z</time>
      </trkpt>
      <trkpt lat="63.2594" lon="8.37596">
        <ele>32.315025</ele>
        <time>2020-07-15T13:18:19.593Z</time>
      </trkpt>
      <trkpt lat="63.25946" lon="8.37606">
        <ele>31.954483</ele>
        <time>2020-07-15T13:18:20.479Z</time>
      </trkpt>
      <trkpt lat="63.25995" lon="8.37702">
        <ele>28.855904</ele>
        <time>2020-07-15T13:18:28.397Z</time>
      </trkpt>
      <trkpt lat="63.26002" lon="8.37722">
        <ele>28.308549</ele>
        <time>2020-07-15T13:18:29.677Z</time>
      </trkpt>
      <trkpt lat="63.26011" lon="8.3775">
        <ele>27.570264</ele>
        <time>2020-07-15T13:18:31.523Z</time>
      </trkpt>
      <trkpt lat="63.2603" lon="8.37825">
        <ele>25.047014</ele>
        <time>2020-07-15T13:18:35.968Z</time>
      </trkpt>
      <trkpt lat="63.26045" lon="8.37891">
        <ele>22.358394</ele>
        <time>2020-07-15T13:18:39.713Z</time>
      </trkpt>
      <trkpt lat="63.26052" lon="8.37884">
        <ele>21.772384</ele>
        <time>2020-07-15T13:18:40.579Z</time>
      </trkpt>
      <trkpt lat="63.26064" lon="8.37937">
        <ele>19.591196</ele>
        <time>2020-07-15T13:18:43.669Z</time>
      </trkpt>
      <trkpt lat="63.26072" lon="8.37981">
        <ele>17.858013</ele>
        <time>2020-07-15T13:18:46.180Z</time>
      </trkpt>
      <trkpt lat="63.26081" lon="8.38084">
        <ele>14.039334</ele>
        <time>2020-07-15T13:18:51.663Z</time>
      </trkpt>
      <trkpt lat="63.26077" lon="8.38142">
        <ele>12.0102</ele>
        <time>2020-07-15T13:18:54.777Z</time>
      </trkpt>
      <trkpt lat="63.26062" lon="8.38209">
        <ele>10.59663</ele>
        <time>2020-07-15T13:18:58.773Z</time>
      </trkpt>
      <trkpt lat="63.26058" lon="8.3822">
        <ele>10.326412</ele>
        <time>2020-07-15T13:18:59.513Z</time>
      </trkpt>
      <trkpt lat="63.26053" lon="8.38232">
        <ele>10.012439</ele>
        <time>2020-07-15T13:19:00.484Z</time>
      </trkpt>
      <trkpt lat="63.26034" lon="8.38305">
        <ele>8.40992</ele>
        <time>2020-07-15T13:19:05.159Z</time>
      </trkpt>
      <trkpt lat="63.26029" lon="8.38333">
        <ele>7.820729</ele>
        <time>2020-07-15T13:19:07.081Z</time>
      </trkpt>
      <trkpt lat="63.26029" lon="8.38336">
        <ele>7.760948</ele>
        <time>2020-07-15T13:19:07.242Z</time>
      </trkpt>
      <trkpt lat="63.26023" lon="8.38399">
        <ele>6.544664</ele>
        <time>2020-07-15T13:19:11.097Z</time>
      </trkpt>
      <trkpt lat="63.26024" lon="8.38484">
        <ele>4.903795</ele>
        <time>2020-07-15T13:19:17.167Z</time>
      </trkpt>
      <trkpt lat="63.26027" lon="8.38505">
        <ele>4.494568</ele>
        <time>2020-07-15T13:19:18.601Z</time>
      </trkpt>
      <trkpt lat="63.26027" lon="8.38512">
        <ele>4.543845</ele>
        <time>2020-07-15T13:19:18.992Z</time>
      </trkpt>
      <trkpt lat="63.26049" lon="8.38617">
        <ele>5.696493</ele>
        <time>2020-07-15T13:19:31.170Z</time>
      </trkpt>
      <trkpt lat="63.26059" lon="8.38699">
        <ele>6.543801</ele>
        <time>2020-07-15T13:19:41.431Z</time>
      </trkpt>
      <trkpt lat="63.26059" lon="8.38725">
        <ele>6.802978</ele>
        <time>2020-07-15T13:19:44.816Z</time>
      </trkpt>
      <trkpt lat="63.26052" lon="8.38725">
        <ele>6.962501</ele>
        <time>2020-07-15T13:19:46.937Z</time>
      </trkpt>
      <trkpt lat="63.26051" lon="8.38745">
        <ele>7.161309</ele>
        <time>2020-07-15T13:19:50.272Z</time>
      </trkpt>
      <trkpt lat="63.26044" lon="8.38805">
        <ele>7.774753</ele>
        <time>2020-07-15T13:19:57.498Z</time>
      </trkpt>
      <trkpt lat="63.26022" lon="8.38902">
        <ele>9.148912</ele>
        <time>2020-07-15T13:20:12.496Z</time>
      </trkpt>
      <trkpt lat="63.26014" lon="8.38936">
        <ele>9.809639</ele>
        <time>2020-07-15T13:20:17.767Z</time>
      </trkpt>
      <trkpt lat="63.2601" lon="8.38953">
        <ele>10.121814</ele>
        <time>2020-07-15T13:20:20.345Z</time>
      </trkpt>
      <trkpt lat="63.26001" lon="8.39019">
        <ele>11.296944</ele>
        <time>2020-07-15T13:20:29.984Z</time>
      </trkpt>
      <trkpt lat="63.25991" lon="8.39166">
        <ele>13.822275</ele>
        <time>2020-07-15T13:20:49.118Z</time>
      </trkpt>
      <trkpt lat="63.25989" lon="8.39215">
        <ele>14.660536</ele>
        <time>2020-07-15T13:20:56.393Z</time>
      </trkpt>
      <trkpt lat="63.25987" lon="8.3924">
        <ele>15.099514</ele>
        <time>2020-07-15T13:20:59.526Z</time>
      </trkpt>
      <trkpt lat="63.25986" lon="8.39251">
        <ele>15.294355</ele>
        <time>2020-07-15T13:21:01.012Z</time>
      </trkpt>
      <trkpt lat="63.25981" lon="8.3929">
        <ele>16.399887</ele>
        <time>2020-07-15T13:21:07.147Z</time>
      </trkpt>
      <trkpt lat="63.25968" lon="8.394">
        <ele>19.481721</ele>
        <time>2020-07-15T13:21:22.150Z</time>
      </trkpt>
      <trkpt lat="63.25964" lon="8.39479">
        <ele>21.63218</ele>
        <time>2020-07-15T13:21:35.737Z</time>
      </trkpt>
      <trkpt lat="63.25964" lon="8.39492">
        <ele>21.995108</ele>
        <time>2020-07-15T13:21:38.637Z</time>
      </trkpt>
      <trkpt lat="63.25964" lon="8.39496">
        <ele>22.084485</ele>
        <time>2020-07-15T13:21:40.044Z</time>
      </trkpt>
      <trkpt lat="63.25974" lon="8.39606">
        <ele>25.129547</ele>
        <time>2020-07-15T13:22:00.443Z</time>
      </trkpt>
      <trkpt lat="63.25996" lon="8.39699">
        <ele>28.654256</ele>
        <time>2020-07-15T13:22:19.949Z</time>
      </trkpt>
      <trkpt lat="63.26017" lon="8.39762">
        <ele>31.530829</ele>
        <time>2020-07-15T13:22:36.326Z</time>
      </trkpt>
      <trkpt lat="63.26023" lon="8.39779">
        <ele>32.348287</ele>
        <time>2020-07-15T13:22:43.024Z</time>
      </trkpt>
      <trkpt lat="63.26035" lon="8.39817">
        <ele>34.029086</ele>
        <time>2020-07-15T13:22:51.006Z</time>
      </trkpt>
      <trkpt lat="63.2604" lon="8.39835">
        <ele>34.799224</ele>
        <time>2020-07-15T13:22:55.727Z</time>
      </trkpt>
      <trkpt lat="63.26044" lon="8.39861">
        <ele>35.81816</ele>
        <time>2020-07-15T13:23:01.555Z</time>
      </trkpt>
      <trkpt lat="63.26052" lon="8.39935">
        <ele>38.604813</ele>
        <time>2020-07-15T13:23:16.578Z</time>
      </trkpt>
      <trkpt lat="63.26056" lon="8.39973">
        <ele>40.050376</ele>
        <time>2020-07-15T13:23:23.391Z</time>
      </trkpt>
      <trkpt lat="63.26059" lon="8.40008">
        <ele>41.231992</ele>
        <time>2020-07-15T13:23:31.559Z</time>
      </trkpt>
      <trkpt lat="63.26106" lon="8.40519">
        <ele>56.252684</ele>
        <time>2020-07-15T13:24:58.463Z</time>
      </trkpt>
      <trkpt lat="63.26124" lon="8.40667">
        <ele>60.822834</ele>
        <time>2020-07-15T13:25:24.245Z</time>
      </trkpt>
      <trkpt lat="63.26183" lon="8.41018">
        <ele>73.980701</ele>
        <time>2020-07-15T13:26:37.141Z</time>
      </trkpt>
      <trkpt lat="63.26219" lon="8.41311">
        <ele>84.665042</ele>
        <time>2020-07-15T13:27:41.717Z</time>
      </trkpt>
      <trkpt lat="63.26269" lon="8.4154">
        <ele>92.551597</ele>
        <time>2020-07-15T13:28:27.211Z</time>
      </trkpt>
      <trkpt lat="63.26286" lon="8.4164">
        <ele>93.29524</ele>
        <time>2020-07-15T13:28:41.366Z</time>
      </trkpt>
      <trkpt lat="63.26344" lon="8.42325">
        <ele>94.656515</ele>
        <time>2020-07-15T13:29:34.769Z</time>
      </trkpt>
      <trkpt lat="63.26414" lon="8.42857">
        <ele>93.96341</ele>
        <time>2020-07-15T13:30:18.646Z</time>
      </trkpt>
      <trkpt lat="63.2643" lon="8.43066">
        <ele>93.38563</ele>
        <time>2020-07-15T13:30:33.882Z</time>
      </trkpt>
      <trkpt lat="63.26446" lon="8.43486">
        <ele>89.596475</ele>
        <time>2020-07-15T13:31:00.548Z</time>
      </trkpt>
      <trkpt lat="63.2645" lon="8.43702">
        <ele>87.218667</ele>
        <time>2020-07-15T13:31:13.413Z</time>
      </trkpt>
      <trkpt lat="63.26446" lon="8.43864">
        <ele>85.433823</ele>
        <time>2020-07-15T13:31:23.199Z</time>
      </trkpt>
      <trkpt lat="63.2644" lon="8.44055">
        <ele>86.744994</ele>
        <time>2020-07-15T13:31:37.734Z</time>
      </trkpt>
      <trkpt lat="63.26436" lon="8.44152">
        <ele>87.452992</ele>
        <time>2020-07-15T13:31:48.795Z</time>
      </trkpt>
      <trkpt lat="63.26436" lon="8.44173">
        <ele>87.605316</ele>
        <time>2020-07-15T13:31:51.451Z</time>
      </trkpt>
      <trkpt lat="63.2643" lon="8.44319">
        <ele>89.689833</ele>
        <time>2020-07-15T13:32:13.176Z</time>
      </trkpt>
      <trkpt lat="63.26419" lon="8.44481">
        <ele>94.122769</ele>
        <time>2020-07-15T13:32:42.645Z</time>
      </trkpt>
      <trkpt lat="63.26403" lon="8.44591">
        <ele>97.231747</ele>
        <time>2020-07-15T13:33:04.151Z</time>
      </trkpt>
      <trkpt lat="63.26373" lon="8.44734">
        <ele>99.771096</ele>
        <time>2020-07-15T13:33:28.458Z</time>
      </trkpt>
      <trkpt lat="63.26349" lon="8.44818">
        <ele>100.552011</ele>
        <time>2020-07-15T13:33:40.314Z</time>
      </trkpt>
      <trkpt lat="63.26318" lon="8.44915">
        <ele>101.481843</ele>
        <time>2020-07-15T13:33:51.200Z</time>
      </trkpt>
      <trkpt lat="63.26283" lon="8.45024">
        <ele>101.53333</ele>
        <time>2020-07-15T13:34:00.476Z</time>
      </trkpt>
      <trkpt lat="63.26214" lon="8.45245">
        <ele>97.362379</ele>
        <time>2020-07-15T13:34:15.927Z</time>
      </trkpt>
      <trkpt lat="63.26171" lon="8.45498">
        <ele>91.732023</ele>
        <time>2020-07-15T13:34:30.748Z</time>
      </trkpt>
      <trkpt lat="63.26107" lon="8.45759">
        <ele>84.836783</ele>
        <time>2020-07-15T13:34:46.710Z</time>
      </trkpt>
      <trkpt lat="63.26071" lon="8.45937">
        <ele>80.461056</ele>
        <time>2020-07-15T13:34:57.243Z</time>
      </trkpt>
      <trkpt lat="63.26046" lon="8.46072">
        <ele>77.398672</ele>
        <time>2020-07-15T13:35:05.392Z</time>
      </trkpt>
      <trkpt lat="63.26037" lon="8.46122">
        <ele>76.740266</ele>
        <time>2020-07-15T13:35:08.454Z</time>
      </trkpt>
      <trkpt lat="63.26008" lon="8.46267">
        <ele>74.800601</ele>
        <time>2020-07-15T13:35:17.839Z</time>
      </trkpt>
      <trkpt lat="63.25974" lon="8.46365">
        <ele>73.29148</ele>
        <time>2020-07-15T13:35:25.576Z</time>
      </trkpt>
      <trkpt lat="63.25921" lon="8.46444">
        <ele>72.779153</ele>
        <time>2020-07-15T13:35:35.826Z</time>
      </trkpt>
      <trkpt lat="63.25884" lon="8.46471">
        <ele>72.783607</ele>
        <time>2020-07-15T13:35:42.984Z</time>
      </trkpt>
      <trkpt lat="63.25851" lon="8.46483">
        <ele>72.78744</ele>
        <time>2020-07-15T13:35:49.410Z</time>
      </trkpt>
      <trkpt lat="63.25833" lon="8.46487">
        <ele>72.78961</ele>
        <time>2020-07-15T13:35:53.320Z</time>
      </trkpt>
      <trkpt lat="63.25804" lon="8.46494">
        <ele>72.792971</ele>
        <time>2020-07-15T13:35:59.190Z</time>
      </trkpt>
      <trkpt lat="63.25757" lon="8.46519">
        <ele>72.447226</ele>
        <time>2020-07-15T13:36:08.614Z</time>
      </trkpt>
      <trkpt lat="63.25731" lon="8.46546">
        <ele>72.14712</ele>
        <time>2020-07-15T13:36:13.993Z</time>
      </trkpt>
      <trkpt lat="63.25697" lon="8.46604">
        <ele>71.693939</ele>
        <time>2020-07-15T13:36:21.340Z</time>
      </trkpt>
      <trkpt lat="63.25677" lon="8.46654">
        <ele>71.375637</ele>
        <time>2020-07-15T13:36:25.953Z</time>
      </trkpt>
      <trkpt lat="63.25652" lon="8.46755">
        <ele>70.526878</ele>
        <time>2020-07-15T13:36:33.128Z</time>
      </trkpt>
      <trkpt lat="63.25564" lon="8.47208">
        <ele>57.630399</ele>
        <time>2020-07-15T13:36:59.369Z</time>
      </trkpt>
      <trkpt lat="63.25558" lon="8.47233">
        <ele>56.678132</ele>
        <time>2020-07-15T13:37:00.794Z</time>
      </trkpt>
      <trkpt lat="63.25553" lon="8.47251">
        <ele>56.006378</ele>
        <time>2020-07-15T13:37:01.791Z</time>
      </trkpt>
      <trkpt lat="63.25497" lon="8.47396">
        <ele>49.762454</ele>
        <time>2020-07-15T13:37:11.546Z</time>
      </trkpt>
      <trkpt lat="63.25486" lon="8.47417">
        <ele>48.686099</ele>
        <time>2020-07-15T13:37:13.167Z</time>
      </trkpt>
      <trkpt lat="63.25467" lon="8.47448">
        <ele>47.310767</ele>
        <time>2020-07-15T13:37:15.863Z</time>
      </trkpt>
      <trkpt lat="63.25431" lon="8.47498">
        <ele>45.0608</ele>
        <time>2020-07-15T13:37:20.796Z</time>
      </trkpt>
      <trkpt lat="63.25391" lon="8.47538">
        <ele>42.758905</ele>
        <time>2020-07-15T13:37:26.142Z</time>
      </trkpt>
      <trkpt lat="63.25284" lon="8.47598">
        <ele>37.077886</ele>
        <time>2020-07-15T13:37:40.181Z</time>
      </trkpt>
      <trkpt lat="63.25271" lon="8.47606">
        <ele>36.416313</ele>
        <time>2020-07-15T13:37:41.812Z</time>
      </trkpt>
      <trkpt lat="63.25267" lon="8.47609">
        <ele>36.222208</ele>
        <time>2020-07-15T13:37:42.258Z</time>
      </trkpt>
      <trkpt lat="63.25235" lon="8.47643">
        <ele>34.485794</ele>
        <time>2020-07-15T13:37:46.670Z</time>
      </trkpt>
      <trkpt lat="63.25227" lon="8.47653">
        <ele>34.06358</ele>
        <time>2020-07-15T13:37:47.813Z</time>
      </trkpt>
      <trkpt lat="63.25203" lon="8.47684">
        <ele>32.69149</ele>
        <time>2020-07-15T13:37:51.223Z</time>
      </trkpt>
      <trkpt lat="63.25151" lon="8.47733">
        <ele>29.962172</ele>
        <time>2020-07-15T13:37:58.108Z</time>
      </trkpt>
      <trkpt lat="63.25143" lon="8.47738">
        <ele>29.394399</ele>
        <time>2020-07-15T13:37:59.129Z</time>
      </trkpt>
      <trkpt lat="63.25137" lon="8.47741">
        <ele>28.978734</ele>
        <time>2020-07-15T13:37:59.823Z</time>
      </trkpt>
      <trkpt lat="63.25074" lon="8.47768">
        <ele>24.7486</ele>
        <time>2020-07-15T13:38:07.089Z</time>
      </trkpt>
      <trkpt lat="63.25029" lon="8.4781">
        <ele>21.485132</ele>
        <time>2020-07-15T13:38:12.598Z</time>
      </trkpt>
      <trkpt lat="63.25023" lon="8.47819">
        <ele>20.98405</ele>
        <time>2020-07-15T13:38:13.422Z</time>
      </trkpt>
      <trkpt lat="63.25004" lon="8.47842">
        <ele>19.54162</ele>
        <time>2020-07-15T13:38:15.954Z</time>
      </trkpt>
      <trkpt lat="63.24996" lon="8.47855">
        <ele>18.887172</ele>
        <time>2020-07-15T13:38:17.061Z</time>
      </trkpt>
      <trkpt lat="63.24989" lon="8.47862">
        <ele>18.402605</ele>
        <time>2020-07-15T13:38:17.922Z</time>
      </trkpt>
      <trkpt lat="63.24988" lon="8.47863">
        <ele>18.32077</ele>
        <time>2020-07-15T13:38:18.090Z</time>
      </trkpt>
      <trkpt lat="63.24985" lon="8.47866">
        <ele>18.078757</ele>
        <time>2020-07-15T13:38:18.588Z</time>
      </trkpt>
      <trkpt lat="63.24982" lon="8.47872">
        <ele>17.925757</ele>
        <time>2020-07-15T13:38:19.021Z</time>
      </trkpt>
      <trkpt lat="63.24981" lon="8.47888">
        <ele>17.855501</ele>
        <time>2020-07-15T13:38:19.973Z</time>
      </trkpt>
      <trkpt lat="63.24982" lon="8.47894">
        <ele>17.825088</ele>
        <time>2020-07-15T13:38:20.336Z</time>
      </trkpt>
      <trkpt lat="63.24984" lon="8.47899">
        <ele>17.795699</ele>
        <time>2020-07-15T13:38:20.717Z</time>
      </trkpt>
      <trkpt lat="63.24985" lon="8.47917">
        <ele>17.713894</ele>
        <time>2020-07-15T13:38:21.646Z</time>
      </trkpt>
      <trkpt lat="63.24988" lon="8.47936">
        <ele>17.626717</ele>
        <time>2020-07-15T13:38:22.805Z</time>
      </trkpt>
      <trkpt lat="63.24996" lon="8.47985">
        <ele>17.396994</ele>
        <time>2020-07-15T13:38:25.720Z</time>
      </trkpt>
      <trkpt lat="63.25064" lon="8.48615">
        <ele>18.754865</ele>
        <time>2020-07-15T13:39:28.023Z</time>
      </trkpt>
      <trkpt lat="63.25065" lon="8.48623">
        <ele>18.810952</ele>
        <time>2020-07-15T13:39:29.383Z</time>
      </trkpt>
      <trkpt lat="63.25069" lon="8.48651">
        <ele>19.058632</ele>
        <time>2020-07-15T13:39:33.208Z</time>
      </trkpt>
      <trkpt lat="63.25075" lon="8.48685">
        <ele>19.502281</ele>
        <time>2020-07-15T13:39:38.326Z</time>
      </trkpt>
      <trkpt lat="63.25078" lon="8.48703">
        <ele>19.730194</ele>
        <time>2020-07-15T13:39:40.932Z</time>
      </trkpt>
      <trkpt lat="63.25087" lon="8.48749">
        <ele>20.334286</ele>
        <time>2020-07-15T13:39:47.660Z</time>
      </trkpt>
      <trkpt lat="63.25091" lon="8.4877">
        <ele>20.619258</ele>
        <time>2020-07-15T13:39:50.942Z</time>
      </trkpt>
      <trkpt lat="63.25133" lon="8.48916">
        <ele>22.698248</ele>
        <time>2020-07-15T13:40:13.207Z</time>
      </trkpt>
      <trkpt lat="63.25182" lon="8.49035">
        <ele>23.468337</ele>
        <time>2020-07-15T13:40:29.343Z</time>
      </trkpt>
      <trkpt lat="63.25203" lon="8.49075">
        <ele>23.2113</ele>
        <time>2020-07-15T13:40:33.832Z</time>
      </trkpt>
      <trkpt lat="63.25233" lon="8.49131">
        <ele>22.852165</ele>
        <time>2020-07-15T13:40:39.719Z</time>
      </trkpt>
      <trkpt lat="63.25293" lon="8.49231">
        <ele>22.15262</ele>
        <time>2020-07-15T13:40:50.329Z</time>
      </trkpt>
      <trkpt lat="63.25393" lon="8.49349">
        <ele>20.251551</ele>
        <time>2020-07-15T13:41:05.586Z</time>
      </trkpt>
      <trkpt lat="63.25441" lon="8.49426">
        <ele>19.236923</ele>
        <time>2020-07-15T13:41:14.998Z</time>
      </trkpt>
      <trkpt lat="63.25449" lon="8.49442">
        <ele>19.049356</ele>
        <time>2020-07-15T13:41:16.410Z</time>
      </trkpt>
      <trkpt lat="63.25456" lon="8.49458">
        <ele>19.053384</ele>
        <time>2020-07-15T13:41:19.201Z</time>
      </trkpt>
      <trkpt lat="63.25531" lon="8.49687">
        <ele>19.626262</ele>
        <time>2020-07-15T13:41:43.124Z</time>
      </trkpt>
      <trkpt lat="63.25577" lon="8.49783">
        <ele>19.792218</ele>
        <time>2020-07-15T13:41:57.489Z</time>
      </trkpt>
      <trkpt lat="63.25589" lon="8.498">
        <ele>19.766</ele>
        <time>2020-07-15T13:42:00.608Z</time>
      </trkpt>
      <trkpt lat="63.25594" lon="8.49806">
        <ele>19.75692</ele>
        <time>2020-07-15T13:42:01.348Z</time>
      </trkpt>
      <trkpt lat="63.25635" lon="8.49845">
        <ele>19.678372</ele>
        <time>2020-07-15T13:42:10.354Z</time>
      </trkpt>
      <trkpt lat="63.25687" lon="8.49864">
        <ele>19.585832</ele>
        <time>2020-07-15T13:42:19.865Z</time>
      </trkpt>
      <trkpt lat="63.25716" lon="8.49862">
        <ele>19.534093</ele>
        <time>2020-07-15T13:42:24.580Z</time>
      </trkpt>
      <trkpt lat="63.25823" lon="8.49825">
        <ele>15.646955</ele>
        <time>2020-07-15T13:42:38.788Z</time>
      </trkpt>
      <trkpt lat="63.25892" lon="8.49844">
        <ele>12.789584</ele>
        <time>2020-07-15T13:42:46.945Z</time>
      </trkpt>
      <trkpt lat="63.25931" lon="8.4987">
        <ele>11.520724</ele>
        <time>2020-07-15T13:42:51.749Z</time>
      </trkpt>
      <trkpt lat="63.25963" lon="8.49891">
        <ele>10.736013</ele>
        <time>2020-07-15T13:42:55.813Z</time>
      </trkpt>
      <trkpt lat="63.25972" lon="8.49896">
        <ele>10.522314</ele>
        <time>2020-07-15T13:42:56.885Z</time>
      </trkpt>
      <trkpt lat="63.26021" lon="8.49915">
        <ele>9.351748</ele>
        <time>2020-07-15T13:43:03.172Z</time>
      </trkpt>
      <trkpt lat="63.26037" lon="8.49918">
        <ele>8.956661</ele>
        <time>2020-07-15T13:43:05.239Z</time>
      </trkpt>
      <trkpt lat="63.2605" lon="8.49919">
        <ele>8.653797</ele>
        <time>2020-07-15T13:43:07.024Z</time>
      </trkpt>
      <trkpt lat="63.26192" lon="8.49897">
        <ele>14.515514</ele>
        <time>2020-07-15T13:43:55.867Z</time>
      </trkpt>
      <trkpt lat="63.26224" lon="8.49892">
        <ele>16.490007</ele>
        <time>2020-07-15T13:44:11.401Z</time>
      </trkpt>
      <trkpt lat="63.26233" lon="8.4989">
        <ele>17.025457</ele>
        <time>2020-07-15T13:44:16.123Z</time>
      </trkpt>
      <trkpt lat="63.26257" lon="8.49886">
        <ele>18.540497</ele>
        <time>2020-07-15T13:44:27.693Z</time>
      </trkpt>
      <trkpt lat="63.26307" lon="8.49876">
        <ele>20.427071</ele>
        <time>2020-07-15T13:44:48.860Z</time>
      </trkpt>
      <trkpt lat="63.26332" lon="8.49868">
        <ele>21.263894</ele>
        <time>2020-07-15T13:44:58.091Z</time>
      </trkpt>
      <trkpt lat="63.26385" lon="8.49841">
        <ele>23.051918</ele>
        <time>2020-07-15T13:45:12.614Z</time>
      </trkpt>
      <trkpt lat="63.26408" lon="8.49823">
        <ele>23.870361</ele>
        <time>2020-07-15T13:45:18.906Z</time>
      </trkpt>
      <trkpt lat="63.26417" lon="8.49815">
        <ele>24.19577</ele>
        <time>2020-07-15T13:45:20.156Z</time>
      </trkpt>
      <trkpt lat="63.26477" lon="8.49743">
        <ele>25.704958</ele>
        <time>2020-07-15T13:45:30.068Z</time>
      </trkpt>
      <trkpt lat="63.26495" lon="8.49715">
        <ele>26.070977</ele>
        <time>2020-07-15T13:45:32.966Z</time>
      </trkpt>
      <trkpt lat="63.26501" lon="8.49706">
        <ele>26.182306</ele>
        <time>2020-07-15T13:45:33.908Z</time>
      </trkpt>
      <trkpt lat="63.26581" lon="8.49597">
        <ele>27.752307</ele>
        <time>2020-07-15T13:45:58.116Z</time>
      </trkpt>
      <trkpt lat="63.26588" lon="8.49591">
        <ele>27.876603</ele>
        <time>2020-07-15T13:46:00.748Z</time>
      </trkpt>
      <trkpt lat="63.26594" lon="8.49586">
        <ele>28.076611</ele>
        <time>2020-07-15T13:46:03.636Z</time>
      </trkpt>
      <trkpt lat="63.26607" lon="8.49576">
        <ele>29.033811</ele>
        <time>2020-07-15T13:46:12.269Z</time>
      </trkpt>
      <trkpt lat="63.26646" lon="8.49558">
        <ele>31.799629</ele>
        <time>2020-07-15T13:46:30.527Z</time>
      </trkpt>
      <trkpt lat="63.2666" lon="8.49555">
        <ele>32.790643</ele>
        <time>2020-07-15T13:46:37.169Z</time>
      </trkpt>
      <trkpt lat="63.26677" lon="8.49554">
        <ele>33.950925</ele>
        <time>2020-07-15T13:46:47.647Z</time>
      </trkpt>
      <trkpt lat="63.26718" lon="8.49563">
        <ele>36.807365</ele>
        <time>2020-07-15T13:47:06.267Z</time>
      </trkpt>
      <trkpt lat="63.26745" lon="8.49572">
        <ele>38.64149</ele>
        <time>2020-07-15T13:47:19.762Z</time>
      </trkpt>
      <trkpt lat="63.2677" lon="8.49581">
        <ele>40.312468</ele>
        <time>2020-07-15T13:47:30.205Z</time>
      </trkpt>
      <trkpt lat="63.2699" lon="8.4967">
        <ele>27.347806</ele>
        <time>2020-07-15T13:47:57.778Z</time>
      </trkpt>
      <trkpt lat="63.27012" lon="8.49681">
        <ele>24.918612</ele>
        <time>2020-07-15T13:48:00.212Z</time>
      </trkpt>
      <trkpt lat="63.27018" lon="8.49684">
        <ele>24.22197</ele>
        <time>2020-07-15T13:48:00.859Z</time>
      </trkpt>
      <trkpt lat="63.27088" lon="8.49737">
        <ele>16.15385</ele>
        <time>2020-07-15T13:48:08.625Z</time>
      </trkpt>
      <trkpt lat="63.271" lon="8.49751">
        <ele>14.679551</ele>
        <time>2020-07-15T13:48:10.045Z</time>
      </trkpt>
      <trkpt lat="63.27124" lon="8.49782">
        <ele>12.115338</ele>
        <time>2020-07-15T13:48:13.025Z</time>
      </trkpt>
      <trkpt lat="63.27155" lon="8.49824">
        <ele>10.176619</ele>
        <time>2020-07-15T13:48:16.944Z</time>
      </trkpt>
      <trkpt lat="63.27159" lon="8.49828">
        <ele>9.937243</ele>
        <time>2020-07-15T13:48:17.428Z</time>
      </trkpt>
      <trkpt lat="63.27217" lon="8.49887">
        <ele>6.569231</ele>
        <time>2020-07-15T13:48:25.168Z</time>
      </trkpt>
      <trkpt lat="63.27466" lon="8.5008">
        <ele>2.571234</ele>
        <time>2020-07-15T13:49:07.695Z</time>
      </trkpt>
      <trkpt lat="63.27505" lon="8.50124">
        <ele>3.508002</ele>
        <time>2020-07-15T13:49:19.196Z</time>
      </trkpt>
      <trkpt lat="63.27544" lon="8.50188">
        <ele>4.546443</ele>
        <time>2020-07-15T13:49:31.306Z</time>
      </trkpt>
      <trkpt lat="63.27554" lon="8.50208">
        <ele>4.831439</ele>
        <time>2020-07-15T13:49:34.652Z</time>
      </trkpt>
      <trkpt lat="63.2756" lon="8.50222">
        <ele>5.019644</ele>
        <time>2020-07-15T13:49:37.950Z</time>
      </trkpt>
      <trkpt lat="63.27607" lon="8.50362">
        <ele>7.234403</ele>
        <time>2020-07-15T13:49:58.665Z</time>
      </trkpt>
      <trkpt lat="63.27633" lon="8.505">
        <ele>9.865883</ele>
        <time>2020-07-15T13:50:18.602Z</time>
      </trkpt>
      <trkpt lat="63.27635" lon="8.50523">
        <ele>10.271465</ele>
        <time>2020-07-15T13:50:21.960Z</time>
      </trkpt>
      <trkpt lat="63.27639" lon="8.50553">
        <ele>10.812712</ele>
        <time>2020-07-15T13:50:25.938Z</time>
      </trkpt>
      <trkpt lat="63.27641" lon="8.50577">
        <ele>11.249918</ele>
        <time>2020-07-15T13:50:29.416Z</time>
      </trkpt>
      <trkpt lat="63.27649" lon="8.50671">
        <ele>12.938021</ele>
        <time>2020-07-15T13:50:44.164Z</time>
      </trkpt>
      <trkpt lat="63.27662" lon="8.50812">
        <ele>16.048853</ele>
        <time>2020-07-15T13:51:05.774Z</time>
      </trkpt>
      <trkpt lat="63.2767" lon="8.50889">
        <ele>17.801871</ele>
        <time>2020-07-15T13:51:17.879Z</time>
      </trkpt>
      <trkpt lat="63.27677" lon="8.5094">
        <ele>18.972161</ele>
        <time>2020-07-15T13:51:26.498Z</time>
      </trkpt>
      <trkpt lat="63.27708" lon="8.51112">
        <ele>22.36367</ele>
        <time>2020-07-15T13:51:55.191Z</time>
      </trkpt>
      <trkpt lat="63.27754" lon="8.5129">
        <ele>24.183504</ele>
        <time>2020-07-15T13:52:18.090Z</time>
      </trkpt>
      <trkpt lat="63.27761" lon="8.51312">
        <ele>24.42393</ele>
        <time>2020-07-15T13:52:20.643Z</time>
      </trkpt>
      <trkpt lat="63.27768" lon="8.51334">
        <ele>24.661772</ele>
        <time>2020-07-15T13:52:22.584Z</time>
      </trkpt>
      <trkpt lat="63.27824" lon="8.51487">
        <ele>25.956297</ele>
        <time>2020-07-15T13:52:37.716Z</time>
      </trkpt>
      <trkpt lat="63.27964" lon="8.51829">
        <ele>30.63682</ele>
        <time>2020-07-15T13:53:25.106Z</time>
      </trkpt>
      <trkpt lat="63.27974" lon="8.51863">
        <ele>31.431855</ele>
        <time>2020-07-15T13:53:30.913Z</time>
      </trkpt>
      <trkpt lat="63.27982" lon="8.51891">
        <ele>32.071158</ele>
        <time>2020-07-15T13:53:36.670Z</time>
      </trkpt>
      <trkpt lat="63.2801" lon="8.52013">
        <ele>34.709592</ele>
        <time>2020-07-15T13:53:59.875Z</time>
      </trkpt>
      <trkpt lat="63.28024" lon="8.52111">
        <ele>37.807463</ele>
        <time>2020-07-15T13:54:19.969Z</time>
      </trkpt>
      <trkpt lat="63.28034" lon="8.52228">
        <ele>41.690451</ele>
        <time>2020-07-15T13:54:43.610Z</time>
      </trkpt>
      <trkpt lat="63.28037" lon="8.52359">
        <ele>45.91983</ele>
        <time>2020-07-15T13:55:07.318Z</time>
      </trkpt>
      <trkpt lat="63.28032" lon="8.52486">
        <ele>49.460553</ele>
        <time>2020-07-15T13:55:29.634Z</time>
      </trkpt>
      <trkpt lat="63.28022" lon="8.52584">
        <ele>51.751361</ele>
        <time>2020-07-15T13:55:46.058Z</time>
      </trkpt>
      <trkpt lat="63.28007" lon="8.52683">
        <ele>54.111051</ele>
        <time>2020-07-15T13:56:01.855Z</time>
      </trkpt>
      <trkpt lat="63.27976" lon="8.52835">
        <ele>57.377268</ele>
        <time>2020-07-15T13:56:24.816Z</time>
      </trkpt>
      <trkpt lat="63.27961" lon="8.52895">
        <ele>57.859294</ele>
        <time>2020-07-15T13:56:33.396Z</time>
      </trkpt>
      <trkpt lat="63.27957" lon="8.52904">
        <ele>57.945835</ele>
        <time>2020-07-15T13:56:35.138Z</time>
      </trkpt>
      <trkpt lat="63.27908" lon="8.53084">
        <ele>59.450181</ele>
        <time>2020-07-15T13:56:56.719Z</time>
      </trkpt>
      <trkpt lat="63.27903" lon="8.53098">
        <ele>59.582649</ele>
        <time>2020-07-15T13:56:58.440Z</time>
      </trkpt>
      <trkpt lat="63.279" lon="8.53099">
        <ele>59.624884</ele>
        <time>2020-07-15T13:56:59.003Z</time>
      </trkpt>
      <trkpt lat="63.27898" lon="8.53103">
        <ele>59.671165</ele>
        <time>2020-07-15T13:56:59.710Z</time>
      </trkpt>
      <trkpt lat="63.27894" lon="8.53118">
        <ele>59.792392</ele>
        <time>2020-07-15T13:57:00.949Z</time>
      </trkpt>
      <trkpt lat="63.27894" lon="8.53124">
        <ele>59.836688</ele>
        <time>2020-07-15T13:57:01.514Z</time>
      </trkpt>
      <trkpt lat="63.27894" lon="8.5313">
        <ele>59.882242</ele>
        <time>2020-07-15T13:57:02.041Z</time>
      </trkpt>
      <trkpt lat="63.27895" lon="8.53136">
        <ele>59.926509</ele>
        <time>2020-07-15T13:57:02.559Z</time>
      </trkpt>
      <trkpt lat="63.27897" lon="8.53142">
        <ele>59.975251</ele>
        <time>2020-07-15T13:57:02.903Z</time>
      </trkpt>
      <trkpt lat="63.279" lon="8.53144">
        <ele>59.831754</ele>
        <time>2020-07-15T13:57:03.362Z</time>
      </trkpt>
      <trkpt lat="63.27906" lon="8.53146">
        <ele>59.540624</ele>
        <time>2020-07-15T13:57:04.379Z</time>
      </trkpt>
      <trkpt lat="63.27909" lon="8.53145">
        <ele>59.393654</ele>
        <time>2020-07-15T13:57:04.915Z</time>
      </trkpt>
      <trkpt lat="63.27916" lon="8.5315">
        <ele>59.053973</ele>
        <time>2020-07-15T13:57:06.144Z</time>
      </trkpt>
      <trkpt lat="63.27953" lon="8.53211">
        <ele>56.818343</ele>
        <time>2020-07-15T13:57:12.571Z</time>
      </trkpt>
      <trkpt lat="63.27956" lon="8.53211">
        <ele>56.683269</ele>
        <time>2020-07-15T13:57:12.981Z</time>
      </trkpt>
      <trkpt lat="63.27958" lon="8.53214">
        <ele>56.590477</ele>
        <time>2020-07-15T13:57:13.184Z</time>
      </trkpt>
      <trkpt lat="63.28162" lon="8.53581">
        <ele>39.997472</ele>
        <time>2020-07-15T13:57:43.444Z</time>
      </trkpt>
      <trkpt lat="63.28179" lon="8.53616">
        <ele>38.298919</ele>
        <time>2020-07-15T13:57:45.964Z</time>
      </trkpt>
      <trkpt lat="63.28181" lon="8.53618">
        <ele>38.160038</ele>
        <time>2020-07-15T13:57:46.158Z</time>
      </trkpt>
      <trkpt lat="63.28231" lon="8.5373">
        <ele>32.929866</ele>
        <time>2020-07-15T13:57:54.103Z</time>
      </trkpt>
      <trkpt lat="63.28247" lon="8.53756">
        <ele>31.455244</ele>
        <time>2020-07-15T13:57:56.421Z</time>
      </trkpt>
      <trkpt lat="63.28253" lon="8.53762">
        <ele>31.022551</ele>
        <time>2020-07-15T13:57:57.039Z</time>
      </trkpt>
      <trkpt lat="63.28303" lon="8.53819">
        <ele>26.839398</ele>
        <time>2020-07-15T13:58:03.555Z</time>
      </trkpt>
      <trkpt lat="63.28328" lon="8.5386">
        <ele>24.680067</ele>
        <time>2020-07-15T13:58:07.285Z</time>
      </trkpt>
      <trkpt lat="63.28377" lon="8.5403">
        <ele>21.105818</ele>
        <time>2020-07-15T13:58:18.398Z</time>
      </trkpt>
      <trkpt lat="63.28402" lon="8.54086">
        <ele>19.67412</ele>
        <time>2020-07-15T13:58:23.182Z</time>
      </trkpt>
      <trkpt lat="63.28437" lon="8.54123">
        <ele>18.170925</ele>
        <time>2020-07-15T13:58:28.253Z</time>
      </trkpt>
      <trkpt lat="63.28476" lon="8.54135">
        <ele>17.298131</ele>
        <time>2020-07-15T13:58:33.594Z</time>
      </trkpt>
      <trkpt lat="63.28487" lon="8.54134">
        <ele>17.128844</ele>
        <time>2020-07-15T13:58:35.106Z</time>
      </trkpt>
      <trkpt lat="63.28494" lon="8.54131">
        <ele>17.026616</ele>
        <time>2020-07-15T13:58:35.995Z</time>
      </trkpt>
      <trkpt lat="63.28532" lon="8.54109">
        <ele>16.432708</ele>
        <time>2020-07-15T13:58:41.675Z</time>
      </trkpt>
      <trkpt lat="63.28592" lon="8.5406">
        <ele>15.469568</ele>
        <time>2020-07-15T13:58:51.310Z</time>
      </trkpt>
      <trkpt lat="63.28608" lon="8.54046">
        <ele>15.197318</ele>
        <time>2020-07-15T13:58:54.223Z</time>
      </trkpt>
      <trkpt lat="63.28684" lon="8.53985">
        <ele>15.265166</ele>
        <time>2020-07-15T13:59:07.914Z</time>
      </trkpt>
      <trkpt lat="63.28762" lon="8.53921">
        <ele>15.594578</ele>
        <time>2020-07-15T13:59:25.112Z</time>
      </trkpt>
      <trkpt lat="63.2882" lon="8.53872">
        <ele>15.995879</ele>
        <time>2020-07-15T13:59:38.111Z</time>
      </trkpt>
      <trkpt lat="63.28837" lon="8.53858">
        <ele>16.15672</ele>
        <time>2020-07-15T13:59:42.112Z</time>
      </trkpt>
      <trkpt lat="63.28853" lon="8.53845">
        <ele>16.311339</ele>
        <time>2020-07-15T13:59:45.728Z</time>
      </trkpt>
      <trkpt lat="63.28923" lon="8.53789">
        <ele>16.969085</ele>
        <time>2020-07-15T14:00:01.278Z</time>
      </trkpt>
      <trkpt lat="63.29187" lon="8.53574">
        <ele>18.680809</ele>
        <time>2020-07-15T14:00:56.971Z</time>
      </trkpt>
      <trkpt lat="63.29194" lon="8.53569">
        <ele>18.710838</ele>
        <time>2020-07-15T14:00:58.432Z</time>
      </trkpt>
      <trkpt lat="63.29204" lon="8.53564">
        <ele>18.75237</ele>
        <time>2020-07-15T14:01:00.241Z</time>
      </trkpt>
      <trkpt lat="63.29464" lon="8.53472">
        <ele>19.583146</ele>
        <time>2020-07-15T14:01:49.500Z</time>
      </trkpt>
      <trkpt lat="63.29499" lon="8.53462">
        <ele>19.557032</ele>
        <time>2020-07-15T14:01:56.038Z</time>
      </trkpt>
      <trkpt lat="63.29518" lon="8.53456">
        <ele>19.494719</ele>
        <time>2020-07-15T14:01:59.500Z</time>
      </trkpt>
      <trkpt lat="63.29552" lon="8.53444">
        <ele>19.381867</ele>
        <time>2020-07-15T14:02:05.925Z</time>
      </trkpt>
      <trkpt lat="63.29641" lon="8.53413">
        <ele>19.09225</ele>
        <time>2020-07-15T14:02:20.520Z</time>
      </trkpt>
      <trkpt lat="63.29671" lon="8.53401">
        <ele>18.945413</ele>
        <time>2020-07-15T14:02:25.160Z</time>
      </trkpt>
      <trkpt lat="63.29696" lon="8.53396">
        <ele>18.776562</ele>
        <time>2020-07-15T14:02:29.210Z</time>
      </trkpt>
      <trkpt lat="63.29715" lon="8.53395">
        <ele>18.651606</ele>
        <time>2020-07-15T14:02:32.394Z</time>
      </trkpt>
      <trkpt lat="63.2972" lon="8.53395">
        <ele>18.622375</ele>
        <time>2020-07-15T14:02:32.958Z</time>
      </trkpt>
      <trkpt lat="63.2974" lon="8.534">
        <ele>18.482524</ele>
        <time>2020-07-15T14:02:36.959Z</time>
      </trkpt>
      <trkpt lat="63.2976" lon="8.53411">
        <ele>18.345939</ele>
        <time>2020-07-15T14:02:40.125Z</time>
      </trkpt>
      <trkpt lat="63.29775" lon="8.53421">
        <ele>18.24527</ele>
        <time>2020-07-15T14:02:43.088Z</time>
      </trkpt>
      <trkpt lat="63.29801" lon="8.53443">
        <ele>18.058507</ele>
        <time>2020-07-15T14:02:47.428Z</time>
      </trkpt>
      <trkpt lat="63.29824" lon="8.53465">
        <ele>17.893648</ele>
        <time>2020-07-15T14:02:51.099Z</time>
      </trkpt>
      <trkpt lat="63.29829" lon="8.5347">
        <ele>17.85444</ele>
        <time>2020-07-15T14:02:52.329Z</time>
      </trkpt>
      <trkpt lat="63.29894" lon="8.53579">
        <ele>16.828945</ele>
        <time>2020-07-15T14:03:05.496Z</time>
      </trkpt>
      <trkpt lat="63.29902" lon="8.53589">
        <ele>16.711358</ele>
        <time>2020-07-15T14:03:07.349Z</time>
      </trkpt>
      <trkpt lat="63.2991" lon="8.53596">
        <ele>16.604663</ele>
        <time>2020-07-15T14:03:08.397Z</time>
      </trkpt>
      <trkpt lat="63.30011" lon="8.5365">
        <ele>15.428643</ele>
        <time>2020-07-15T14:03:23.371Z</time>
      </trkpt>
      <trkpt lat="63.30041" lon="8.53681">
        <ele>15.243598</ele>
        <time>2020-07-15T14:03:28.183Z</time>
      </trkpt>
      <trkpt lat="63.30045" lon="8.53687">
        <ele>15.216074</ele>
        <time>2020-07-15T14:03:28.787Z</time>
      </trkpt>
      <trkpt lat="63.3005" lon="8.53698">
        <ele>15.174126</ele>
        <time>2020-07-15T14:03:29.676Z</time>
      </trkpt>
      <trkpt lat="63.30093" lon="8.53845">
        <ele>14.723034</ele>
        <time>2020-07-15T14:03:42.500Z</time>
      </trkpt>
      <trkpt lat="63.3011" lon="8.53913">
        <ele>14.544394</ele>
        <time>2020-07-15T14:03:49.067Z</time>
      </trkpt>
      <trkpt lat="63.3012" lon="8.53956">
        <ele>15.438635</ele>
        <time>2020-07-15T14:03:54.732Z</time>
      </trkpt>
      <trkpt lat="63.30173" lon="8.54175">
        <ele>20.0463</ele>
        <time>2020-07-15T14:04:29.625Z</time>
      </trkpt>
      <trkpt lat="63.30198" lon="8.54276">
        <ele>22.255673</ele>
        <time>2020-07-15T14:04:49.384Z</time>
      </trkpt>
      <trkpt lat="63.30202" lon="8.54292">
        <ele>22.699635</ele>
        <time>2020-07-15T14:04:52.202Z</time>
      </trkpt>
      <trkpt lat="63.30207" lon="8.54314">
        <ele>23.315272</ele>
        <time>2020-07-15T14:04:56.632Z</time>
      </trkpt>
      <trkpt lat="63.30223" lon="8.54377">
        <ele>25.111968</ele>
        <time>2020-07-15T14:05:08.700Z</time>
      </trkpt>
      <trkpt lat="63.30284" lon="8.54627">
        <ele>32.038286</ele>
        <time>2020-07-15T14:05:54.537Z</time>
      </trkpt>
      <trkpt lat="63.30307" lon="8.54721">
        <ele>33.401219</ele>
        <time>2020-07-15T14:06:08.922Z</time>
      </trkpt>
      <trkpt lat="63.30325" lon="8.54794">
        <ele>34.456541</ele>
        <time>2020-07-15T14:06:19.174Z</time>
      </trkpt>
      <trkpt lat="63.30357" lon="8.5492">
        <ele>36.290197</ele>
        <time>2020-07-15T14:06:35.277Z</time>
      </trkpt>
      <trkpt lat="63.30435" lon="8.55191">
        <ele>38.003238</ele>
        <time>2020-07-15T14:07:05.256Z</time>
      </trkpt>
      <trkpt lat="63.30551" lon="8.55556">
        <ele>39.548512</ele>
        <time>2020-07-15T14:07:44.659Z</time>
      </trkpt>
      <trkpt lat="63.30585" lon="8.55692">
        <ele>40.308475</ele>
        <time>2020-07-15T14:07:59.596Z</time>
      </trkpt>
      <trkpt lat="63.30675" lon="8.56252">
        <ele>44.439272</ele>
        <time>2020-07-15T14:09:01.472Z</time>
      </trkpt>
      <trkpt lat="63.30696" lon="8.56475">
        <ele>45.757329</ele>
        <time>2020-07-15T14:09:24.723Z</time>
      </trkpt>
      <trkpt lat="63.30703" lon="8.56633">
        <ele>46.353618</ele>
        <time>2020-07-15T14:09:39.706Z</time>
      </trkpt>
      <trkpt lat="63.30704" lon="8.56679">
        <ele>46.527105</ele>
        <time>2020-07-15T14:09:43.928Z</time>
      </trkpt>
      <trkpt lat="63.30708" lon="8.56794">
        <ele>46.877801</ele>
        <time>2020-07-15T14:09:53.773Z</time>
      </trkpt>
      <trkpt lat="63.3072" lon="8.57076">
        <ele>46.126695</ele>
        <time>2020-07-15T14:10:15.039Z</time>
      </trkpt>
      <trkpt lat="63.30745" lon="8.57326">
        <ele>44.960711</ele>
        <time>2020-07-15T14:10:31.966Z</time>
      </trkpt>
      <trkpt lat="63.30762" lon="8.57465">
        <ele>44.115347</ele>
        <time>2020-07-15T14:10:41.514Z</time>
      </trkpt>
      <trkpt lat="63.30778" lon="8.576">
        <ele>43.526277</ele>
        <time>2020-07-15T14:10:51.150Z</time>
      </trkpt>
      <trkpt lat="63.30792" lon="8.57748">
        <ele>43.635495</ele>
        <time>2020-07-15T14:11:02.477Z</time>
      </trkpt>
      <trkpt lat="63.30798" lon="8.57884">
        <ele>43.734464</ele>
        <time>2020-07-15T14:11:14.609Z</time>
      </trkpt>
      <trkpt lat="63.30798" lon="8.58025">
        <ele>44.074033</ele>
        <time>2020-07-15T14:11:28.419Z</time>
      </trkpt>
      <trkpt lat="63.3079" lon="8.58351">
        <ele>45.55032</ele>
        <time>2020-07-15T14:12:00.321Z</time>
      </trkpt>
      <trkpt lat="63.30794" lon="8.58487">
        <ele>44.725901</ele>
        <time>2020-07-15T14:12:11.152Z</time>
      </trkpt>
      <trkpt lat="63.30798" lon="8.58535">
        <ele>44.387633</ele>
        <time>2020-07-15T14:12:14.730Z</time>
      </trkpt>
      <trkpt lat="63.30803" lon="8.58593">
        <ele>43.978627</ele>
        <time>2020-07-15T14:12:18.572Z</time>
      </trkpt>
      <trkpt lat="63.30819" lon="8.58708">
        <ele>43.138886</ele>
        <time>2020-07-15T14:12:25.974Z</time>
      </trkpt>
      <trkpt lat="63.30838" lon="8.58804">
        <ele>41.54023</ele>
        <time>2020-07-15T14:12:31.919Z</time>
      </trkpt>
      <trkpt lat="63.30869" lon="8.58935">
        <ele>38.27837</ele>
        <time>2020-07-15T14:12:40.037Z</time>
      </trkpt>
      <trkpt lat="63.30887" lon="8.59013">
        <ele>36.355961</ele>
        <time>2020-07-15T14:12:44.757Z</time>
      </trkpt>
      <trkpt lat="63.30908" lon="8.59126">
        <ele>33.724762</ele>
        <time>2020-07-15T14:12:51.236Z</time>
      </trkpt>
      <trkpt lat="63.30941" lon="8.59364">
        <ele>29.405971</ele>
        <time>2020-07-15T14:13:04.744Z</time>
      </trkpt>
      <trkpt lat="63.30959" lon="8.59499">
        <ele>27.06561</ele>
        <time>2020-07-15T14:13:13.271Z</time>
      </trkpt>
      <trkpt lat="63.3096" lon="8.59506">
        <ele>27.10833</ele>
        <time>2020-07-15T14:13:14.662Z</time>
      </trkpt>
      <trkpt lat="63.31012" lon="8.59801">
        <ele>28.793336</ele>
        <time>2020-07-15T14:13:44.872Z</time>
      </trkpt>
      <trkpt lat="63.31054" lon="8.59983">
        <ele>29.892206</ele>
        <time>2020-07-15T14:14:12.036Z</time>
      </trkpt>
      <trkpt lat="63.31063" lon="8.6002">
        <ele>30.121056</ele>
        <time>2020-07-15T14:14:17.551Z</time>
      </trkpt>
      <trkpt lat="63.31073" lon="8.60058">
        <ele>30.35435</ele>
        <time>2020-07-15T14:14:20.850Z</time>
      </trkpt>
      <trkpt lat="63.31089" lon="8.60119">
        <ele>30.742537</ele>
        <time>2020-07-15T14:14:26.951Z</time>
      </trkpt>
      <trkpt lat="63.31096" lon="8.60143">
        <ele>30.891561</ele>
        <time>2020-07-15T14:14:29.920Z</time>
      </trkpt>
      <trkpt lat="63.31115" lon="8.60216">
        <ele>31.288521</ele>
        <time>2020-07-15T14:14:35.974Z</time>
      </trkpt>
      <trkpt lat="63.31143" lon="8.60319">
        <ele>29.122805</ele>
        <time>2020-07-15T14:14:43.732Z</time>
      </trkpt>
      <trkpt lat="63.31145" lon="8.60316">
        <ele>29.008846</ele>
        <time>2020-07-15T14:14:44.027Z</time>
      </trkpt>
      <trkpt lat="63.31161" lon="8.60309">
        <ele>28.354543</ele>
        <time>2020-07-15T14:14:46.407Z</time>
      </trkpt>
      <trkpt lat="63.31178" lon="8.60322">
        <ele>27.653554</ele>
        <time>2020-07-15T14:14:48.699Z</time>
      </trkpt>
      <trkpt lat="63.31354" lon="8.60614">
        <ele>16.01918</ele>
        <time>2020-07-15T14:15:14.482Z</time>
      </trkpt>
      <trkpt lat="63.31386" lon="8.60634">
        <ele>13.935684</ele>
        <time>2020-07-15T14:15:18.332Z</time>
      </trkpt>
      <trkpt lat="63.31429" lon="8.60626">
        <ele>12.506888</ele>
        <time>2020-07-15T14:15:23.349Z</time>
      </trkpt>
      <trkpt lat="63.3144" lon="8.6062">
        <ele>12.293681</ele>
        <time>2020-07-15T14:15:24.617Z</time>
      </trkpt>
      <trkpt lat="63.31459" lon="8.60607">
        <ele>11.907029</ele>
        <time>2020-07-15T14:15:27.301Z</time>
      </trkpt>
      <trkpt lat="63.31511" lon="8.60568">
        <ele>10.894116</ele>
        <time>2020-07-15T14:15:34.059Z</time>
      </trkpt>
      <trkpt lat="63.31516" lon="8.6056">
        <ele>10.787731</ele>
        <time>2020-07-15T14:15:35.062Z</time>
      </trkpt>
      <trkpt lat="63.31742" lon="8.60396">
        <ele>17.412103</ele>
        <time>2020-07-15T14:16:47.766Z</time>
      </trkpt>
      <trkpt lat="63.31822" lon="8.60337">
        <ele>22.020966</ele>
        <time>2020-07-15T14:17:23.113Z</time>
      </trkpt>
      <trkpt lat="63.31826" lon="8.60334">
        <ele>22.223345</ele>
        <time>2020-07-15T14:17:25.928Z</time>
      </trkpt>
      <trkpt lat="63.31861" lon="8.60309">
        <ele>24.240581</ele>
        <time>2020-07-15T14:17:40.010Z</time>
      </trkpt>
      <trkpt lat="63.31869" lon="8.60386">
        <ele>26.185538</ele>
        <time>2020-07-15T14:17:52.905Z</time>
      </trkpt>
      <trkpt lat="63.31871" lon="8.60406">
        <ele>26.694227</ele>
        <time>2020-07-15T14:17:55.125Z</time>
      </trkpt>
      <trkpt lat="63.31917" lon="8.60858">
        <ele>27.952383</ele>
        <time>2020-07-15T14:18:33.870Z</time>
      </trkpt>
      <trkpt lat="63.3193" lon="8.60992">
        <ele>26.732309</ele>
        <time>2020-07-15T14:18:42.861Z</time>
      </trkpt>
      <trkpt lat="63.31933" lon="8.61027">
        <ele>26.413318</ele>
        <time>2020-07-15T14:18:44.997Z</time>
      </trkpt>
      <trkpt lat="63.31951" lon="8.6115">
        <ele>25.264404</ele>
        <time>2020-07-15T14:18:53.205Z</time>
      </trkpt>
      <trkpt lat="63.31998" lon="8.61358">
        <ele>21.824352</ele>
        <time>2020-07-15T14:19:06.434Z</time>
      </trkpt>
      <trkpt lat="63.32031" lon="8.61503">
        <ele>19.085463</ele>
        <time>2020-07-15T14:19:15.549Z</time>
      </trkpt>
      <trkpt lat="63.32047" lon="8.61579">
        <ele>17.938651</ele>
        <time>2020-07-15T14:19:20.395Z</time>
      </trkpt>
      <trkpt lat="63.32058" lon="8.6163">
        <ele>17.844082</ele>
        <time>2020-07-15T14:19:23.721Z</time>
      </trkpt>
      <trkpt lat="63.32075" lon="8.61693">
        <ele>17.72018</ele>
        <time>2020-07-15T14:19:28.275Z</time>
      </trkpt>
      <trkpt lat="63.32102" lon="8.61748">
        <ele>17.585566</ele>
        <time>2020-07-15T14:19:33.546Z</time>
      </trkpt>
      <trkpt lat="63.32209" lon="8.61915">
        <ele>20.190168</ele>
        <time>2020-07-15T14:20:06.993Z</time>
      </trkpt>
      <trkpt lat="63.32307" lon="8.62089">
        <ele>26.925912</ele>
        <time>2020-07-15T14:20:56.065Z</time>
      </trkpt>
      <trkpt lat="63.32345" lon="8.62207">
        <ele>30.440083</ele>
        <time>2020-07-15T14:21:23.885Z</time>
      </trkpt>
      <trkpt lat="63.32409" lon="8.62537">
        <ele>36.545119</ele>
        <time>2020-07-15T14:22:16.200Z</time>
      </trkpt>
      <trkpt lat="63.32439" lon="8.62888">
        <ele>35.415457</ele>
        <time>2020-07-15T14:22:38.930Z</time>
      </trkpt>
      <trkpt lat="63.32454" lon="8.62998">
        <ele>33.963078</ele>
        <time>2020-07-15T14:22:45.334Z</time>
      </trkpt>
      <trkpt lat="63.32615" lon="8.63768">
        <ele>24.731619</ele>
        <time>2020-07-15T14:23:36.656Z</time>
      </trkpt>
      <trkpt lat="63.32638" lon="8.63878">
        <ele>24.000534</ele>
        <time>2020-07-15T14:23:46.441Z</time>
      </trkpt>
      <trkpt lat="63.32646" lon="8.63915">
        <ele>23.757022</ele>
        <time>2020-07-15T14:23:50.077Z</time>
      </trkpt>
      <trkpt lat="63.32667" lon="8.64042">
        <ele>23.880737</ele>
        <time>2020-07-15T14:24:02.115Z</time>
      </trkpt>
      <trkpt lat="63.32673" lon="8.64084">
        <ele>23.965393</ele>
        <time>2020-07-15T14:24:06.523Z</time>
      </trkpt>
      <trkpt lat="63.3268" lon="8.64136">
        <ele>24.067432</ele>
        <time>2020-07-15T14:24:11.623Z</time>
      </trkpt>
      <trkpt lat="63.32768" lon="8.65077">
        <ele>25.099604</ele>
        <time>2020-07-15T14:25:29.116Z</time>
      </trkpt>
      <trkpt lat="63.3277" lon="8.65092">
        <ele>25.124406</ele>
        <time>2020-07-15T14:25:30.211Z</time>
      </trkpt>
      <trkpt lat="63.32776" lon="8.65162">
        <ele>26.223755</ele>
        <time>2020-07-15T14:25:37.326Z</time>
      </trkpt>
      <trkpt lat="63.32781" lon="8.6552">
        <ele>32.491055</ele>
        <time>2020-07-15T14:26:29.160Z</time>
      </trkpt>
      <trkpt lat="63.32783" lon="8.65558">
        <ele>33.386677</ele>
        <time>2020-07-15T14:26:35.560Z</time>
      </trkpt>
      <trkpt lat="63.32785" lon="8.65571">
        <ele>33.71853</ele>
        <time>2020-07-15T14:26:38.697Z</time>
      </trkpt>
      <trkpt lat="63.32852" lon="8.66006">
        <ele>42.576265</ele>
        <time>2020-07-15T14:27:50.369Z</time>
      </trkpt>
      <trkpt lat="63.3287" lon="8.66152">
        <ele>43.850409</ele>
        <time>2020-07-15T14:28:05.471Z</time>
      </trkpt>
      <trkpt lat="63.32901" lon="8.66497">
        <ele>42.520757</ele>
        <time>2020-07-15T14:28:29.176Z</time>
      </trkpt>
      <trkpt lat="63.32929" lon="8.66677">
        <ele>40.540088</ele>
        <time>2020-07-15T14:28:40.187Z</time>
      </trkpt>
      <trkpt lat="63.32935" lon="8.66711">
        <ele>40.022631</ele>
        <time>2020-07-15T14:28:42.352Z</time>
      </trkpt>
      <trkpt lat="63.32947" lon="8.66765">
        <ele>39.172692</ele>
        <time>2020-07-15T14:28:45.780Z</time>
      </trkpt>
      <trkpt lat="63.32974" lon="8.67">
        <ele>35.77665</ele>
        <time>2020-07-15T14:28:59.607Z</time>
      </trkpt>
      <trkpt lat="63.3299" lon="8.67095">
        <ele>35.746974</ele>
        <time>2020-07-15T14:29:06.708Z</time>
      </trkpt>
      <trkpt lat="63.33008" lon="8.67167">
        <ele>36.3725</ele>
        <time>2020-07-15T14:29:15.062Z</time>
      </trkpt>
      <trkpt lat="63.33048" lon="8.67259">
        <ele>37.337205</ele>
        <time>2020-07-15T14:29:31.234Z</time>
      </trkpt>
      <trkpt lat="63.33068" lon="8.67305">
        <ele>37.820901</ele>
        <time>2020-07-15T14:29:37.777Z</time>
      </trkpt>
      <trkpt lat="63.33074" lon="8.6732">
        <ele>37.966086</ele>
        <time>2020-07-15T14:29:42.138Z</time>
      </trkpt>
      <trkpt lat="63.33093" lon="8.67388">
        <ele>38.136511</ele>
        <time>2020-07-15T14:29:52.128Z</time>
      </trkpt>
      <trkpt lat="63.33108" lon="8.67498">
        <ele>37.713079</ele>
        <time>2020-07-15T14:30:05.198Z</time>
      </trkpt>
      <trkpt lat="63.33161" lon="8.68237">
        <ele>27.979981</ele>
        <time>2020-07-15T14:30:49.305Z</time>
      </trkpt>
      <trkpt lat="63.33195" lon="8.6863">
        <ele>16.481429</ele>
        <time>2020-07-15T14:31:09.647Z</time>
      </trkpt>
      <trkpt lat="63.33205" lon="8.68694">
        <ele>14.514112</ele>
        <time>2020-07-15T14:31:13.130Z</time>
      </trkpt>
      <trkpt lat="63.33276" lon="8.68989">
        <ele>6.72846</ele>
        <time>2020-07-15T14:31:31.052Z</time>
      </trkpt>
      <trkpt lat="63.3331" lon="8.69157">
        <ele>4.751174</ele>
        <time>2020-07-15T14:31:42.241Z</time>
      </trkpt>
      <trkpt lat="63.33386" lon="8.69409">
        <ele>7.008062</ele>
        <time>2020-07-15T14:32:09.942Z</time>
      </trkpt>
      <trkpt lat="63.33402" lon="8.69429">
        <ele>7.748089</ele>
        <time>2020-07-15T14:32:17.380Z</time>
      </trkpt>
      <trkpt lat="63.33419" lon="8.69434">
        <ele>8.459633</ele>
        <time>2020-07-15T14:32:23.407Z</time>
      </trkpt>
      <trkpt lat="63.3348" lon="8.69391">
        <ele>11.329268</ele>
        <time>2020-07-15T14:32:50.217Z</time>
      </trkpt>
      <trkpt lat="63.33528" lon="8.69382">
        <ele>15.550627</ele>
        <time>2020-07-15T14:33:09.392Z</time>
      </trkpt>
      <trkpt lat="63.3354" lon="8.69378">
        <ele>16.632066</ele>
        <time>2020-07-15T14:33:16.688Z</time>
      </trkpt>
      <trkpt lat="63.33548" lon="8.6937">
        <ele>17.426469</ele>
        <time>2020-07-15T14:33:22.618Z</time>
      </trkpt>
      <trkpt lat="63.33599" lon="8.69271">
        <ele>23.393589</ele>
        <time>2020-07-15T14:33:55.411Z</time>
      </trkpt>
      <trkpt lat="63.33656" lon="8.69206">
        <ele>28.059789</ele>
        <time>2020-07-15T14:34:23.244Z</time>
      </trkpt>
      <trkpt lat="63.33661" lon="8.69203">
        <ele>28.308865</ele>
        <time>2020-07-15T14:34:27.092Z</time>
      </trkpt>
      <trkpt lat="63.33666" lon="8.692">
        <ele>28.578338</ele>
        <time>2020-07-15T14:34:30.389Z</time>
      </trkpt>
      <trkpt lat="63.33708" lon="8.69192">
        <ele>30.713644</ele>
        <time>2020-07-15T14:34:44.893Z</time>
      </trkpt>
      <trkpt lat="63.3379" lon="8.6921">
        <ele>34.806091</ele>
        <time>2020-07-15T14:35:09.556Z</time>
      </trkpt>
      <trkpt lat="63.33859" lon="8.69177">
        <ele>35.543027</ele>
        <time>2020-07-15T14:35:25.804Z</time>
      </trkpt>
      <trkpt lat="63.33865" lon="8.69171">
        <ele>35.513481</ele>
        <time>2020-07-15T14:35:26.952Z</time>
      </trkpt>
      <trkpt lat="63.33869" lon="8.69166">
        <ele>35.494327</ele>
        <time>2020-07-15T14:35:27.569Z</time>
      </trkpt>
      <trkpt lat="63.33916" lon="8.69057">
        <ele>35.182611</ele>
        <time>2020-07-15T14:35:38.174Z</time>
      </trkpt>
      <trkpt lat="63.33933" lon="8.69028">
        <ele>35.082998</ele>
        <time>2020-07-15T14:35:41.361Z</time>
      </trkpt>
      <trkpt lat="63.33951" lon="8.68992">
        <ele>34.970881</ele>
        <time>2020-07-15T14:35:44.602Z</time>
      </trkpt>
      <trkpt lat="63.33983" lon="8.68918">
        <ele>33.322041</ele>
        <time>2020-07-15T14:35:50.791Z</time>
      </trkpt>
      <trkpt lat="63.33999" lon="8.68873">
        <ele>32.324243</ele>
        <time>2020-07-15T14:35:54.018Z</time>
      </trkpt>
      <trkpt lat="63.34005" lon="8.6885">
        <ele>31.877323</ele>
        <time>2020-07-15T14:35:55.552Z</time>
      </trkpt>
      <trkpt lat="63.34008" lon="8.68836">
        <ele>31.599942</ele>
        <time>2020-07-15T14:35:56.453Z</time>
      </trkpt>
      <trkpt lat="63.34012" lon="8.6882">
        <ele>31.282392</ele>
        <time>2020-07-15T14:35:57.418Z</time>
      </trkpt>
      <trkpt lat="63.34037" lon="8.6876">
        <ele>29.853099</ele>
        <time>2020-07-15T14:36:01.959Z</time>
      </trkpt>
      <trkpt lat="63.34081" lon="8.68693">
        <ele>27.721397</ele>
        <time>2020-07-15T14:36:08.598Z</time>
      </trkpt>
      <trkpt lat="63.34131" lon="8.68679">
        <ele>25.314703</ele>
        <time>2020-07-15T14:36:14.662Z</time>
      </trkpt>
      <trkpt lat="63.34157" lon="8.68691">
        <ele>24.013462</ele>
        <time>2020-07-15T14:36:17.946Z</time>
      </trkpt>
      <trkpt lat="63.34212" lon="8.68765">
        <ele>20.907331</ele>
        <time>2020-07-15T14:36:25.781Z</time>
      </trkpt>
      <trkpt lat="63.34237" lon="8.68781">
        <ele>19.664769</ele>
        <time>2020-07-15T14:36:28.934Z</time>
      </trkpt>
      <trkpt lat="63.34266" lon="8.68778">
        <ele>18.634948</ele>
        <time>2020-07-15T14:36:32.433Z</time>
      </trkpt>
      <trkpt lat="63.34335" lon="8.68741">
        <ele>16.380806</ele>
        <time>2020-07-15T14:36:41.328Z</time>
      </trkpt>
      <trkpt lat="63.34371" lon="8.68748">
        <ele>15.230844</ele>
        <time>2020-07-15T14:36:45.912Z</time>
      </trkpt>
      <trkpt lat="63.34477" lon="8.68885">
        <ele>14.728857</ele>
        <time>2020-07-15T14:37:05.190Z</time>
      </trkpt>
      <trkpt lat="63.34511" lon="8.68919">
        <ele>15.329891</ele>
        <time>2020-07-15T14:37:14.641Z</time>
      </trkpt>
      <trkpt lat="63.34526" lon="8.68924">
        <ele>15.56731</ele>
        <time>2020-07-15T14:37:18.461Z</time>
      </trkpt>
      <trkpt lat="63.34529" lon="8.68923">
        <ele>15.620976</ele>
        <time>2020-07-15T14:37:19.431Z</time>
      </trkpt>
      <trkpt lat="63.34534" lon="8.68921">
        <ele>15.698057</ele>
        <time>2020-07-15T14:37:21.402Z</time>
      </trkpt>
      <trkpt lat="63.34542" lon="8.68915">
        <ele>15.833531</ele>
        <time>2020-07-15T14:37:23.397Z</time>
      </trkpt>
      <trkpt lat="63.34555" lon="8.68901">
        <ele>16.067016</ele>
        <time>2020-07-15T14:37:27.614Z</time>
      </trkpt>
      <trkpt lat="63.34591" lon="8.68859">
        <ele>17.097026</ele>
        <time>2020-07-15T14:37:39.949Z</time>
      </trkpt>
      <trkpt lat="63.3462" lon="8.68834">
        <ele>18.434317</ele>
        <time>2020-07-15T14:37:50.463Z</time>
      </trkpt>
      <trkpt lat="63.34674" lon="8.68831">
        <ele>20.697517</ele>
        <time>2020-07-15T14:38:09.942Z</time>
      </trkpt>
      <trkpt lat="63.34692" lon="8.68814">
        <ele>21.559105</ele>
        <time>2020-07-15T14:38:16.850Z</time>
      </trkpt>
      <trkpt lat="63.34702" lon="8.68765">
        <ele>22.571728</ele>
        <time>2020-07-15T14:38:24.307Z</time>
      </trkpt>
      <trkpt lat="63.34708" lon="8.68631">
        <ele>24.126518</ele>
        <time>2020-07-15T14:38:40.075Z</time>
      </trkpt>
      <trkpt lat="63.34711" lon="8.68617">
        <ele>24.138844</ele>
        <time>2020-07-15T14:38:42.549Z</time>
      </trkpt>
      <trkpt lat="63.34714" lon="8.68609">
        <ele>24.147222</ele>
        <time>2020-07-15T14:38:43.407Z</time>
      </trkpt>
      <trkpt lat="63.34753" lon="8.6857">
        <ele>24.221144</ele>
        <time>2020-07-15T14:38:51.801Z</time>
      </trkpt>
      <trkpt lat="63.34762" lon="8.68556">
        <ele>24.241438</ele>
        <time>2020-07-15T14:38:54.213Z</time>
      </trkpt>
      <trkpt lat="63.34778" lon="8.68531">
        <ele>24.275693</ele>
        <time>2020-07-15T14:38:57.167Z</time>
      </trkpt>
      <trkpt lat="63.34784" lon="8.68521">
        <ele>24.287488</ele>
        <time>2020-07-15T14:38:58.286Z</time>
      </trkpt>
      <trkpt lat="63.34789" lon="8.68513">
        <ele>24.299237</ele>
        <time>2020-07-15T14:38:59.606Z</time>
      </trkpt>
      <trkpt lat="63.34844" lon="8.68424">
        <ele>24.123039</ele>
        <time>2020-07-15T14:39:09.420Z</time>
      </trkpt>
      <trkpt lat="63.34853" lon="8.68415">
        <ele>23.854378</ele>
        <time>2020-07-15T14:39:11.115Z</time>
      </trkpt>
      <trkpt lat="63.34858" lon="8.68413">
        <ele>23.72634</ele>
        <time>2020-07-15T14:39:11.667Z</time>
      </trkpt>
      <trkpt lat="63.34886" lon="8.68417">
        <ele>23.027867</ele>
        <time>2020-07-15T14:39:15.736Z</time>
      </trkpt>
      <trkpt lat="63.34921" lon="8.68453">
        <ele>22.058748</ele>
        <time>2020-07-15T14:39:20.906Z</time>
      </trkpt>
      <trkpt lat="63.34943" lon="8.68461">
        <ele>21.498166</ele>
        <time>2020-07-15T14:39:23.687Z</time>
      </trkpt>
      <trkpt lat="63.35004" lon="8.68418">
        <ele>19.858839</ele>
        <time>2020-07-15T14:39:32.165Z</time>
      </trkpt>
      <trkpt lat="63.35062" lon="8.68395">
        <ele>19.323593</ele>
        <time>2020-07-15T14:39:40.779Z</time>
      </trkpt>
      <trkpt lat="63.35104" lon="8.68367">
        <ele>18.931192</ele>
        <time>2020-07-15T14:39:47.732Z</time>
      </trkpt>
      <trkpt lat="63.35122" lon="8.68369">
        <ele>18.77807</ele>
        <time>2020-07-15T14:39:50.728Z</time>
      </trkpt>
      <trkpt lat="63.35181" lon="8.68408">
        <ele>18.243583</ele>
        <time>2020-07-15T14:40:01.614Z</time>
      </trkpt>
      <trkpt lat="63.35234" lon="8.68405">
        <ele>18.360465</ele>
        <time>2020-07-15T14:40:11.941Z</time>
      </trkpt>
      <trkpt lat="63.35251" lon="8.684">
        <ele>18.398335</ele>
        <time>2020-07-15T14:40:15.198Z</time>
      </trkpt>
      <trkpt lat="63.35264" lon="8.68397">
        <ele>18.427179</ele>
        <time>2020-07-15T14:40:17.935Z</time>
      </trkpt>
      <trkpt lat="63.35295" lon="8.684">
        <ele>18.49766</ele>
        <time>2020-07-15T14:40:23.963Z</time>
      </trkpt>
      <trkpt lat="63.35361" lon="8.68437">
        <ele>18.612887</ele>
        <time>2020-07-15T14:40:36.226Z</time>
      </trkpt>
      <trkpt lat="63.35407" lon="8.68461">
        <ele>18.320181</ele>
        <time>2020-07-15T14:40:44.385Z</time>
      </trkpt>
      <trkpt lat="63.35487" lon="8.68505">
        <ele>17.811729</ele>
        <time>2020-07-15T14:40:57.818Z</time>
      </trkpt>
      <trkpt lat="63.3551" lon="8.68519">
        <ele>17.664535</ele>
        <time>2020-07-15T14:41:01.677Z</time>
      </trkpt>
      <trkpt lat="63.35539" lon="8.68535">
        <ele>17.295406</ele>
        <time>2020-07-15T14:41:06.507Z</time>
      </trkpt>
      <trkpt lat="63.35573" lon="8.68553">
        <ele>16.282033</ele>
        <time>2020-07-15T14:41:11.157Z</time>
      </trkpt>
      <trkpt lat="63.3559" lon="8.68561">
        <ele>15.762669</ele>
        <time>2020-07-15T14:41:13.831Z</time>
      </trkpt>
      <trkpt lat="63.35699" lon="8.68618">
        <ele>12.454462</ele>
        <time>2020-07-15T14:41:28.292Z</time>
      </trkpt>
      <trkpt lat="63.35701" lon="8.68624">
        <ele>12.352572</ele>
        <time>2020-07-15T14:41:28.710Z</time>
      </trkpt>
      <trkpt lat="63.35702" lon="8.68629">
        <ele>12.279875</ele>
        <time>2020-07-15T14:41:28.960Z</time>
      </trkpt>
      <trkpt lat="63.35705" lon="8.68763">
        <ele>9.697522</ele>
        <time>2020-07-15T14:41:36.534Z</time>
      </trkpt>
      <trkpt lat="63.35713" lon="8.68843">
        <ele>8.094361</ele>
        <time>2020-07-15T14:41:40.949Z</time>
      </trkpt>
      <trkpt lat="63.35771" lon="8.69104">
        <ele>3.370368</ele>
        <time>2020-07-15T14:41:57.303Z</time>
      </trkpt>
      <trkpt lat="63.35776" lon="8.69125">
        <ele>3.145354</ele>
        <time>2020-07-15T14:41:58.671Z</time>
      </trkpt>
      <trkpt lat="63.35779" lon="8.69145">
        <ele>2.935132</ele>
        <time>2020-07-15T14:42:00.048Z</time>
      </trkpt>
      <trkpt lat="63.35802" lon="8.69423">
        <ele>0.425372</ele>
        <time>2020-07-15T14:42:18.908Z</time>
      </trkpt>
      <trkpt lat="63.3582" lon="8.69503">
        <ele>0.324222</ele>
        <time>2020-07-15T14:42:25.792Z</time>
      </trkpt>
      <trkpt lat="63.35855" lon="8.69593">
        <ele>0.189353</ele>
        <time>2020-07-15T14:42:35.292Z</time>
      </trkpt>
      <trkpt lat="63.35868" lon="8.69623">
        <ele>0.140905</ele>
        <time>2020-07-15T14:42:38.703Z</time>
      </trkpt>
      <trkpt lat="63.35873" lon="8.69637">
        <ele>0.121641</ele>
        <time>2020-07-15T14:42:40.064Z</time>
      </trkpt>
      <trkpt lat="63.36005" lon="8.69932">
        <ele>0.851746</ele>
        <time>2020-07-15T14:43:13.511Z</time>
      </trkpt>
      <trkpt lat="63.36117" lon="8.70185">
        <ele>4.248566</ele>
        <time>2020-07-15T14:43:53.649Z</time>
      </trkpt>
      <trkpt lat="63.36124" lon="8.70202">
        <ele>4.527229</ele>
        <time>2020-07-15T14:43:58.896Z</time>
      </trkpt>
      <trkpt lat="63.36151" lon="8.70278">
        <ele>5.676852</ele>
        <time>2020-07-15T14:44:10.511Z</time>
      </trkpt>
      <trkpt lat="63.36172" lon="8.70403">
        <ele>6.843952</ele>
        <time>2020-07-15T14:44:25.177Z</time>
      </trkpt>
      <trkpt lat="63.36175" lon="8.70414">
        <ele>6.940996</ele>
        <time>2020-07-15T14:44:28.793Z</time>
      </trkpt>
      <trkpt lat="63.36177" lon="8.70417">
        <ele>6.991106</ele>
        <time>2020-07-15T14:44:29.119Z</time>
      </trkpt>
      <trkpt lat="63.36191" lon="8.70423">
        <ele>7.257883</ele>
        <time>2020-07-15T14:44:31.617Z</time>
      </trkpt>
      <trkpt lat="63.36223" lon="8.70411">
        <ele>7.840855</ele>
        <time>2020-07-15T14:44:40.265Z</time>
      </trkpt>
      <trkpt lat="63.36263" lon="8.70374">
        <ele>8.640351</ele>
        <time>2020-07-15T14:44:49.183Z</time>
      </trkpt>
      <trkpt lat="63.36293" lon="8.70318">
        <ele>9.246772</ele>
        <time>2020-07-15T14:44:56.826Z</time>
      </trkpt>
      <trkpt lat="63.36392" lon="8.70101">
        <ele>10.191532</ele>
        <time>2020-07-15T14:45:23.397Z</time>
      </trkpt>
      <trkpt lat="63.36417" lon="8.70067">
        <ele>10.388373</ele>
        <time>2020-07-15T14:45:30.286Z</time>
      </trkpt>
      <trkpt lat="63.36455" lon="8.70056">
        <ele>10.167542</ele>
        <time>2020-07-15T14:45:39.617Z</time>
      </trkpt>
      <trkpt lat="63.36512" lon="8.70116">
        <ele>9.763237</ele>
        <time>2020-07-15T14:45:49.487Z</time>
      </trkpt>
      <trkpt lat="63.36533" lon="8.70117">
        <ele>9.632208</ele>
        <time>2020-07-15T14:45:53.962Z</time>
      </trkpt>
      <trkpt lat="63.36561" lon="8.70082">
        <ele>9.425745</ele>
        <time>2020-07-15T14:45:58.622Z</time>
      </trkpt>
      <trkpt lat="63.36585" lon="8.70004">
        <ele>8.781669</ele>
        <time>2020-07-15T14:46:04.621Z</time>
      </trkpt>
      <trkpt lat="63.36588" lon="8.7">
        <ele>8.667214</ele>
        <time>2020-07-15T14:46:05.022Z</time>
      </trkpt>
      <trkpt lat="63.3659" lon="8.69982">
        <ele>8.412964</ele>
        <time>2020-07-15T14:46:05.977Z</time>
      </trkpt>
      <trkpt lat="63.36644" lon="8.69792">
        <ele>5.253906</ele>
        <time>2020-07-15T14:46:19.056Z</time>
      </trkpt>
      <trkpt lat="63.367" lon="8.69696">
        <ele>3.875122</ele>
        <time>2020-07-15T14:46:28.055Z</time>
      </trkpt>
      <trkpt lat="63.36713" lon="8.69675">
        <ele>4.082557</ele>
        <time>2020-07-15T14:46:30.340Z</time>
      </trkpt>
      <trkpt lat="63.36727" lon="8.69648">
        <ele>4.328485</ele>
        <time>2020-07-15T14:46:33.229Z</time>
      </trkpt>
      <trkpt lat="63.36749" lon="8.69585">
        <ele>4.797893</ele>
        <time>2020-07-15T14:46:40.913Z</time>
      </trkpt>
      <trkpt lat="63.36751" lon="8.69474">
        <ele>5.443172</ele>
        <time>2020-07-15T14:46:52.395Z</time>
      </trkpt>
      <trkpt lat="63.36756" lon="8.69436">
        <ele>5.674546</ele>
        <time>2020-07-15T14:46:57.935Z</time>
      </trkpt>
      <trkpt lat="63.36772" lon="8.69402">
        <ele>5.959738</ele>
        <time>2020-07-15T14:47:05.949Z</time>
      </trkpt>
      <trkpt lat="63.36793" lon="8.69382">
        <ele>7.977772</ele>
        <time>2020-07-15T14:47:13.742Z</time>
      </trkpt>
      <trkpt lat="63.36805" lon="8.69376">
        <ele>9.150953</ele>
        <time>2020-07-15T14:47:18.964Z</time>
      </trkpt>
      <trkpt lat="63.36823" lon="8.6937">
        <ele>10.856905</ele>
        <time>2020-07-15T14:47:26.210Z</time>
      </trkpt>
      <trkpt lat="63.36898" lon="8.69371">
        <ele>17.885187</ele>
        <time>2020-07-15T14:48:01.998Z</time>
      </trkpt>
      <trkpt lat="63.36906" lon="8.69371">
        <ele>18.607822</ele>
        <time>2020-07-15T14:48:06.361Z</time>
      </trkpt>
      <trkpt lat="63.36912" lon="8.69371">
        <ele>19.227129</ele>
        <time>2020-07-15T14:48:09.234Z</time>
      </trkpt>
      <trkpt lat="63.36951" lon="8.69347">
        <ele>23.042696</ele>
        <time>2020-07-15T14:48:31.395Z</time>
      </trkpt>
      <trkpt lat="63.36959" lon="8.69335">
        <ele>24.58503</ele>
        <time>2020-07-15T14:48:37.379Z</time>
      </trkpt>
      <trkpt lat="63.36982" lon="8.69301">
        <ele>28.907855</ele>
        <time>2020-07-15T14:48:58.326Z</time>
      </trkpt>
      <trkpt lat="63.37018" lon="8.69281">
        <ele>34.720911</ele>
        <time>2020-07-15T14:49:24.156Z</time>
      </trkpt>
      <trkpt lat="63.37028" lon="8.69281">
        <ele>36.321509</ele>
        <time>2020-07-15T14:49:30.378Z</time>
      </trkpt>
      <trkpt lat="63.37032" lon="8.69282">
        <ele>36.886929</ele>
        <time>2020-07-15T14:49:33.777Z</time>
      </trkpt>
      <trkpt lat="63.37066" lon="8.69299">
        <ele>42.368005</ele>
        <time>2020-07-15T14:49:58.760Z</time>
      </trkpt>
      <trkpt lat="63.37091" lon="8.69323">
        <ele>46.717261</ele>
        <time>2020-07-15T14:50:15.963Z</time>
      </trkpt>
      <trkpt lat="63.37104" lon="8.69341">
        <ele>49.109937</ele>
        <time>2020-07-15T14:50:28.399Z</time>
      </trkpt>
      <trkpt lat="63.37107" lon="8.69345">
        <ele>49.62773</ele>
        <time>2020-07-15T14:50:31.441Z</time>
      </trkpt>
      <trkpt lat="63.37211" lon="8.6954">
        <ele>66.22083</ele>
        <time>2020-07-15T14:51:55.814Z</time>
      </trkpt>
      <trkpt lat="63.37282" lon="8.69686">
        <ele>74.400761</ele>
        <time>2020-07-15T14:52:34.757Z</time>
      </trkpt>
      <trkpt lat="63.37318" lon="8.69761">
        <ele>76.474097</ele>
        <time>2020-07-15T14:52:49.158Z</time>
      </trkpt>
      <trkpt lat="63.37353" lon="8.69824">
        <ele>78.355085</ele>
        <time>2020-07-15T14:53:00.881Z</time>
      </trkpt>
      <trkpt lat="63.37364" lon="8.69841">
        <ele>78.93558</ele>
        <time>2020-07-15T14:53:04.699Z</time>
      </trkpt>
      <trkpt lat="63.37371" lon="8.69848">
        <ele>79.251045</ele>
        <time>2020-07-15T14:53:06.630Z</time>
      </trkpt>
      <trkpt lat="63.37413" lon="8.69874">
        <ele>80.982935</ele>
        <time>2020-07-15T14:53:18.012Z</time>
      </trkpt>
      <trkpt lat="63.3747" lon="8.69864">
        <ele>83.072375</ele>
        <time>2020-07-15T14:53:33.058Z</time>
      </trkpt>
      <trkpt lat="63.37485" lon="8.69856">
        <ele>83.667984</ele>
        <time>2020-07-15T14:53:37.752Z</time>
      </trkpt>
      <trkpt lat="63.37523" lon="8.69832">
        <ele>85.109936</ele>
        <time>2020-07-15T14:53:49.731Z</time>
      </trkpt>
      <trkpt lat="63.37581" lon="8.69811">
        <ele>87.514368</ele>
        <time>2020-07-15T14:54:09.585Z</time>
      </trkpt>
      <trkpt lat="63.37616" lon="8.69815">
        <ele>89.355426</ele>
        <time>2020-07-15T14:54:22.196Z</time>
      </trkpt>
      <trkpt lat="63.3778" lon="8.69921">
        <ele>97.813025</ele>
        <time>2020-07-15T14:55:21.982Z</time>
      </trkpt>
      <trkpt lat="63.37844" lon="8.69928">
        <ele>100.297657</ele>
        <time>2020-07-15T14:55:42.138Z</time>
      </trkpt>
      <trkpt lat="63.37865" lon="8.69922">
        <ele>101.117217</ele>
        <time>2020-07-15T14:55:48.639Z</time>
      </trkpt>
      <trkpt lat="63.37891" lon="8.69913">
        <ele>102.122324</ele>
        <time>2020-07-15T14:55:56.039Z</time>
      </trkpt>
      <trkpt lat="63.38006" lon="8.69876">
        <ele>103.265819</ele>
        <time>2020-07-15T14:56:23.573Z</time>
      </trkpt>
      <trkpt lat="63.38069" lon="8.69872">
        <ele>103.284579</ele>
        <time>2020-07-15T14:56:33.779Z</time>
      </trkpt>
      <trkpt lat="63.38363" lon="8.69874">
        <ele>92.920828</ele>
        <time>2020-07-15T14:57:11.759Z</time>
      </trkpt>
      <trkpt lat="63.38534" lon="8.69876">
        <ele>82.499166</ele>
        <time>2020-07-15T14:57:31.449Z</time>
      </trkpt>
      <trkpt lat="63.38602" lon="8.6987">
        <ele>77.680975</ele>
        <time>2020-07-15T14:57:39.204Z</time>
      </trkpt>
      <trkpt lat="63.38662" lon="8.6984">
        <ele>73.932456</ele>
        <time>2020-07-15T14:57:46.220Z</time>
      </trkpt>
      <trkpt lat="63.38713" lon="8.69778">
        <ele>71.172166</ele>
        <time>2020-07-15T14:57:53.048Z</time>
      </trkpt>
      <trkpt lat="63.38756" lon="8.69683">
        <ele>68.339541</ele>
        <time>2020-07-15T14:58:00.551Z</time>
      </trkpt>
      <trkpt lat="63.38766" lon="8.69652">
        <ele>67.536277</ele>
        <time>2020-07-15T14:58:02.651Z</time>
      </trkpt>
      <trkpt lat="63.38782" lon="8.69598">
        <ele>66.707163</ele>
        <time>2020-07-15T14:58:06.742Z</time>
      </trkpt>
      <trkpt lat="63.3885" lon="8.69367">
        <ele>67.6959</ele>
        <time>2020-07-15T14:58:29.822Z</time>
      </trkpt>
      <trkpt lat="63.38876" lon="8.69291">
        <ele>68.042396</ele>
        <time>2020-07-15T14:58:42.782Z</time>
      </trkpt>
      <trkpt lat="63.38917" lon="8.69215">
        <ele>70.090406</ele>
        <time>2020-07-15T14:58:59.650Z</time>
      </trkpt>
      <trkpt lat="63.3897" lon="8.69155">
        <ele>72.500683</ele>
        <time>2020-07-15T14:59:19.039Z</time>
      </trkpt>
      <trkpt lat="63.39075" lon="8.69095">
        <ele>76.215158</ele>
        <time>2020-07-15T14:59:52.254Z</time>
      </trkpt>
      <trkpt lat="63.39155" lon="8.6908">
        <ele>78.004616</ele>
        <time>2020-07-15T15:00:12.707Z</time>
      </trkpt>
      <trkpt lat="63.39247" lon="8.69096">
        <ele>79.130159</ele>
        <time>2020-07-15T15:00:31.790Z</time>
      </trkpt>
      <trkpt lat="63.39286" lon="8.69121">
        <ele>78.804686</ele>
        <time>2020-07-15T15:00:39.131Z</time>
      </trkpt>
      <trkpt lat="63.39321" lon="8.69161">
        <ele>78.492089</ele>
        <time>2020-07-15T15:00:45.835Z</time>
      </trkpt>
      <trkpt lat="63.39334" lon="8.69181">
        <ele>78.367243</ele>
        <time>2020-07-15T15:00:47.960Z</time>
      </trkpt>
      <trkpt lat="63.39338" lon="8.69187">
        <ele>78.33116</ele>
        <time>2020-07-15T15:00:48.678Z</time>
      </trkpt>
      <trkpt lat="63.39346" lon="8.69203">
        <ele>78.243609</ele>
        <time>2020-07-15T15:00:50.324Z</time>
      </trkpt>
      <trkpt lat="63.39377" lon="8.69278">
        <ele>77.660087</ele>
        <time>2020-07-15T15:00:56.599Z</time>
      </trkpt>
      <trkpt lat="63.39413" lon="8.69397">
        <ele>75.439793</ele>
        <time>2020-07-15T15:01:05.086Z</time>
      </trkpt>
      <trkpt lat="63.39416" lon="8.69406">
        <ele>75.270088</ele>
        <time>2020-07-15T15:01:05.726Z</time>
      </trkpt>
      <trkpt lat="63.39418" lon="8.69418">
        <ele>75.06102</ele>
        <time>2020-07-15T15:01:06.412Z</time>
      </trkpt>
      <trkpt lat="63.39574" lon="8.69952">
        <ele>65.073473</ele>
        <time>2020-07-15T15:01:42.660Z</time>
      </trkpt>
      <trkpt lat="63.39614" lon="8.70047">
        <ele>64.203277</ele>
        <time>2020-07-15T15:01:50.956Z</time>
      </trkpt>
      <trkpt lat="63.3973" lon="8.70267">
        <ele>62.566526</ele>
        <time>2020-07-15T15:02:15.037Z</time>
      </trkpt>
      <trkpt lat="63.39745" lon="8.70297">
        <ele>62.5898</ele>
        <time>2020-07-15T15:02:18.870Z</time>
      </trkpt>
      <trkpt lat="63.39764" lon="8.70339">
        <ele>62.621421</ele>
        <time>2020-07-15T15:02:23.781Z</time>
      </trkpt>
      <trkpt lat="63.3978" lon="8.70375">
        <ele>62.648078</ele>
        <time>2020-07-15T15:02:27.907Z</time>
      </trkpt>
      <trkpt lat="63.39806" lon="8.70432">
        <ele>62.691091</ele>
        <time>2020-07-15T15:02:34.902Z</time>
      </trkpt>
      <trkpt lat="63.39819" lon="8.70456">
        <ele>62.710443</ele>
        <time>2020-07-15T15:02:38.353Z</time>
      </trkpt>
      <trkpt lat="63.39921" lon="8.70626">
        <ele>63.615539</ele>
        <time>2020-07-15T15:03:03.935Z</time>
      </trkpt>
      <trkpt lat="63.40032" lon="8.70798">
        <ele>64.82996</ele>
        <time>2020-07-15T15:03:32.379Z</time>
      </trkpt>
      <trkpt lat="63.40036" lon="8.70805">
        <ele>64.882928</ele>
        <time>2020-07-15T15:03:33.552Z</time>
      </trkpt>
      <trkpt lat="63.40093" lon="8.70889">
        <ele>65.556938</ele>
        <time>2020-07-15T15:03:47.654Z</time>
      </trkpt>
      <trkpt lat="63.40157" lon="8.70969">
        <ele>66.257399</ele>
        <time>2020-07-15T15:04:03.239Z</time>
      </trkpt>
      <trkpt lat="63.4018" lon="8.70994">
        <ele>66.490343</ele>
        <time>2020-07-15T15:04:08.756Z</time>
      </trkpt>
      <trkpt lat="63.40265" lon="8.71087">
        <ele>67.343595</ele>
        <time>2020-07-15T15:04:28.839Z</time>
      </trkpt>
      <trkpt lat="63.40393" lon="8.71225">
        <ele>67.151994</ele>
        <time>2020-07-15T15:04:55.794Z</time>
      </trkpt>
      <trkpt lat="63.40444" lon="8.71279">
        <ele>66.936215</ele>
        <time>2020-07-15T15:05:03.965Z</time>
      </trkpt>
      <trkpt lat="63.4049" lon="8.71317">
        <ele>66.017471</ele>
        <time>2020-07-15T15:05:11.212Z</time>
      </trkpt>
      <trkpt lat="63.405" lon="8.71321">
        <ele>65.800712</ele>
        <time>2020-07-15T15:05:12.680Z</time>
      </trkpt>
      <trkpt lat="63.40498" lon="8.71329">
        <ele>65.703361</ele>
        <time>2020-07-15T15:05:13.215Z</time>
      </trkpt>
      <trkpt lat="63.40533" lon="8.7157">
        <ele>63.213833</ele>
        <time>2020-07-15T15:05:29.520Z</time>
      </trkpt>
      <trkpt lat="63.40602" lon="8.71876">
        <ele>59.755372</ele>
        <time>2020-07-15T15:05:52.226Z</time>
      </trkpt>
      <trkpt lat="63.40616" lon="8.71963">
        <ele>58.743306</ele>
        <time>2020-07-15T15:05:58.170Z</time>
      </trkpt>
      <trkpt lat="63.40617" lon="8.71976">
        <ele>58.463021</ele>
        <time>2020-07-15T15:05:59.047Z</time>
      </trkpt>
      <trkpt lat="63.40618" lon="8.71982">
        <ele>58.319403</ele>
        <time>2020-07-15T15:05:59.489Z</time>
      </trkpt>
      <trkpt lat="63.40621" lon="8.7201">
        <ele>57.687778</ele>
        <time>2020-07-15T15:06:01.366Z</time>
      </trkpt>
      <trkpt lat="63.40622" lon="8.72029">
        <ele>57.277755</ele>
        <time>2020-07-15T15:06:02.606Z</time>
      </trkpt>
      <trkpt lat="63.40623" lon="8.72029">
        <ele>57.203362</ele>
        <time>2020-07-15T15:06:02.837Z</time>
      </trkpt>
      <trkpt lat="63.40714" lon="8.7231">
        <ele>49.130392</ele>
        <time>2020-07-15T15:06:28.605Z</time>
      </trkpt>
      <trkpt lat="63.40732" lon="8.72312">
        <ele>47.39832</ele>
        <time>2020-07-15T15:06:31.401Z</time>
      </trkpt>
      <trkpt lat="63.40753" lon="8.72299">
        <ele>45.220357</ele>
        <time>2020-07-15T15:06:34.765Z</time>
      </trkpt>
      <trkpt lat="63.40772" lon="8.72304">
        <ele>43.391331</ele>
        <time>2020-07-15T15:06:37.790Z</time>
      </trkpt>
      <trkpt lat="63.40778" lon="8.72313">
        <ele>42.670589</ele>
        <time>2020-07-15T15:06:38.806Z</time>
      </trkpt>
      <trkpt lat="63.4079" lon="8.72324">
        <ele>41.385818</ele>
        <time>2020-07-15T15:06:40.693Z</time>
      </trkpt>
      <trkpt lat="63.40823" lon="8.72375">
        <ele>37.463532</ele>
        <time>2020-07-15T15:06:46.616Z</time>
      </trkpt>
      <trkpt lat="63.40847" lon="8.72433">
        <ele>33.976525</ele>
        <time>2020-07-15T15:06:51.828Z</time>
      </trkpt>
      <trkpt lat="63.40895" lon="8.72445">
        <ele>29.085776</ele>
        <time>2020-07-15T15:06:59.049Z</time>
      </trkpt>
      <trkpt lat="63.40898" lon="8.72446">
        <ele>28.769065</ele>
        <time>2020-07-15T15:06:59.494Z</time>
      </trkpt>
      <trkpt lat="63.40905" lon="8.72477">
        <ele>27.206119</ele>
        <time>2020-07-15T15:07:01.675Z</time>
      </trkpt>
      <trkpt lat="63.40925" lon="8.72622">
        <ele>20.327183</ele>
        <time>2020-07-15T15:07:11.822Z</time>
      </trkpt>
      <trkpt lat="63.40948" lon="8.72706">
        <ele>15.861015</ele>
        <time>2020-07-15T15:07:18.549Z</time>
      </trkpt>
      <trkpt lat="63.4096" lon="8.72734">
        <ele>14.103767</ele>
        <time>2020-07-15T15:07:21.171Z</time>
      </trkpt>
      <trkpt lat="63.40969" lon="8.72731">
        <ele>13.614226</ele>
        <time>2020-07-15T15:07:22.182Z</time>
      </trkpt>
      <trkpt lat="63.41076" lon="8.72662">
        <ele>7.327535</ele>
        <time>2020-07-15T15:07:36.005Z</time>
      </trkpt>
      <trkpt lat="63.41086" lon="8.7266">
        <ele>6.773038</ele>
        <time>2020-07-15T15:07:37.213Z</time>
      </trkpt>
      <trkpt lat="63.41088" lon="8.72663">
        <ele>6.648742</ele>
        <time>2020-07-15T15:07:37.471Z</time>
      </trkpt>
      <trkpt lat="63.41108" lon="8.7268">
        <ele>5.405521</ele>
        <time>2020-07-15T15:07:40.405Z</time>
      </trkpt>
      <trkpt lat="63.41114" lon="8.7268">
        <ele>5.101083</ele>
        <time>2020-07-15T15:07:41.087Z</time>
      </trkpt>
      <trkpt lat="63.41114" lon="8.72695">
        <ele>4.73268</ele>
        <time>2020-07-15T15:07:41.901Z</time>
      </trkpt>
      <trkpt lat="63.41112" lon="8.72742">
        <ele>3.920742</ele>
        <time>2020-07-15T15:07:45.059Z</time>
      </trkpt>
      <trkpt lat="63.41111" lon="8.72754">
        <ele>3.853283</ele>
        <time>2020-07-15T15:07:45.787Z</time>
      </trkpt>
      <trkpt lat="63.41108" lon="8.72774">
        <ele>3.732934</ele>
        <time>2020-07-15T15:07:46.997Z</time>
      </trkpt>
      <trkpt lat="63.41093" lon="8.72879">
        <ele>3.129032</ele>
        <time>2020-07-15T15:07:54.040Z</time>
      </trkpt>
      <trkpt lat="63.41098" lon="8.72927">
        <ele>2.861305</ele>
        <time>2020-07-15T15:07:57.032Z</time>
      </trkpt>
      <trkpt lat="63.41114" lon="8.72987">
        <ele>2.470793</ele>
        <time>2020-07-15T15:08:02.207Z</time>
      </trkpt>
      <trkpt lat="63.41133" lon="8.73032">
        <ele>2.137561</ele>
        <time>2020-07-15T15:08:07.346Z</time>
      </trkpt>
      <trkpt lat="63.41145" lon="8.73062">
        <ele>1.913509</ele>
        <time>2020-07-15T15:08:10.735Z</time>
      </trkpt>
      <trkpt lat="63.41153" lon="8.7308">
        <ele>1.934606</ele>
        <time>2020-07-15T15:08:13.116Z</time>
      </trkpt>
      <trkpt lat="63.4117" lon="8.73131">
        <ele>3.025291</ele>
        <time>2020-07-15T15:08:18.940Z</time>
      </trkpt>
      <trkpt lat="63.41179" lon="8.73178">
        <ele>3.909662</ele>
        <time>2020-07-15T15:08:24.072Z</time>
      </trkpt>
      <trkpt lat="63.4118" lon="8.73194">
        <ele>4.180299</ele>
        <time>2020-07-15T15:08:25.884Z</time>
      </trkpt>
      <trkpt lat="63.41181" lon="8.73213">
        <ele>4.516601</ele>
        <time>2020-07-15T15:08:28.480Z</time>
      </trkpt>
      <trkpt lat="63.41183" lon="8.73394">
        <ele>7.621817</ele>
        <time>2020-07-15T15:08:55.608Z</time>
      </trkpt>
      <trkpt lat="63.41193" lon="8.73482">
        <ele>9.521441</ele>
        <time>2020-07-15T15:09:10.942Z</time>
      </trkpt>
      <trkpt lat="63.412" lon="8.73525">
        <ele>10.869165</ele>
        <time>2020-07-15T15:09:19.258Z</time>
      </trkpt>
      <trkpt lat="63.4121" lon="8.73583">
        <ele>12.730931</ele>
        <time>2020-07-15T15:09:30.955Z</time>
      </trkpt>
      <trkpt lat="63.41239" lon="8.73762">
        <ele>18.395352</ele>
        <time>2020-07-15T15:10:07.374Z</time>
      </trkpt>
      <trkpt lat="63.41273" lon="8.74011">
        <ele>23.726787</ele>
        <time>2020-07-15T15:10:45.843Z</time>
      </trkpt>
      <trkpt lat="63.41276" lon="8.74021">
        <ele>23.944044</ele>
        <time>2020-07-15T15:10:48.300Z</time>
      </trkpt>
      <trkpt lat="63.41278" lon="8.74026">
        <ele>24.062511</ele>
        <time>2020-07-15T15:10:48.660Z</time>
      </trkpt>
      <trkpt lat="63.41321" lon="8.74072">
        <ele>25.814952</ele>
        <time>2020-07-15T15:11:00.308Z</time>
      </trkpt>
      <trkpt lat="63.4134" lon="8.74092">
        <ele>26.600379</ele>
        <time>2020-07-15T15:11:06.583Z</time>
      </trkpt>
      <trkpt lat="63.41347" lon="8.741">
        <ele>26.904958</ele>
        <time>2020-07-15T15:11:07.818Z</time>
      </trkpt>
      <trkpt lat="63.41369" lon="8.74125">
        <ele>28.092229</ele>
        <time>2020-07-15T15:11:15.208Z</time>
      </trkpt>
      <trkpt lat="63.41384" lon="8.74144">
        <ele>29.176034</ele>
        <time>2020-07-15T15:11:20.061Z</time>
      </trkpt>
      <trkpt lat="63.41401" lon="8.74165">
        <ele>30.34109</ele>
        <time>2020-07-15T15:11:25.575Z</time>
      </trkpt>
      <trkpt lat="63.41431" lon="8.74211">
        <ele>32.559569</ele>
        <time>2020-07-15T15:11:35.084Z</time>
      </trkpt>
      <trkpt lat="63.41437" lon="8.74222">
        <ele>33.038266</ele>
        <time>2020-07-15T15:11:37.562Z</time>
      </trkpt>
      <trkpt lat="63.41445" lon="8.7424">
        <ele>33.735688</ele>
        <time>2020-07-15T15:11:45.087Z</time>
      </trkpt>
      <trkpt lat="63.41467" lon="8.74307">
        <ele>35.988399</ele>
        <time>2020-07-15T15:12:00.229Z</time>
      </trkpt>
      <trkpt lat="63.41504" lon="8.74484">
        <ele>42.790149</ele>
        <time>2020-07-15T15:12:41.485Z</time>
      </trkpt>
      <trkpt lat="63.41511" lon="8.74517">
        <ele>44.310263</ele>
        <time>2020-07-15T15:12:51.556Z</time>
      </trkpt>
      <trkpt lat="63.41512" lon="8.74521">
        <ele>44.507442</ele>
        <time>2020-07-15T15:12:53.609Z</time>
      </trkpt>
      <trkpt lat="63.41545" lon="8.74635">
        <ele>49.999964</ele>
        <time>2020-07-15T15:13:20.996Z</time>
      </trkpt>
      <trkpt lat="63.41605" lon="8.74729">
        <ele>55.588031</ele>
        <time>2020-07-15T15:13:54.003Z</time>
      </trkpt>
      <trkpt lat="63.41629" lon="8.74777">
        <ele>56.87789</ele>
        <time>2020-07-15T15:14:06.700Z</time>
      </trkpt>
      <trkpt lat="63.41762" lon="8.75141">
        <ele>61.749691</ele>
        <time>2020-07-15T15:14:59.679Z</time>
      </trkpt>
      <trkpt lat="63.41782" lon="8.75196">
        <ele>61.637278</ele>
        <time>2020-07-15T15:15:04.644Z</time>
      </trkpt>
      <trkpt lat="63.41815" lon="8.7525">
        <ele>61.495932</ele>
        <time>2020-07-15T15:15:10.214Z</time>
      </trkpt>
      <trkpt lat="63.41882" lon="8.75324">
        <ele>58.419243</ele>
        <time>2020-07-15T15:15:19.597Z</time>
      </trkpt>
      <trkpt lat="63.41904" lon="8.75374">
        <ele>56.575922</ele>
        <time>2020-07-15T15:15:23.361Z</time>
      </trkpt>
      <trkpt lat="63.41919" lon="8.75435">
        <ele>54.768083</ele>
        <time>2020-07-15T15:15:26.918Z</time>
      </trkpt>
      <trkpt lat="63.41923" lon="8.7548">
        <ele>53.581154</ele>
        <time>2020-07-15T15:15:29.230Z</time>
      </trkpt>
      <trkpt lat="63.41918" lon="8.75685">
        <ele>49.460685</ele>
        <time>2020-07-15T15:15:39.754Z</time>
      </trkpt>
      <trkpt lat="63.41925" lon="8.75806">
        <ele>47.695669</ele>
        <time>2020-07-15T15:15:46.567Z</time>
      </trkpt>
      <trkpt lat="63.41932" lon="8.7586">
        <ele>46.891116</ele>
        <time>2020-07-15T15:15:49.728Z</time>
      </trkpt>
      <trkpt lat="63.41935" lon="8.75878">
        <ele>46.620757</ele>
        <time>2020-07-15T15:15:51.150Z</time>
      </trkpt>
      <trkpt lat="63.41991" lon="8.76249">
        <ele>49.058487</ele>
        <time>2020-07-15T15:16:33.054Z</time>
      </trkpt>
      <trkpt lat="63.41997" lon="8.76276">
        <ele>49.451312</ele>
        <time>2020-07-15T15:16:37.772Z</time>
      </trkpt>
      <trkpt lat="63.42" lon="8.7629">
        <ele>49.656929</ele>
        <time>2020-07-15T15:16:40.754Z</time>
      </trkpt>
      <trkpt lat="63.42043" lon="8.76434">
        <ele>53.664351</ele>
        <time>2020-07-15T15:17:09.270Z</time>
      </trkpt>
      <trkpt lat="63.42167" lon="8.76766">
        <ele>63.880026</ele>
        <time>2020-07-15T15:18:26.451Z</time>
      </trkpt>
      <trkpt lat="63.42187" lon="8.7684">
        <ele>64.947975</ele>
        <time>2020-07-15T15:18:38.183Z</time>
      </trkpt>
      <trkpt lat="63.42206" lon="8.76939">
        <ele>66.280982</ele>
        <time>2020-07-15T15:18:48.850Z</time>
      </trkpt>
      <trkpt lat="63.4221" lon="8.76967">
        <ele>66.642072</ele>
        <time>2020-07-15T15:18:52.932Z</time>
      </trkpt>
      <trkpt lat="63.42216" lon="8.77022">
        <ele>66.634149</ele>
        <time>2020-07-15T15:18:56.437Z</time>
      </trkpt>
      <trkpt lat="63.42267" lon="8.77648">
        <ele>46.690301</ele>
        <time>2020-07-15T15:19:28.837Z</time>
      </trkpt>
      <trkpt lat="63.4228" lon="8.77768">
        <ele>42.264442</ele>
        <time>2020-07-15T15:19:34.925Z</time>
      </trkpt>
      <trkpt lat="63.42286" lon="8.77809">
        <ele>40.742481</ele>
        <time>2020-07-15T15:19:37.071Z</time>
      </trkpt>
      <trkpt lat="63.42287" lon="8.77812">
        <ele>40.6304</ele>
        <time>2020-07-15T15:19:37.220Z</time>
      </trkpt>
      <trkpt lat="63.42297" lon="8.7787">
        <ele>38.509462</ele>
        <time>2020-07-15T15:19:40.412Z</time>
      </trkpt>
      <trkpt lat="63.42305" lon="8.77915">
        <ele>36.87594</ele>
        <time>2020-07-15T15:19:42.833Z</time>
      </trkpt>
      <trkpt lat="63.42324" lon="8.78015">
        <ele>33.149896</ele>
        <time>2020-07-15T15:19:48.306Z</time>
      </trkpt>
      <trkpt lat="63.42339" lon="8.78113">
        <ele>29.638344</ele>
        <time>2020-07-15T15:19:53.533Z</time>
      </trkpt>
      <trkpt lat="63.42345" lon="8.78209">
        <ele>26.947518</ele>
        <time>2020-07-15T15:19:58.783Z</time>
      </trkpt>
      <trkpt lat="63.42346" lon="8.78235">
        <ele>26.501962</ele>
        <time>2020-07-15T15:20:00.089Z</time>
      </trkpt>
      <trkpt lat="63.42347" lon="8.78258">
        <ele>26.081389</ele>
        <time>2020-07-15T15:20:01.344Z</time>
      </trkpt>
      <trkpt lat="63.42348" lon="8.78682">
        <ele>20.47997</ele>
        <time>2020-07-15T15:20:25.966Z</time>
      </trkpt>
      <trkpt lat="63.42343" lon="8.78826">
        <ele>20.467508</ele>
        <time>2020-07-15T15:20:38.367Z</time>
      </trkpt>
      <trkpt lat="63.4234" lon="8.78878">
        <ele>20.463033</ele>
        <time>2020-07-15T15:20:44.313Z</time>
      </trkpt>
      <trkpt lat="63.42322" lon="8.79112">
        <ele>21.335796</ele>
        <time>2020-07-15T15:21:10.614Z</time>
      </trkpt>
      <trkpt lat="63.42321" lon="8.79158">
        <ele>21.622345</ele>
        <time>2020-07-15T15:21:15.193Z</time>
      </trkpt>
      <trkpt lat="63.42321" lon="8.79176">
        <ele>21.740908</ele>
        <time>2020-07-15T15:21:18.021Z</time>
      </trkpt>
      <trkpt lat="63.42322" lon="8.79204">
        <ele>21.914588</ele>
        <time>2020-07-15T15:21:20.786Z</time>
      </trkpt>
      <trkpt lat="63.42371" lon="8.79546">
        <ele>23.372876</ele>
        <time>2020-07-15T15:21:51.411Z</time>
      </trkpt>
      <trkpt lat="63.42385" lon="8.79661">
        <ele>23.62251</ele>
        <time>2020-07-15T15:22:00.679Z</time>
      </trkpt>
      <trkpt lat="63.42395" lon="8.79733">
        <ele>23.781886</ele>
        <time>2020-07-15T15:22:07.827Z</time>
      </trkpt>
      <trkpt lat="63.42428" lon="8.79907">
        <ele>25.683981</ele>
        <time>2020-07-15T15:22:27.010Z</time>
      </trkpt>
      <trkpt lat="63.42434" lon="8.79935">
        <ele>26.020197</ele>
        <time>2020-07-15T15:22:30.717Z</time>
      </trkpt>
      <trkpt lat="63.42438" lon="8.79951">
        <ele>26.220604</ele>
        <time>2020-07-15T15:22:33.269Z</time>
      </trkpt>
      <trkpt lat="63.42524" lon="8.80284">
        <ele>30.216663</ele>
        <time>2020-07-15T15:23:21.714Z</time>
      </trkpt>
      <trkpt lat="63.42563" lon="8.80462">
        <ele>32.202404</ele>
        <time>2020-07-15T15:23:42.007Z</time>
      </trkpt>
      <trkpt lat="63.42583" lon="8.8056">
        <ele>31.852612</ele>
        <time>2020-07-15T15:23:51.781Z</time>
      </trkpt>
      <trkpt lat="63.42778" lon="8.81519">
        <ele>28.114283</ele>
        <time>2020-07-15T15:25:04.279Z</time>
      </trkpt>
      <trkpt lat="63.42785" lon="8.81556">
        <ele>27.94919</ele>
        <time>2020-07-15T15:25:07.195Z</time>
      </trkpt>
      <trkpt lat="63.42804" lon="8.8167">
        <ele>28.172632</ele>
        <time>2020-07-15T15:25:16.702Z</time>
      </trkpt>
      <trkpt lat="63.42808" lon="8.81708">
        <ele>28.256131</ele>
        <time>2020-07-15T15:25:19.734Z</time>
      </trkpt>
      <trkpt lat="63.42809" lon="8.81715">
        <ele>28.271452</ele>
        <time>2020-07-15T15:25:20.475Z</time>
      </trkpt>
      <trkpt lat="63.42815" lon="8.81811">
        <ele>28.478007</ele>
        <time>2020-07-15T15:25:29.055Z</time>
      </trkpt>
      <trkpt lat="63.42815" lon="8.81908">
        <ele>28.68586</ele>
        <time>2020-07-15T15:25:38.253Z</time>
      </trkpt>
      <trkpt lat="63.42805" lon="8.8206">
        <ele>30.007259</ele>
        <time>2020-07-15T15:25:53.585Z</time>
      </trkpt>
      <trkpt lat="63.42802" lon="8.82086">
        <ele>30.311129</ele>
        <time>2020-07-15T15:25:56.569Z</time>
      </trkpt>
      <trkpt lat="63.42794" lon="8.82144">
        <ele>30.991034</ele>
        <time>2020-07-15T15:26:03.562Z</time>
      </trkpt>
      <trkpt lat="63.42773" lon="8.82344">
        <ele>33.312762</ele>
        <time>2020-07-15T15:26:29.696Z</time>
      </trkpt>
      <trkpt lat="63.42772" lon="8.82364">
        <ele>33.485574</ele>
        <time>2020-07-15T15:26:32.418Z</time>
      </trkpt>
      <trkpt lat="63.4277" lon="8.82417">
        <ele>33.934925</ele>
        <time>2020-07-15T15:26:39.199Z</time>
      </trkpt>
      <trkpt lat="63.42766" lon="8.82476">
        <ele>34.431128</ele>
        <time>2020-07-15T15:26:46.461Z</time>
      </trkpt>
      <trkpt lat="63.42762" lon="8.82586">
        <ele>35.360315</ele>
        <time>2020-07-15T15:26:58.725Z</time>
      </trkpt>
      <trkpt lat="63.42758" lon="8.82669">
        <ele>36.059189</ele>
        <time>2020-07-15T15:27:07.398Z</time>
      </trkpt>
      <trkpt lat="63.42757" lon="8.8271">
        <ele>36.397117</ele>
        <time>2020-07-15T15:27:11.172Z</time>
      </trkpt>
      <trkpt lat="63.42757" lon="8.82807">
        <ele>35.769294</ele>
        <time>2020-07-15T15:27:19.130Z</time>
      </trkpt>
      <trkpt lat="63.42771" lon="8.82971">
        <ele>33.229108</ele>
        <time>2020-07-15T15:27:29.590Z</time>
      </trkpt>
      <trkpt lat="63.42771" lon="8.83036">
        <ele>32.247462</ele>
        <time>2020-07-15T15:27:32.986Z</time>
      </trkpt>
      <trkpt lat="63.42762" lon="8.83099">
        <ele>31.236126</ele>
        <time>2020-07-15T15:27:36.467Z</time>
      </trkpt>
      <trkpt lat="63.42731" lon="8.83224">
        <ele>27.688453</ele>
        <time>2020-07-15T15:27:43.893Z</time>
      </trkpt>
      <trkpt lat="63.42723" lon="8.83289">
        <ele>25.758997</ele>
        <time>2020-07-15T15:27:47.355Z</time>
      </trkpt>
      <trkpt lat="63.42723" lon="8.83315">
        <ele>25.01391</ele>
        <time>2020-07-15T15:27:48.665Z</time>
      </trkpt>
      <trkpt lat="63.42723" lon="8.83349">
        <ele>24.02441</ele>
        <time>2020-07-15T15:27:50.402Z</time>
      </trkpt>
      <trkpt lat="63.42729" lon="8.83477">
        <ele>20.302969</ele>
        <time>2020-07-15T15:27:57.087Z</time>
      </trkpt>
      <trkpt lat="63.42721" lon="8.83574">
        <ele>18.639375</ele>
        <time>2020-07-15T15:28:02.363Z</time>
      </trkpt>
      <trkpt lat="63.427" lon="8.83641">
        <ele>18.093595</ele>
        <time>2020-07-15T15:28:06.906Z</time>
      </trkpt>
      <trkpt lat="63.42662" lon="8.83692">
        <ele>17.433424</ele>
        <time>2020-07-15T15:28:13.948Z</time>
      </trkpt>
      <trkpt lat="63.42632" lon="8.83713">
        <ele>16.966795</ele>
        <time>2020-07-15T15:28:19.742Z</time>
      </trkpt>
      <trkpt lat="63.42608" lon="8.83732">
        <ele>16.579185</ele>
        <time>2020-07-15T15:28:25.384Z</time>
      </trkpt>
      <trkpt lat="63.42577" lon="8.83757">
        <ele>16.602852</ele>
        <time>2020-07-15T15:28:32.937Z</time>
      </trkpt>
      <trkpt lat="63.42544" lon="8.83812">
        <ele>17.47982</ele>
        <time>2020-07-15T15:28:42.719Z</time>
      </trkpt>
      <trkpt lat="63.42535" lon="8.83841">
        <ele>17.824346</ele>
        <time>2020-07-15T15:28:47.450Z</time>
      </trkpt>
      <trkpt lat="63.42527" lon="8.83875">
        <ele>18.179362</ele>
        <time>2020-07-15T15:28:51.459Z</time>
      </trkpt>
      <trkpt lat="63.4252" lon="8.83968">
        <ele>19.085268</ele>
        <time>2020-07-15T15:29:03.138Z</time>
      </trkpt>
      <trkpt lat="63.42546" lon="8.84179">
        <ele>20.628977</ele>
        <time>2020-07-15T15:29:26.892Z</time>
      </trkpt>
      <trkpt lat="63.42545" lon="8.84291">
        <ele>21.126681</ele>
        <time>2020-07-15T15:29:36.744Z</time>
      </trkpt>
      <trkpt lat="63.42543" lon="8.84384">
        <ele>21.543932</ele>
        <time>2020-07-15T15:29:44.962Z</time>
      </trkpt>
      <trkpt lat="63.42539" lon="8.84498">
        <ele>21.989431</ele>
        <time>2020-07-15T15:29:54.839Z</time>
      </trkpt>
      <trkpt lat="63.42536" lon="8.84592">
        <ele>22.173604</ele>
        <time>2020-07-15T15:30:02.813Z</time>
      </trkpt>
      <trkpt lat="63.42501" lon="8.84911">
        <ele>23.188599</ele>
        <time>2020-07-15T15:30:30.548Z</time>
      </trkpt>
      <trkpt lat="63.42496" lon="8.84952">
        <ele>23.616151</ele>
        <time>2020-07-15T15:30:34.399Z</time>
      </trkpt>
      <trkpt lat="63.42493" lon="8.84976">
        <ele>23.860689</ele>
        <time>2020-07-15T15:30:36.732Z</time>
      </trkpt>
      <trkpt lat="63.42429" lon="8.85527">
        <ele>30.939664</ele>
        <time>2020-07-15T15:31:46.560Z</time>
      </trkpt>
      <trkpt lat="63.42425" lon="8.85593">
        <ele>31.924618</ele>
        <time>2020-07-15T15:31:55.927Z</time>
      </trkpt>
      <trkpt lat="63.42427" lon="8.85691">
        <ele>33.335893</ele>
        <time>2020-07-15T15:32:09.524Z</time>
      </trkpt>
      <trkpt lat="63.42436" lon="8.85774">
        <ele>34.513957</ele>
        <time>2020-07-15T15:32:21.290Z</time>
      </trkpt>
      <trkpt lat="63.42455" lon="8.85872">
        <ele>35.97846</ele>
        <time>2020-07-15T15:32:35.196Z</time>
      </trkpt>
      <trkpt lat="63.42519" lon="8.86054">
        <ele>38.47759</ele>
        <time>2020-07-15T15:33:00.835Z</time>
      </trkpt>
      <trkpt lat="63.42558" lon="8.86198">
        <ele>39.028796</ele>
        <time>2020-07-15T15:33:16.732Z</time>
      </trkpt>
      <trkpt lat="63.42583" lon="8.86367">
        <ele>39.62075</ele>
        <time>2020-07-15T15:33:30.531Z</time>
      </trkpt>
      <trkpt lat="63.42586" lon="8.86426">
        <ele>39.870032</ele>
        <time>2020-07-15T15:33:34.892Z</time>
      </trkpt>
      <trkpt lat="63.42587" lon="8.86445">
        <ele>39.952073</ele>
        <time>2020-07-15T15:33:36.293Z</time>
      </trkpt>
      <trkpt lat="63.42583" lon="8.86531">
        <ele>40.311534</ele>
        <time>2020-07-15T15:33:42.964Z</time>
      </trkpt>
      <trkpt lat="63.42573" lon="8.86592">
        <ele>40.588151</ele>
        <time>2020-07-15T15:33:48.783Z</time>
      </trkpt>
      <trkpt lat="63.42547" lon="8.86665">
        <ele>40.981261</ele>
        <time>2020-07-15T15:33:58.197Z</time>
      </trkpt>
      <trkpt lat="63.42515" lon="8.86713">
        <ele>41.656171</ele>
        <time>2020-07-15T15:34:07.861Z</time>
      </trkpt>
      <trkpt lat="63.42489" lon="8.86733">
        <ele>43.214796</ele>
        <time>2020-07-15T15:34:15.588Z</time>
      </trkpt>
      <trkpt lat="63.42457" lon="8.8674">
        <ele>45.029705</ele>
        <time>2020-07-15T15:34:25.913Z</time>
      </trkpt>
      <trkpt lat="63.42368" lon="8.86708">
        <ele>50.093208</ele>
        <time>2020-07-15T15:35:01.488Z</time>
      </trkpt>
      <trkpt lat="63.42332" lon="8.86726">
        <ele>51.745257</ele>
        <time>2020-07-15T15:35:17.886Z</time>
      </trkpt>
      <trkpt lat="63.42309" lon="8.86756">
        <ele>52.456176</ele>
        <time>2020-07-15T15:35:29.796Z</time>
      </trkpt>
      <trkpt lat="63.42288" lon="8.86806">
        <ele>53.290325</ele>
        <time>2020-07-15T15:35:41.459Z</time>
      </trkpt>
      <trkpt lat="63.42267" lon="8.86882">
        <ele>54.375692</ele>
        <time>2020-07-15T15:35:51.950Z</time>
      </trkpt>
      <trkpt lat="63.42249" lon="8.86968">
        <ele>55.526167</ele>
        <time>2020-07-15T15:35:59.880Z</time>
      </trkpt>
      <trkpt lat="63.42237" lon="8.87061">
        <ele>54.590468</ele>
        <time>2020-07-15T15:36:05.936Z</time>
      </trkpt>
      <trkpt lat="63.42235" lon="8.87086">
        <ele>53.550467</ele>
        <time>2020-07-15T15:36:07.389Z</time>
      </trkpt>
      <trkpt lat="63.42233" lon="8.8712">
        <ele>52.091139</ele>
        <time>2020-07-15T15:36:09.099Z</time>
      </trkpt>
      <trkpt lat="63.42231" lon="8.87225">
        <ele>47.679392</ele>
        <time>2020-07-15T15:36:14.377Z</time>
      </trkpt>
      <trkpt lat="63.42237" lon="8.87323">
        <ele>43.521962</ele>
        <time>2020-07-15T15:36:19.109Z</time>
      </trkpt>
      <trkpt lat="63.42255" lon="8.87478">
        <ele>35.959632</ele>
        <time>2020-07-15T15:36:26.595Z</time>
      </trkpt>
      <trkpt lat="63.42253" lon="8.87568">
        <ele>30.964943</ele>
        <time>2020-07-15T15:36:30.845Z</time>
      </trkpt>
      <trkpt lat="63.42242" lon="8.87636">
        <ele>26.981712</ele>
        <time>2020-07-15T15:36:34.244Z</time>
      </trkpt>
      <trkpt lat="63.42223" lon="8.87693">
        <ele>23.043418</ele>
        <time>2020-07-15T15:36:37.616Z</time>
      </trkpt>
      <trkpt lat="63.42195" lon="8.8774">
        <ele>18.627515</ele>
        <time>2020-07-15T15:36:41.459Z</time>
      </trkpt>
      <trkpt lat="63.4217" lon="8.87762">
        <ele>16.29181</ele>
        <time>2020-07-15T15:36:44.309Z</time>
      </trkpt>
      <trkpt lat="63.42125" lon="8.87768">
        <ele>13.762395</ele>
        <time>2020-07-15T15:36:49.431Z</time>
      </trkpt>
      <trkpt lat="63.42001" lon="8.87702">
        <ele>7.013078</ele>
        <time>2020-07-15T15:37:05.427Z</time>
      </trkpt>
      <trkpt lat="63.41913" lon="8.87694">
        <ele>6.148731</ele>
        <time>2020-07-15T15:37:19.411Z</time>
      </trkpt>
      <trkpt lat="63.41825" lon="8.87728">
        <ele>5.310806</ele>
        <time>2020-07-15T15:37:34.866Z</time>
      </trkpt>
      <trkpt lat="63.41701" lon="8.87822">
        <ele>5.492715</ele>
        <time>2020-07-15T15:37:57.254Z</time>
      </trkpt>
      <trkpt lat="63.41641" lon="8.87829">
        <ele>6.023455</ele>
        <time>2020-07-15T15:38:09.510Z</time>
      </trkpt>
      <trkpt lat="63.41593" lon="8.87798">
        <ele>7.573364</ele>
        <time>2020-07-15T15:38:21.191Z</time>
      </trkpt>
      <trkpt lat="63.41562" lon="8.87755">
        <ele>8.719682</ele>
        <time>2020-07-15T15:38:31.463Z</time>
      </trkpt>
      <trkpt lat="63.41525" lon="8.87671">
        <ele>10.36382</ele>
        <time>2020-07-15T15:38:48.439Z</time>
      </trkpt>
      <trkpt lat="63.41477" lon="8.87522">
        <ele>13.42816</ele>
        <time>2020-07-15T15:39:15.627Z</time>
      </trkpt>
      <trkpt lat="63.41467" lon="8.87495">
        <ele>14.044486</ele>
        <time>2020-07-15T15:39:21.312Z</time>
      </trkpt>
      <trkpt lat="63.4145" lon="8.87444">
        <ele>15.192193</ele>
        <time>2020-07-15T15:39:30.299Z</time>
      </trkpt>
      <trkpt lat="63.4141" lon="8.87343">
        <ele>17.607546</ele>
        <time>2020-07-15T15:39:48.220Z</time>
      </trkpt>
      <trkpt lat="63.41368" lon="8.87263">
        <ele>18.475369</ele>
        <time>2020-07-15T15:40:03.397Z</time>
      </trkpt>
      <trkpt lat="63.4129" lon="8.87151">
        <ele>18.750404</ele>
        <time>2020-07-15T15:40:20.277Z</time>
      </trkpt>
      <trkpt lat="63.4123" lon="8.87095">
        <ele>18.625</ele>
        <time>2020-07-15T15:40:29.953Z</time>
      </trkpt>
      <trkpt lat="63.41188" lon="8.8707">
        <ele>17.780158</ele>
        <time>2020-07-15T15:40:35.673Z</time>
      </trkpt>
      <trkpt lat="63.41141" lon="8.87058">
        <ele>16.839198</ele>
        <time>2020-07-15T15:40:42.083Z</time>
      </trkpt>
      <trkpt lat="63.41095" lon="8.87059">
        <ele>15.945576</ele>
        <time>2020-07-15T15:40:48.446Z</time>
      </trkpt>
      <trkpt lat="63.41067" lon="8.87065">
        <ele>15.384506</ele>
        <time>2020-07-15T15:40:52.520Z</time>
      </trkpt>
      <trkpt lat="63.41054" lon="8.87068">
        <ele>15.56881</ele>
        <time>2020-07-15T15:40:54.593Z</time>
      </trkpt>
      <trkpt lat="63.40991" lon="8.8707">
        <ele>16.626849</ele>
        <time>2020-07-15T15:41:05.971Z</time>
      </trkpt>
      <trkpt lat="63.40897" lon="8.87011">
        <ele>18.256404</ele>
        <time>2020-07-15T15:41:31.986Z</time>
      </trkpt>
      <trkpt lat="63.40835" lon="8.86989">
        <ele>20.901908</ele>
        <time>2020-07-15T15:41:53.194Z</time>
      </trkpt>
      <trkpt lat="63.40771" lon="8.86998">
        <ele>23.852355</ele>
        <time>2020-07-15T15:42:14.992Z</time>
      </trkpt>
      <trkpt lat="63.40717" lon="8.87035">
        <ele>26.44356</ele>
        <time>2020-07-15T15:42:33.451Z</time>
      </trkpt>
      <trkpt lat="63.40672" lon="8.87091">
        <ele>28.865192</ele>
        <time>2020-07-15T15:42:49.742Z</time>
      </trkpt>
      <trkpt lat="63.40598" lon="8.87218">
        <ele>33.192309</ele>
        <time>2020-07-15T15:43:19.365Z</time>
      </trkpt>
      <trkpt lat="63.40554" lon="8.87278">
        <ele>35.741244</ele>
        <time>2020-07-15T15:43:37.060Z</time>
      </trkpt>
      <trkpt lat="63.40436" lon="8.87349">
        <ele>42.747023</ele>
        <time>2020-07-15T15:44:22.370Z</time>
      </trkpt>
      <trkpt lat="63.40391" lon="8.87399">
        <ele>45.512587</ele>
        <time>2020-07-15T15:44:40.981Z</time>
      </trkpt>
      <trkpt lat="63.40361" lon="8.87456">
        <ele>47.189507</ele>
        <time>2020-07-15T15:44:54.708Z</time>
      </trkpt>
      <trkpt lat="63.40343" lon="8.87507">
        <ele>48.439138</ele>
        <time>2020-07-15T15:45:04.235Z</time>
      </trkpt>
      <trkpt lat="63.40302" lon="8.87674">
        <ele>52.047937</ele>
        <time>2020-07-15T15:45:29.233Z</time>
      </trkpt>
      <trkpt lat="63.40268" lon="8.8777">
        <ele>53.23437</ele>
        <time>2020-07-15T15:45:45.093Z</time>
      </trkpt>
      <trkpt lat="63.40231" lon="8.87836">
        <ele>53.668378</ele>
        <time>2020-07-15T15:45:57.755Z</time>
      </trkpt>
      <trkpt lat="63.40151" lon="8.87934">
        <ele>54.501061</ele>
        <time>2020-07-15T15:46:13.188Z</time>
      </trkpt>
      <trkpt lat="63.40136" lon="8.87953">
        <ele>54.186134</ele>
        <time>2020-07-15T15:46:17.151Z</time>
      </trkpt>
      <trkpt lat="63.40132" lon="8.87958">
        <ele>54.026268</ele>
        <time>2020-07-15T15:46:17.631Z</time>
      </trkpt>
      <trkpt lat="63.39967" lon="8.88211">
        <ele>46.419722</ele>
        <time>2020-07-15T15:46:42.723Z</time>
      </trkpt>
      <trkpt lat="63.39906" lon="8.88276">
        <ele>43.02828</ele>
        <time>2020-07-15T15:46:50.716Z</time>
      </trkpt>
      <trkpt lat="63.39832" lon="8.88326">
        <ele>39.143713</ele>
        <time>2020-07-15T15:46:59.923Z</time>
      </trkpt>
      <trkpt lat="63.39742" lon="8.88358">
        <ele>38.028431</ele>
        <time>2020-07-15T15:47:11.720Z</time>
      </trkpt>
      <trkpt lat="63.39671" lon="8.8836">
        <ele>37.175502</ele>
        <time>2020-07-15T15:47:23.718Z</time>
      </trkpt>
      <trkpt lat="63.39539" lon="8.88309">
        <ele>43.626325</ele>
        <time>2020-07-15T15:48:10.685Z</time>
      </trkpt>
      <trkpt lat="63.39497" lon="8.88306">
        <ele>45.996329</ele>
        <time>2020-07-15T15:48:28.940Z</time>
      </trkpt>
      <trkpt lat="63.39444" lon="8.88321">
        <ele>48.741918</ele>
        <time>2020-07-15T15:48:51.568Z</time>
      </trkpt>
      <trkpt lat="63.39399" lon="8.88357">
        <ele>50.936433</ele>
        <time>2020-07-15T15:49:09.131Z</time>
      </trkpt>
      <trkpt lat="63.39354" lon="8.88434">
        <ele>53.565189</ele>
        <time>2020-07-15T15:49:27.759Z</time>
      </trkpt>
      <trkpt lat="63.39291" lon="8.88627">
        <ele>55.62987</ele>
        <time>2020-07-15T15:49:50.967Z</time>
      </trkpt>
      <trkpt lat="63.39267" lon="8.88683">
        <ele>55.65415</ele>
        <time>2020-07-15T15:49:56.407Z</time>
      </trkpt>
      <trkpt lat="63.39245" lon="8.88721">
        <ele>55.673716</ele>
        <time>2020-07-15T15:50:00.680Z</time>
      </trkpt>
      <trkpt lat="63.39168" lon="8.88798">
        <ele>56.018493</ele>
        <time>2020-07-15T15:50:14.447Z</time>
      </trkpt>
      <trkpt lat="63.39141" lon="8.88835">
        <ele>56.330894</ele>
        <time>2020-07-15T15:50:20.380Z</time>
      </trkpt>
      <trkpt lat="63.39113" lon="8.88897">
        <ele>56.717409</ele>
        <time>2020-07-15T15:50:28.110Z</time>
      </trkpt>
      <trkpt lat="63.39087" lon="8.8898">
        <ele>57.171093</ele>
        <time>2020-07-15T15:50:37.862Z</time>
      </trkpt>
      <trkpt lat="63.39057" lon="8.89042">
        <ele>57.907307</ele>
        <time>2020-07-15T15:50:47.658Z</time>
      </trkpt>
      <trkpt lat="63.39019" lon="8.89073">
        <ele>60.042743</ele>
        <time>2020-07-15T15:51:00.003Z</time>
      </trkpt>
      <trkpt lat="63.38935" lon="8.89079">
        <ele>64.446481</ele>
        <time>2020-07-15T15:51:31.543Z</time>
      </trkpt>
      <trkpt lat="63.38908" lon="8.89097">
        <ele>65.935328</ele>
        <time>2020-07-15T15:51:42.510Z</time>
      </trkpt>
      <trkpt lat="63.38875" lon="8.89142">
        <ele>68.426402</ele>
        <time>2020-07-15T15:51:57.514Z</time>
      </trkpt>
      <trkpt lat="63.38843" lon="8.89226">
        <ele>72.111069</ele>
        <time>2020-07-15T15:52:16.168Z</time>
      </trkpt>
      <trkpt lat="63.3881" lon="8.89388">
        <ele>78.102617</ele>
        <time>2020-07-15T15:52:52.885Z</time>
      </trkpt>
      <trkpt lat="63.38784" lon="8.89446">
        <ele>80.731578</ele>
        <time>2020-07-15T15:53:09.006Z</time>
      </trkpt>
      <trkpt lat="63.38754" lon="8.89479">
        <ele>82.286843</ele>
        <time>2020-07-15T15:53:21.785Z</time>
      </trkpt>
      <trkpt lat="63.38746" lon="8.89488">
        <ele>82.686406</ele>
        <time>2020-07-15T15:53:25.933Z</time>
      </trkpt>
      <trkpt lat="63.38741" lon="8.89494">
        <ele>82.954483</ele>
        <time>2020-07-15T15:53:29.011Z</time>
      </trkpt>
      <trkpt lat="63.38717" lon="8.8953">
        <ele>84.308966</ele>
        <time>2020-07-15T15:53:37.985Z</time>
      </trkpt>
      <trkpt lat="63.38645" lon="8.8967">
        <ele>88.777111</ele>
        <time>2020-07-15T15:54:05.721Z</time>
      </trkpt>
      <trkpt lat="63.3862" lon="8.89723">
        <ele>88.810382</ele>
        <time>2020-07-15T15:54:14.624Z</time>
      </trkpt>
      <trkpt lat="63.38599" lon="8.89789">
        <ele>88.771143</ele>
        <time>2020-07-15T15:54:20.048Z</time>
      </trkpt>
      <trkpt lat="63.38589" lon="8.8984">
        <ele>88.744356</ele>
        <time>2020-07-15T15:54:23.579Z</time>
      </trkpt>
      <trkpt lat="63.38583" lon="8.89908">
        <ele>88.710567</ele>
        <time>2020-07-15T15:54:28.082Z</time>
      </trkpt>
      <trkpt lat="63.38584" lon="8.90139">
        <ele>90.118199</ele>
        <time>2020-07-15T15:54:44.950Z</time>
      </trkpt>
      <trkpt lat="63.38565" lon="8.90229">
        <ele>91.471428</ele>
        <time>2020-07-15T15:54:56.219Z</time>
      </trkpt>
      <trkpt lat="63.38544" lon="8.90273">
        <ele>92.341181</ele>
        <time>2020-07-15T15:55:05.243Z</time>
      </trkpt>
      <trkpt lat="63.38524" lon="8.90297">
        <ele>93.028696</ele>
        <time>2020-07-15T15:55:12.905Z</time>
      </trkpt>
      <trkpt lat="63.38454" lon="8.90337">
        <ele>96.143534</ele>
        <time>2020-07-15T15:55:41.025Z</time>
      </trkpt>
      <trkpt lat="63.38412" lon="8.90397">
        <ele>98.952749</ele>
        <time>2020-07-15T15:56:01.428Z</time>
      </trkpt>
      <trkpt lat="63.38349" lon="8.90564">
        <ele>104.189197</ele>
        <time>2020-07-15T15:56:35.539Z</time>
      </trkpt>
      <trkpt lat="63.38323" lon="8.90667">
        <ele>104.341501</ele>
        <time>2020-07-15T15:56:48.796Z</time>
      </trkpt>
      <trkpt lat="63.38309" lon="8.90746">
        <ele>104.45047</ele>
        <time>2020-07-15T15:56:55.724Z</time>
      </trkpt>
      <trkpt lat="63.383" lon="8.90865">
        <ele>104.60595</ele>
        <time>2020-07-15T15:57:03.904Z</time>
      </trkpt>
      <trkpt lat="63.38307" lon="8.90956">
        <ele>104.496112</ele>
        <time>2020-07-15T15:57:09.498Z</time>
      </trkpt>
      <trkpt lat="63.38323" lon="8.91041">
        <ele>103.743278</ele>
        <time>2020-07-15T15:57:15.106Z</time>
      </trkpt>
      <trkpt lat="63.38353" lon="8.91118">
        <ele>102.921269</ele>
        <time>2020-07-15T15:57:21.111Z</time>
      </trkpt>
      <trkpt lat="63.38383" lon="8.9116">
        <ele>102.294207</ele>
        <time>2020-07-15T15:57:25.600Z</time>
      </trkpt>
      <trkpt lat="63.38418" lon="8.91179">
        <ele>101.636306</ele>
        <time>2020-07-15T15:57:31.261Z</time>
      </trkpt>
      <trkpt lat="63.38447" lon="8.91176">
        <ele>101.945</ele>
        <time>2020-07-15T15:57:37.073Z</time>
      </trkpt>
      <trkpt lat="63.38518" lon="8.91127">
        <ele>103.966999</ele>
        <time>2020-07-15T15:57:59.652Z</time>
      </trkpt>
      <trkpt lat="63.38534" lon="8.91123">
        <ele>104.406447</ele>
        <time>2020-07-15T15:58:02.155Z</time>
      </trkpt>
      <trkpt lat="63.38548" lon="8.91123">
        <ele>104.772248</ele>
        <time>2020-07-15T15:58:08.407Z</time>
      </trkpt>
      <trkpt lat="63.38577" lon="8.91139">
        <ele>105.602919</ele>
        <time>2020-07-15T15:58:16.688Z</time>
      </trkpt>
      <trkpt lat="63.3861" lon="8.91183">
        <ele>106.397494</ele>
        <time>2020-07-15T15:58:27.408Z</time>
      </trkpt>
      <trkpt lat="63.38617" lon="8.91198">
        <ele>106.462121</ele>
        <time>2020-07-15T15:58:32.383Z</time>
      </trkpt>
      <trkpt lat="63.38626" lon="8.91222">
        <ele>106.560166</ele>
        <time>2020-07-15T15:58:34.350Z</time>
      </trkpt>
      <trkpt lat="63.38643" lon="8.913">
        <ele>106.818436</ele>
        <time>2020-07-15T15:58:44.660Z</time>
      </trkpt>
      <trkpt lat="63.38651" lon="8.91364">
        <ele>107.020776</ele>
        <time>2020-07-15T15:58:53.981Z</time>
      </trkpt>
      <trkpt lat="63.38655" lon="8.9139">
        <ele>107.101115</ele>
        <time>2020-07-15T15:58:55.632Z</time>
      </trkpt>
      <trkpt lat="63.38663" lon="8.91448">
        <ele>107.284123</ele>
        <time>2020-07-15T15:59:00.691Z</time>
      </trkpt>
      <trkpt lat="63.38683" lon="8.91563">
        <ele>106.378056</ele>
        <time>2020-07-15T15:59:07.893Z</time>
      </trkpt>
      <trkpt lat="63.38704" lon="8.91648">
        <ele>103.653534</ele>
        <time>2020-07-15T15:59:12.953Z</time>
      </trkpt>
      <trkpt lat="63.38729" lon="8.91726">
        <ele>100.95671</ele>
        <time>2020-07-15T15:59:17.859Z</time>
      </trkpt>
      <trkpt lat="63.38786" lon="8.91864">
        <ele>95.743062</ele>
        <time>2020-07-15T15:59:27.522Z</time>
      </trkpt>
      <trkpt lat="63.38802" lon="8.91939">
        <ele>93.589454</ele>
        <time>2020-07-15T15:59:31.783Z</time>
      </trkpt>
      <trkpt lat="63.3881" lon="8.92046">
        <ele>90.769242</ele>
        <time>2020-07-15T15:59:37.420Z</time>
      </trkpt>
      <trkpt lat="63.38807" lon="8.92153">
        <ele>87.985686</ele>
        <time>2020-07-15T15:59:43.118Z</time>
      </trkpt>
      <trkpt lat="63.38796" lon="8.92232">
        <ele>85.855344</ele>
        <time>2020-07-15T15:59:47.693Z</time>
      </trkpt>
      <trkpt lat="63.38773" lon="8.92314">
        <ele>85.126732</ele>
        <time>2020-07-15T15:59:53.342Z</time>
      </trkpt>
      <trkpt lat="63.38728" lon="8.92404">
        <ele>84.098767</ele>
        <time>2020-07-15T16:00:02.079Z</time>
      </trkpt>
      <trkpt lat="63.38578" lon="8.92566">
        <ele>82.376335</ele>
        <time>2020-07-15T16:00:31.196Z</time>
      </trkpt>
      <trkpt lat="63.38432" lon="8.92787">
        <ele>80.526829</ele>
        <time>2020-07-15T16:00:58.938Z</time>
      </trkpt>
      <trkpt lat="63.38385" lon="8.92888">
        <ele>79.475959</ele>
        <time>2020-07-15T16:01:08.211Z</time>
      </trkpt>
      <trkpt lat="63.38324" lon="8.93065">
        <ele>75.431526</ele>
        <time>2020-07-15T16:01:21.403Z</time>
      </trkpt>
      <trkpt lat="63.38293" lon="8.93125">
        <ele>73.368128</ele>
        <time>2020-07-15T16:01:26.445Z</time>
      </trkpt>
      <trkpt lat="63.38269" lon="8.9315">
        <ele>72.059009</ele>
        <time>2020-07-15T16:01:29.556Z</time>
      </trkpt>
      <trkpt lat="63.38243" lon="8.93164">
        <ele>70.754989</ele>
        <time>2020-07-15T16:01:32.601Z</time>
      </trkpt>
      <trkpt lat="63.38122" lon="8.93163">
        <ele>60.434054</ele>
        <time>2020-07-15T16:01:46.051Z</time>
      </trkpt>
      <trkpt lat="63.38099" lon="8.93169">
        <ele>58.323806</ele>
        <time>2020-07-15T16:01:48.619Z</time>
      </trkpt>
      <trkpt lat="63.38067" lon="8.93191">
        <ele>55.341091</ele>
        <time>2020-07-15T16:01:52.235Z</time>
      </trkpt>
      <trkpt lat="63.38038" lon="8.93234">
        <ele>52.542345</ele>
        <time>2020-07-15T16:01:56.031Z</time>
      </trkpt>
      <trkpt lat="63.38011" lon="8.93311">
        <ele>49.304252</ele>
        <time>2020-07-15T16:02:00.921Z</time>
      </trkpt>
      <trkpt lat="63.37984" lon="8.93488">
        <ele>43.168299</ele>
        <time>2020-07-15T16:02:10.522Z</time>
      </trkpt>
      <trkpt lat="63.37963" lon="8.9351">
        <ele>41.486883</ele>
        <time>2020-07-15T16:02:13.284Z</time>
      </trkpt>
      <trkpt lat="63.37937" lon="8.935">
        <ele>40.398773</ele>
        <time>2020-07-15T16:02:16.547Z</time>
      </trkpt>
      <trkpt lat="63.37923" lon="8.93492">
        <ele>40.053302</ele>
        <time>2020-07-15T16:02:18.391Z</time>
      </trkpt>
      <trkpt lat="63.37919" lon="8.93514">
        <ele>39.799133</ele>
        <time>2020-07-15T16:02:19.893Z</time>
      </trkpt>
      <trkpt lat="63.37896" lon="8.93673">
        <ele>38.079072</ele>
        <time>2020-07-15T16:02:30.300Z</time>
      </trkpt>
      <trkpt lat="63.37898" lon="8.93763">
        <ele>37.144004</ele>
        <time>2020-07-15T16:02:36.635Z</time>
      </trkpt>
      <trkpt lat="63.3791" lon="8.93855">
        <ele>36.587843</ele>
        <time>2020-07-15T16:02:43.532Z</time>
      </trkpt>
      <trkpt lat="63.37958" lon="8.94089">
        <ele>36.385864</ele>
        <time>2020-07-15T16:03:03.708Z</time>
      </trkpt>
      <trkpt lat="63.38056" lon="8.94486">
        <ele>36.903178</ele>
        <time>2020-07-15T16:03:41.119Z</time>
      </trkpt>
      <trkpt lat="63.38121" lon="8.94831">
        <ele>38.468236</ele>
        <time>2020-07-15T16:04:17.723Z</time>
      </trkpt>
      <trkpt lat="63.38139" lon="8.94906">
        <ele>38.798662</ele>
        <time>2020-07-15T16:04:25.748Z</time>
      </trkpt>
      <trkpt lat="63.38166" lon="8.94993">
        <ele>38.768401</ele>
        <time>2020-07-15T16:04:34.586Z</time>
      </trkpt>
      <trkpt lat="63.38178" lon="8.95024">
        <ele>38.756101</ele>
        <time>2020-07-15T16:04:38.420Z</time>
      </trkpt>
      <trkpt lat="63.38188" lon="8.95047">
        <ele>38.747209</ele>
        <time>2020-07-15T16:04:40.646Z</time>
      </trkpt>
      <trkpt lat="63.3822" lon="8.9513">
        <ele>38.715556</ele>
        <time>2020-07-15T16:04:49.399Z</time>
      </trkpt>
      <trkpt lat="63.38223" lon="8.95139">
        <ele>38.712558</ele>
        <time>2020-07-15T16:04:50.122Z</time>
      </trkpt>
      <trkpt lat="63.38248" lon="8.95205">
        <ele>38.687541</ele>
        <time>2020-07-15T16:04:56.469Z</time>
      </trkpt>
      <trkpt lat="63.38297" lon="8.95351">
        <ele>37.842384</ele>
        <time>2020-07-15T16:05:08.637Z</time>
      </trkpt>
      <trkpt lat="63.38356" lon="8.9557">
        <ele>36.736911</ele>
        <time>2020-07-15T16:05:26.144Z</time>
      </trkpt>
      <trkpt lat="63.38411" lon="8.95699">
        <ele>36.477724</ele>
        <time>2020-07-15T16:05:39.526Z</time>
      </trkpt>
      <trkpt lat="63.38638" lon="8.96324">
        <ele>36.392144</ele>
        <time>2020-07-15T16:06:44.093Z</time>
      </trkpt>
      <trkpt lat="63.3865" lon="8.96401">
        <ele>36.465922</ele>
        <time>2020-07-15T16:06:50.960Z</time>
      </trkpt>
      <trkpt lat="63.38652" lon="8.96465">
        <ele>36.523914</ele>
        <time>2020-07-15T16:06:56.418Z</time>
      </trkpt>
      <trkpt lat="63.38647" lon="8.96522">
        <ele>36.576995</ele>
        <time>2020-07-15T16:07:01.350Z</time>
      </trkpt>
      <trkpt lat="63.3862" lon="8.96637">
        <ele>36.702114</ele>
        <time>2020-07-15T16:07:12.423Z</time>
      </trkpt>
      <trkpt lat="63.38611" lon="8.96697">
        <ele>36.763122</ele>
        <time>2020-07-15T16:07:17.800Z</time>
      </trkpt>
      <trkpt lat="63.38611" lon="8.9675">
        <ele>36.814795</ele>
        <time>2020-07-15T16:07:22.306Z</time>
      </trkpt>
      <trkpt lat="63.38621" lon="8.96812">
        <ele>36.878608</ele>
        <time>2020-07-15T16:07:27.785Z</time>
      </trkpt>
      <trkpt lat="63.38639" lon="8.96874">
        <ele>36.950106</ele>
        <time>2020-07-15T16:07:33.836Z</time>
      </trkpt>
      <trkpt lat="63.38675" lon="8.96949">
        <ele>36.75515</ele>
        <time>2020-07-15T16:07:42.522Z</time>
      </trkpt>
      <trkpt lat="63.38804" lon="8.97158">
        <ele>36.008712</ele>
        <time>2020-07-15T16:08:08.495Z</time>
      </trkpt>
      <trkpt lat="63.38842" lon="8.97235">
        <ele>35.589947</ele>
        <time>2020-07-15T16:08:16.611Z</time>
      </trkpt>
      <trkpt lat="63.38866" lon="8.97318">
        <ele>35.229734</ele>
        <time>2020-07-15T16:08:23.557Z</time>
      </trkpt>
      <trkpt lat="63.38886" lon="8.97473">
        <ele>34.760568</ele>
        <time>2020-07-15T16:08:34.829Z</time>
      </trkpt>
      <trkpt lat="63.38906" lon="8.97584">
        <ele>34.704937</ele>
        <time>2020-07-15T16:08:43.191Z</time>
      </trkpt>
      <trkpt lat="63.38983" lon="8.97888">
        <ele>35.934661</ele>
        <time>2020-07-15T16:09:13.210Z</time>
      </trkpt>
      <trkpt lat="63.38991" lon="8.97922">
        <ele>36.415046</ele>
        <time>2020-07-15T16:09:16.419Z</time>
      </trkpt>
      <trkpt lat="63.38994" lon="8.97937">
        <ele>36.631215</ele>
        <time>2020-07-15T16:09:18.767Z</time>
      </trkpt>
      <trkpt lat="63.39007" lon="8.98031">
        <ele>37.902493</ele>
        <time>2020-07-15T16:09:31.477Z</time>
      </trkpt>
      <trkpt lat="63.3901" lon="8.98081">
        <ele>38.546619</ele>
        <time>2020-07-15T16:09:38.051Z</time>
      </trkpt>
      <trkpt lat="63.3901" lon="8.98091">
        <ele>38.676597</ele>
        <time>2020-07-15T16:09:40.155Z</time>
      </trkpt>
      <trkpt lat="63.3901" lon="8.98113">
        <ele>38.965495</ele>
        <time>2020-07-15T16:09:43.871Z</time>
      </trkpt>
      <trkpt lat="63.38998" lon="8.98226">
        <ele>40.906921</ele>
        <time>2020-07-15T16:10:00.694Z</time>
      </trkpt>
      <trkpt lat="63.38985" lon="8.98279">
        <ele>42.204297</ele>
        <time>2020-07-15T16:10:10.501Z</time>
      </trkpt>
      <trkpt lat="63.38963" lon="8.9834">
        <ele>43.868832</ele>
        <time>2020-07-15T16:10:22.684Z</time>
      </trkpt>
      <trkpt lat="63.38953" lon="8.9836">
        <ele>44.513415</ele>
        <time>2020-07-15T16:10:27.290Z</time>
      </trkpt>
      <trkpt lat="63.38949" lon="8.98369">
        <ele>44.797708</ele>
        <time>2020-07-15T16:10:29.731Z</time>
      </trkpt>
      <trkpt lat="63.38852" lon="8.98501">
        <ele>49.627924</ele>
        <time>2020-07-15T16:11:04.995Z</time>
      </trkpt>
      <trkpt lat="63.38836" lon="8.98536">
        <ele>50.393034</ele>
        <time>2020-07-15T16:11:11.563Z</time>
      </trkpt>
      <trkpt lat="63.38828" lon="8.98552">
        <ele>50.738901</ele>
        <time>2020-07-15T16:11:15.123Z</time>
      </trkpt>
      <trkpt lat="63.38784" lon="8.98644">
        <ele>52.749101</ele>
        <time>2020-07-15T16:11:30.920Z</time>
      </trkpt>
      <trkpt lat="63.3878" lon="8.98654">
        <ele>52.959513</ele>
        <time>2020-07-15T16:11:32.408Z</time>
      </trkpt>
      <trkpt lat="63.38774" lon="8.98666">
        <ele>53.215663</ele>
        <time>2020-07-15T16:11:35.174Z</time>
      </trkpt>
      <trkpt lat="63.38682" lon="8.9886">
        <ele>56.209027</ele>
        <time>2020-07-15T16:12:09.265Z</time>
      </trkpt>
      <trkpt lat="63.3866" lon="8.98918">
        <ele>56.898917</ele>
        <time>2020-07-15T16:12:17.859Z</time>
      </trkpt>
      <trkpt lat="63.38641" lon="8.98992">
        <ele>57.682824</ele>
        <time>2020-07-15T16:12:26.002Z</time>
      </trkpt>
      <trkpt lat="63.38612" lon="8.9913">
        <ele>57.463207</ele>
        <time>2020-07-15T16:12:38.273Z</time>
      </trkpt>
      <trkpt lat="63.38601" lon="8.99211">
        <ele>57.109191</ele>
        <time>2020-07-15T16:12:44.374Z</time>
      </trkpt>
      <trkpt lat="63.38597" lon="8.99274">
        <ele>56.845657</ele>
        <time>2020-07-15T16:12:48.545Z</time>
      </trkpt>
      <trkpt lat="63.386" lon="8.99427">
        <ele>56.136726</ele>
        <time>2020-07-15T16:12:58.186Z</time>
      </trkpt>
      <trkpt lat="63.38594" lon="8.99479">
        <ele>55.717742</ele>
        <time>2020-07-15T16:13:01.536Z</time>
      </trkpt>
      <trkpt lat="63.38583" lon="8.99519">
        <ele>55.346158</ele>
        <time>2020-07-15T16:13:04.546Z</time>
      </trkpt>
      <trkpt lat="63.38562" lon="8.99563">
        <ele>54.848949</ele>
        <time>2020-07-15T16:13:08.621Z</time>
      </trkpt>
      <trkpt lat="63.38488" lon="8.99677">
        <ele>53.284504</ele>
        <time>2020-07-15T16:13:21.900Z</time>
      </trkpt>
      <trkpt lat="63.38399" lon="8.99878">
        <ele>50.898312</ele>
        <time>2020-07-15T16:13:39.854Z</time>
      </trkpt>
      <trkpt lat="63.3833" lon="8.9996">
        <ele>49.58984</ele>
        <time>2020-07-15T16:13:50.893Z</time>
      </trkpt>
      <trkpt lat="63.38255" lon="9.00091">
        <ele>48.668935</ele>
        <time>2020-07-15T16:14:05.012Z</time>
      </trkpt>
      <trkpt lat="63.3821" lon="9.00132">
        <ele>48.199004</ele>
        <time>2020-07-15T16:14:13.035Z</time>
      </trkpt>
      <trkpt lat="63.38204" lon="9.00134">
        <ele>48.138947</ele>
        <time>2020-07-15T16:14:13.866Z</time>
      </trkpt>
      <trkpt lat="63.3819" lon="9.00139">
        <ele>48.04501</ele>
        <time>2020-07-15T16:14:17.260Z</time>
      </trkpt>
      <trkpt lat="63.38168" lon="9.00138">
        <ele>48.273466</ele>
        <time>2020-07-15T16:14:20.910Z</time>
      </trkpt>
      <trkpt lat="63.38145" lon="9.00132">
        <ele>48.519198</ele>
        <time>2020-07-15T16:14:26.293Z</time>
      </trkpt>
      <trkpt lat="63.37913" lon="9.00075">
        <ele>51.276984</ele>
        <time>2020-07-15T16:15:18.205Z</time>
      </trkpt>
      <trkpt lat="63.37888" lon="9.0007">
        <ele>51.608192</ele>
        <time>2020-07-15T16:15:23.707Z</time>
      </trkpt>
      <trkpt lat="63.37862" lon="9.00063">
        <ele>51.95814</ele>
        <time>2020-07-15T16:15:29.252Z</time>
      </trkpt>
      <trkpt lat="63.37854" lon="9.00061">
        <ele>52.070131</ele>
        <time>2020-07-15T16:15:31.294Z</time>
      </trkpt>
      <trkpt lat="63.37531" lon="8.99981">
        <ele>56.028265</ele>
        <time>2020-07-15T16:16:41.826Z</time>
      </trkpt>
      <trkpt lat="63.37492" lon="8.99982">
        <ele>56.479992</ele>
        <time>2020-07-15T16:16:49.900Z</time>
      </trkpt>
      <trkpt lat="63.37444" lon="9.00003">
        <ele>57.165799</ele>
        <time>2020-07-15T16:17:00.444Z</time>
      </trkpt>
      <trkpt lat="63.3734" lon="9.00112">
        <ele>58.860509</ele>
        <time>2020-07-15T16:17:26.323Z</time>
      </trkpt>
      <trkpt lat="63.37188" lon="9.00287">
        <ele>61.725152</ele>
        <time>2020-07-15T16:18:07.106Z</time>
      </trkpt>
      <trkpt lat="63.37162" lon="9.00316">
        <ele>62.235045</ele>
        <time>2020-07-15T16:18:13.879Z</time>
      </trkpt>
      <trkpt lat="63.37129" lon="9.00345">
        <ele>62.743692</ele>
        <time>2020-07-15T16:18:21.611Z</time>
      </trkpt>
      <trkpt lat="63.37088" lon="9.00367">
        <ele>63.306359</ele>
        <time>2020-07-15T16:18:30.612Z</time>
      </trkpt>
      <trkpt lat="63.3688" lon="9.00446">
        <ele>65.71894</ele>
        <time>2020-07-15T16:19:17.289Z</time>
      </trkpt>
      <trkpt lat="63.36873" lon="9.00446">
        <ele>65.785536</ele>
        <time>2020-07-15T16:19:18.643Z</time>
      </trkpt>
      <trkpt lat="63.36867" lon="9.00447">
        <ele>65.842762</ele>
        <time>2020-07-15T16:19:21.109Z</time>
      </trkpt>
      <trkpt lat="63.3676" lon="9.0041">
        <ele>65.638907</ele>
        <time>2020-07-15T16:19:40.929Z</time>
      </trkpt>
      <trkpt lat="63.36715" lon="9.00417">
        <ele>64.667257</ele>
        <time>2020-07-15T16:19:47.381Z</time>
      </trkpt>
      <trkpt lat="63.36676" lon="9.00459">
        <ele>63.705721</ele>
        <time>2020-07-15T16:19:53.080Z</time>
      </trkpt>
      <trkpt lat="63.366" lon="9.00611">
        <ele>61.535462</ele>
        <time>2020-07-15T16:20:06.005Z</time>
      </trkpt>
      <trkpt lat="63.36573" lon="9.00653">
        <ele>60.841557</ele>
        <time>2020-07-15T16:20:10.396Z</time>
      </trkpt>
      <trkpt lat="63.36533" lon="9.00679">
        <ele>59.966557</ele>
        <time>2020-07-15T16:20:16.268Z</time>
      </trkpt>
      <trkpt lat="63.36423" lon="9.00716">
        <ele>58.897345</ele>
        <time>2020-07-15T16:20:35.423Z</time>
      </trkpt>
      <trkpt lat="63.36373" lon="9.00767">
        <ele>58.994258</ele>
        <time>2020-07-15T16:20:46.887Z</time>
      </trkpt>
      <trkpt lat="63.36341" lon="9.00839">
        <ele>59.074336</ele>
        <time>2020-07-15T16:20:55.752Z</time>
      </trkpt>
      <trkpt lat="63.36325" lon="9.00912">
        <ele>58.982669</ele>
        <time>2020-07-15T16:21:02.081Z</time>
      </trkpt>
      <trkpt lat="63.36318" lon="9.00988">
        <ele>58.59691</ele>
        <time>2020-07-15T16:21:07.719Z</time>
      </trkpt>
      <trkpt lat="63.36321" lon="9.01169">
        <ele>57.708529</ele>
        <time>2020-07-15T16:21:19.508Z</time>
      </trkpt>
      <trkpt lat="63.36318" lon="9.01213">
        <ele>57.488351</ele>
        <time>2020-07-15T16:21:22.450Z</time>
      </trkpt>
      <trkpt lat="63.36302" lon="9.01283">
        <ele>57.161127</ele>
        <time>2020-07-15T16:21:27.675Z</time>
      </trkpt>
      <trkpt lat="63.36273" lon="9.01339">
        <ele>57.363934</ele>
        <time>2020-07-15T16:21:33.581Z</time>
      </trkpt>
      <trkpt lat="63.36253" lon="9.01368">
        <ele>57.493341</ele>
        <time>2020-07-15T16:21:37.471Z</time>
      </trkpt>
      <trkpt lat="63.362" lon="9.01442">
        <ele>57.824622</ele>
        <time>2020-07-15T16:21:49.764Z</time>
      </trkpt>
      <trkpt lat="63.36119" lon="9.01567">
        <ele>59.131373</ele>
        <time>2020-07-15T16:22:14.806Z</time>
      </trkpt>
      <trkpt lat="63.36098" lon="9.01606">
        <ele>59.737539</ele>
        <time>2020-07-15T16:22:22.414Z</time>
      </trkpt>
      <trkpt lat="63.36059" lon="9.0168">
        <ele>60.854514</ele>
        <time>2020-07-15T16:22:35.948Z</time>
      </trkpt>
      <trkpt lat="63.35954" lon="9.01879">
        <ele>63.571512</ele>
        <time>2020-07-15T16:23:07.027Z</time>
      </trkpt>
      <trkpt lat="63.35912" lon="9.01936">
        <ele>64.474992</ele>
        <time>2020-07-15T16:23:17.887Z</time>
      </trkpt>
      <trkpt lat="63.35904" lon="9.01942">
        <ele>64.619671</ele>
        <time>2020-07-15T16:23:19.424Z</time>
      </trkpt>
      <trkpt lat="63.35897" lon="9.01948">
        <ele>64.76435</ele>
        <time>2020-07-15T16:23:21.232Z</time>
      </trkpt>
      <trkpt lat="63.35887" lon="9.01954">
        <ele>64.955611</ele>
        <time>2020-07-15T16:23:23.739Z</time>
      </trkpt>
      <trkpt lat="63.35857" lon="9.01962">
        <ele>65.920005</ele>
        <time>2020-07-15T16:23:31.685Z</time>
      </trkpt>
      <trkpt lat="63.35822" lon="9.01958">
        <ele>67.986189</ele>
        <time>2020-07-15T16:23:41.836Z</time>
      </trkpt>
      <trkpt lat="63.35744" lon="9.01934">
        <ele>72.692677</ele>
        <time>2020-07-15T16:24:09.823Z</time>
      </trkpt>
      <trkpt lat="63.35714" lon="9.01915">
        <ele>74.57167</ele>
        <time>2020-07-15T16:24:23.759Z</time>
      </trkpt>
      <trkpt lat="63.35657" lon="9.0185">
        <ele>79.433626</ele>
        <time>2020-07-15T16:24:55.285Z</time>
      </trkpt>
      <trkpt lat="63.35628" lon="9.01801">
        <ele>82.538515</ele>
        <time>2020-07-15T16:25:13.627Z</time>
      </trkpt>
      <trkpt lat="63.356" lon="9.01737">
        <ele>86.002829</ele>
        <time>2020-07-15T16:25:32.928Z</time>
      </trkpt>
      <trkpt lat="63.35542" lon="9.01574">
        <ele>92.638354</ele>
        <time>2020-07-15T16:26:12.062Z</time>
      </trkpt>
      <trkpt lat="63.35523" lon="9.0152">
        <ele>93.767717</ele>
        <time>2020-07-15T16:26:22.846Z</time>
      </trkpt>
      <trkpt lat="63.3543" lon="9.01265">
        <ele>98.339528</ele>
        <time>2020-07-15T16:26:59.070Z</time>
      </trkpt>
      <trkpt lat="63.35371" lon="9.01152">
        <ele>99.02417</ele>
        <time>2020-07-15T16:27:13.882Z</time>
      </trkpt>
      <trkpt lat="63.35332" lon="9.01099">
        <ele>99.421022</ele>
        <time>2020-07-15T16:27:22.696Z</time>
      </trkpt>
      <trkpt lat="63.35095" lon="9.00832">
        <ele>101.580629</ele>
        <time>2020-07-15T16:28:17.482Z</time>
      </trkpt>
      <trkpt lat="63.3503" lon="9.0074">
        <ele>102.088658</ele>
        <time>2020-07-15T16:28:33.247Z</time>
      </trkpt>
      <trkpt lat="63.34986" lon="9.00672">
        <ele>102.37355</ele>
        <time>2020-07-15T16:28:43.561Z</time>
      </trkpt>
      <trkpt lat="63.34941" lon="9.00601">
        <ele>102.17047</ele>
        <time>2020-07-15T16:28:53.417Z</time>
      </trkpt>
      <trkpt lat="63.34707" lon="9.0023">
        <ele>100.632866</ele>
        <time>2020-07-15T16:29:39.462Z</time>
      </trkpt>
      <trkpt lat="63.34645" lon="9.00131">
        <ele>100.740327</ele>
        <time>2020-07-15T16:29:52.565Z</time>
      </trkpt>
      <trkpt lat="63.34605" lon="9.00067">
        <ele>100.877544</ele>
        <time>2020-07-15T16:30:01.502Z</time>
      </trkpt>
      <trkpt lat="63.34538" lon="8.99972">
        <ele>101.466001</ele>
        <time>2020-07-15T16:30:17.625Z</time>
      </trkpt>
      <trkpt lat="63.34468" lon="8.99913">
        <ele>103.617777</ele>
        <time>2020-07-15T16:30:35.126Z</time>
      </trkpt>
      <trkpt lat="63.34078" lon="8.99726">
        <ele>115.481127</ele>
        <time>2020-07-15T16:32:29.369Z</time>
      </trkpt>
      <trkpt lat="63.34011" lon="8.99703">
        <ele>117.460533</ele>
        <time>2020-07-15T16:32:47.564Z</time>
      </trkpt>
      <trkpt lat="63.33948" lon="8.99712">
        <ele>118.830583</ele>
        <time>2020-07-15T16:33:03.733Z</time>
      </trkpt>
      <trkpt lat="63.3389" lon="8.99755">
        <ele>120.146695</ele>
        <time>2020-07-15T16:33:18.297Z</time>
      </trkpt>
      <trkpt lat="63.33847" lon="8.9981">
        <ele>121.146317</ele>
        <time>2020-07-15T16:33:29.789Z</time>
      </trkpt>
      <trkpt lat="63.33769" lon="8.99954">
        <ele>122.520589</ele>
        <time>2020-07-15T16:33:53.243Z</time>
      </trkpt>
      <trkpt lat="63.3376" lon="8.99971">
        <ele>122.67675</ele>
        <time>2020-07-15T16:33:55.265Z</time>
      </trkpt>
      <trkpt lat="63.33753" lon="8.99983">
        <ele>122.796613</ele>
        <time>2020-07-15T16:33:57.783Z</time>
      </trkpt>
      <trkpt lat="63.33433" lon="9.00581">
        <ele>125.327098</ele>
        <time>2020-07-15T16:35:23.133Z</time>
      </trkpt>
      <trkpt lat="63.33391" lon="9.0064">
        <ele>123.659566</ele>
        <time>2020-07-15T16:35:29.611Z</time>
      </trkpt>
      <trkpt lat="63.33221" lon="9.00829">
        <ele>117.784508</ele>
        <time>2020-07-15T16:35:53.107Z</time>
      </trkpt>
      <trkpt lat="63.33186" lon="9.00867">
        <ele>116.776367</ele>
        <time>2020-07-15T16:35:58.342Z</time>
      </trkpt>
      <trkpt lat="63.33172" lon="9.00883">
        <ele>116.360613</ele>
        <time>2020-07-15T16:36:00.599Z</time>
      </trkpt>
      <trkpt lat="63.33118" lon="9.00937">
        <ele>114.942502</ele>
        <time>2020-07-15T16:36:09.660Z</time>
      </trkpt>
      <trkpt lat="63.33105" lon="9.00947">
        <ele>115.070748</ele>
        <time>2020-07-15T16:36:12.106Z</time>
      </trkpt>
      <trkpt lat="63.3309" lon="9.00956">
        <ele>115.205951</ele>
        <time>2020-07-15T16:36:14.873Z</time>
      </trkpt>
      <trkpt lat="63.33012" lon="9.00968">
        <ele>115.907609</ele>
        <time>2020-07-15T16:36:31.316Z</time>
      </trkpt>
      <trkpt lat="63.32962" lon="9.00949">
        <ele>116.363387</ele>
        <time>2020-07-15T16:36:42.998Z</time>
      </trkpt>
      <trkpt lat="63.32882" lon="9.00876">
        <ele>118.292657</ele>
        <time>2020-07-15T16:37:03.885Z</time>
      </trkpt>
      <trkpt lat="63.32751" lon="9.00735">
        <ele>122.729617</ele>
        <time>2020-07-15T16:37:43.337Z</time>
      </trkpt>
      <trkpt lat="63.32701" lon="9.00697">
        <ele>125.216967</ele>
        <time>2020-07-15T16:38:00.154Z</time>
      </trkpt>
      <trkpt lat="63.32632" lon="9.0068">
        <ele>128.419904</ele>
        <time>2020-07-15T16:38:24.502Z</time>
      </trkpt>
      <trkpt lat="63.32565" lon="9.00692">
        <ele>131.767212</ele>
        <time>2020-07-15T16:38:48.926Z</time>
      </trkpt>
      <trkpt lat="63.32555" lon="9.00695">
        <ele>132.311068</ele>
        <time>2020-07-15T16:38:53.683Z</time>
      </trkpt>
      <trkpt lat="63.32546" lon="9.00698">
        <ele>132.756504</ele>
        <time>2020-07-15T16:38:56.594Z</time>
      </trkpt>
      <trkpt lat="63.32535" lon="9.00701">
        <ele>133.338909</ele>
        <time>2020-07-15T16:39:00.055Z</time>
      </trkpt>
      <trkpt lat="63.32513" lon="9.00708">
        <ele>134.474621</ele>
        <time>2020-07-15T16:39:08.644Z</time>
      </trkpt>
      <trkpt lat="63.32452" lon="9.00746">
        <ele>137.72447</ele>
        <time>2020-07-15T16:39:30.423Z</time>
      </trkpt>
      <trkpt lat="63.32127" lon="9.01073">
        <ele>148.560238</ele>
        <time>2020-07-15T16:41:06.894Z</time>
      </trkpt>
      <trkpt lat="63.32065" lon="9.01168">
        <ele>150.884287</ele>
        <time>2020-07-15T16:41:25.457Z</time>
      </trkpt>
      <trkpt lat="63.31943" lon="9.01402">
        <ele>156.640603</ele>
        <time>2020-07-15T16:42:12.706Z</time>
      </trkpt>
      <trkpt lat="63.3193" lon="9.01424">
        <ele>157.430453</ele>
        <time>2020-07-15T16:42:18.122Z</time>
      </trkpt>
      <trkpt lat="63.31928" lon="9.01428">
        <ele>157.569169</ele>
        <time>2020-07-15T16:42:19.377Z</time>
      </trkpt>
      <trkpt lat="63.31921" lon="9.01439">
        <ele>157.980267</ele>
        <time>2020-07-15T16:42:22.096Z</time>
      </trkpt>
      <trkpt lat="63.319" lon="9.01466">
        <ele>159.133575</ele>
        <time>2020-07-15T16:42:29.755Z</time>
      </trkpt>
      <trkpt lat="63.31891" lon="9.01476">
        <ele>159.633912</ele>
        <time>2020-07-15T16:42:33.585Z</time>
      </trkpt>
      <trkpt lat="63.31816" lon="9.01526">
        <ele>163.364547</ele>
        <time>2020-07-15T16:43:00.226Z</time>
      </trkpt>
      <trkpt lat="63.31679" lon="9.01535">
        <ele>171.548755</ele>
        <time>2020-07-15T16:43:49.776Z</time>
      </trkpt>
      <trkpt lat="63.31637" lon="9.01557">
        <ele>174.165032</ele>
        <time>2020-07-15T16:44:06.750Z</time>
      </trkpt>
      <trkpt lat="63.31593" lon="9.01601">
        <ele>177.754124</ele>
        <time>2020-07-15T16:44:26.206Z</time>
      </trkpt>
      <trkpt lat="63.31433" lon="9.01868">
        <ele>193.179257</ele>
        <time>2020-07-15T16:45:54.067Z</time>
      </trkpt>
      <trkpt lat="63.31377" lon="9.01939">
        <ele>198.074843</ele>
        <time>2020-07-15T16:46:21.566Z</time>
      </trkpt>
      <trkpt lat="63.3132" lon="9.01975">
        <ele>202.453224</ele>
        <time>2020-07-15T16:46:45.724Z</time>
      </trkpt>
      <trkpt lat="63.31175" lon="9.02006">
        <ele>210.79462</ele>
        <time>2020-07-15T16:47:39.941Z</time>
      </trkpt>
      <trkpt lat="63.31129" lon="9.02031">
        <ele>212.647366</ele>
        <time>2020-07-15T16:47:54.729Z</time>
      </trkpt>
      <trkpt lat="63.31092" lon="9.02064">
        <ele>213.072159</ele>
        <time>2020-07-15T16:48:06.040Z</time>
      </trkpt>
      <trkpt lat="63.31078" lon="9.02081">
        <ele>213.240147</ele>
        <time>2020-07-15T16:48:10.600Z</time>
      </trkpt>
      <trkpt lat="63.31055" lon="9.02112">
        <ele>213.519143</ele>
        <time>2020-07-15T16:48:16.109Z</time>
      </trkpt>
      <trkpt lat="63.31" lon="9.02193">
        <ele>214.2087</ele>
        <time>2020-07-15T16:48:26.620Z</time>
      </trkpt>
      <trkpt lat="63.30963" lon="9.02249">
        <ele>212.533912</ele>
        <time>2020-07-15T16:48:32.800Z</time>
      </trkpt>
      <trkpt lat="63.30916" lon="9.02319">
        <ele>209.378973</ele>
        <time>2020-07-15T16:48:39.670Z</time>
      </trkpt>
      <trkpt lat="63.3084" lon="9.02419">
        <ele>204.50199</ele>
        <time>2020-07-15T16:48:49.736Z</time>
      </trkpt>
      <trkpt lat="63.30519" lon="9.02753">
        <ele>174.560089</ele>
        <time>2020-07-15T16:49:29.200Z</time>
      </trkpt>
      <trkpt lat="63.30407" lon="9.02893">
        <ele>165.512636</ele>
        <time>2020-07-15T16:49:43.890Z</time>
      </trkpt>
      <trkpt lat="63.30224" lon="9.03188">
        <ele>151.618707</ele>
        <time>2020-07-15T16:50:10.502Z</time>
      </trkpt>
      <trkpt lat="63.30188" lon="9.03269">
        <ele>148.884896</ele>
        <time>2020-07-15T16:50:16.695Z</time>
      </trkpt>
      <trkpt lat="63.30075" lon="9.03569">
        <ele>139.511051</ele>
        <time>2020-07-15T16:50:38.052Z</time>
      </trkpt>
      <trkpt lat="63.30004" lon="9.03756">
        <ele>132.775298</ele>
        <time>2020-07-15T16:50:51.000Z</time>
      </trkpt>
      <trkpt lat="63.29967" lon="9.03856">
        <ele>128.789266</ele>
        <time>2020-07-15T16:50:57.604Z</time>
      </trkpt>
      <trkpt lat="63.29941" lon="9.03928">
        <ele>125.521155</ele>
        <time>2020-07-15T16:51:02.250Z</time>
      </trkpt>
      <trkpt lat="63.29916" lon="9.04023">
        <ele>121.566299</ele>
        <time>2020-07-15T16:51:07.865Z</time>
      </trkpt>
      <trkpt lat="63.29911" lon="9.04045">
        <ele>120.677063</ele>
        <time>2020-07-15T16:51:09.071Z</time>
      </trkpt>
      <trkpt lat="63.2987" lon="9.04248">
        <ele>112.991055</ele>
        <time>2020-07-15T16:51:20.375Z</time>
      </trkpt>
      <trkpt lat="63.29847" lon="9.04392">
        <ele>107.976035</ele>
        <time>2020-07-15T16:51:28.083Z</time>
      </trkpt>
      <trkpt lat="63.29838" lon="9.04534">
        <ele>103.245937</ele>
        <time>2020-07-15T16:51:35.585Z</time>
      </trkpt>
      <trkpt lat="63.2984" lon="9.04659">
        <ele>100.090582</ele>
        <time>2020-07-15T16:51:42.278Z</time>
      </trkpt>
      <trkpt lat="63.29854" lon="9.04799">
        <ele>96.53065</ele>
        <time>2020-07-15T16:51:49.992Z</time>
      </trkpt>
      <trkpt lat="63.29874" lon="9.04924">
        <ele>93.233982</ele>
        <time>2020-07-15T16:51:57.175Z</time>
      </trkpt>
      <trkpt lat="63.29875" lon="9.04927">
        <ele>93.145472</ele>
        <time>2020-07-15T16:51:57.342Z</time>
      </trkpt>
      <trkpt lat="63.29883" lon="9.04988">
        <ele>91.510832</ele>
        <time>2020-07-15T16:52:00.920Z</time>
      </trkpt>
      <trkpt lat="63.29885" lon="9.05052">
        <ele>89.871114</ele>
        <time>2020-07-15T16:52:04.399Z</time>
      </trkpt>
      <trkpt lat="63.29884" lon="9.05071">
        <ele>89.389597</ele>
        <time>2020-07-15T16:52:05.435Z</time>
      </trkpt>
      <trkpt lat="63.29883" lon="9.05091">
        <ele>88.881462</ele>
        <time>2020-07-15T16:52:06.427Z</time>
      </trkpt>
      <trkpt lat="63.29866" lon="9.05172">
        <ele>86.606729</ele>
        <time>2020-07-15T16:52:11.281Z</time>
      </trkpt>
      <trkpt lat="63.29801" lon="9.05373">
        <ele>80.095616</ele>
        <time>2020-07-15T16:52:24.284Z</time>
      </trkpt>
      <trkpt lat="63.29791" lon="9.05425">
        <ele>78.561684</ele>
        <time>2020-07-15T16:52:27.288Z</time>
      </trkpt>
      <trkpt lat="63.29785" lon="9.05506">
        <ele>76.327323</ele>
        <time>2020-07-15T16:52:31.635Z</time>
      </trkpt>
      <trkpt lat="63.29784" lon="9.0553">
        <ele>75.676902</ele>
        <time>2020-07-15T16:52:32.872Z</time>
      </trkpt>
      <trkpt lat="63.29782" lon="9.05575">
        <ele>74.445846</ele>
        <time>2020-07-15T16:52:35.267Z</time>
      </trkpt>
      <trkpt lat="63.29767" lon="9.05666">
        <ele>71.812126</ele>
        <time>2020-07-15T16:52:40.430Z</time>
      </trkpt>
      <trkpt lat="63.29731" lon="9.05774">
        <ele>68.567572</ele>
        <time>2020-07-15T16:52:47.549Z</time>
      </trkpt>
      <trkpt lat="63.29724" lon="9.05806">
        <ele>67.713974</ele>
        <time>2020-07-15T16:52:49.428Z</time>
      </trkpt>
      <trkpt lat="63.2972" lon="9.05875">
        <ele>66.039038</ele>
        <time>2020-07-15T16:52:53.136Z</time>
      </trkpt>
      <trkpt lat="63.29721" lon="9.06058">
        <ele>61.832068</ele>
        <time>2020-07-15T16:53:03.275Z</time>
      </trkpt>
      <trkpt lat="63.29713" lon="9.06188">
        <ele>59.481212</ele>
        <time>2020-07-15T16:53:10.623Z</time>
      </trkpt>
      <trkpt lat="63.29695" lon="9.06306">
        <ele>57.237892</ele>
        <time>2020-07-15T16:53:17.706Z</time>
      </trkpt>
      <trkpt lat="63.29665" lon="9.06414">
        <ele>54.986911</ele>
        <time>2020-07-15T16:53:25.160Z</time>
      </trkpt>
      <trkpt lat="63.29644" lon="9.06479">
        <ele>53.743332</ele>
        <time>2020-07-15T16:53:29.800Z</time>
      </trkpt>
      <trkpt lat="63.29649" lon="9.06487">
        <ele>53.535512</ele>
        <time>2020-07-15T16:53:30.892Z</time>
      </trkpt>
      <trkpt lat="63.29648" lon="9.06494">
        <ele>53.428834</ele>
        <time>2020-07-15T16:53:31.254Z</time>
      </trkpt>
      <trkpt lat="63.29597" lon="9.06653">
        <ele>50.377154</ele>
        <time>2020-07-15T16:53:42.727Z</time>
      </trkpt>
      <trkpt lat="63.29587" lon="9.06683">
        <ele>49.807047</ele>
        <time>2020-07-15T16:53:44.846Z</time>
      </trkpt>
      <trkpt lat="63.29581" lon="9.06703">
        <ele>49.432603</ele>
        <time>2020-07-15T16:53:46.218Z</time>
      </trkpt>
      <trkpt lat="63.29563" lon="9.06757">
        <ele>48.287169</ele>
        <time>2020-07-15T16:53:50.060Z</time>
      </trkpt>
      <trkpt lat="63.29527" lon="9.06866">
        <ele>45.803576</ele>
        <time>2020-07-15T16:53:57.931Z</time>
      </trkpt>
      <trkpt lat="63.29515" lon="9.0693">
        <ele>44.543985</ele>
        <time>2020-07-15T16:54:01.828Z</time>
      </trkpt>
      <trkpt lat="63.29501" lon="9.07445">
        <ele>33.697074</ele>
        <time>2020-07-15T16:54:30.288Z</time>
      </trkpt>
      <trkpt lat="63.29468" lon="9.07641">
        <ele>28.318679</ele>
        <time>2020-07-15T16:54:41.368Z</time>
      </trkpt>
      <trkpt lat="63.29465" lon="9.07788">
        <ele>24.405915</ele>
        <time>2020-07-15T16:54:49.075Z</time>
      </trkpt>
      <trkpt lat="63.29459" lon="9.07838">
        <ele>23.062686</ele>
        <time>2020-07-15T16:54:51.818Z</time>
      </trkpt>
      <trkpt lat="63.29457" lon="9.07849">
        <ele>22.749156</ele>
        <time>2020-07-15T16:54:52.393Z</time>
      </trkpt>
      <trkpt lat="63.29455" lon="9.07867">
        <ele>22.244506</ele>
        <time>2020-07-15T16:54:53.419Z</time>
      </trkpt>
      <trkpt lat="63.29451" lon="9.07885">
        <ele>21.878451</ele>
        <time>2020-07-15T16:54:54.557Z</time>
      </trkpt>
      <trkpt lat="63.29446" lon="9.0788">
        <ele>21.687029</ele>
        <time>2020-07-15T16:54:55.210Z</time>
      </trkpt>
      <trkpt lat="63.29443" lon="9.07877">
        <ele>21.574002</ele>
        <time>2020-07-15T16:54:55.625Z</time>
      </trkpt>
      <trkpt lat="63.29441" lon="9.07875">
        <ele>21.468814</ele>
        <time>2020-07-15T16:54:56.045Z</time>
      </trkpt>
      <trkpt lat="63.29434" lon="9.07904">
        <ele>20.93846</ele>
        <time>2020-07-15T16:54:57.855Z</time>
      </trkpt>
      <trkpt lat="63.29423" lon="9.07944">
        <ele>20.187276</ele>
        <time>2020-07-15T16:55:00.616Z</time>
      </trkpt>
      <trkpt lat="63.2942" lon="9.07955">
        <ele>19.985539</ele>
        <time>2020-07-15T16:55:01.261Z</time>
      </trkpt>
      <trkpt lat="63.29418" lon="9.07966">
        <ele>19.793384</ele>
        <time>2020-07-15T16:55:01.924Z</time>
      </trkpt>
      <trkpt lat="63.29415" lon="9.07978">
        <ele>19.566083</ele>
        <time>2020-07-15T16:55:02.721Z</time>
      </trkpt>
      <trkpt lat="63.29395" lon="9.0805">
        <ele>18.221292</ele>
        <time>2020-07-15T16:55:07.639Z</time>
      </trkpt>
      <trkpt lat="63.29388" lon="9.08074">
        <ele>17.756284</ele>
        <time>2020-07-15T16:55:09.715Z</time>
      </trkpt>
      <trkpt lat="63.2938" lon="9.08101">
        <ele>17.229323</ele>
        <time>2020-07-15T16:55:11.656Z</time>
      </trkpt>
      <trkpt lat="63.29377" lon="9.08111">
        <ele>17.02655</ele>
        <time>2020-07-15T16:55:12.380Z</time>
      </trkpt>
      <trkpt lat="63.29366" lon="9.08148">
        <ele>16.319052</ele>
        <time>2020-07-15T16:55:15.747Z</time>
      </trkpt>
      <trkpt lat="63.29344" lon="9.08195">
        <ele>15.242039</ele>
        <time>2020-07-15T16:55:19.724Z</time>
      </trkpt>
      <trkpt lat="63.29318" lon="9.08234">
        <ele>14.129082</ele>
        <time>2020-07-15T16:55:23.821Z</time>
      </trkpt>
      <trkpt lat="63.29304" lon="9.08243">
        <ele>13.635155</ele>
        <time>2020-07-15T16:55:25.710Z</time>
      </trkpt>
      <trkpt lat="63.29287" lon="9.08239">
        <ele>13.02074</ele>
        <time>2020-07-15T16:55:27.965Z</time>
      </trkpt>
      <trkpt lat="63.29278" lon="9.08237">
        <ele>12.683652</ele>
        <time>2020-07-15T16:55:29.589Z</time>
      </trkpt>
      <trkpt lat="63.29261" lon="9.08238">
        <ele>12.107634</ele>
        <time>2020-07-15T16:55:31.550Z</time>
      </trkpt>
      <trkpt lat="63.2926" lon="9.08239">
        <ele>12.04683</ele>
        <time>2020-07-15T16:55:31.760Z</time>
      </trkpt>
      <trkpt lat="63.29255" lon="9.08249">
        <ele>11.809048</ele>
        <time>2020-07-15T16:55:32.736Z</time>
      </trkpt>
      <trkpt lat="63.29255" lon="9.08265">
        <ele>11.555406</ele>
        <time>2020-07-15T16:55:33.964Z</time>
      </trkpt>
      <trkpt lat="63.29263" lon="9.08269">
        <ele>11.29437</ele>
        <time>2020-07-15T16:55:35.199Z</time>
      </trkpt>
      <trkpt lat="63.29263" lon="9.08264">
        <ele>11.210108</ele>
        <time>2020-07-15T16:55:35.514Z</time>
      </trkpt>
      <trkpt lat="63.29263" lon="9.08278">
        <ele>10.981734</ele>
        <time>2020-07-15T16:55:36.200Z</time>
      </trkpt>
      <trkpt lat="63.29247" lon="9.08373">
        <ele>9.379566</ele>
        <time>2020-07-15T16:55:41.746Z</time>
      </trkpt>
      <trkpt lat="63.29187" lon="9.08541">
        <ele>5.68719</ele>
        <time>2020-07-15T16:55:53.635Z</time>
      </trkpt>
      <trkpt lat="63.2918" lon="9.08556">
        <ele>5.325511</ele>
        <time>2020-07-15T16:55:54.710Z</time>
      </trkpt>
      <trkpt lat="63.29185" lon="9.08565">
        <ele>5.083352</ele>
        <time>2020-07-15T16:55:55.642Z</time>
      </trkpt>
      <trkpt lat="63.29179" lon="9.08581">
        <ele>4.730625</ele>
        <time>2020-07-15T16:55:56.934Z</time>
      </trkpt>
      <trkpt lat="63.29168" lon="9.08608">
        <ele>4.104333</ele>
        <time>2020-07-15T16:55:59.049Z</time>
      </trkpt>
      <trkpt lat="63.29159" lon="9.08634">
        <ele>3.539091</ele>
        <time>2020-07-15T16:56:01.046Z</time>
      </trkpt>
      <trkpt lat="63.29149" lon="9.08661">
        <ele>2.925235</ele>
        <time>2020-07-15T16:56:03.364Z</time>
      </trkpt>
      <trkpt lat="63.29132" lon="9.08706">
        <ele>2.336071</ele>
        <time>2020-07-15T16:56:06.919Z</time>
      </trkpt>
      <trkpt lat="63.29113" lon="9.08757">
        <ele>2.06484</ele>
        <time>2020-07-15T16:56:11.164Z</time>
      </trkpt>
      <trkpt lat="63.29106" lon="9.08777">
        <ele>1.957827</ele>
        <time>2020-07-15T16:56:13.145Z</time>
      </trkpt>
      <trkpt lat="63.29085" lon="9.08833">
        <ele>1.663738</ele>
        <time>2020-07-15T16:56:18.085Z</time>
      </trkpt>
      <trkpt lat="63.29067" lon="9.08878">
        <ele>1.42226</ele>
        <time>2020-07-15T16:56:22.857Z</time>
      </trkpt>
      <trkpt lat="63.29059" lon="9.089">
        <ele>1.306199</ele>
        <time>2020-07-15T16:56:25.134Z</time>
      </trkpt>
      <trkpt lat="63.29052" lon="9.08919">
        <ele>1.203368</ele>
        <time>2020-07-15T16:56:27.060Z</time>
      </trkpt>
      <trkpt lat="63.29048" lon="9.08913">
        <ele>1.161208</ele>
        <time>2020-07-15T16:56:27.864Z</time>
      </trkpt>
      <trkpt lat="63.29043" lon="9.0893">
        <ele>1.07816</ele>
        <time>2020-07-15T16:56:29.492Z</time>
      </trkpt>
      <trkpt lat="63.29035" lon="9.08951">
        <ele>0.966021</ele>
        <time>2020-07-15T16:56:31.703Z</time>
      </trkpt>
      <trkpt lat="63.29032" lon="9.08959">
        <ele>0.922182</ele>
        <time>2020-07-15T16:56:32.489Z</time>
      </trkpt>
      <trkpt lat="63.29013" lon="9.09">
        <ele>0.865645</ele>
        <time>2020-07-15T16:56:37.075Z</time>
      </trkpt>
      <trkpt lat="63.28982" lon="9.09046">
        <ele>0.93748</ele>
        <time>2020-07-15T16:56:43.577Z</time>
      </trkpt>
      <trkpt lat="63.28945" lon="9.09078">
        <ele>1.014643</ele>
        <time>2020-07-15T16:56:50.647Z</time>
      </trkpt>
      <trkpt lat="63.28927" lon="9.09087">
        <ele>1.050209</ele>
        <time>2020-07-15T16:56:53.937Z</time>
      </trkpt>
      <trkpt lat="63.28905" lon="9.09095">
        <ele>1.091973</ele>
        <time>2020-07-15T16:56:58.077Z</time>
      </trkpt>
      <trkpt lat="63.28835" lon="9.09118">
        <ele>1.548257</ele>
        <time>2020-07-15T16:57:12.115Z</time>
      </trkpt>
      <trkpt lat="63.28817" lon="9.09126">
        <ele>1.822187</ele>
        <time>2020-07-15T16:57:15.923Z</time>
      </trkpt>
      <trkpt lat="63.28791" lon="9.09137">
        <ele>2.217516</ele>
        <time>2020-07-15T16:57:21.906Z</time>
      </trkpt>
      <trkpt lat="63.28781" lon="9.09139">
        <ele>2.373101</ele>
        <time>2020-07-15T16:57:24.141Z</time>
      </trkpt>
      <trkpt lat="63.28755" lon="9.09143">
        <ele>2.764003</ele>
        <time>2020-07-15T16:57:30.271Z</time>
      </trkpt>
      <trkpt lat="63.28727" lon="9.09158">
        <ele>3.186958</ele>
        <time>2020-07-15T16:57:37.013Z</time>
      </trkpt>
      <trkpt lat="63.28707" lon="9.09185">
        <ele>3.540254</ele>
        <time>2020-07-15T16:57:42.532Z</time>
      </trkpt>
      <trkpt lat="63.287" lon="9.09196">
        <ele>3.661834</ele>
        <time>2020-07-15T16:57:44.732Z</time>
      </trkpt>
      <trkpt lat="63.2869" lon="9.09217">
        <ele>3.878108</ele>
        <time>2020-07-15T16:57:48.077Z</time>
      </trkpt>
      <trkpt lat="63.28681" lon="9.09235">
        <ele>4.137216</ele>
        <time>2020-07-15T16:57:50.823Z</time>
      </trkpt>
      <trkpt lat="63.28675" lon="9.0925">
        <ele>4.351317</ele>
        <time>2020-07-15T16:57:53.407Z</time>
      </trkpt>
      <trkpt lat="63.28646" lon="9.09353">
        <ele>5.591716</ele>
        <time>2020-07-15T16:58:07.066Z</time>
      </trkpt>
      <trkpt lat="63.28609" lon="9.09585">
        <ele>8.045389</ele>
        <time>2020-07-15T16:58:35.456Z</time>
      </trkpt>
      <trkpt lat="63.28606" lon="9.09645">
        <ele>8.491351</ele>
        <time>2020-07-15T16:58:41.952Z</time>
      </trkpt>
      <trkpt lat="63.28614" lon="9.09719">
        <ele>9.054409</ele>
        <time>2020-07-15T16:58:50.223Z</time>
      </trkpt>
      <trkpt lat="63.28622" lon="9.09752">
        <ele>9.324858</ele>
        <time>2020-07-15T16:58:54.447Z</time>
      </trkpt>
      <trkpt lat="63.2864" lon="9.09816">
        <ele>9.876625</ele>
        <time>2020-07-15T16:59:02.304Z</time>
      </trkpt>
      <trkpt lat="63.28673" lon="9.09953">
        <ele>10.860022</ele>
        <time>2020-07-15T16:59:17.708Z</time>
      </trkpt>
      <trkpt lat="63.28699" lon="9.10136">
        <ele>10.846089</ele>
        <time>2020-07-15T16:59:33.280Z</time>
      </trkpt>
      <trkpt lat="63.28704" lon="9.10156">
        <ele>10.844366</ele>
        <time>2020-07-15T16:59:35.297Z</time>
      </trkpt>
      <trkpt lat="63.28708" lon="9.10173">
        <ele>10.842975</ele>
        <time>2020-07-15T16:59:36.558Z</time>
      </trkpt>
      <trkpt lat="63.28722" lon="9.10211">
        <ele>10.839461</ele>
        <time>2020-07-15T16:59:40.355Z</time>
      </trkpt>
      <trkpt lat="63.2874" lon="9.10251">
        <ele>10.835323</ele>
        <time>2020-07-15T16:59:44.463Z</time>
      </trkpt>
      <trkpt lat="63.28759" lon="9.10293">
        <ele>10.755569</ele>
        <time>2020-07-15T16:59:48.766Z</time>
      </trkpt>
      <trkpt lat="63.28863" lon="9.10552">
        <ele>9.399181</ele>
        <time>2020-07-15T17:00:12.876Z</time>
      </trkpt>
      <trkpt lat="63.28868" lon="9.10559">
        <ele>9.354448</ele>
        <time>2020-07-15T17:00:14.087Z</time>
      </trkpt>
      <trkpt lat="63.2887" lon="9.10551">
        <ele>9.314602</ele>
        <time>2020-07-15T17:00:14.976Z</time>
      </trkpt>
      <trkpt lat="63.28878" lon="9.10562">
        <ele>9.312894</ele>
        <time>2020-07-15T17:00:16.344Z</time>
      </trkpt>
      <trkpt lat="63.2895" lon="9.10656">
        <ele>9.934613</ele>
        <time>2020-07-15T17:00:31.182Z</time>
      </trkpt>
      <trkpt lat="63.28988" lon="9.10742">
        <ele>10.336382</ele>
        <time>2020-07-15T17:00:42.086Z</time>
      </trkpt>
      <trkpt lat="63.2902" lon="9.10866">
        <ele>11.738032</ele>
        <time>2020-07-15T17:00:57.983Z</time>
      </trkpt>
      <trkpt lat="63.29071" lon="9.11146">
        <ele>17.382549</ele>
        <time>2020-07-15T17:01:43.676Z</time>
      </trkpt>
      <trkpt lat="63.29076" lon="9.11169">
        <ele>17.843244</ele>
        <time>2020-07-15T17:01:47.994Z</time>
      </trkpt>
      <trkpt lat="63.2908" lon="9.11193">
        <ele>18.074158</ele>
        <time>2020-07-15T17:01:52.407Z</time>
      </trkpt>
      <trkpt lat="63.29105" lon="9.11294">
        <ele>18.134213</ele>
        <time>2020-07-15T17:02:07.387Z</time>
      </trkpt>
      <trkpt lat="63.29137" lon="9.11365">
        <ele>18.186729</ele>
        <time>2020-07-15T17:02:16.486Z</time>
      </trkpt>
      <trkpt lat="63.29173" lon="9.11408">
        <ele>18.233519</ele>
        <time>2020-07-15T17:02:22.029Z</time>
      </trkpt>
      <trkpt lat="63.29218" lon="9.11426">
        <ele>18.019769</ele>
        <time>2020-07-15T17:02:27.825Z</time>
      </trkpt>
      <trkpt lat="63.29232" lon="9.11426">
        <ele>17.680986</ele>
        <time>2020-07-15T17:02:29.583Z</time>
      </trkpt>
      <trkpt lat="63.29257" lon="9.11421">
        <ele>17.036222</ele>
        <time>2020-07-15T17:02:32.564Z</time>
      </trkpt>
      <trkpt lat="63.29272" lon="9.11419">
        <ele>16.650765</ele>
        <time>2020-07-15T17:02:34.608Z</time>
      </trkpt>
      <trkpt lat="63.29279" lon="9.11419">
        <ele>16.457172</ele>
        <time>2020-07-15T17:02:35.439Z</time>
      </trkpt>
      <trkpt lat="63.29287" lon="9.11419">
        <ele>16.268506</ele>
        <time>2020-07-15T17:02:36.349Z</time>
      </trkpt>
      <trkpt lat="63.29315" lon="9.11434">
        <ele>15.524458</ele>
        <time>2020-07-15T17:02:40.115Z</time>
      </trkpt>
      <trkpt lat="63.29337" lon="9.11463">
        <ele>14.874272</ele>
        <time>2020-07-15T17:02:44.167Z</time>
      </trkpt>
      <trkpt lat="63.29361" lon="9.11524">
        <ele>13.950467</ele>
        <time>2020-07-15T17:02:49.503Z</time>
      </trkpt>
      <trkpt lat="63.29379" lon="9.11605">
        <ele>15.13995</ele>
        <time>2020-07-15T17:02:57.016Z</time>
      </trkpt>
      <trkpt lat="63.29391" lon="9.11678">
        <ele>16.785995</ele>
        <time>2020-07-15T17:03:07.528Z</time>
      </trkpt>
      <trkpt lat="63.29397" lon="9.11715">
        <ele>17.623978</ele>
        <time>2020-07-15T17:03:15.117Z</time>
      </trkpt>
      <trkpt lat="63.2943" lon="9.11916">
        <ele>22.178076</ele>
        <time>2020-07-15T17:03:53.503Z</time>
      </trkpt>
      <trkpt lat="63.29465" lon="9.12045">
        <ele>24.644365</ele>
        <time>2020-07-15T17:04:18.513Z</time>
      </trkpt>
      <trkpt lat="63.2948" lon="9.12088">
        <ele>25.557517</ele>
        <time>2020-07-15T17:04:26.535Z</time>
      </trkpt>
      <trkpt lat="63.29486" lon="9.12102">
        <ele>25.857932</ele>
        <time>2020-07-15T17:04:28.138Z</time>
      </trkpt>
      <trkpt lat="63.29528" lon="9.12186">
        <ele>27.910084</ele>
        <time>2020-07-15T17:04:42.452Z</time>
      </trkpt>
      <trkpt lat="63.29622" lon="9.12351">
        <ele>27.571249</ele>
        <time>2020-07-15T17:05:05.533Z</time>
      </trkpt>
      <trkpt lat="63.29644" lon="9.12387">
        <ele>27.239034</ele>
        <time>2020-07-15T17:05:09.015Z</time>
      </trkpt>
      <trkpt lat="63.29678" lon="9.12447">
        <ele>26.705343</ele>
        <time>2020-07-15T17:05:14.727Z</time>
      </trkpt>
      <trkpt lat="63.29743" lon="9.12539">
        <ele>23.655461</ele>
        <time>2020-07-15T17:05:24.482Z</time>
      </trkpt>
      <trkpt lat="63.29749" lon="9.12546">
        <ele>23.331944</ele>
        <time>2020-07-15T17:05:25.391Z</time>
      </trkpt>
      <trkpt lat="63.29766" lon="9.12562">
        <ele>22.495743</ele>
        <time>2020-07-15T17:05:27.562Z</time>
      </trkpt>
      <trkpt lat="63.29855" lon="9.12633">
        <ele>18.319973</ele>
        <time>2020-07-15T17:05:39.121Z</time>
      </trkpt>
      <trkpt lat="63.29895" lon="9.12681">
        <ele>17.05586</ele>
        <time>2020-07-15T17:05:44.482Z</time>
      </trkpt>
      <trkpt lat="63.3001" lon="9.12853">
        <ele>13.548205</ele>
        <time>2020-07-15T17:06:03.680Z</time>
      </trkpt>
      <trkpt lat="63.30073" lon="9.12999">
        <ele>14.680848</ele>
        <time>2020-07-15T17:06:24.247Z</time>
      </trkpt>
      <trkpt lat="63.3008" lon="9.13016">
        <ele>14.810063</ele>
        <time>2020-07-15T17:06:26.756Z</time>
      </trkpt>
      <trkpt lat="63.30101" lon="9.13065">
        <ele>15.181099</ele>
        <time>2020-07-15T17:06:34.954Z</time>
      </trkpt>
      <trkpt lat="63.30143" lon="9.13153">
        <ele>15.560481</ele>
        <time>2020-07-15T17:06:49.527Z</time>
      </trkpt>
      <trkpt lat="63.30177" lon="9.13205">
        <ele>15.298642</ele>
        <time>2020-07-15T17:06:58.676Z</time>
      </trkpt>
      <trkpt lat="63.30245" lon="9.13256">
        <ele>14.841093</ele>
        <time>2020-07-15T17:07:09.799Z</time>
      </trkpt>
      <trkpt lat="63.30254" lon="9.13258">
        <ele>14.785305</ele>
        <time>2020-07-15T17:07:11.988Z</time>
      </trkpt>
      <trkpt lat="63.3027" lon="9.13255">
        <ele>14.68248</ele>
        <time>2020-07-15T17:07:13.971Z</time>
      </trkpt>
      <trkpt lat="63.30293" lon="9.13239">
        <ele>14.528172</ele>
        <time>2020-07-15T17:07:17.111Z</time>
      </trkpt>
      <trkpt lat="63.30308" lon="9.13216">
        <ele>14.051197</ele>
        <time>2020-07-15T17:07:19.327Z</time>
      </trkpt>
      <trkpt lat="63.30355" lon="9.13108">
        <ele>12.318411</ele>
        <time>2020-07-15T17:07:28.168Z</time>
      </trkpt>
      <trkpt lat="63.30363" lon="9.13097">
        <ele>12.063885</ele>
        <time>2020-07-15T17:07:29.314Z</time>
      </trkpt>
      <trkpt lat="63.30365" lon="9.13093">
        <ele>11.985952</ele>
        <time>2020-07-15T17:07:30.027Z</time>
      </trkpt>
      <trkpt lat="63.30394" lon="9.13077">
        <ele>11.214592</ele>
        <time>2020-07-15T17:07:33.807Z</time>
      </trkpt>
      <trkpt lat="63.30426" lon="9.13088">
        <ele>10.389058</ele>
        <time>2020-07-15T17:07:38.646Z</time>
      </trkpt>
      <trkpt lat="63.30437" lon="9.13104">
        <ele>10.040404</ele>
        <time>2020-07-15T17:07:40.582Z</time>
      </trkpt>
      <trkpt lat="63.30442" lon="9.13112">
        <ele>9.888861</ele>
        <time>2020-07-15T17:07:42.210Z</time>
      </trkpt>
      <trkpt lat="63.30498" lon="9.13237">
        <ele>10.638818</ele>
        <time>2020-07-15T17:07:55.959Z</time>
      </trkpt>
      <trkpt lat="63.30519" lon="9.13265">
        <ele>10.87714</ele>
        <time>2020-07-15T17:08:01.895Z</time>
      </trkpt>
      <trkpt lat="63.3054" lon="9.13274">
        <ele>11.075175</ele>
        <time>2020-07-15T17:08:06.551Z</time>
      </trkpt>
      <trkpt lat="63.30552" lon="9.13273">
        <ele>11.189337</ele>
        <time>2020-07-15T17:08:09.752Z</time>
      </trkpt>
      <trkpt lat="63.3056" lon="9.1327">
        <ele>11.265553</ele>
        <time>2020-07-15T17:08:12.040Z</time>
      </trkpt>
      <trkpt lat="63.30588" lon="9.13257">
        <ele>11.538943</ele>
        <time>2020-07-15T17:08:19.299Z</time>
      </trkpt>
      <trkpt lat="63.30672" lon="9.1321">
        <ele>13.570694</ele>
        <time>2020-07-15T17:08:40.262Z</time>
      </trkpt>
      <trkpt lat="63.30677" lon="9.13208">
        <ele>13.694527</ele>
        <time>2020-07-15T17:08:41.516Z</time>
      </trkpt>
      <trkpt lat="63.30699" lon="9.13196">
        <ele>14.256825</ele>
        <time>2020-07-15T17:08:47.791Z</time>
      </trkpt>
      <trkpt lat="63.3071" lon="9.13191">
        <ele>14.539456</ele>
        <time>2020-07-15T17:08:50.628Z</time>
      </trkpt>
      <trkpt lat="63.30729" lon="9.13182">
        <ele>15.009267</ele>
        <time>2020-07-15T17:08:55.600Z</time>
      </trkpt>
      <trkpt lat="63.30749" lon="9.1317">
        <ele>15.510429</ele>
        <time>2020-07-15T17:09:00.862Z</time>
      </trkpt>
      <trkpt lat="63.30785" lon="9.13152">
        <ele>16.548581</ele>
        <time>2020-07-15T17:09:10.873Z</time>
      </trkpt>
      <trkpt lat="63.30786" lon="9.13151">
        <ele>16.581826</ele>
        <time>2020-07-15T17:09:11.236Z</time>
      </trkpt>
      <trkpt lat="63.30804" lon="9.13141">
        <ele>17.185017</ele>
        <time>2020-07-15T17:09:16.428Z</time>
      </trkpt>
      <trkpt lat="63.30811" lon="9.13137">
        <ele>17.437996</ele>
        <time>2020-07-15T17:09:18.600Z</time>
      </trkpt>
      <trkpt lat="63.30823" lon="9.13131">
        <ele>17.81796</ele>
        <time>2020-07-15T17:09:21.951Z</time>
      </trkpt>
      <trkpt lat="63.30828" lon="9.13128">
        <ele>17.992199</ele>
        <time>2020-07-15T17:09:23.491Z</time>
      </trkpt>
      <trkpt lat="63.30832" lon="9.13126">
        <ele>18.134118</ele>
        <time>2020-07-15T17:09:24.749Z</time>
      </trkpt>
      <trkpt lat="63.30843" lon="9.13122">
        <ele>18.470577</ele>
        <time>2020-07-15T17:09:27.899Z</time>
      </trkpt>
      <trkpt lat="63.30897" lon="9.13119">
        <ele>20.232397</ele>
        <time>2020-07-15T17:09:42.949Z</time>
      </trkpt>
      <trkpt lat="63.30942" lon="9.13147">
        <ele>21.746784</ele>
        <time>2020-07-15T17:09:56.487Z</time>
      </trkpt>
      <trkpt lat="63.30998" lon="9.13228">
        <ele>24.076625</ele>
        <time>2020-07-15T17:10:16.293Z</time>
      </trkpt>
      <trkpt lat="63.31028" lon="9.13304">
        <ele>25.641836</ele>
        <time>2020-07-15T17:10:29.075Z</time>
      </trkpt>
      <trkpt lat="63.31032" lon="9.13321">
        <ele>25.946022</ele>
        <time>2020-07-15T17:10:32.052Z</time>
      </trkpt>
      <trkpt lat="63.31035" lon="9.13332">
        <ele>26.153115</ele>
        <time>2020-07-15T17:10:34.060Z</time>
      </trkpt>
      <trkpt lat="63.31043" lon="9.13366">
        <ele>26.73894</ele>
        <time>2020-07-15T17:10:38.492Z</time>
      </trkpt>
      <trkpt lat="63.31062" lon="9.13456">
        <ele>28.24774</ele>
        <time>2020-07-15T17:10:51.587Z</time>
      </trkpt>
      <trkpt lat="63.31066" lon="9.13479">
        <ele>28.553689</ele>
        <time>2020-07-15T17:10:55.122Z</time>
      </trkpt>
      <trkpt lat="63.31071" lon="9.13509">
        <ele>28.965595</ele>
        <time>2020-07-15T17:10:58.716Z</time>
      </trkpt>
      <trkpt lat="63.3109" lon="9.13601">
        <ele>30.232818</ele>
        <time>2020-07-15T17:11:10.953Z</time>
      </trkpt>
      <trkpt lat="63.31107" lon="9.13694">
        <ele>31.496136</ele>
        <time>2020-07-15T17:11:22.117Z</time>
      </trkpt>
      <trkpt lat="63.3111" lon="9.13708">
        <ele>31.687674</ele>
        <time>2020-07-15T17:11:23.568Z</time>
      </trkpt>
      <trkpt lat="63.31142" lon="9.13868">
        <ele>34.127679</ele>
        <time>2020-07-15T17:11:44.703Z</time>
      </trkpt>
      <trkpt lat="63.31165" lon="9.13986">
        <ele>36.26223</ele>
        <time>2020-07-15T17:12:02.693Z</time>
      </trkpt>
      <trkpt lat="63.31171" lon="9.14018">
        <ele>36.841427</ele>
        <time>2020-07-15T17:12:07.263Z</time>
      </trkpt>
      <trkpt lat="63.31173" lon="9.14031">
        <ele>37.064683</ele>
        <time>2020-07-15T17:12:09.101Z</time>
      </trkpt>
      <trkpt lat="63.31195" lon="9.14142">
        <ele>39.064933</ele>
        <time>2020-07-15T17:12:27.567Z</time>
      </trkpt>
      <trkpt lat="63.31248" lon="9.14394">
        <ele>39.547175</ele>
        <time>2020-07-15T17:13:00.090Z</time>
      </trkpt>
      <trkpt lat="63.31275" lon="9.14461">
        <ele>39.474777</ele>
        <time>2020-07-15T17:13:05.776Z</time>
      </trkpt>
      <trkpt lat="63.3128" lon="9.14472">
        <ele>39.461492</ele>
        <time>2020-07-15T17:13:07.047Z</time>
      </trkpt>
      <trkpt lat="63.31296" lon="9.14499">
        <ele>39.425731</ele>
        <time>2020-07-15T17:13:09.351Z</time>
      </trkpt>
      <trkpt lat="63.31325" lon="9.14533">
        <ele>36.879832</ele>
        <time>2020-07-15T17:13:13.387Z</time>
      </trkpt>
      <trkpt lat="63.31326" lon="9.14534">
        <ele>36.79679</ele>
        <time>2020-07-15T17:13:13.480Z</time>
      </trkpt>
      <trkpt lat="63.31329" lon="9.14538">
        <ele>36.486774</ele>
        <time>2020-07-15T17:13:13.818Z</time>
      </trkpt>
      <trkpt lat="63.31367" lon="9.14562">
        <ele>32.835764</ele>
        <time>2020-07-15T17:13:18.225Z</time>
      </trkpt>
      <trkpt lat="63.31432" lon="9.14576">
        <ele>26.750517</ele>
        <time>2020-07-15T17:13:25.338Z</time>
      </trkpt>
      <trkpt lat="63.3146" lon="9.14596">
        <ele>24.010903</ele>
        <time>2020-07-15T17:13:28.529Z</time>
      </trkpt>
      <trkpt lat="63.31475" lon="9.14623">
        <ele>22.327543</ele>
        <time>2020-07-15T17:13:30.542Z</time>
      </trkpt>
      <trkpt lat="63.31516" lon="9.14746">
        <ele>17.176948</ele>
        <time>2020-07-15T17:13:38.057Z</time>
      </trkpt>
      <trkpt lat="63.31596" lon="9.14848">
        <ele>10.260925</ele>
        <time>2020-07-15T17:13:48.830Z</time>
      </trkpt>
      <trkpt lat="63.31602" lon="9.1486">
        <ele>9.666201</ele>
        <time>2020-07-15T17:13:49.748Z</time>
      </trkpt>
      <trkpt lat="63.3163" lon="9.14912">
        <ele>10.1639</ele>
        <time>2020-07-15T17:13:54.773Z</time>
      </trkpt>
      <trkpt lat="63.31636" lon="9.14922">
        <ele>10.363664</ele>
        <time>2020-07-15T17:13:56.132Z</time>
      </trkpt>
      <trkpt lat="63.31661" lon="9.14956">
        <ele>11.181958</ele>
        <time>2020-07-15T17:14:01.493Z</time>
      </trkpt>
      <trkpt lat="63.31738" lon="9.14997">
        <ele>13.398716</ele>
        <time>2020-07-15T17:14:25.905Z</time>
      </trkpt>
      <trkpt lat="63.31759" lon="9.1503">
        <ele>14.12984</ele>
        <time>2020-07-15T17:14:37.296Z</time>
      </trkpt>
      <trkpt lat="63.31787" lon="9.15118">
        <ele>18.729712</ele>
        <time>2020-07-15T17:15:01.085Z</time>
      </trkpt>
      <trkpt lat="63.31894" lon="9.15527">
        <ele>40.088442</ele>
        <time>2020-07-15T17:16:57.971Z</time>
      </trkpt>
      <trkpt lat="63.31994" lon="9.16078">
        <ele>58.396633</ele>
        <time>2020-07-15T17:18:43.499Z</time>
      </trkpt>
      <trkpt lat="63.32033" lon="9.16385">
        <ele>59.374454</ele>
        <time>2020-07-15T17:19:11.656Z</time>
      </trkpt>
      <trkpt lat="63.32094" lon="9.16669">
        <ele>57.687329</ele>
        <time>2020-07-15T17:19:30.490Z</time>
      </trkpt>
      <trkpt lat="63.32149" lon="9.17044">
        <ele>54.6187</ele>
        <time>2020-07-15T17:19:57.659Z</time>
      </trkpt>
      <trkpt lat="63.32169" lon="9.17134">
        <ele>53.929491</ele>
        <time>2020-07-15T17:20:05.739Z</time>
      </trkpt>
      <trkpt lat="63.32198" lon="9.17213">
        <ele>53.222378</ele>
        <time>2020-07-15T17:20:12.335Z</time>
      </trkpt>
      <trkpt lat="63.3226" lon="9.17326">
        <ele>47.507958</ele>
        <time>2020-07-15T17:20:22.056Z</time>
      </trkpt>
      <trkpt lat="63.32301" lon="9.17469">
        <ele>41.734481</ele>
        <time>2020-07-15T17:20:30.381Z</time>
      </trkpt>
      <trkpt lat="63.32318" lon="9.175">
        <ele>40.076675</ele>
        <time>2020-07-15T17:20:32.693Z</time>
      </trkpt>
      <trkpt lat="63.32386" lon="9.17569">
        <ele>38.428466</ele>
        <time>2020-07-15T17:20:41.040Z</time>
      </trkpt>
      <trkpt lat="63.32401" lon="9.17598">
        <ele>38.099274</ele>
        <time>2020-07-15T17:20:43.517Z</time>
      </trkpt>
      <trkpt lat="63.32413" lon="9.17639">
        <ele>37.725722</ele>
        <time>2020-07-15T17:20:47.288Z</time>
      </trkpt>
      <trkpt lat="63.32421" lon="9.17683">
        <ele>37.368089</ele>
        <time>2020-07-15T17:20:50.417Z</time>
      </trkpt>
      <trkpt lat="63.32441" lon="9.17802">
        <ele>37.477268</ele>
        <time>2020-07-15T17:21:11.138Z</time>
      </trkpt>
      <trkpt lat="63.32476" lon="9.17963">
        <ele>47.399735</ele>
        <time>2020-07-15T17:21:56.220Z</time>
      </trkpt>
      <trkpt lat="63.32548" lon="9.18164">
        <ele>59.946522</ele>
        <time>2020-07-15T17:23:15.196Z</time>
      </trkpt>
      <trkpt lat="63.32585" lon="9.18258">
        <ele>62.782805</ele>
        <time>2020-07-15T17:23:42.678Z</time>
      </trkpt>
      <trkpt lat="63.32664" lon="9.18468">
        <ele>65.409931</ele>
        <time>2020-07-15T17:24:07.152Z</time>
      </trkpt>
      <trkpt lat="63.32704" lon="9.18563">
        <ele>59.107095</ele>
        <time>2020-07-15T17:24:13.928Z</time>
      </trkpt>
      <trkpt lat="63.32731" lon="9.18605">
        <ele>55.586728</ele>
        <time>2020-07-15T17:24:17.522Z</time>
      </trkpt>
      <trkpt lat="63.32738" lon="9.18612">
        <ele>54.77014</ele>
        <time>2020-07-15T17:24:18.396Z</time>
      </trkpt>
      <trkpt lat="63.32747" lon="9.18621">
        <ele>53.687162</ele>
        <time>2020-07-15T17:24:19.435Z</time>
      </trkpt>
      <trkpt lat="63.32807" lon="9.18654">
        <ele>47.313054</ele>
        <time>2020-07-15T17:24:25.908Z</time>
      </trkpt>
      <trkpt lat="63.32897" lon="9.18643">
        <ele>39.022643</ele>
        <time>2020-07-15T17:24:35.259Z</time>
      </trkpt>
      <trkpt lat="63.32937" lon="9.1866">
        <ele>35.252365</ele>
        <time>2020-07-15T17:24:40.227Z</time>
      </trkpt>
      <trkpt lat="63.32962" lon="9.18694">
        <ele>32.56861</ele>
        <time>2020-07-15T17:24:44.689Z</time>
      </trkpt>
      <trkpt lat="63.33028" lon="9.18823">
        <ele>38.401458</ele>
        <time>2020-07-15T17:25:14.988Z</time>
      </trkpt>
      <trkpt lat="63.3315" lon="9.18981">
        <ele>49.817033</ele>
        <time>2020-07-15T17:26:32.901Z</time>
      </trkpt>
      <trkpt lat="63.33209" lon="9.191">
        <ele>56.849708</ele>
        <time>2020-07-15T17:27:12.907Z</time>
      </trkpt>
      <trkpt lat="63.33225" lon="9.19156">
        <ele>59.468502</ele>
        <time>2020-07-15T17:27:25.193Z</time>
      </trkpt>
      <trkpt lat="63.33242" lon="9.19297">
        <ele>62.323302</ele>
        <time>2020-07-15T17:27:45.945Z</time>
      </trkpt>
      <trkpt lat="63.33278" lon="9.19451">
        <ele>63.168338</ele>
        <time>2020-07-15T17:28:02.311Z</time>
      </trkpt>
      <trkpt lat="63.33285" lon="9.19516">
        <ele>63.492615</ele>
        <time>2020-07-15T17:28:07.144Z</time>
      </trkpt>
      <trkpt lat="63.33287" lon="9.19612">
        <ele>63.33823</ele>
        <time>2020-07-15T17:28:13.625Z</time>
      </trkpt>
      <trkpt lat="63.33313" lon="9.19734">
        <ele>59.819858</ele>
        <time>2020-07-15T17:28:21.602Z</time>
      </trkpt>
      <trkpt lat="63.33316" lon="9.19777">
        <ele>58.687946</ele>
        <time>2020-07-15T17:28:23.821Z</time>
      </trkpt>
      <trkpt lat="63.33314" lon="9.1984">
        <ele>57.042241</ele>
        <time>2020-07-15T17:28:27.134Z</time>
      </trkpt>
      <trkpt lat="63.33307" lon="9.19878">
        <ele>55.987417</ele>
        <time>2020-07-15T17:28:29.251Z</time>
      </trkpt>
      <trkpt lat="63.33292" lon="9.19924">
        <ele>54.505246</ele>
        <time>2020-07-15T17:28:32.077Z</time>
      </trkpt>
      <trkpt lat="63.33283" lon="9.19945">
        <ele>53.752025</ele>
        <time>2020-07-15T17:28:33.630Z</time>
      </trkpt>
      <trkpt lat="63.33265" lon="9.19994">
        <ele>51.21113</ele>
        <time>2020-07-15T17:28:36.745Z</time>
      </trkpt>
      <trkpt lat="63.33254" lon="9.2005">
        <ele>48.641853</ele>
        <time>2020-07-15T17:28:39.673Z</time>
      </trkpt>
      <trkpt lat="63.33259" lon="9.20104">
        <ele>46.282515</ele>
        <time>2020-07-15T17:28:42.369Z</time>
      </trkpt>
      <trkpt lat="63.33322" lon="9.20317">
        <ele>36.536572</ele>
        <time>2020-07-15T17:28:54.781Z</time>
      </trkpt>
      <trkpt lat="63.33345" lon="9.2037">
        <ele>37.169177</ele>
        <time>2020-07-15T17:28:58.741Z</time>
      </trkpt>
      <trkpt lat="63.33363" lon="9.20386">
        <ele>37.546979</ele>
        <time>2020-07-15T17:29:01.307Z</time>
      </trkpt>
      <trkpt lat="63.33383" lon="9.20386">
        <ele>37.929969</ele>
        <time>2020-07-15T17:29:04.549Z</time>
      </trkpt>
      <trkpt lat="63.33448" lon="9.20351">
        <ele>39.228633</ele>
        <time>2020-07-15T17:29:28.170Z</time>
      </trkpt>
      <trkpt lat="63.33468" lon="9.2035">
        <ele>39.615555</ele>
        <time>2020-07-15T17:29:38.738Z</time>
      </trkpt>
      <trkpt lat="63.33486" lon="9.20362">
        <ele>40.904592</ele>
        <time>2020-07-15T17:29:47.956Z</time>
      </trkpt>
      <trkpt lat="63.33504" lon="9.20386">
        <ele>43.601787</ele>
        <time>2020-07-15T17:30:01.177Z</time>
      </trkpt>
      <trkpt lat="63.33546" lon="9.20474">
        <ele>51.156446</ele>
        <time>2020-07-15T17:30:38.566Z</time>
      </trkpt>
      <trkpt lat="63.33556" lon="9.20494">
        <ele>52.814075</ele>
        <time>2020-07-15T17:30:48.457Z</time>
      </trkpt>
      <trkpt lat="63.33593" lon="9.20584">
        <ele>59.95878</ele>
        <time>2020-07-15T17:31:23.855Z</time>
      </trkpt>
      <trkpt lat="63.33623" lon="9.20691">
        <ele>63.479447</ele>
        <time>2020-07-15T17:31:55.365Z</time>
      </trkpt>
      <trkpt lat="63.3363" lon="9.20725">
        <ele>63.613063</ele>
        <time>2020-07-15T17:32:02.607Z</time>
      </trkpt>
      <trkpt lat="63.3364" lon="9.20784">
        <ele>63.841709</ele>
        <time>2020-07-15T17:32:13.384Z</time>
      </trkpt>
      <trkpt lat="63.33736" lon="9.21506">
        <ele>49.554024</ele>
        <time>2020-07-15T17:32:53.139Z</time>
      </trkpt>
      <trkpt lat="63.33746" lon="9.21584">
        <ele>46.783842</ele>
        <time>2020-07-15T17:32:57.174Z</time>
      </trkpt>
      <trkpt lat="63.33749" lon="9.21609">
        <ele>45.88731</ele>
        <time>2020-07-15T17:32:58.455Z</time>
      </trkpt>
      <trkpt lat="63.33754" lon="9.21728">
        <ele>41.833862</ele>
        <time>2020-07-15T17:33:04.453Z</time>
      </trkpt>
      <trkpt lat="63.33749" lon="9.21832">
        <ele>38.907473</ele>
        <time>2020-07-15T17:33:09.743Z</time>
      </trkpt>
      <trkpt lat="63.3371" lon="9.22166">
        <ele>31.40778</ele>
        <time>2020-07-15T17:33:29.013Z</time>
      </trkpt>
      <trkpt lat="63.33686" lon="9.22263">
        <ele>29.951982</ele>
        <time>2020-07-15T17:33:35.752Z</time>
      </trkpt>
      <trkpt lat="63.33653" lon="9.22323">
        <ele>28.715865</ele>
        <time>2020-07-15T17:33:41.683Z</time>
      </trkpt>
      <trkpt lat="63.33275" lon="9.22816">
        <ele>15.895911</ele>
        <time>2020-07-15T17:34:40.023Z</time>
      </trkpt>
      <trkpt lat="63.33247" lon="9.2286">
        <ele>15.06497</ele>
        <time>2020-07-15T17:34:44.217Z</time>
      </trkpt>
      <trkpt lat="63.3318" lon="9.23">
        <ele>13.04734</ele>
        <time>2020-07-15T17:34:56.168Z</time>
      </trkpt>
      <trkpt lat="63.33174" lon="9.23013">
        <ele>12.858157</ele>
        <time>2020-07-15T17:34:57.237Z</time>
      </trkpt>
      <trkpt lat="63.33147" lon="9.23071">
        <ele>12.044255</ele>
        <time>2020-07-15T17:35:03.318Z</time>
      </trkpt>
      <trkpt lat="63.33124" lon="9.23131">
        <ele>12.247132</ele>
        <time>2020-07-15T17:35:11.243Z</time>
      </trkpt>
      <trkpt lat="63.3312" lon="9.23145">
        <ele>12.514468</ele>
        <time>2020-07-15T17:35:12.229Z</time>
      </trkpt>
      <trkpt lat="63.33114" lon="9.2317">
        <ele>12.99009</ele>
        <time>2020-07-15T17:35:16.573Z</time>
      </trkpt>
      <trkpt lat="63.33104" lon="9.23235">
        <ele>14.102768</ele>
        <time>2020-07-15T17:35:23.593Z</time>
      </trkpt>
      <trkpt lat="63.33101" lon="9.23316">
        <ele>15.439254</ele>
        <time>2020-07-15T17:35:33.857Z</time>
      </trkpt>
      <trkpt lat="63.33102" lon="9.23336">
        <ele>15.767047</ele>
        <time>2020-07-15T17:35:37.788Z</time>
      </trkpt>
      <trkpt lat="63.33104" lon="9.23358">
        <ele>16.130206</ele>
        <time>2020-07-15T17:35:40.798Z</time>
      </trkpt>
      <trkpt lat="63.33109" lon="9.23397">
        <ele>16.788241</ele>
        <time>2020-07-15T17:35:45.832Z</time>
      </trkpt>
      <trkpt lat="63.33115" lon="9.23433">
        <ele>17.421858</ele>
        <time>2020-07-15T17:35:52.507Z</time>
      </trkpt>
      <trkpt lat="63.33182" lon="9.23776">
        <ele>30.64316</ele>
        <time>2020-07-15T17:37:02.378Z</time>
      </trkpt>
      <trkpt lat="63.33188" lon="9.23804">
        <ele>31.858986</ele>
        <time>2020-07-15T17:37:09.298Z</time>
      </trkpt>
      <trkpt lat="63.33196" lon="9.23832">
        <ele>33.107018</ele>
        <time>2020-07-15T17:37:18.206Z</time>
      </trkpt>
      <trkpt lat="63.33218" lon="9.23902">
        <ele>38.634899</ele>
        <time>2020-07-15T17:37:41.286Z</time>
      </trkpt>
      <trkpt lat="63.33227" lon="9.23929">
        <ele>40.873866</ele>
        <time>2020-07-15T17:37:49.976Z</time>
      </trkpt>
      <trkpt lat="63.33243" lon="9.23972">
        <ele>44.628464</ele>
        <time>2020-07-15T17:38:07.607Z</time>
      </trkpt>
      <trkpt lat="63.333" lon="9.24137">
        <ele>58.835213</ele>
        <time>2020-07-15T17:39:15.772Z</time>
      </trkpt>
      <trkpt lat="63.33327" lon="9.24183">
        <ele>62.748858</ele>
        <time>2020-07-15T17:39:40.584Z</time>
      </trkpt>
      <trkpt lat="63.3338" lon="9.24252">
        <ele>68.619881</ele>
        <time>2020-07-15T17:40:17.565Z</time>
      </trkpt>
      <trkpt lat="63.33418" lon="9.24264">
        <ele>72.22722</ele>
        <time>2020-07-15T17:40:34.564Z</time>
      </trkpt>
      <trkpt lat="63.33521" lon="9.24232">
        <ele>77.843318</ele>
        <time>2020-07-15T17:41:04.371Z</time>
      </trkpt>
      <trkpt lat="63.3354" lon="9.2424">
        <ele>77.854937</ele>
        <time>2020-07-15T17:41:07.335Z</time>
      </trkpt>
      <trkpt lat="63.33601" lon="9.243">
        <ele>77.896134</ele>
        <time>2020-07-15T17:41:16.421Z</time>
      </trkpt>
      <trkpt lat="63.33696" lon="9.24323">
        <ele>78.862983</ele>
        <time>2020-07-15T17:41:32.570Z</time>
      </trkpt>
      <trkpt lat="63.33738" lon="9.24359">
        <ele>79.767171</ele>
        <time>2020-07-15T17:41:42.267Z</time>
      </trkpt>
      <trkpt lat="63.33749" lon="9.24375">
        <ele>80.032121</ele>
        <time>2020-07-15T17:41:44.459Z</time>
      </trkpt>
      <trkpt lat="63.3376" lon="9.24393">
        <ele>80.302017</ele>
        <time>2020-07-15T17:41:49.984Z</time>
      </trkpt>
      <trkpt lat="63.33865" lon="9.24587">
        <ele>83.641997</ele>
        <time>2020-07-15T17:42:32.533Z</time>
      </trkpt>
      <trkpt lat="63.33922" lon="9.24627">
        <ele>85.33236</ele>
        <time>2020-07-15T17:42:50.627Z</time>
      </trkpt>
      <trkpt lat="63.3397" lon="9.24616">
        <ele>86.356453</ele>
        <time>2020-07-15T17:43:01.495Z</time>
      </trkpt>
      <trkpt lat="63.33988" lon="9.24608">
        <ele>85.453682</ele>
        <time>2020-07-15T17:43:03.981Z</time>
      </trkpt>
      <trkpt lat="63.3404" lon="9.24579">
        <ele>82.733967</ele>
        <time>2020-07-15T17:43:11.291Z</time>
      </trkpt>
      <trkpt lat="63.34091" lon="9.24549">
        <ele>80.12385</ele>
        <time>2020-07-15T17:43:17.632Z</time>
      </trkpt>
      <trkpt lat="63.34098" lon="9.24545">
        <ele>79.744938</ele>
        <time>2020-07-15T17:43:18.559Z</time>
      </trkpt>
      <trkpt lat="63.34128" lon="9.24526">
        <ele>78.162284</ele>
        <time>2020-07-15T17:43:22.065Z</time>
      </trkpt>
      <trkpt lat="63.34159" lon="9.2449">
        <ele>75.961788</ele>
        <time>2020-07-15T17:43:25.903Z</time>
      </trkpt>
      <trkpt lat="63.34187" lon="9.24424">
        <ele>73.031206</ele>
        <time>2020-07-15T17:43:30.436Z</time>
      </trkpt>
      <trkpt lat="63.34242" lon="9.24325">
        <ele>67.99729</ele>
        <time>2020-07-15T17:43:38.231Z</time>
      </trkpt>
      <trkpt lat="63.34317" lon="9.24257">
        <ele>65.19736</ele>
        <time>2020-07-15T17:43:48.711Z</time>
      </trkpt>
      <trkpt lat="63.34356" lon="9.24246">
        <ele>65.765692</ele>
        <time>2020-07-15T17:43:56.211Z</time>
      </trkpt>
      <trkpt lat="63.34385" lon="9.24247">
        <ele>66.169193</ele>
        <time>2020-07-15T17:44:03.186Z</time>
      </trkpt>
      <trkpt lat="63.34404" lon="9.24267">
        <ele>66.47111</ele>
        <time>2020-07-15T17:44:09.528Z</time>
      </trkpt>
      <trkpt lat="63.34433" lon="9.24357">
        <ele>67.189833</ele>
        <time>2020-07-15T17:44:26.788Z</time>
      </trkpt>
      <trkpt lat="63.34451" lon="9.24392">
        <ele>67.830805</ele>
        <time>2020-07-15T17:44:35.418Z</time>
      </trkpt>
      <trkpt lat="63.3455" lon="9.24467">
        <ele>71.034502</ele>
        <time>2020-07-15T17:45:08.590Z</time>
      </trkpt>
      <trkpt lat="63.34557" lon="9.24476">
        <ele>71.290053</ele>
        <time>2020-07-15T17:45:11.337Z</time>
      </trkpt>
      <trkpt lat="63.3458" lon="9.24513">
        <ele>72.156201</ele>
        <time>2020-07-15T17:45:17.046Z</time>
      </trkpt>
      <trkpt lat="63.34631" lon="9.24634">
        <ele>70.612981</ele>
        <time>2020-07-15T17:45:28.821Z</time>
      </trkpt>
      <trkpt lat="63.3468" lon="9.24773">
        <ele>67.329392</ele>
        <time>2020-07-15T17:45:38.550Z</time>
      </trkpt>
      <trkpt lat="63.34717" lon="9.24873">
        <ele>64.354118</ele>
        <time>2020-07-15T17:45:45.200Z</time>
      </trkpt>
      <trkpt lat="63.34756" lon="9.24951">
        <ele>59.361258</ele>
        <time>2020-07-15T17:45:51.090Z</time>
      </trkpt>
      <trkpt lat="63.34794" lon="9.24999">
        <ele>55.288121</ele>
        <time>2020-07-15T17:45:55.850Z</time>
      </trkpt>
      <trkpt lat="63.34841" lon="9.25042">
        <ele>50.407153</ele>
        <time>2020-07-15T17:46:01.504Z</time>
      </trkpt>
      <trkpt lat="63.3486" lon="9.25082">
        <ele>47.907881</ele>
        <time>2020-07-15T17:46:04.194Z</time>
      </trkpt>
      <trkpt lat="63.34871" lon="9.25132">
        <ele>45.002004</ele>
        <time>2020-07-15T17:46:06.842Z</time>
      </trkpt>
      <trkpt lat="63.34876" lon="9.25193">
        <ele>41.741456</ele>
        <time>2020-07-15T17:46:09.854Z</time>
      </trkpt>
      <trkpt lat="63.34874" lon="9.2525">
        <ele>38.756604</ele>
        <time>2020-07-15T17:46:12.548Z</time>
      </trkpt>
      <trkpt lat="63.34865" lon="9.2534">
        <ele>33.934562</ele>
        <time>2020-07-15T17:46:16.959Z</time>
      </trkpt>
      <trkpt lat="63.34864" lon="9.25353">
        <ele>33.237016</ele>
        <time>2020-07-15T17:46:17.583Z</time>
      </trkpt>
      <trkpt lat="63.34863" lon="9.25379">
        <ele>31.879328</ele>
        <time>2020-07-15T17:46:18.833Z</time>
      </trkpt>
      <trkpt lat="63.34869" lon="9.25501">
        <ele>26.366342</ele>
        <time>2020-07-15T17:46:24.827Z</time>
      </trkpt>
      <trkpt lat="63.34867" lon="9.25554">
        <ele>24.865452</ele>
        <time>2020-07-15T17:46:27.511Z</time>
      </trkpt>
      <trkpt lat="63.34864" lon="9.25563">
        <ele>24.575278</ele>
        <time>2020-07-15T17:46:27.990Z</time>
      </trkpt>
      <trkpt lat="63.34863" lon="9.25568">
        <ele>24.405875</ele>
        <time>2020-07-15T17:46:28.306Z</time>
      </trkpt>
      <trkpt lat="63.3486" lon="9.25577">
        <ele>24.072541</ele>
        <time>2020-07-15T17:46:28.929Z</time>
      </trkpt>
      <trkpt lat="63.34858" lon="9.25582">
        <ele>23.892586</ele>
        <time>2020-07-15T17:46:29.226Z</time>
      </trkpt>
      <trkpt lat="63.34833" lon="9.2561">
        <ele>22.159085</ele>
        <time>2020-07-15T17:46:32.374Z</time>
      </trkpt>
      <trkpt lat="63.34717" lon="9.25636">
        <ele>15.742933</ele>
        <time>2020-07-15T17:46:46.979Z</time>
      </trkpt>
      <trkpt lat="63.34694" lon="9.25653">
        <ele>15.275008</ele>
        <time>2020-07-15T17:46:51.261Z</time>
      </trkpt>
      <trkpt lat="63.34676" lon="9.25678">
        <ele>14.880703</ele>
        <time>2020-07-15T17:46:54.733Z</time>
      </trkpt>
      <trkpt lat="63.34643" lon="9.25755">
        <ele>13.991741</ele>
        <time>2020-07-15T17:47:02.045Z</time>
      </trkpt>
      <trkpt lat="63.34626" lon="9.25817">
        <ele>13.384435</ele>
        <time>2020-07-15T17:47:06.616Z</time>
      </trkpt>
      <trkpt lat="63.34615" lon="9.259">
        <ele>12.645656</ele>
        <time>2020-07-15T17:47:12.137Z</time>
      </trkpt>
      <trkpt lat="63.34612" lon="9.25992">
        <ele>11.794852</ele>
        <time>2020-07-15T17:47:17.993Z</time>
      </trkpt>
      <trkpt lat="63.34613" lon="9.26003">
        <ele>11.687213</ele>
        <time>2020-07-15T17:47:18.630Z</time>
      </trkpt>
      <trkpt lat="63.34613" lon="9.26014">
        <ele>11.590554</ele>
        <time>2020-07-15T17:47:19.268Z</time>
      </trkpt>
      <trkpt lat="63.34618" lon="9.26052">
        <ele>11.228398</ele>
        <time>2020-07-15T17:47:21.809Z</time>
      </trkpt>
      <trkpt lat="63.34623" lon="9.26079">
        <ele>10.954869</ele>
        <time>2020-07-15T17:47:23.605Z</time>
      </trkpt>
      <trkpt lat="63.34631" lon="9.26111">
        <ele>10.613098</ele>
        <time>2020-07-15T17:47:25.891Z</time>
      </trkpt>
      <trkpt lat="63.34716" lon="9.26314">
        <ele>8.57869</ele>
        <time>2020-07-15T17:47:43.572Z</time>
      </trkpt>
      <trkpt lat="63.34766" lon="9.26474">
        <ele>7.71277</ele>
        <time>2020-07-15T17:47:57.825Z</time>
      </trkpt>
      <trkpt lat="63.3482" lon="9.26613">
        <ele>6.997455</ele>
        <time>2020-07-15T17:48:11.409Z</time>
      </trkpt>
      <trkpt lat="63.34846" lon="9.26683">
        <ele>6.69991</ele>
        <time>2020-07-15T17:48:18.042Z</time>
      </trkpt>
      <trkpt lat="63.34867" lon="9.26743">
        <ele>6.450221</ele>
        <time>2020-07-15T17:48:23.524Z</time>
      </trkpt>
      <trkpt lat="63.34913" lon="9.2689">
        <ele>5.813293</ele>
        <time>2020-07-15T17:48:36.064Z</time>
      </trkpt>
      <trkpt lat="63.34953" lon="9.27154">
        <ele>4.457948</ele>
        <time>2020-07-15T17:48:55.024Z</time>
      </trkpt>
      <trkpt lat="63.34971" lon="9.27207">
        <ele>4.134974</ele>
        <time>2020-07-15T17:48:59.605Z</time>
      </trkpt>
      <trkpt lat="63.34978" lon="9.27218">
        <ele>4.035993</ele>
        <time>2020-07-15T17:49:00.942Z</time>
      </trkpt>
      <trkpt lat="63.34975" lon="9.27231">
        <ele>3.997368</ele>
        <time>2020-07-15T17:49:02.283Z</time>
      </trkpt>
      <trkpt lat="63.35053" lon="9.2734">
        <ele>3.589864</ele>
        <time>2020-07-15T17:49:17.615Z</time>
      </trkpt>
      <trkpt lat="63.35074" lon="9.2736">
        <ele>3.485827</ele>
        <time>2020-07-15T17:49:22.013Z</time>
      </trkpt>
      <trkpt lat="63.35081" lon="9.27363">
        <ele>3.456993</ele>
        <time>2020-07-15T17:49:23.043Z</time>
      </trkpt>
      <trkpt lat="63.35087" lon="9.27371">
        <ele>3.423759</ele>
        <time>2020-07-15T17:49:24.385Z</time>
      </trkpt>
      <trkpt lat="63.35094" lon="9.27378">
        <ele>3.390525</ele>
        <time>2020-07-15T17:49:25.680Z</time>
      </trkpt>
      <trkpt lat="63.35095" lon="9.27386">
        <ele>3.374174</ele>
        <time>2020-07-15T17:49:26.584Z</time>
      </trkpt>
      <trkpt lat="63.35136" lon="9.27434">
        <ele>3.27888</ele>
        <time>2020-07-15T17:49:35.326Z</time>
      </trkpt>
      <trkpt lat="63.35168" lon="9.27458">
        <ele>3.426083</ele>
        <time>2020-07-15T17:49:41.715Z</time>
      </trkpt>
      <trkpt lat="63.35172" lon="9.27462">
        <ele>3.444959</ele>
        <time>2020-07-15T17:49:42.647Z</time>
      </trkpt>
      <trkpt lat="63.35173" lon="9.27451">
        <ele>3.467337</ele>
        <time>2020-07-15T17:49:43.462Z</time>
      </trkpt>
      <trkpt lat="63.35187" lon="9.27462">
        <ele>3.530383</ele>
        <time>2020-07-15T17:49:46.183Z</time>
      </trkpt>
      <trkpt lat="63.35232" lon="9.27502">
        <ele>3.743117</ele>
        <time>2020-07-15T17:49:55.694Z</time>
      </trkpt>
      <trkpt lat="63.35276" lon="9.2756">
        <ele>3.968565</ele>
        <time>2020-07-15T17:50:05.973Z</time>
      </trkpt>
      <trkpt lat="63.35298" lon="9.27642">
        <ele>4.305402</ele>
        <time>2020-07-15T17:50:14.719Z</time>
      </trkpt>
      <trkpt lat="63.35307" lon="9.27704">
        <ele>4.565369</ele>
        <time>2020-07-15T17:50:20.661Z</time>
      </trkpt>
      <trkpt lat="63.35316" lon="9.27771">
        <ele>4.845719</ele>
        <time>2020-07-15T17:50:27.060Z</time>
      </trkpt>
      <trkpt lat="63.3533" lon="9.279">
        <ele>5.381085</ele>
        <time>2020-07-15T17:50:39.426Z</time>
      </trkpt>
      <trkpt lat="63.3533" lon="9.27955">
        <ele>5.605366</ele>
        <time>2020-07-15T17:50:44.777Z</time>
      </trkpt>
      <trkpt lat="63.35299" lon="9.28158">
        <ele>6.648514</ele>
        <time>2020-07-15T17:51:06.007Z</time>
      </trkpt>
      <trkpt lat="63.35295" lon="9.28226">
        <ele>6.983342</ele>
        <time>2020-07-15T17:51:12.704Z</time>
      </trkpt>
      <trkpt lat="63.35304" lon="9.28291">
        <ele>7.313308</ele>
        <time>2020-07-15T17:51:19.208Z</time>
      </trkpt>
      <trkpt lat="63.35336" lon="9.28378">
        <ele>7.553285</ele>
        <time>2020-07-15T17:51:29.649Z</time>
      </trkpt>
      <trkpt lat="63.35415" lon="9.28539">
        <ele>7.441252</ele>
        <time>2020-07-15T17:51:48.899Z</time>
      </trkpt>
      <trkpt lat="63.35471" lon="9.28596">
        <ele>7.165045</ele>
        <time>2020-07-15T17:51:58.341Z</time>
      </trkpt>
      <trkpt lat="63.3549" lon="9.28606">
        <ele>6.850426</ele>
        <time>2020-07-15T17:52:01.314Z</time>
      </trkpt>
      <trkpt lat="63.35527" lon="9.28606">
        <ele>6.270132</ele>
        <time>2020-07-15T17:52:06.713Z</time>
      </trkpt>
      <trkpt lat="63.35662" lon="9.28538">
        <ele>4.197276</ele>
        <time>2020-07-15T17:52:26.452Z</time>
      </trkpt>
      <trkpt lat="63.35682" lon="9.28547">
        <ele>3.933135</ele>
        <time>2020-07-15T17:52:29.548Z</time>
      </trkpt>
      <trkpt lat="63.35691" lon="9.28567">
        <ele>3.767617</ele>
        <time>2020-07-15T17:52:31.425Z</time>
      </trkpt>
      <trkpt lat="63.35696" lon="9.28595">
        <ele>3.597917</ele>
        <time>2020-07-15T17:52:33.463Z</time>
      </trkpt>
      <trkpt lat="63.35697" lon="9.28613">
        <ele>3.497896</ele>
        <time>2020-07-15T17:52:34.649Z</time>
      </trkpt>
      <trkpt lat="63.35712" lon="9.28607">
        <ele>3.3054</ele>
        <time>2020-07-15T17:52:36.963Z</time>
      </trkpt>
      <trkpt lat="63.35764" lon="9.28604">
        <ele>2.646236</ele>
        <time>2020-07-15T17:52:45.406Z</time>
      </trkpt>
      <trkpt lat="63.35798" lon="9.2863">
        <ele>2.256811</ele>
        <time>2020-07-15T17:52:51.407Z</time>
      </trkpt>
      <trkpt lat="63.35826" lon="9.28687">
        <ele>2.091329</ele>
        <time>2020-07-15T17:52:57.917Z</time>
      </trkpt>
      <trkpt lat="63.35827" lon="9.28687">
        <ele>2.089121</ele>
        <time>2020-07-15T17:52:57.990Z</time>
      </trkpt>
      <trkpt lat="63.35903" lon="9.28924">
        <ele>1.521483</ele>
        <time>2020-07-15T17:53:21.076Z</time>
      </trkpt>
      <trkpt lat="63.35908" lon="9.28947">
        <ele>1.493006</ele>
        <time>2020-07-15T17:53:23.253Z</time>
      </trkpt>
      <trkpt lat="63.3592" lon="9.28995">
        <ele>1.446091</ele>
        <time>2020-07-15T17:53:27.504Z</time>
      </trkpt>
      <trkpt lat="63.35992" lon="9.2934">
        <ele>1.126478</ele>
        <time>2020-07-15T17:53:58.358Z</time>
      </trkpt>
      <trkpt lat="63.35993" lon="9.29364">
        <ele>1.111883</ele>
        <time>2020-07-15T17:54:00.336Z</time>
      </trkpt>
      <trkpt lat="63.35996" lon="9.29385">
        <ele>1.098939</ele>
        <time>2020-07-15T17:54:02.122Z</time>
      </trkpt>
      <trkpt lat="63.36007" lon="9.29423">
        <ele>1.072252</ele>
        <time>2020-07-15T17:54:05.783Z</time>
      </trkpt>
      <trkpt lat="63.36035" lon="9.29459">
        <ele>1.029422</ele>
        <time>2020-07-15T17:54:11.676Z</time>
      </trkpt>
      <trkpt lat="63.36046" lon="9.2949">
        <ele>1.005386</ele>
        <time>2020-07-15T17:54:14.965Z</time>
      </trkpt>
      <trkpt lat="63.36055" lon="9.29536">
        <ele>0.976145</ele>
        <time>2020-07-15T17:54:18.999Z</time>
      </trkpt>
      <trkpt lat="63.36076" lon="9.29721">
        <ele>0.994069</ele>
        <time>2020-07-15T17:54:34.703Z</time>
      </trkpt>
      <trkpt lat="63.36074" lon="9.29876">
        <ele>1.109405</ele>
        <time>2020-07-15T17:54:47.773Z</time>
      </trkpt>
      <trkpt lat="63.36089" lon="9.3001">
        <ele>1.211122</ele>
        <time>2020-07-15T17:54:59.535Z</time>
      </trkpt>
      <trkpt lat="63.3608" lon="9.30053">
        <ele>1.582156</ele>
        <time>2020-07-15T17:55:03.549Z</time>
      </trkpt>
      <trkpt lat="63.35992" lon="9.30234">
        <ele>4.236259</ele>
        <time>2020-07-15T17:55:32.281Z</time>
      </trkpt>
      <trkpt lat="63.35974" lon="9.30303">
        <ele>5.016074</ele>
        <time>2020-07-15T17:55:42.359Z</time>
      </trkpt>
      <trkpt lat="63.35969" lon="9.30344">
        <ele>6.030095</ele>
        <time>2020-07-15T17:55:48.738Z</time>
      </trkpt>
      <trkpt lat="63.35969" lon="9.30349">
        <ele>6.192113</ele>
        <time>2020-07-15T17:55:50.680Z</time>
      </trkpt>
      <trkpt lat="63.35976" lon="9.30433">
        <ele>9.032052</ele>
        <time>2020-07-15T17:56:04.482Z</time>
      </trkpt>
      <trkpt lat="63.35973" lon="9.30582">
        <ele>13.944553</ele>
        <time>2020-07-15T17:56:32.337Z</time>
      </trkpt>
      <trkpt lat="63.35978" lon="9.30645">
        <ele>16.06076</ele>
        <time>2020-07-15T17:56:46.963Z</time>
      </trkpt>
      <trkpt lat="63.35969" lon="9.30657">
        <ele>16.802594</ele>
        <time>2020-07-15T17:56:52.700Z</time>
      </trkpt>
      <trkpt lat="63.3591" lon="9.30765">
        <ele>22.706606</ele>
        <time>2020-07-15T17:57:29.250Z</time>
      </trkpt>
      <trkpt lat="63.35904" lon="9.3078">
        <ele>23.407149</ele>
        <time>2020-07-15T17:57:33.812Z</time>
      </trkpt>
      <trkpt lat="63.359" lon="9.30794">
        <ele>24.000372</ele>
        <time>2020-07-15T17:57:38.993Z</time>
      </trkpt>
      <trkpt lat="63.35868" lon="9.31005">
        <ele>31.887541</ele>
        <time>2020-07-15T17:58:19.473Z</time>
      </trkpt>
      <trkpt lat="63.35867" lon="9.31011">
        <ele>32.103438</ele>
        <time>2020-07-15T17:58:21.992Z</time>
      </trkpt>
      <trkpt lat="63.35862" lon="9.31008">
        <ele>32.51481</ele>
        <time>2020-07-15T17:58:23.794Z</time>
      </trkpt>
      <trkpt lat="63.35824" lon="9.30993">
        <ele>33.635049</ele>
        <time>2020-07-15T17:58:37.748Z</time>
      </trkpt>
      <trkpt lat="63.35752" lon="9.30996">
        <ele>35.5508</ele>
        <time>2020-07-15T17:58:55.374Z</time>
      </trkpt>
      <trkpt lat="63.35743" lon="9.31012">
        <ele>35.875026</ele>
        <time>2020-07-15T17:58:57.545Z</time>
      </trkpt>
      <trkpt lat="63.35724" lon="9.31084">
        <ele>36.881395</ele>
        <time>2020-07-15T17:59:06.116Z</time>
      </trkpt>
      <trkpt lat="63.35722" lon="9.31086">
        <ele>36.934171</ele>
        <time>2020-07-15T17:59:06.388Z</time>
      </trkpt>
      <trkpt lat="63.3572" lon="9.31087">
        <ele>36.974742</ele>
        <time>2020-07-15T17:59:07.253Z</time>
      </trkpt>
      <trkpt lat="63.35709" lon="9.31072">
        <ele>37.320119</ele>
        <time>2020-07-15T17:59:09.863Z</time>
      </trkpt>
      <trkpt lat="63.35704" lon="9.31062">
        <ele>37.472806</ele>
        <time>2020-07-15T17:59:11.880Z</time>
      </trkpt>
      <trkpt lat="63.35649" lon="9.31134">
        <ele>38.117145</ele>
        <time>2020-07-15T17:59:24.732Z</time>
      </trkpt>
      <trkpt lat="63.35634" lon="9.31157">
        <ele>38.303444</ele>
        <time>2020-07-15T17:59:28.673Z</time>
      </trkpt>
      <trkpt lat="63.35626" lon="9.3117">
        <ele>38.404841</ele>
        <time>2020-07-15T17:59:30.797Z</time>
      </trkpt>
      <trkpt lat="63.35617" lon="9.31187">
        <ele>38.524372</ele>
        <time>2020-07-15T17:59:33.713Z</time>
      </trkpt>
      <trkpt lat="63.35587" lon="9.3127">
        <ele>39.015334</ele>
        <time>2020-07-15T17:59:44.328Z</time>
      </trkpt>
      <trkpt lat="63.35579" lon="9.31337">
        <ele>39.290876</ele>
        <time>2020-07-15T17:59:50.348Z</time>
      </trkpt>
      <trkpt lat="63.35605" lon="9.31779">
        <ele>39.49995</ele>
        <time>2020-07-15T18:00:26.698Z</time>
      </trkpt>
      <trkpt lat="63.35645" lon="9.32013">
        <ele>39.050695</ele>
        <time>2020-07-15T18:00:45.231Z</time>
      </trkpt>
      <trkpt lat="63.35698" lon="9.32202">
        <ele>38.462541</ele>
        <time>2020-07-15T18:01:01.650Z</time>
      </trkpt>
      <trkpt lat="63.35718" lon="9.32297">
        <ele>38.125192</ele>
        <time>2020-07-15T18:01:09.170Z</time>
      </trkpt>
      <trkpt lat="63.35732" lon="9.32376">
        <ele>37.848114</ele>
        <time>2020-07-15T18:01:15.281Z</time>
      </trkpt>
      <trkpt lat="63.35739" lon="9.32461">
        <ele>37.563894</ele>
        <time>2020-07-15T18:01:21.448Z</time>
      </trkpt>
      <trkpt lat="63.35736" lon="9.32893">
        <ele>35.626904</ele>
        <time>2020-07-15T18:01:51.568Z</time>
      </trkpt>
      <trkpt lat="63.35728" lon="9.32949">
        <ele>35.245541</ele>
        <time>2020-07-15T18:01:55.562Z</time>
      </trkpt>
      <trkpt lat="63.35713" lon="9.32993">
        <ele>34.891647</ele>
        <time>2020-07-15T18:01:59.126Z</time>
      </trkpt>
      <trkpt lat="63.35683" lon="9.33057">
        <ele>34.307386</ele>
        <time>2020-07-15T18:02:05.102Z</time>
      </trkpt>
      <trkpt lat="63.35667" lon="9.33099">
        <ele>33.953469</ele>
        <time>2020-07-15T18:02:08.664Z</time>
      </trkpt>
      <trkpt lat="63.3565" lon="9.33159">
        <ele>33.501763</ele>
        <time>2020-07-15T18:02:13.330Z</time>
      </trkpt>
      <trkpt lat="63.35643" lon="9.33208">
        <ele>33.301094</ele>
        <time>2020-07-15T18:02:16.756Z</time>
      </trkpt>
      <trkpt lat="63.35635" lon="9.33294">
        <ele>33.387262</ele>
        <time>2020-07-15T18:02:22.783Z</time>
      </trkpt>
      <trkpt lat="63.35633" lon="9.33311">
        <ele>33.403627</ele>
        <time>2020-07-15T18:02:24.056Z</time>
      </trkpt>
      <trkpt lat="63.35632" lon="9.33329">
        <ele>33.421911</ele>
        <time>2020-07-15T18:02:25.377Z</time>
      </trkpt>
      <trkpt lat="63.35643" lon="9.33526">
        <ele>33.616656</ele>
        <time>2020-07-15T18:02:41.458Z</time>
      </trkpt>
      <trkpt lat="63.35684" lon="9.33801">
        <ele>38.224916</ele>
        <time>2020-07-15T18:03:17.367Z</time>
      </trkpt>
      <trkpt lat="63.35689" lon="9.33886">
        <ele>39.921212</ele>
        <time>2020-07-15T18:03:31.450Z</time>
      </trkpt>
      <trkpt lat="63.35663" lon="9.34033">
        <ele>44.471024</ele>
        <time>2020-07-15T18:03:59.757Z</time>
      </trkpt>
      <trkpt lat="63.35647" lon="9.34077">
        <ele>46.709415</ele>
        <time>2020-07-15T18:04:10.416Z</time>
      </trkpt>
      <trkpt lat="63.35619" lon="9.34128">
        <ele>49.951479</ele>
        <time>2020-07-15T18:04:26.314Z</time>
      </trkpt>
      <trkpt lat="63.35611" lon="9.34157">
        <ele>51.341152</ele>
        <time>2020-07-15T18:04:35.089Z</time>
      </trkpt>
      <trkpt lat="63.35566" lon="9.34433">
        <ele>64.013772</ele>
        <time>2020-07-15T18:05:41.498Z</time>
      </trkpt>
      <trkpt lat="63.35565" lon="9.34457">
        <ele>65.140886</ele>
        <time>2020-07-15T18:05:47.671Z</time>
      </trkpt>
      <trkpt lat="63.35565" lon="9.34474">
        <ele>65.987229</ele>
        <time>2020-07-15T18:05:52.146Z</time>
      </trkpt>
      <trkpt lat="63.35588" lon="9.34625">
        <ele>73.463512</ele>
        <time>2020-07-15T18:06:27.254Z</time>
      </trkpt>
      <trkpt lat="63.35669" lon="9.34908">
        <ele>91.863776</ele>
        <time>2020-07-15T18:07:50.066Z</time>
      </trkpt>
      <trkpt lat="63.35673" lon="9.35001">
        <ele>97.100762</ele>
        <time>2020-07-15T18:08:16.561Z</time>
      </trkpt>
      <trkpt lat="63.35669" lon="9.3506">
        <ele>100.723781</ele>
        <time>2020-07-15T18:08:34.399Z</time>
      </trkpt>
      <trkpt lat="63.35663" lon="9.35176">
        <ele>108.541209</ele>
        <time>2020-07-15T18:09:10.129Z</time>
      </trkpt>
      <trkpt lat="63.35652" lon="9.35453">
        <ele>126.707077</ele>
        <time>2020-07-15T18:10:34.802Z</time>
      </trkpt>
      <trkpt lat="63.35631" lon="9.35556">
        <ele>131.260927</ele>
        <time>2020-07-15T18:11:02.347Z</time>
      </trkpt>
      <trkpt lat="63.3559" lon="9.35654">
        <ele>136.602338</ele>
        <time>2020-07-15T18:11:29.391Z</time>
      </trkpt>
      <trkpt lat="63.35542" lon="9.3574">
        <ele>142.097423</ele>
        <time>2020-07-15T18:11:52.612Z</time>
      </trkpt>
      <trkpt lat="63.35409" lon="9.35876">
        <ele>148.166221</ele>
        <time>2020-07-15T18:12:35.723Z</time>
      </trkpt>
      <trkpt lat="63.35403" lon="9.35905">
        <ele>148.776775</ele>
        <time>2020-07-15T18:12:40.081Z</time>
      </trkpt>
      <trkpt lat="63.35404" lon="9.35926">
        <ele>149.176888</ele>
        <time>2020-07-15T18:12:43.132Z</time>
      </trkpt>
      <trkpt lat="63.35415" lon="9.35953">
        <ele>149.848645</ele>
        <time>2020-07-15T18:12:48.441Z</time>
      </trkpt>
      <trkpt lat="63.35429" lon="9.35965">
        <ele>150.415293</ele>
        <time>2020-07-15T18:12:52.899Z</time>
      </trkpt>
      <trkpt lat="63.35464" lon="9.35985">
        <ele>151.841594</ele>
        <time>2020-07-15T18:13:04.697Z</time>
      </trkpt>
      <trkpt lat="63.35508" lon="9.36007">
        <ele>153.606033</ele>
        <time>2020-07-15T18:13:19.634Z</time>
      </trkpt>
      <trkpt lat="63.35547" lon="9.36037">
        <ele>155.213287</ele>
        <time>2020-07-15T18:13:32.432Z</time>
      </trkpt>
      <trkpt lat="63.35578" lon="9.36074">
        <ele>156.599257</ele>
        <time>2020-07-15T18:13:42.782Z</time>
      </trkpt>
      <trkpt lat="63.35602" lon="9.36125">
        <ele>155.816464</ele>
        <time>2020-07-15T18:13:51.064Z</time>
      </trkpt>
      <trkpt lat="63.35618" lon="9.36193">
        <ele>154.950378</ele>
        <time>2020-07-15T18:13:57.836Z</time>
      </trkpt>
      <trkpt lat="63.35631" lon="9.36296">
        <ele>153.762655</ele>
        <time>2020-07-15T18:14:04.307Z</time>
      </trkpt>
      <trkpt lat="63.35634" lon="9.36369">
        <ele>152.94408</ele>
        <time>2020-07-15T18:14:08.329Z</time>
      </trkpt>
      <trkpt lat="63.35634" lon="9.36673">
        <ele>142.153999</ele>
        <time>2020-07-15T18:14:23.549Z</time>
      </trkpt>
      <trkpt lat="63.35641" lon="9.36798">
        <ele>136.721315</ele>
        <time>2020-07-15T18:14:29.630Z</time>
      </trkpt>
      <trkpt lat="63.35652" lon="9.36902">
        <ele>131.841056</ele>
        <time>2020-07-15T18:14:34.773Z</time>
      </trkpt>
      <trkpt lat="63.35665" lon="9.37027">
        <ele>125.784928</ele>
        <time>2020-07-15T18:14:40.927Z</time>
      </trkpt>
      <trkpt lat="63.35677" lon="9.37226">
        <ele>116.298738</ele>
        <time>2020-07-15T18:14:50.723Z</time>
      </trkpt>
      <trkpt lat="63.35675" lon="9.37359">
        <ele>113.176022</ele>
        <time>2020-07-15T18:14:57.491Z</time>
      </trkpt>
      <trkpt lat="63.35567" lon="9.37706">
        <ele>105.393659</ele>
        <time>2020-07-15T18:15:22.514Z</time>
      </trkpt>
      <trkpt lat="63.35547" lon="9.378">
        <ele>104.150379</ele>
        <time>2020-07-15T18:15:29.608Z</time>
      </trkpt>
      <trkpt lat="63.35546" lon="9.37857">
        <ele>103.467085</ele>
        <time>2020-07-15T18:15:33.247Z</time>
      </trkpt>
      <trkpt lat="63.35559" lon="9.37993">
        <ele>101.070765</ele>
        <time>2020-07-15T18:15:41.486Z</time>
      </trkpt>
      <trkpt lat="63.35575" lon="9.38252">
        <ele>93.601523</ele>
        <time>2020-07-15T18:15:55.224Z</time>
      </trkpt>
      <trkpt lat="63.35576" lon="9.3836">
        <ele>90.499355</ele>
        <time>2020-07-15T18:16:00.592Z</time>
      </trkpt>
      <trkpt lat="63.35571" lon="9.38485">
        <ele>86.654308</ele>
        <time>2020-07-15T18:16:06.840Z</time>
      </trkpt>
      <trkpt lat="63.35535" lon="9.38747">
        <ele>78.723265</ele>
        <time>2020-07-15T18:16:21.114Z</time>
      </trkpt>
      <trkpt lat="63.35526" lon="9.38899">
        <ele>79.21136</ele>
        <time>2020-07-15T18:16:31.242Z</time>
      </trkpt>
      <trkpt lat="63.35525" lon="9.38911">
        <ele>79.248114</ele>
        <time>2020-07-15T18:16:32.317Z</time>
      </trkpt>
      <trkpt lat="63.35526" lon="9.38926">
        <ele>79.298146</ele>
        <time>2020-07-15T18:16:34.071Z</time>
      </trkpt>
      <trkpt lat="63.35532" lon="9.39045">
        <ele>79.680046</ele>
        <time>2020-07-15T18:16:47.082Z</time>
      </trkpt>
      <trkpt lat="63.35527" lon="9.39108">
        <ele>79.881664</ele>
        <time>2020-07-15T18:16:56.121Z</time>
      </trkpt>
      <trkpt lat="63.35495" lon="9.3923">
        <ele>83.315684</ele>
        <time>2020-07-15T18:17:19.658Z</time>
      </trkpt>
      <trkpt lat="63.35463" lon="9.39322">
        <ele>86.676439</ele>
        <time>2020-07-15T18:17:40.548Z</time>
      </trkpt>
      <trkpt lat="63.35426" lon="9.39393">
        <ele>89.771774</ele>
        <time>2020-07-15T18:18:00.520Z</time>
      </trkpt>
      <trkpt lat="63.35315" lon="9.39548">
        <ele>97.379224</ele>
        <time>2020-07-15T18:18:51.907Z</time>
      </trkpt>
      <trkpt lat="63.35245" lon="9.3967">
        <ele>102.046475</ele>
        <time>2020-07-15T18:19:20.468Z</time>
      </trkpt>
      <trkpt lat="63.35235" lon="9.39681">
        <ele>102.375111</ele>
        <time>2020-07-15T18:19:24.046Z</time>
      </trkpt>
      <trkpt lat="63.35227" lon="9.3969">
        <ele>102.665279</ele>
        <time>2020-07-15T18:19:26.626Z</time>
      </trkpt>
      <trkpt lat="63.35146" lon="9.39742">
        <ele>105.195895</ele>
        <time>2020-07-15T18:19:49.273Z</time>
      </trkpt>
      <trkpt lat="63.35106" lon="9.39786">
        <ele>106.544762</ele>
        <time>2020-07-15T18:20:00.908Z</time>
      </trkpt>
      <trkpt lat="63.3508" lon="9.39829">
        <ele>107.429494</ele>
        <time>2020-07-15T18:20:08.849Z</time>
      </trkpt>
      <trkpt lat="63.35063" lon="9.39865">
        <ele>107.995519</ele>
        <time>2020-07-15T18:20:14.688Z</time>
      </trkpt>
      <trkpt lat="63.35045" lon="9.39913">
        <ele>108.661543</ele>
        <time>2020-07-15T18:20:21.490Z</time>
      </trkpt>
      <trkpt lat="63.34984" lon="9.40164">
        <ele>111.784456</ele>
        <time>2020-07-15T18:20:54.622Z</time>
      </trkpt>
      <trkpt lat="63.34957" lon="9.40234">
        <ele>112.967337</ele>
        <time>2020-07-15T18:21:05.319Z</time>
      </trkpt>
      <trkpt lat="63.34915" lon="9.40295">
        <ele>114.431185</ele>
        <time>2020-07-15T18:21:18.650Z</time>
      </trkpt>
      <trkpt lat="63.34849" lon="9.40321">
        <ele>116.360785</ele>
        <time>2020-07-15T18:21:37.485Z</time>
      </trkpt>
      <trkpt lat="63.34824" lon="9.40343">
        <ele>117.213176</ele>
        <time>2020-07-15T18:21:45.267Z</time>
      </trkpt>
      <trkpt lat="63.348" lon="9.40388">
        <ele>118.247459</ele>
        <time>2020-07-15T18:21:54.416Z</time>
      </trkpt>
      <trkpt lat="63.34785" lon="9.40429">
        <ele>119.021549</ele>
        <time>2020-07-15T18:22:01.152Z</time>
      </trkpt>
      <trkpt lat="63.34763" lon="9.40499">
        <ele>120.281004</ele>
        <time>2020-07-15T18:22:12.068Z</time>
      </trkpt>
      <trkpt lat="63.34741" lon="9.40573">
        <ele>121.586431</ele>
        <time>2020-07-15T18:22:23.221Z</time>
      </trkpt>
      <trkpt lat="63.34723" lon="9.4062">
        <ele>122.481041</ele>
        <time>2020-07-15T18:22:30.861Z</time>
      </trkpt>
      <trkpt lat="63.34687" lon="9.40698">
        <ele>123.899495</ele>
        <time>2020-07-15T18:22:44.779Z</time>
      </trkpt>
      <trkpt lat="63.34614" lon="9.40942">
        <ele>127.590322</ele>
        <time>2020-07-15T18:23:20.050Z</time>
      </trkpt>
      <trkpt lat="63.34506" lon="9.41115">
        <ele>130.092858</ele>
        <time>2020-07-15T18:23:53.541Z</time>
      </trkpt>
      <trkpt lat="63.34435" lon="9.41277">
        <ele>130.736569</ele>
        <time>2020-07-15T18:24:13.813Z</time>
      </trkpt>
      <trkpt lat="63.34412" lon="9.41375">
        <ele>130.578372</ele>
        <time>2020-07-15T18:24:21.666Z</time>
      </trkpt>
      <trkpt lat="63.34396" lon="9.41525">
        <ele>130.35506</ele>
        <time>2020-07-15T18:24:32.314Z</time>
      </trkpt>
      <trkpt lat="63.34393" lon="9.41557">
        <ele>130.428356</ele>
        <time>2020-07-15T18:24:34.390Z</time>
      </trkpt>
      <trkpt lat="63.34389" lon="9.41583">
        <ele>130.518552</ele>
        <time>2020-07-15T18:24:36.475Z</time>
      </trkpt>
      <trkpt lat="63.34385" lon="9.41608">
        <ele>130.607831</ele>
        <time>2020-07-15T18:24:38.524Z</time>
      </trkpt>
      <trkpt lat="63.34374" lon="9.41661">
        <ele>130.802567</ele>
        <time>2020-07-15T18:24:42.725Z</time>
      </trkpt>
      <trkpt lat="63.34369" lon="9.41682">
        <ele>130.88278</ele>
        <time>2020-07-15T18:24:44.652Z</time>
      </trkpt>
      <trkpt lat="63.34342" lon="9.41761">
        <ele>131.211524</ele>
        <time>2020-07-15T18:24:52.337Z</time>
      </trkpt>
      <trkpt lat="63.3407" lon="9.42349">
        <ele>142.638234</ele>
        <time>2020-07-15T18:26:36.957Z</time>
      </trkpt>
      <trkpt lat="63.34049" lon="9.42383">
        <ele>143.682046</ele>
        <time>2020-07-15T18:26:47.062Z</time>
      </trkpt>
      <trkpt lat="63.34013" lon="9.42423">
        <ele>145.998984</ele>
        <time>2020-07-15T18:27:03.218Z</time>
      </trkpt>
      <trkpt lat="63.33954" lon="9.42453">
        <ele>150.259057</ele>
        <time>2020-07-15T18:27:27.260Z</time>
      </trkpt>
      <trkpt lat="63.33947" lon="9.42455">
        <ele>150.724359</ele>
        <time>2020-07-15T18:27:30.764Z</time>
      </trkpt>
      <trkpt lat="63.33923" lon="9.42462">
        <ele>152.420338</ele>
        <time>2020-07-15T18:27:40.487Z</time>
      </trkpt>
      <trkpt lat="63.33871" lon="9.42493">
        <ele>156.185329</ele>
        <time>2020-07-15T18:28:03.246Z</time>
      </trkpt>
      <trkpt lat="63.33726" lon="9.42669">
        <ele>166.780032</ele>
        <time>2020-07-15T18:29:07.729Z</time>
      </trkpt>
      <trkpt lat="63.337" lon="9.42688">
        <ele>168.487827</ele>
        <time>2020-07-15T18:29:17.155Z</time>
      </trkpt>
      <trkpt lat="63.33678" lon="9.427">
        <ele>169.547515</ele>
        <time>2020-07-15T18:29:24.406Z</time>
      </trkpt>
      <trkpt lat="63.33674" lon="9.42702">
        <ele>169.715514</ele>
        <time>2020-07-15T18:29:26.575Z</time>
      </trkpt>
      <trkpt lat="63.33625" lon="9.42701">
        <ele>171.9526</ele>
        <time>2020-07-15T18:29:42.484Z</time>
      </trkpt>
      <trkpt lat="63.33566" lon="9.42669">
        <ele>174.73014</ele>
        <time>2020-07-15T18:30:02.543Z</time>
      </trkpt>
      <trkpt lat="63.33521" lon="9.42679">
        <ele>176.730543</ele>
        <time>2020-07-15T18:30:16.318Z</time>
      </trkpt>
      <trkpt lat="63.33432" lon="9.42788">
        <ele>179.40247</ele>
        <time>2020-07-15T18:30:43.154Z</time>
      </trkpt>
      <trkpt lat="63.33316" lon="9.429">
        <ele>182.318862</ele>
        <time>2020-07-15T18:31:14.275Z</time>
      </trkpt>
      <trkpt lat="63.33184" lon="9.43117">
        <ele>185.136392</ele>
        <time>2020-07-15T18:31:52.574Z</time>
      </trkpt>
      <trkpt lat="63.33003" lon="9.43254">
        <ele>187.37121</ele>
        <time>2020-07-15T18:32:34.295Z</time>
      </trkpt>
      <trkpt lat="63.32953" lon="9.43276">
        <ele>187.68908</ele>
        <time>2020-07-15T18:32:44.360Z</time>
      </trkpt>
      <trkpt lat="63.3285" lon="9.43296">
        <ele>188.243617</ele>
        <time>2020-07-15T18:33:03.621Z</time>
      </trkpt>
      <trkpt lat="63.3278" lon="9.4334">
        <ele>188.396367</ele>
        <time>2020-07-15T18:33:16.707Z</time>
      </trkpt>
      <trkpt lat="63.32738" lon="9.43384">
        <ele>188.495146</ele>
        <time>2020-07-15T18:33:25.356Z</time>
      </trkpt>
      <trkpt lat="63.32695" lon="9.43476">
        <ele>188.7034</ele>
        <time>2020-07-15T18:33:36.551Z</time>
      </trkpt>
      <trkpt lat="63.32668" lon="9.4352">
        <ele>188.923718</ele>
        <time>2020-07-15T18:33:43.099Z</time>
      </trkpt>
      <trkpt lat="63.32635" lon="9.43541">
        <ele>189.151648</ele>
        <time>2020-07-15T18:33:49.970Z</time>
      </trkpt>
      <trkpt lat="63.32603" lon="9.43542">
        <ele>189.356311</ele>
        <time>2020-07-15T18:33:56.218Z</time>
      </trkpt>
      <trkpt lat="63.32459" lon="9.43522">
        <ele>190.497686</ele>
        <time>2020-07-15T18:34:26.176Z</time>
      </trkpt>
      <trkpt lat="63.32376" lon="9.43509">
        <ele>191.235136</ele>
        <time>2020-07-15T18:34:43.406Z</time>
      </trkpt>
      <trkpt lat="63.32153" lon="9.43471">
        <ele>192.904381</ele>
        <time>2020-07-15T18:35:28.696Z</time>
      </trkpt>
      <trkpt lat="63.31984" lon="9.43443">
        <ele>194.20127</ele>
        <time>2020-07-15T18:36:02.788Z</time>
      </trkpt>
      <trkpt lat="63.31899" lon="9.43414">
        <ele>195.128942</ele>
        <time>2020-07-15T18:36:20.794Z</time>
      </trkpt>
      <trkpt lat="63.31848" lon="9.4339">
        <ele>195.687875</ele>
        <time>2020-07-15T18:36:32.083Z</time>
      </trkpt>
      <trkpt lat="63.31815" lon="9.43375">
        <ele>196.221353</ele>
        <time>2020-07-15T18:36:39.401Z</time>
      </trkpt>
      <trkpt lat="63.31796" lon="9.43365">
        <ele>196.725015</ele>
        <time>2020-07-15T18:36:43.821Z</time>
      </trkpt>
      <trkpt lat="63.3169" lon="9.43317">
        <ele>199.444109</ele>
        <time>2020-07-15T18:37:09.108Z</time>
      </trkpt>
      <trkpt lat="63.31639" lon="9.43292">
        <ele>201.392876</ele>
        <time>2020-07-15T18:37:26.409Z</time>
      </trkpt>
      <trkpt lat="63.316" lon="9.43292">
        <ele>204.285904</ele>
        <time>2020-07-15T18:37:40.425Z</time>
      </trkpt>
      <trkpt lat="63.31592" lon="9.43295">
        <ele>204.908724</ele>
        <time>2020-07-15T18:37:43.483Z</time>
      </trkpt>
      <trkpt lat="63.31584" lon="9.43299">
        <ele>205.526333</ele>
        <time>2020-07-15T18:37:46.284Z</time>
      </trkpt>
      <trkpt lat="63.31577" lon="9.43305">
        <ele>206.102858</ele>
        <time>2020-07-15T18:37:48.956Z</time>
      </trkpt>
      <trkpt lat="63.31565" lon="9.43315">
        <ele>207.023667</ele>
        <time>2020-07-15T18:37:54.887Z</time>
      </trkpt>
      <trkpt lat="63.31544" lon="9.43338">
        <ele>208.770947</ele>
        <time>2020-07-15T18:38:03.894Z</time>
      </trkpt>
      <trkpt lat="63.31534" lon="9.43353">
        <ele>209.703313</ele>
        <time>2020-07-15T18:38:10.416Z</time>
      </trkpt>
      <trkpt lat="63.31503" lon="9.43414">
        <ele>212.806291</ele>
        <time>2020-07-15T18:38:30.046Z</time>
      </trkpt>
      <trkpt lat="63.31485" lon="9.43464">
        <ele>215.398886</ele>
        <time>2020-07-15T18:38:44.612Z</time>
      </trkpt>
      <trkpt lat="63.31468" lon="9.43535">
        <ele>219.304388</ele>
        <time>2020-07-15T18:39:04.019Z</time>
      </trkpt>
      <trkpt lat="63.31452" lon="9.43644">
        <ele>224.89939</ele>
        <time>2020-07-15T18:39:33.110Z</time>
      </trkpt>
      <trkpt lat="63.31431" lon="9.43695">
        <ele>228.220141</ele>
        <time>2020-07-15T18:39:48.638Z</time>
      </trkpt>
      <trkpt lat="63.31411" lon="9.43715">
        <ele>230.609647</ele>
        <time>2020-07-15T18:40:00.476Z</time>
      </trkpt>
      <trkpt lat="63.3138" lon="9.4372">
        <ele>233.890869</ele>
        <time>2020-07-15T18:40:16.834Z</time>
      </trkpt>
      <trkpt lat="63.31347" lon="9.43694">
        <ele>236.978369</ele>
        <time>2020-07-15T18:40:34.502Z</time>
      </trkpt>
      <trkpt lat="63.31333" lon="9.43667">
        <ele>238.606036</ele>
        <time>2020-07-15T18:40:42.939Z</time>
      </trkpt>
      <trkpt lat="63.31329" lon="9.43653">
        <ele>239.28958</ele>
        <time>2020-07-15T18:40:47.968Z</time>
      </trkpt>
      <trkpt lat="63.31326" lon="9.43645">
        <ele>239.691522</ele>
        <time>2020-07-15T18:40:49.654Z</time>
      </trkpt>
      <trkpt lat="63.313" lon="9.43493">
        <ele>246.14084</ele>
        <time>2020-07-15T18:41:22.671Z</time>
      </trkpt>
      <trkpt lat="63.3129" lon="9.43457">
        <ele>247.836262</ele>
        <time>2020-07-15T18:41:30.236Z</time>
      </trkpt>
      <trkpt lat="63.31276" lon="9.43432">
        <ele>249.380044</ele>
        <time>2020-07-15T18:41:38.272Z</time>
      </trkpt>
      <trkpt lat="63.31247" lon="9.43416">
        <ele>251.061455</ele>
        <time>2020-07-15T18:41:50.492Z</time>
      </trkpt>
      <trkpt lat="63.3119" lon="9.43415">
        <ele>254.35356</ele>
        <time>2020-07-15T18:42:09.579Z</time>
      </trkpt>
      <trkpt lat="63.31131" lon="9.43384">
        <ele>257.758301</ele>
        <time>2020-07-15T18:42:29.285Z</time>
      </trkpt>
      <trkpt lat="63.31015" lon="9.43287">
        <ele>266.5149</ele>
        <time>2020-07-15T18:43:15.686Z</time>
      </trkpt>
      <trkpt lat="63.31006" lon="9.43283">
        <ele>267.156888</ele>
        <time>2020-07-15T18:43:17.253Z</time>
      </trkpt>
      <trkpt lat="63.30998" lon="9.43281">
        <ele>267.778982</ele>
        <time>2020-07-15T18:43:23.450Z</time>
      </trkpt>
      <trkpt lat="63.30975" lon="9.43291">
        <ele>269.50239</ele>
        <time>2020-07-15T18:43:31.936Z</time>
      </trkpt>
      <trkpt lat="63.30951" lon="9.43333">
        <ele>271.819293</ele>
        <time>2020-07-15T18:43:47.328Z</time>
      </trkpt>
      <trkpt lat="63.30907" lon="9.4353">
        <ele>280.889908</ele>
        <time>2020-07-15T18:44:39.183Z</time>
      </trkpt>
      <trkpt lat="63.3086" lon="9.43649">
        <ele>287.726446</ele>
        <time>2020-07-15T18:45:14.137Z</time>
      </trkpt>
      <trkpt lat="63.30839" lon="9.4372">
        <ele>290.783534</ele>
        <time>2020-07-15T18:45:30.862Z</time>
      </trkpt>
      <trkpt lat="63.30826" lon="9.438">
        <ele>292.602958</ele>
        <time>2020-07-15T18:45:45.995Z</time>
      </trkpt>
      <trkpt lat="63.30815" lon="9.44033">
        <ele>297.599362</ele>
        <time>2020-07-15T18:46:19.172Z</time>
      </trkpt>
      <trkpt lat="63.30741" lon="9.44389">
        <ele>301.402307</ele>
        <time>2020-07-15T18:46:58.178Z</time>
      </trkpt>
      <trkpt lat="63.30709" lon="9.44551">
        <ele>304.198581</ele>
        <time>2020-07-15T18:47:17.575Z</time>
      </trkpt>
      <trkpt lat="63.30706" lon="9.44566">
        <ele>304.532327</ele>
        <time>2020-07-15T18:47:20.163Z</time>
      </trkpt>
      <trkpt lat="63.30668" lon="9.44698">
        <ele>307.704967</ele>
        <time>2020-07-15T18:47:42.235Z</time>
      </trkpt>
      <trkpt lat="63.3066" lon="9.44798">
        <ele>309.752362</ele>
        <time>2020-07-15T18:47:59.035Z</time>
      </trkpt>
      <trkpt lat="63.30691" lon="9.45268">
        <ele>329.170848</ele>
        <time>2020-07-15T18:49:39.613Z</time>
      </trkpt>
      <trkpt lat="63.30727" lon="9.45652">
        <ele>348.612976</ele>
        <time>2020-07-15T18:51:17.895Z</time>
      </trkpt>
      <trkpt lat="63.30732" lon="9.45703">
        <ele>350.999538</ele>
        <time>2020-07-15T18:51:31.071Z</time>
      </trkpt>
      <trkpt lat="63.30738" lon="9.45814">
        <ele>356.07644</ele>
        <time>2020-07-15T18:51:56.550Z</time>
      </trkpt>
      <trkpt lat="63.30748" lon="9.45927">
        <ele>361.3022</ele>
        <time>2020-07-15T18:52:22.156Z</time>
      </trkpt>
      <trkpt lat="63.30786" lon="9.4611">
        <ele>368.778892</ele>
        <time>2020-07-15T18:53:01.264Z</time>
      </trkpt>
      <trkpt lat="63.3082" lon="9.46316">
        <ele>376.033015</ele>
        <time>2020-07-15T18:53:40.406Z</time>
      </trkpt>
      <trkpt lat="63.30858" lon="9.46508">
        <ele>382.997121</ele>
        <time>2020-07-15T18:54:18.639Z</time>
      </trkpt>
      <trkpt lat="63.30862" lon="9.46596">
        <ele>385.925076</ele>
        <time>2020-07-15T18:54:35.110Z</time>
      </trkpt>
      <trkpt lat="63.30855" lon="9.46786">
        <ele>392.313398</ele>
        <time>2020-07-15T18:55:11.715Z</time>
      </trkpt>
      <trkpt lat="63.30856" lon="9.4687">
        <ele>395.194467</ele>
        <time>2020-07-15T18:55:27.865Z</time>
      </trkpt>
      <trkpt lat="63.30888" lon="9.47173">
        <ele>405.632295</ele>
        <time>2020-07-15T18:56:27.568Z</time>
      </trkpt>
      <trkpt lat="63.30909" lon="9.4726">
        <ele>408.251252</ele>
        <time>2020-07-15T18:56:45.957Z</time>
      </trkpt>
      <trkpt lat="63.30996" lon="9.47459">
        <ele>415.157389</ele>
        <time>2020-07-15T18:57:29.635Z</time>
      </trkpt>
      <trkpt lat="63.31027" lon="9.4757">
        <ele>415.176366</ele>
        <time>2020-07-15T18:57:45.818Z</time>
      </trkpt>
      <trkpt lat="63.31248" lon="9.48939">
        <ele>413.62951</ele>
        <time>2020-07-15T18:59:33.164Z</time>
      </trkpt>
      <trkpt lat="63.31269" lon="9.49152">
        <ele>410.393513</ele>
        <time>2020-07-15T18:59:45.631Z</time>
      </trkpt>
      <trkpt lat="63.31311" lon="9.49842">
        <ele>399.853401</ele>
        <time>2020-07-15T19:00:25.764Z</time>
      </trkpt>
      <trkpt lat="63.31318" lon="9.49945">
        <ele>398.530118</ele>
        <time>2020-07-15T19:00:32.430Z</time>
      </trkpt>
      <trkpt lat="63.3132" lon="9.49963">
        <ele>398.304211</ele>
        <time>2020-07-15T19:00:33.532Z</time>
      </trkpt>
      <trkpt lat="63.31345" lon="9.5018">
        <ele>394.918711</ele>
        <time>2020-07-15T19:00:47.346Z</time>
      </trkpt>
      <trkpt lat="63.31554" lon="9.51654">
        <ele>359.690466</ele>
        <time>2020-07-15T19:02:11.197Z</time>
      </trkpt>
      <trkpt lat="63.31574" lon="9.51753">
        <ele>356.53742</ele>
        <time>2020-07-15T19:02:16.875Z</time>
      </trkpt>
      <trkpt lat="63.31598" lon="9.51821">
        <ele>354.0474</ele>
        <time>2020-07-15T19:02:21.345Z</time>
      </trkpt>
      <trkpt lat="63.3162" lon="9.51861">
        <ele>352.171184</ele>
        <time>2020-07-15T19:02:24.706Z</time>
      </trkpt>
      <trkpt lat="63.31882" lon="9.52166">
        <ele>332.828524</ele>
        <time>2020-07-15T19:02:58.900Z</time>
      </trkpt>
      <trkpt lat="63.31953" lon="9.52278">
        <ele>327.394846</ele>
        <time>2020-07-15T19:03:09.022Z</time>
      </trkpt>
      <trkpt lat="63.32013" lon="9.52412">
        <ele>322.900908</ele>
        <time>2020-07-15T19:03:19.027Z</time>
      </trkpt>
      <trkpt lat="63.32137" lon="9.52827">
        <ele>315.320223</ele>
        <time>2020-07-15T19:03:47.536Z</time>
      </trkpt>
      <trkpt lat="63.32145" lon="9.52875">
        <ele>314.914193</ele>
        <time>2020-07-15T19:03:50.769Z</time>
      </trkpt>
      <trkpt lat="63.32132" lon="9.52888">
        <ele>314.656323</ele>
        <time>2020-07-15T19:03:54.418Z</time>
      </trkpt>
      <trkpt lat="63.32091" lon="9.52946">
        <ele>313.797181</ele>
        <time>2020-07-15T19:04:03.105Z</time>
      </trkpt>
      <trkpt lat="63.32066" lon="9.52997">
        <ele>313.784283</ele>
        <time>2020-07-15T19:04:10.495Z</time>
      </trkpt>
      <trkpt lat="63.31968" lon="9.53202">
        <ele>314.209557</ele>
        <time>2020-07-15T19:04:38.746Z</time>
      </trkpt>
      <trkpt lat="63.31892" lon="9.53384">
        <ele>311.74567</ele>
        <time>2020-07-15T19:04:53.909Z</time>
      </trkpt>
      <trkpt lat="63.31849" lon="9.53525">
        <ele>309.711786</ele>
        <time>2020-07-15T19:05:03.707Z</time>
      </trkpt>
      <trkpt lat="63.31815" lon="9.53675">
        <ele>308.37264</ele>
        <time>2020-07-15T19:05:13.693Z</time>
      </trkpt>
      <trkpt lat="63.31755" lon="9.54024">
        <ele>306.862879</ele>
        <time>2020-07-15T19:05:40.408Z</time>
      </trkpt>
      <trkpt lat="63.31692" lon="9.54334">
        <ele>307.931294</ele>
        <time>2020-07-15T19:06:14.253Z</time>
      </trkpt>
      <trkpt lat="63.31681" lon="9.54395">
        <ele>308.177059</ele>
        <time>2020-07-15T19:06:20.925Z</time>
      </trkpt>
      <trkpt lat="63.31655" lon="9.5467">
        <ele>309.150601</ele>
        <time>2020-07-15T19:06:46.638Z</time>
      </trkpt>
      <trkpt lat="63.31633" lon="9.54834">
        <ele>308.216965</ele>
        <time>2020-07-15T19:06:59.189Z</time>
      </trkpt>
      <trkpt lat="63.31601" lon="9.55072">
        <ele>306.740816</ele>
        <time>2020-07-15T19:07:15.056Z</time>
      </trkpt>
      <trkpt lat="63.31597" lon="9.55103">
        <ele>306.421221</ele>
        <time>2020-07-15T19:07:16.963Z</time>
      </trkpt>
      <trkpt lat="63.31579" lon="9.55234">
        <ele>305.083886</ele>
        <time>2020-07-15T19:07:25.367Z</time>
      </trkpt>
      <trkpt lat="63.31576" lon="9.55253">
        <ele>304.884243</ele>
        <time>2020-07-15T19:07:26.539Z</time>
      </trkpt>
      <trkpt lat="63.3157" lon="9.5529">
        <ele>304.512025</ele>
        <time>2020-07-15T19:07:28.958Z</time>
      </trkpt>
      <trkpt lat="63.31562" lon="9.55338">
        <ele>304.002768</ele>
        <time>2020-07-15T19:07:32.131Z</time>
      </trkpt>
      <trkpt lat="63.31546" lon="9.55415">
        <ele>303.176999</ele>
        <time>2020-07-15T19:07:37.535Z</time>
      </trkpt>
      <trkpt lat="63.31525" lon="9.55484">
        <ele>303.286084</ele>
        <time>2020-07-15T19:07:43.221Z</time>
      </trkpt>
      <trkpt lat="63.31496" lon="9.55549">
        <ele>303.526281</ele>
        <time>2020-07-15T19:07:50.152Z</time>
      </trkpt>
      <trkpt lat="63.31456" lon="9.55605">
        <ele>303.80456</ele>
        <time>2020-07-15T19:08:00.046Z</time>
      </trkpt>
      <trkpt lat="63.31409" lon="9.55644">
        <ele>304.096783</ele>
        <time>2020-07-15T19:08:12.085Z</time>
      </trkpt>
      <trkpt lat="63.31258" lon="9.55717">
        <ele>308.284689</ele>
        <time>2020-07-15T19:08:54.487Z</time>
      </trkpt>
      <trkpt lat="63.31218" lon="9.5575">
        <ele>309.383561</ele>
        <time>2020-07-15T19:09:06.206Z</time>
      </trkpt>
      <trkpt lat="63.31185" lon="9.5579">
        <ele>310.044449</ele>
        <time>2020-07-15T19:09:15.903Z</time>
      </trkpt>
      <trkpt lat="63.31154" lon="9.55844">
        <ele>310.749879</ele>
        <time>2020-07-15T19:09:25.586Z</time>
      </trkpt>
      <trkpt lat="63.31127" lon="9.55905">
        <ele>311.433332</ele>
        <time>2020-07-15T19:09:34.285Z</time>
      </trkpt>
      <trkpt lat="63.31104" lon="9.55977">
        <ele>312.146763</ele>
        <time>2020-07-15T19:09:42.810Z</time>
      </trkpt>
      <trkpt lat="63.31086" lon="9.5606">
        <ele>312.509871</ele>
        <time>2020-07-15T19:09:51.132Z</time>
      </trkpt>
      <trkpt lat="63.31083" lon="9.56076">
        <ele>312.538616</ele>
        <time>2020-07-15T19:09:52.591Z</time>
      </trkpt>
      <trkpt lat="63.31072" lon="9.56148">
        <ele>312.665486</ele>
        <time>2020-07-15T19:09:59.186Z</time>
      </trkpt>
      <trkpt lat="63.31063" lon="9.5621">
        <ele>312.772102</ele>
        <time>2020-07-15T19:10:04.608Z</time>
      </trkpt>
      <trkpt lat="63.31044" lon="9.56343">
        <ele>313.004357</ele>
        <time>2020-07-15T19:10:16.141Z</time>
      </trkpt>
      <trkpt lat="63.31032" lon="9.56424">
        <ele>313.028781</ele>
        <time>2020-07-15T19:10:22.991Z</time>
      </trkpt>
      <trkpt lat="63.31016" lon="9.56519">
        <ele>312.907626</ele>
        <time>2020-07-15T19:10:31.194Z</time>
      </trkpt>
      <trkpt lat="63.31007" lon="9.56568">
        <ele>312.844559</ele>
        <time>2020-07-15T19:10:35.498Z</time>
      </trkpt>
      <trkpt lat="63.30998" lon="9.56612">
        <ele>312.785955</ele>
        <time>2020-07-15T19:10:39.373Z</time>
      </trkpt>
      <trkpt lat="63.30986" lon="9.56663">
        <ele>312.718486</ele>
        <time>2020-07-15T19:10:43.658Z</time>
      </trkpt>
      <trkpt lat="63.30943" lon="9.56829">
        <ele>311.986987</ele>
        <time>2020-07-15T19:10:57.620Z</time>
      </trkpt>
      <trkpt lat="63.30714" lon="9.57566">
        <ele>305.094318</ele>
        <time>2020-07-15T19:11:55.553Z</time>
      </trkpt>
      <trkpt lat="63.30704" lon="9.576">
        <ele>304.727358</ele>
        <time>2020-07-15T19:11:58.082Z</time>
      </trkpt>
      <trkpt lat="63.30696" lon="9.57625">
        <ele>304.447919</ele>
        <time>2020-07-15T19:11:59.997Z</time>
      </trkpt>
      <trkpt lat="63.30639" lon="9.57849">
        <ele>301.958656</ele>
        <time>2020-07-15T19:12:16.063Z</time>
      </trkpt>
      <trkpt lat="63.30575" lon="9.58138">
        <ele>298.444038</ele>
        <time>2020-07-15T19:12:36.127Z</time>
      </trkpt>
      <trkpt lat="63.30479" lon="9.5858">
        <ele>290.645366</ele>
        <time>2020-07-15T19:13:04.711Z</time>
      </trkpt>
      <trkpt lat="63.30454" lon="9.5867">
        <ele>288.581062</ele>
        <time>2020-07-15T19:13:10.535Z</time>
      </trkpt>
      <trkpt lat="63.30424" lon="9.58742">
        <ele>286.695283</ele>
        <time>2020-07-15T19:13:15.824Z</time>
      </trkpt>
      <trkpt lat="63.30391" lon="9.58815">
        <ele>284.705658</ele>
        <time>2020-07-15T19:13:21.542Z</time>
      </trkpt>
      <trkpt lat="63.3032" lon="9.58972">
        <ele>280.676967</ele>
        <time>2020-07-15T19:13:33.935Z</time>
      </trkpt>
      <trkpt lat="63.3023" lon="9.59217">
        <ele>275.907317</ele>
        <time>2020-07-15T19:13:52.572Z</time>
      </trkpt>
      <trkpt lat="63.30205" lon="9.59272">
        <ele>274.916313</ele>
        <time>2020-07-15T19:13:57.372Z</time>
      </trkpt>
      <trkpt lat="63.30197" lon="9.59287">
        <ele>274.622469</ele>
        <time>2020-07-15T19:13:58.840Z</time>
      </trkpt>
      <trkpt lat="63.30179" lon="9.59316">
        <ele>273.992141</ele>
        <time>2020-07-15T19:14:01.846Z</time>
      </trkpt>
      <trkpt lat="63.30065" lon="9.59474">
        <ele>270.328411</ele>
        <time>2020-07-15T19:14:20.131Z</time>
      </trkpt>
      <trkpt lat="63.2995" lon="9.59671">
        <ele>265.817097</ele>
        <time>2020-07-15T19:14:39.365Z</time>
      </trkpt>
      <trkpt lat="63.29936" lon="9.5969">
        <ele>265.221318</ele>
        <time>2020-07-15T19:14:41.567Z</time>
      </trkpt>
      <trkpt lat="63.29931" lon="9.59698">
        <ele>264.992903</ele>
        <time>2020-07-15T19:14:42.341Z</time>
      </trkpt>
      <trkpt lat="63.29782" lon="9.59869">
        <ele>257.722798</ele>
        <time>2020-07-15T19:15:03.270Z</time>
      </trkpt>
      <trkpt lat="63.29725" lon="9.59948">
        <ele>254.225306</ele>
        <time>2020-07-15T19:15:11.312Z</time>
      </trkpt>
      <trkpt lat="63.29651" lon="9.60048">
        <ele>249.82272</ele>
        <time>2020-07-15T19:15:21.352Z</time>
      </trkpt>
      <trkpt lat="63.29604" lon="9.60115">
        <ele>247.025683</ele>
        <time>2020-07-15T19:15:28.063Z</time>
      </trkpt>
      <trkpt lat="63.29592" lon="9.60134">
        <ele>246.269042</ele>
        <time>2020-07-15T19:15:29.815Z</time>
      </trkpt>
      <trkpt lat="63.29583" lon="9.60151">
        <ele>245.669908</ele>
        <time>2020-07-15T19:15:31.310Z</time>
      </trkpt>
      <trkpt lat="63.29549" lon="9.6023">
        <ele>243.2404</ele>
        <time>2020-07-15T19:15:37.522Z</time>
      </trkpt>
      <trkpt lat="63.29503" lon="9.60376">
        <ele>240.795571</ele>
        <time>2020-07-15T19:15:48.117Z</time>
      </trkpt>
      <trkpt lat="63.29466" lon="9.60446">
        <ele>239.321081</ele>
        <time>2020-07-15T19:15:55.038Z</time>
      </trkpt>
      <trkpt lat="63.29303" lon="9.60665">
        <ele>231.495524</ele>
        <time>2020-07-15T19:16:19.607Z</time>
      </trkpt>
      <trkpt lat="63.29272" lon="9.6069">
        <ele>230.015852</ele>
        <time>2020-07-15T19:16:23.509Z</time>
      </trkpt>
      <trkpt lat="63.29202" lon="9.60724">
        <ele>223.56423</ele>
        <time>2020-07-15T19:16:31.382Z</time>
      </trkpt>
      <trkpt lat="63.29145" lon="9.60783">
        <ele>217.587108</ele>
        <time>2020-07-15T19:16:38.224Z</time>
      </trkpt>
      <trkpt lat="63.29114" lon="9.60824">
        <ele>214.132478</ele>
        <time>2020-07-15T19:16:42.159Z</time>
      </trkpt>
      <trkpt lat="63.29081" lon="9.60866">
        <ele>210.719474</ele>
        <time>2020-07-15T19:16:46.220Z</time>
      </trkpt>
      <trkpt lat="63.28977" lon="9.60969">
        <ele>200.697041</ele>
        <time>2020-07-15T19:16:58.678Z</time>
      </trkpt>
      <trkpt lat="63.28953" lon="9.61016">
        <ele>197.875404</ele>
        <time>2020-07-15T19:17:02.372Z</time>
      </trkpt>
      <trkpt lat="63.28941" lon="9.61085">
        <ele>195.621397</ele>
        <time>2020-07-15T19:17:06.579Z</time>
      </trkpt>
      <trkpt lat="63.2894" lon="9.61093">
        <ele>195.424218</ele>
        <time>2020-07-15T19:17:06.990Z</time>
      </trkpt>
      <trkpt lat="63.28934" lon="9.61318">
        <ele>189.689896</ele>
        <time>2020-07-15T19:17:19.097Z</time>
      </trkpt>
      <trkpt lat="63.28918" lon="9.6142">
        <ele>186.953601</ele>
        <time>2020-07-15T19:17:24.964Z</time>
      </trkpt>
      <trkpt lat="63.28913" lon="9.61438">
        <ele>186.428198</ele>
        <time>2020-07-15T19:17:26.154Z</time>
      </trkpt>
      <trkpt lat="63.28904" lon="9.61465">
        <ele>185.658295</ele>
        <time>2020-07-15T19:17:27.769Z</time>
      </trkpt>
      <trkpt lat="63.28837" lon="9.61676">
        <ele>179.442385</ele>
        <time>2020-07-15T19:17:41.555Z</time>
      </trkpt>
      <trkpt lat="63.28807" lon="9.61843">
        <ele>176.632449</ele>
        <time>2020-07-15T19:17:51.531Z</time>
      </trkpt>
      <trkpt lat="63.28799" lon="9.61939">
        <ele>176.068127</ele>
        <time>2020-07-15T19:17:57.595Z</time>
      </trkpt>
      <trkpt lat="63.28794" lon="9.62048">
        <ele>175.431202</ele>
        <time>2020-07-15T19:18:05.631Z</time>
      </trkpt>
      <trkpt lat="63.28799" lon="9.62315">
        <ele>175.855795</ele>
        <time>2020-07-15T19:18:33.060Z</time>
      </trkpt>
      <trkpt lat="63.28801" lon="9.62346">
        <ele>176.070443</ele>
        <time>2020-07-15T19:18:37.147Z</time>
      </trkpt>
      <trkpt lat="63.28815" lon="9.6251">
        <ele>177.201422</ele>
        <time>2020-07-15T19:18:54.758Z</time>
      </trkpt>
      <trkpt lat="63.28818" lon="9.62675">
        <ele>176.644806</ele>
        <time>2020-07-15T19:19:09.690Z</time>
      </trkpt>
      <trkpt lat="63.28804" lon="9.62792">
        <ele>175.781216</ele>
        <time>2020-07-15T19:19:17.904Z</time>
      </trkpt>
      <trkpt lat="63.28783" lon="9.62863">
        <ele>175.172869</ele>
        <time>2020-07-15T19:19:22.908Z</time>
      </trkpt>
      <trkpt lat="63.28708" lon="9.63028">
        <ele>171.749117</ele>
        <time>2020-07-15T19:19:36.080Z</time>
      </trkpt>
      <trkpt lat="63.28702" lon="9.63039">
        <ele>171.421119</ele>
        <time>2020-07-15T19:19:37.018Z</time>
      </trkpt>
      <trkpt lat="63.28698" lon="9.63049">
        <ele>171.202584</ele>
        <time>2020-07-15T19:19:37.683Z</time>
      </trkpt>
      <trkpt lat="63.28681" lon="9.63085">
        <ele>170.253289</ele>
        <time>2020-07-15T19:19:40.977Z</time>
      </trkpt>
      <trkpt lat="63.28676" lon="9.63095">
        <ele>169.987981</ele>
        <time>2020-07-15T19:19:41.771Z</time>
      </trkpt>
      <trkpt lat="63.28671" lon="9.63108">
        <ele>169.669541</ele>
        <time>2020-07-15T19:19:42.757Z</time>
      </trkpt>
      <trkpt lat="63.28653" lon="9.63175">
        <ele>168.265309</ele>
        <time>2020-07-15T19:19:47.382Z</time>
      </trkpt>
      <trkpt lat="63.28606" lon="9.63491">
        <ele>164.851352</ele>
        <time>2020-07-15T19:20:08.791Z</time>
      </trkpt>
      <trkpt lat="63.286" lon="9.63558">
        <ele>164.235733</ele>
        <time>2020-07-15T19:20:13.910Z</time>
      </trkpt>
      <trkpt lat="63.28598" lon="9.6358">
        <ele>164.023067</ele>
        <time>2020-07-15T19:20:15.835Z</time>
      </trkpt>
      <trkpt lat="63.28558" lon="9.63794">
        <ele>163.067411</ele>
        <time>2020-07-15T19:20:34.208Z</time>
      </trkpt>
      <trkpt lat="63.28551" lon="9.63835">
        <ele>162.90774</ele>
        <time>2020-07-15T19:20:37.646Z</time>
      </trkpt>
      <trkpt lat="63.28548" lon="9.63861">
        <ele>162.811138</ele>
        <time>2020-07-15T19:20:39.437Z</time>
      </trkpt>
      <trkpt lat="63.28539" lon="9.6394">
        <ele>162.515682</ele>
        <time>2020-07-15T19:20:45.274Z</time>
      </trkpt>
      <trkpt lat="63.28535" lon="9.63982">
        <ele>162.340562</ele>
        <time>2020-07-15T19:20:48.440Z</time>
      </trkpt>
      <trkpt lat="63.28533" lon="9.64009">
        <ele>162.151891</ele>
        <time>2020-07-15T19:20:50.341Z</time>
      </trkpt>
      <trkpt lat="63.28529" lon="9.64058">
        <ele>161.795551</ele>
        <time>2020-07-15T19:20:53.733Z</time>
      </trkpt>
      <trkpt lat="63.28516" lon="9.64072">
        <ele>161.562047</ele>
        <time>2020-07-15T19:20:56.098Z</time>
      </trkpt>
      <trkpt lat="63.28514" lon="9.64071">
        <ele>161.534581</ele>
        <time>2020-07-15T19:20:56.299Z</time>
      </trkpt>
      <trkpt lat="63.28487" lon="9.64045">
        <ele>161.071262</ele>
        <time>2020-07-15T19:21:00.808Z</time>
      </trkpt>
      <trkpt lat="63.28482" lon="9.64043">
        <ele>160.98779</ele>
        <time>2020-07-15T19:21:01.642Z</time>
      </trkpt>
      <trkpt lat="63.28481" lon="9.64043">
        <ele>160.970486</ele>
        <time>2020-07-15T19:21:01.759Z</time>
      </trkpt>
      <trkpt lat="63.28478" lon="9.64044">
        <ele>160.924123</ele>
        <time>2020-07-15T19:21:02.155Z</time>
      </trkpt>
      <trkpt lat="63.28469" lon="9.64062">
        <ele>160.738334</ele>
        <time>2020-07-15T19:21:04.107Z</time>
      </trkpt>
      <trkpt lat="63.28459" lon="9.64113">
        <ele>160.344339</ele>
        <time>2020-07-15T19:21:07.661Z</time>
      </trkpt>
      <trkpt lat="63.2845" lon="9.64157">
        <ele>160.004695</ele>
        <time>2020-07-15T19:21:11.049Z</time>
      </trkpt>
      <trkpt lat="63.28423" lon="9.64281">
        <ele>160.621525</ele>
        <time>2020-07-15T19:21:20.410Z</time>
      </trkpt>
      <trkpt lat="63.28414" lon="9.64328">
        <ele>161.351354</ele>
        <time>2020-07-15T19:21:26.239Z</time>
      </trkpt>
      <trkpt lat="63.28405" lon="9.64384">
        <ele>162.210794</ele>
        <time>2020-07-15T19:21:34.519Z</time>
      </trkpt>
      <trkpt lat="63.28385" lon="9.64474">
        <ele>163.648013</ele>
        <time>2020-07-15T19:21:48.756Z</time>
      </trkpt>
      <trkpt lat="63.28381" lon="9.64492">
        <ele>163.950169</ele>
        <time>2020-07-15T19:21:51.620Z</time>
      </trkpt>
      <trkpt lat="63.28372" lon="9.64525">
        <ele>164.511592</ele>
        <time>2020-07-15T19:21:59.247Z</time>
      </trkpt>
      <trkpt lat="63.2836" lon="9.64567">
        <ele>165.221163</ele>
        <time>2020-07-15T19:22:06.345Z</time>
      </trkpt>
      <trkpt lat="63.28355" lon="9.64588">
        <ele>165.756877</ele>
        <time>2020-07-15T19:22:12.174Z</time>
      </trkpt>
      <trkpt lat="63.28313" lon="9.64751">
        <ele>170.499501</ele>
        <time>2020-07-15T19:22:45.972Z</time>
      </trkpt>
      <trkpt lat="63.283" lon="9.64783">
        <ele>171.552801</ele>
        <time>2020-07-15T19:22:53.718Z</time>
      </trkpt>
      <trkpt lat="63.28278" lon="9.6481">
        <ele>172.980941</ele>
        <time>2020-07-15T19:23:03.218Z</time>
      </trkpt>
      <trkpt lat="63.28251" lon="9.64808">
        <ele>174.48431</ele>
        <time>2020-07-15T19:23:14.154Z</time>
      </trkpt>
      <trkpt lat="63.28224" lon="9.6476">
        <ele>175.200592</ele>
        <time>2020-07-15T19:23:23.546Z</time>
      </trkpt>
      <trkpt lat="63.28174" lon="9.64574">
        <ele>174.075197</ele>
        <time>2020-07-15T19:23:39.763Z</time>
      </trkpt>
      <trkpt lat="63.28151" lon="9.64513">
        <ele>173.664269</ele>
        <time>2020-07-15T19:23:44.609Z</time>
      </trkpt>
      <trkpt lat="63.28104" lon="9.64416">
        <ele>171.617833</ele>
        <time>2020-07-15T19:23:52.819Z</time>
      </trkpt>
      <trkpt lat="63.28044" lon="9.64319">
        <ele>168.026921</ele>
        <time>2020-07-15T19:24:02.187Z</time>
      </trkpt>
      <trkpt lat="63.28028" lon="9.64302">
        <ele>167.20038</ele>
        <time>2020-07-15T19:24:04.333Z</time>
      </trkpt>
      <trkpt lat="63.28014" lon="9.64287">
        <ele>166.422097</ele>
        <time>2020-07-15T19:24:06.385Z</time>
      </trkpt>
      <trkpt lat="63.27937" lon="9.64204">
        <ele>163.030852</ele>
        <time>2020-07-15T19:24:17.458Z</time>
      </trkpt>
      <trkpt lat="63.27918" lon="9.64164">
        <ele>162.124979</ele>
        <time>2020-07-15T19:24:21.042Z</time>
      </trkpt>
      <trkpt lat="63.27892" lon="9.64085">
        <ele>160.642689</ele>
        <time>2020-07-15T19:24:27.015Z</time>
      </trkpt>
      <trkpt lat="63.27866" lon="9.64043">
        <ele>159.562388</ele>
        <time>2020-07-15T19:24:31.566Z</time>
      </trkpt>
      <trkpt lat="63.27748" lon="9.63953">
        <ele>157.188378</ele>
        <time>2020-07-15T19:24:49.916Z</time>
      </trkpt>
      <trkpt lat="63.27708" lon="9.63947">
        <ele>156.614148</ele>
        <time>2020-07-15T19:24:56.166Z</time>
      </trkpt>
      <trkpt lat="63.27686" lon="9.63976">
        <ele>156.240081</ele>
        <time>2020-07-15T19:25:00.412Z</time>
      </trkpt>
      <trkpt lat="63.27673" lon="9.64029">
        <ele>155.984709</ele>
        <time>2020-07-15T19:25:05.119Z</time>
      </trkpt>
      <trkpt lat="63.27665" lon="9.64203">
        <ele>156.16548</ele>
        <time>2020-07-15T19:25:20.406Z</time>
      </trkpt>
      <trkpt lat="63.27634" lon="9.64385">
        <ele>156.367705</ele>
        <time>2020-07-15T19:25:38.304Z</time>
      </trkpt>
      <trkpt lat="63.27635" lon="9.64469">
        <ele>156.330845</ele>
        <time>2020-07-15T19:25:45.738Z</time>
      </trkpt>
      <trkpt lat="63.27638" lon="9.64509">
        <ele>156.303294</ele>
        <time>2020-07-15T19:25:49.519Z</time>
      </trkpt>
      <trkpt lat="63.27676" lon="9.64858">
        <ele>155.996839</ele>
        <time>2020-07-15T19:26:17.571Z</time>
      </trkpt>
      <trkpt lat="63.277" lon="9.65062">
        <ele>155.656178</ele>
        <time>2020-07-15T19:26:33.557Z</time>
      </trkpt>
      <trkpt lat="63.27731" lon="9.65213">
        <ele>155.621711</ele>
        <time>2020-07-15T19:26:47.644Z</time>
      </trkpt>
      <trkpt lat="63.27752" lon="9.65278">
        <ele>155.870116</ele>
        <time>2020-07-15T19:26:54.986Z</time>
      </trkpt>
      <trkpt lat="63.27837" lon="9.65486">
        <ele>156.740324</ele>
        <time>2020-07-15T19:27:22.448Z</time>
      </trkpt>
      <trkpt lat="63.27988" lon="9.65983">
        <ele>158.605561</ele>
        <time>2020-07-15T19:28:18.666Z</time>
      </trkpt>
      <trkpt lat="63.27995" lon="9.66014">
        <ele>158.699887</ele>
        <time>2020-07-15T19:28:21.919Z</time>
      </trkpt>
      <trkpt lat="63.28009" lon="9.66088">
        <ele>158.918352</ele>
        <time>2020-07-15T19:28:29.102Z</time>
      </trkpt>
      <trkpt lat="63.28041" lon="9.662">
        <ele>159.243409</ele>
        <time>2020-07-15T19:28:40.899Z</time>
      </trkpt>
      <trkpt lat="63.28154" lon="9.66482">
        <ele>159.808386</ele>
        <time>2020-07-15T19:29:15.556Z</time>
      </trkpt>
      <trkpt lat="63.28184" lon="9.66556">
        <ele>159.364269</ele>
        <time>2020-07-15T19:29:23.614Z</time>
      </trkpt>
      <trkpt lat="63.28207" lon="9.66617">
        <ele>159.008795</ele>
        <time>2020-07-15T19:29:29.565Z</time>
      </trkpt>
      <trkpt lat="63.28227" lon="9.66692">
        <ele>158.618451</ele>
        <time>2020-07-15T19:29:35.749Z</time>
      </trkpt>
      <trkpt lat="63.28243" lon="9.66781">
        <ele>158.192279</ele>
        <time>2020-07-15T19:29:42.023Z</time>
      </trkpt>
      <trkpt lat="63.28274" lon="9.66986">
        <ele>156.32974</ele>
        <time>2020-07-15T19:29:55.886Z</time>
      </trkpt>
      <trkpt lat="63.28276" lon="9.67033">
        <ele>155.914279</ele>
        <time>2020-07-15T19:29:59.430Z</time>
      </trkpt>
      <trkpt lat="63.28276" lon="9.67061">
        <ele>155.674758</ele>
        <time>2020-07-15T19:30:01.054Z</time>
      </trkpt>
      <trkpt lat="63.28275" lon="9.67066">
        <ele>155.621686</ele>
        <time>2020-07-15T19:30:01.723Z</time>
      </trkpt>
      <trkpt lat="63.28275" lon="9.6709">
        <ele>155.420445</ele>
        <time>2020-07-15T19:30:03.359Z</time>
      </trkpt>
      <trkpt lat="63.2829" lon="9.67183">
        <ele>154.651562</ele>
        <time>2020-07-15T19:30:10.446Z</time>
      </trkpt>
      <trkpt lat="63.283" lon="9.67196">
        <ele>154.562295</ele>
        <time>2020-07-15T19:30:12.003Z</time>
      </trkpt>
      <trkpt lat="63.28315" lon="9.67187">
        <ele>154.444179</ele>
        <time>2020-07-15T19:30:14.580Z</time>
      </trkpt>
      <trkpt lat="63.28318" lon="9.67184">
        <ele>154.416028</ele>
        <time>2020-07-15T19:30:15.633Z</time>
      </trkpt>
      <trkpt lat="63.28345" lon="9.67352">
        <ele>153.791709</ele>
        <time>2020-07-15T19:30:28.955Z</time>
      </trkpt>
      <trkpt lat="63.28484" lon="9.68204">
        <ele>152.280846</ele>
        <time>2020-07-15T19:31:40.892Z</time>
      </trkpt>
      <trkpt lat="63.28504" lon="9.68293">
        <ele>152.225113</ele>
        <time>2020-07-15T19:31:49.020Z</time>
      </trkpt>
      <trkpt lat="63.28576" lon="9.68521">
        <ele>152.148637</ele>
        <time>2020-07-15T19:32:12.250Z</time>
      </trkpt>
      <trkpt lat="63.28596" lon="9.68614">
        <ele>152.151162</ele>
        <time>2020-07-15T19:32:20.858Z</time>
      </trkpt>
      <trkpt lat="63.28609" lon="9.68717">
        <ele>152.186539</ele>
        <time>2020-07-15T19:32:29.913Z</time>
      </trkpt>
      <trkpt lat="63.28636" lon="9.69058">
        <ele>152.585263</ele>
        <time>2020-07-15T19:32:59.392Z</time>
      </trkpt>
      <trkpt lat="63.28653" lon="9.69208">
        <ele>153.053223</ele>
        <time>2020-07-15T19:33:12.229Z</time>
      </trkpt>
      <trkpt lat="63.28659" lon="9.69249">
        <ele>153.18349</ele>
        <time>2020-07-15T19:33:15.721Z</time>
      </trkpt>
      <trkpt lat="63.28661" lon="9.69265">
        <ele>153.235407</ele>
        <time>2020-07-15T19:33:17.367Z</time>
      </trkpt>
      <trkpt lat="63.28693" lon="9.69503">
        <ele>157.770966</ele>
        <time>2020-07-15T19:33:47.449Z</time>
      </trkpt>
      <trkpt lat="63.28702" lon="9.69563">
        <ele>159.381135</ele>
        <time>2020-07-15T19:33:58.974Z</time>
      </trkpt>
      <trkpt lat="63.28699" lon="9.69565">
        <ele>159.542009</ele>
        <time>2020-07-15T19:34:00.138Z</time>
      </trkpt>
      <trkpt lat="63.28688" lon="9.69575">
        <ele>160.231447</ele>
        <time>2020-07-15T19:34:04.482Z</time>
      </trkpt>
      <trkpt lat="63.28664" lon="9.69598">
        <ele>161.696782</ele>
        <time>2020-07-15T19:34:16.135Z</time>
      </trkpt>
      <trkpt lat="63.2864" lon="9.69622">
        <ele>163.212179</ele>
        <time>2020-07-15T19:34:28.388Z</time>
      </trkpt>
      <trkpt lat="63.28634" lon="9.69628">
        <ele>163.614828</ele>
        <time>2020-07-15T19:34:31.681Z</time>
      </trkpt>
      <trkpt lat="63.28611" lon="9.69651">
        <ele>166.049265</ele>
        <time>2020-07-15T19:34:42.247Z</time>
      </trkpt>
      <trkpt lat="63.28607" lon="9.69656">
        <ele>166.580277</ele>
        <time>2020-07-15T19:34:46.447Z</time>
      </trkpt>
      <trkpt lat="63.28592" lon="9.69687">
        <ele>168.681511</ele>
        <time>2020-07-15T19:34:55.737Z</time>
      </trkpt>
      <trkpt lat="63.28591" lon="9.69714">
        <ele>169.914312</ele>
        <time>2020-07-15T19:35:01.784Z</time>
      </trkpt>
      <trkpt lat="63.28609" lon="9.69848">
        <ele>176.499347</ele>
        <time>2020-07-15T19:35:36.826Z</time>
      </trkpt>
      <trkpt lat="63.28603" lon="9.70058">
        <ele>185.169729</ele>
        <time>2020-07-15T19:36:25.931Z</time>
      </trkpt>
      <trkpt lat="63.28624" lon="9.70193">
        <ele>189.896131</ele>
        <time>2020-07-15T19:36:52.502Z</time>
      </trkpt>
      <trkpt lat="63.28628" lon="9.70276">
        <ele>192.659447</ele>
        <time>2020-07-15T19:37:07.086Z</time>
      </trkpt>
      <trkpt lat="63.28598" lon="9.70511">
        <ele>197.457025</ele>
        <time>2020-07-15T19:37:43.708Z</time>
      </trkpt>
      <trkpt lat="63.28583" lon="9.70587">
        <ele>198.42983</ele>
        <time>2020-07-15T19:37:53.325Z</time>
      </trkpt>
      <trkpt lat="63.2858" lon="9.70598">
        <ele>198.569061</ele>
        <time>2020-07-15T19:37:55.386Z</time>
      </trkpt>
      <trkpt lat="63.28571" lon="9.70629">
        <ele>198.987698</ele>
        <time>2020-07-15T19:37:58.352Z</time>
      </trkpt>
      <trkpt lat="63.28517" lon="9.70776">
        <ele>199.879442</ele>
        <time>2020-07-15T19:38:14.217Z</time>
      </trkpt>
      <trkpt lat="63.28433" lon="9.70964">
        <ele>198.396127</ele>
        <time>2020-07-15T19:38:31.433Z</time>
      </trkpt>
      <trkpt lat="63.28403" lon="9.71017">
        <ele>197.916851</ele>
        <time>2020-07-15T19:38:36.777Z</time>
      </trkpt>
      <trkpt lat="63.28357" lon="9.71061">
        <ele>197.245658</ele>
        <time>2020-07-15T19:38:44.085Z</time>
      </trkpt>
      <trkpt lat="63.282" lon="9.71167">
        <ele>195.239466</ele>
        <time>2020-07-15T19:39:09.226Z</time>
      </trkpt>
      <trkpt lat="63.28184" lon="9.71177">
        <ele>195.07543</ele>
        <time>2020-07-15T19:39:11.975Z</time>
      </trkpt>
      <trkpt lat="63.28103" lon="9.71225">
        <ele>194.268835</ele>
        <time>2020-07-15T19:39:25.622Z</time>
      </trkpt>
      <trkpt lat="63.28016" lon="9.71282">
        <ele>192.062736</ele>
        <time>2020-07-15T19:39:38.927Z</time>
      </trkpt>
      <trkpt lat="63.27959" lon="9.71392">
        <ele>189.581562</ele>
        <time>2020-07-15T19:39:48.907Z</time>
      </trkpt>
      <trkpt lat="63.27952" lon="9.71407">
        <ele>189.264471</ele>
        <time>2020-07-15T19:39:50.144Z</time>
      </trkpt>
      <trkpt lat="63.2792" lon="9.71474">
        <ele>187.580114</ele>
        <time>2020-07-15T19:39:55.420Z</time>
      </trkpt>
      <trkpt lat="63.27894" lon="9.71506">
        <ele>185.496637</ele>
        <time>2020-07-15T19:39:58.839Z</time>
      </trkpt>
      <trkpt lat="63.2781" lon="9.7156">
        <ele>179.414829</ele>
        <time>2020-07-15T19:40:08.758Z</time>
      </trkpt>
      <trkpt lat="63.27782" lon="9.71578">
        <ele>177.418134</ele>
        <time>2020-07-15T19:40:11.983Z</time>
      </trkpt>
      <trkpt lat="63.27774" lon="9.71583">
        <ele>176.794245</ele>
        <time>2020-07-15T19:40:13.036Z</time>
      </trkpt>
      <trkpt lat="63.27763" lon="9.71589">
        <ele>176.017121</ele>
        <time>2020-07-15T19:40:14.276Z</time>
      </trkpt>
      <trkpt lat="63.27727" lon="9.7161">
        <ele>173.967537</ele>
        <time>2020-07-15T19:40:18.608Z</time>
      </trkpt>
      <trkpt lat="63.27712" lon="9.7163">
        <ele>173.107022</ele>
        <time>2020-07-15T19:40:20.635Z</time>
      </trkpt>
      <trkpt lat="63.27675" lon="9.71816">
        <ele>168.40802</ele>
        <time>2020-07-15T19:40:31.476Z</time>
      </trkpt>
      <trkpt lat="63.27568" lon="9.72086">
        <ele>163.571305</ele>
        <time>2020-07-15T19:40:53.847Z</time>
      </trkpt>
      <trkpt lat="63.27554" lon="9.7214">
        <ele>162.939874</ele>
        <time>2020-07-15T19:40:57.827Z</time>
      </trkpt>
      <trkpt lat="63.27548" lon="9.72191">
        <ele>162.410555</ele>
        <time>2020-07-15T19:41:01.162Z</time>
      </trkpt>
      <trkpt lat="63.27542" lon="9.72646">
        <ele>159.227111</ele>
        <time>2020-07-15T19:41:31.042Z</time>
      </trkpt>
      <trkpt lat="63.27548" lon="9.72713">
        <ele>158.987363</ele>
        <time>2020-07-15T19:41:35.813Z</time>
      </trkpt>
      <trkpt lat="63.27593" lon="9.72967">
        <ele>158.036312</ele>
        <time>2020-07-15T19:41:55.784Z</time>
      </trkpt>
      <trkpt lat="63.27613" lon="9.73121">
        <ele>157.868009</ele>
        <time>2020-07-15T19:42:08.292Z</time>
      </trkpt>
      <trkpt lat="63.27637" lon="9.7346">
        <ele>157.888008</ele>
        <time>2020-07-15T19:42:35.339Z</time>
      </trkpt>
      <trkpt lat="63.27635" lon="9.73511">
        <ele>158.012684</ele>
        <time>2020-07-15T19:42:39.513Z</time>
      </trkpt>
      <trkpt lat="63.27627" lon="9.73562">
        <ele>158.144172</ele>
        <time>2020-07-15T19:42:44.550Z</time>
      </trkpt>
      <trkpt lat="63.27623" lon="9.73579">
        <ele>158.189291</ele>
        <time>2020-07-15T19:42:45.974Z</time>
      </trkpt>
      <trkpt lat="63.27625" lon="9.73582">
        <ele>158.204926</ele>
        <time>2020-07-15T19:42:46.651Z</time>
      </trkpt>
      <trkpt lat="63.27665" lon="9.73686">
        <ele>158.536947</ele>
        <time>2020-07-15T19:42:59.526Z</time>
      </trkpt>
      <trkpt lat="63.27698" lon="9.73753">
        <ele>158.701106</ele>
        <time>2020-07-15T19:43:08.540Z</time>
      </trkpt>
      <trkpt lat="63.27716" lon="9.73792">
        <ele>158.756318</ele>
        <time>2020-07-15T19:43:14.170Z</time>
      </trkpt>
      <trkpt lat="63.27778" lon="9.73922">
        <ele>158.937898</ele>
        <time>2020-07-15T19:43:31.597Z</time>
      </trkpt>
      <trkpt lat="63.27809" lon="9.74018">
        <ele>158.799055</ele>
        <time>2020-07-15T19:43:40.143Z</time>
      </trkpt>
      <trkpt lat="63.27816" lon="9.74095">
        <ele>157.460855</ele>
        <time>2020-07-15T19:43:44.981Z</time>
      </trkpt>
      <trkpt lat="63.27811" lon="9.74233">
        <ele>155.096856</ele>
        <time>2020-07-15T19:43:52.918Z</time>
      </trkpt>
      <trkpt lat="63.2781" lon="9.7428">
        <ele>154.282118</ele>
        <time>2020-07-15T19:43:55.514Z</time>
      </trkpt>
      <trkpt lat="63.27802" lon="9.74502">
        <ele>149.688614</ele>
        <time>2020-07-15T19:44:07.484Z</time>
      </trkpt>
      <trkpt lat="63.2779" lon="9.74716">
        <ele>144.343029</ele>
        <time>2020-07-15T19:44:18.919Z</time>
      </trkpt>
      <trkpt lat="63.27787" lon="9.74781">
        <ele>142.707288</ele>
        <time>2020-07-15T19:44:22.524Z</time>
      </trkpt>
      <trkpt lat="63.27781" lon="9.74781">
        <ele>142.380964</ele>
        <time>2020-07-15T19:44:23.471Z</time>
      </trkpt>
      <trkpt lat="63.27761" lon="9.74776">
        <ele>141.351326</ele>
        <time>2020-07-15T19:44:26.988Z</time>
      </trkpt>
      <trkpt lat="63.27781" lon="9.74781">
        <ele>140.334598</ele>
        <time>2020-07-15T19:44:30.394Z</time>
      </trkpt>
      <trkpt lat="63.27787" lon="9.74781">
        <ele>140.041871</ele>
        <time>2020-07-15T19:44:31.522Z</time>
      </trkpt>
      <trkpt lat="63.27784" lon="9.74837">
        <ele>138.805421</ele>
        <time>2020-07-15T19:44:34.508Z</time>
      </trkpt>
      <trkpt lat="63.27753" lon="9.75173">
        <ele>131.362737</ele>
        <time>2020-07-15T19:44:53.319Z</time>
      </trkpt>
      <trkpt lat="63.27712" lon="9.75544">
        <ele>124.910976</ele>
        <time>2020-07-15T19:45:14.582Z</time>
      </trkpt>
      <trkpt lat="63.27709" lon="9.75613">
        <ele>124.552805</ele>
        <time>2020-07-15T19:45:18.984Z</time>
      </trkpt>
      <trkpt lat="63.27715" lon="9.75804">
        <ele>123.580582</ele>
        <time>2020-07-15T19:45:33.140Z</time>
      </trkpt>
      <trkpt lat="63.27739" lon="9.76138">
        <ele>126.042142</ele>
        <time>2020-07-15T19:46:10.868Z</time>
      </trkpt>
      <trkpt lat="63.27754" lon="9.7622">
        <ele>126.918321</ele>
        <time>2020-07-15T19:46:21.793Z</time>
      </trkpt>
      <trkpt lat="63.27791" lon="9.76341">
        <ele>128.585584</ele>
        <time>2020-07-15T19:46:39.102Z</time>
      </trkpt>
      <trkpt lat="63.27801" lon="9.76388">
        <ele>129.205376</ele>
        <time>2020-07-15T19:46:44.987Z</time>
      </trkpt>
      <trkpt lat="63.27787" lon="9.76607">
        <ele>131.828077</ele>
        <time>2020-07-15T19:47:10.871Z</time>
      </trkpt>
      <trkpt lat="63.27795" lon="9.76706">
        <ele>133.039353</ele>
        <time>2020-07-15T19:47:23.230Z</time>
      </trkpt>
      <trkpt lat="63.27809" lon="9.76785">
        <ele>134.076311</ele>
        <time>2020-07-15T19:47:33.868Z</time>
      </trkpt>
      <trkpt lat="63.27828" lon="9.76863">
        <ele>135.144002</ele>
        <time>2020-07-15T19:47:44.588Z</time>
      </trkpt>
      <trkpt lat="63.27832" lon="9.7688">
        <ele>135.372824</ele>
        <time>2020-07-15T19:47:47.544Z</time>
      </trkpt>
      <trkpt lat="63.27897" lon="9.77087">
        <ele>136.616068</ele>
        <time>2020-07-15T19:48:15.530Z</time>
      </trkpt>
      <trkpt lat="63.27904" lon="9.77193">
        <ele>136.445599</ele>
        <time>2020-07-15T19:48:24.267Z</time>
      </trkpt>
      <trkpt lat="63.27935" lon="9.77409">
        <ele>135.458458</ele>
        <time>2020-07-15T19:48:37.916Z</time>
      </trkpt>
      <trkpt lat="63.27946" lon="9.77461">
        <ele>134.826817</ele>
        <time>2020-07-15T19:48:41.277Z</time>
      </trkpt>
      <trkpt lat="63.27971" lon="9.77575">
        <ele>133.446825</ele>
        <time>2020-07-15T19:48:48.887Z</time>
      </trkpt>
      <trkpt lat="63.27975" lon="9.7759">
        <ele>133.261818</ele>
        <time>2020-07-15T19:48:49.827Z</time>
      </trkpt>
      <trkpt lat="63.27984" lon="9.77671">
        <ele>132.349775</ele>
        <time>2020-07-15T19:48:54.974Z</time>
      </trkpt>
      <trkpt lat="63.27986" lon="9.77775">
        <ele>132.215399</ele>
        <time>2020-07-15T19:49:02.157Z</time>
      </trkpt>
      <trkpt lat="63.27995" lon="9.77824">
        <ele>132.580921</ele>
        <time>2020-07-15T19:49:06.385Z</time>
      </trkpt>
      <trkpt lat="63.28047" lon="9.77916">
        <ele>133.589729</ele>
        <time>2020-07-15T19:49:23.292Z</time>
      </trkpt>
      <trkpt lat="63.28063" lon="9.77927">
        <ele>133.846988</ele>
        <time>2020-07-15T19:49:27.928Z</time>
      </trkpt>
      <trkpt lat="63.2809" lon="9.77927">
        <ele>134.25223</ele>
        <time>2020-07-15T19:49:34.854Z</time>
      </trkpt>
      <trkpt lat="63.28105" lon="9.77926">
        <ele>134.480852</ele>
        <time>2020-07-15T19:49:39.622Z</time>
      </trkpt>
      <trkpt lat="63.28116" lon="9.77925">
        <ele>134.674433</ele>
        <time>2020-07-15T19:49:42.571Z</time>
      </trkpt>
      <trkpt lat="63.28137" lon="9.7794">
        <ele>135.124229</ele>
        <time>2020-07-15T19:49:48.646Z</time>
      </trkpt>
      <trkpt lat="63.28149" lon="9.77978">
        <ele>135.542324</ele>
        <time>2020-07-15T19:49:53.851Z</time>
      </trkpt>
      <trkpt lat="63.28162" lon="9.78052">
        <ele>136.252047</ele>
        <time>2020-07-15T19:50:03.440Z</time>
      </trkpt>
      <trkpt lat="63.2818" lon="9.78158">
        <ele>137.259341</ele>
        <time>2020-07-15T19:50:16.542Z</time>
      </trkpt>
      <trkpt lat="63.28204" lon="9.78313">
        <ele>137.083615</ele>
        <time>2020-07-15T19:50:30.583Z</time>
      </trkpt>
      <trkpt lat="63.28208" lon="9.78354">
        <ele>136.400862</ele>
        <time>2020-07-15T19:50:34.060Z</time>
      </trkpt>
      <trkpt lat="63.28211" lon="9.78385">
        <ele>135.869402</ele>
        <time>2020-07-15T19:50:36.385Z</time>
      </trkpt>
      <trkpt lat="63.2822" lon="9.78435">
        <ele>134.987085</ele>
        <time>2020-07-15T19:50:39.667Z</time>
      </trkpt>
      <trkpt lat="63.28273" lon="9.78629">
        <ele>130.445263</ele>
        <time>2020-07-15T19:50:51.840Z</time>
      </trkpt>
      <trkpt lat="63.2828" lon="9.78687">
        <ele>126.9041</ele>
        <time>2020-07-15T19:50:54.789Z</time>
      </trkpt>
      <trkpt lat="63.28279" lon="9.78698">
        <ele>126.241632</ele>
        <time>2020-07-15T19:50:55.356Z</time>
      </trkpt>
      <trkpt lat="63.28278" lon="9.78712">
        <ele>125.420428</ele>
        <time>2020-07-15T19:50:56.007Z</time>
      </trkpt>
      <trkpt lat="63.28263" lon="9.78793">
        <ele>120.285015</ele>
        <time>2020-07-15T19:51:00.185Z</time>
      </trkpt>
      <trkpt lat="63.28259" lon="9.78814">
        <ele>118.918988</ele>
        <time>2020-07-15T19:51:01.276Z</time>
      </trkpt>
      <trkpt lat="63.28241" lon="9.78913">
        <ele>112.604512</ele>
        <time>2020-07-15T19:51:06.310Z</time>
      </trkpt>
      <trkpt lat="63.28209" lon="9.79071">
        <ele>101.482794</ele>
        <time>2020-07-15T19:51:14.304Z</time>
      </trkpt>
      <trkpt lat="63.28165" lon="9.79223">
        <ele>89.112314</ele>
        <time>2020-07-15T19:51:22.660Z</time>
      </trkpt>
      <trkpt lat="63.28112" lon="9.79373">
        <ele>77.780618</ele>
        <time>2020-07-15T19:51:31.800Z</time>
      </trkpt>
      <trkpt lat="63.28103" lon="9.79417">
        <ele>75.743788</ele>
        <time>2020-07-15T19:51:34.202Z</time>
      </trkpt>
      <trkpt lat="63.28101" lon="9.79457">
        <ele>74.067527</ele>
        <time>2020-07-15T19:51:36.207Z</time>
      </trkpt>
      <trkpt lat="63.28113" lon="9.79541">
        <ele>70.420491</ele>
        <time>2020-07-15T19:51:40.630Z</time>
      </trkpt>
      <trkpt lat="63.28113" lon="9.79594">
        <ele>68.241245</ele>
        <time>2020-07-15T19:51:43.299Z</time>
      </trkpt>
      <trkpt lat="63.28105" lon="9.79641">
        <ele>66.145973</ele>
        <time>2020-07-15T19:51:45.863Z</time>
      </trkpt>
      <trkpt lat="63.28081" lon="9.79721">
        <ele>62.511272</ele>
        <time>2020-07-15T19:51:50.772Z</time>
      </trkpt>
      <trkpt lat="63.2809" lon="9.79819">
        <ele>59.139894</ele>
        <time>2020-07-15T19:51:55.972Z</time>
      </trkpt>
      <trkpt lat="63.28086" lon="9.79917">
        <ele>55.833494</ele>
        <time>2020-07-15T19:52:01.062Z</time>
      </trkpt>
      <trkpt lat="63.28079" lon="9.79984">
        <ele>53.516042</ele>
        <time>2020-07-15T19:52:04.603Z</time>
      </trkpt>
      <trkpt lat="63.28057" lon="9.80106">
        <ele>48.797588</ele>
        <time>2020-07-15T19:52:11.213Z</time>
      </trkpt>
      <trkpt lat="63.28049" lon="9.80184">
        <ele>45.494205</ele>
        <time>2020-07-15T19:52:15.223Z</time>
      </trkpt>
      <trkpt lat="63.2805" lon="9.8021">
        <ele>44.413035</ele>
        <time>2020-07-15T19:52:16.534Z</time>
      </trkpt>
      <trkpt lat="63.28065" lon="9.80265">
        <ele>41.738767</ele>
        <time>2020-07-15T19:52:19.786Z</time>
      </trkpt>
      <trkpt lat="63.28076" lon="9.80278">
        <ele>40.645351</ele>
        <time>2020-07-15T19:52:21.070Z</time>
      </trkpt>
      <trkpt lat="63.28105" lon="9.80284">
        <ele>37.937164</ele>
        <time>2020-07-15T19:52:24.299Z</time>
      </trkpt>
      <trkpt lat="63.28119" lon="9.80319">
        <ele>36.052264</ele>
        <time>2020-07-15T19:52:26.550Z</time>
      </trkpt>
      <trkpt lat="63.28114" lon="9.80381">
        <ele>33.555393</ele>
        <time>2020-07-15T19:52:29.677Z</time>
      </trkpt>
      <trkpt lat="63.28093" lon="9.80486">
        <ele>29.702291</ele>
        <time>2020-07-15T19:52:35.470Z</time>
      </trkpt>
      <trkpt lat="63.28081" lon="9.8053">
        <ele>28.021097</ele>
        <time>2020-07-15T19:52:37.991Z</time>
      </trkpt>
      <trkpt lat="63.28074" lon="9.80554">
        <ele>27.053716</ele>
        <time>2020-07-15T19:52:39.512Z</time>
      </trkpt>
      <trkpt lat="63.28049" lon="9.80678">
        <ele>22.477848</ele>
        <time>2020-07-15T19:52:46.578Z</time>
      </trkpt>
      <trkpt lat="63.28061" lon="9.80833">
        <ele>19.304892</ele>
        <time>2020-07-15T19:52:55.023Z</time>
      </trkpt>
      <trkpt lat="63.28056" lon="9.8088">
        <ele>18.660195</ele>
        <time>2020-07-15T19:52:57.980Z</time>
      </trkpt>
      <trkpt lat="63.2804" lon="9.8092">
        <ele>17.954902</ele>
        <time>2020-07-15T19:53:01.331Z</time>
      </trkpt>
      <trkpt lat="63.28053" lon="9.80943">
        <ele>17.445743</ele>
        <time>2020-07-15T19:53:03.865Z</time>
      </trkpt>
      <trkpt lat="63.2814" lon="9.81087">
        <ele>14.951856</ele>
        <time>2020-07-15T19:53:19.676Z</time>
      </trkpt>
      <trkpt lat="63.28184" lon="9.81145">
        <ele>14.400018</ele>
        <time>2020-07-15T19:53:27.404Z</time>
      </trkpt>
      <trkpt lat="63.2821" lon="9.81175">
        <ele>14.083558</ele>
        <time>2020-07-15T19:53:32.129Z</time>
      </trkpt>
      <trkpt lat="63.28215" lon="9.81181">
        <ele>14.013536</ele>
        <time>2020-07-15T19:53:33.059Z</time>
      </trkpt>
      <trkpt lat="63.28266" lon="9.81235">
        <ele>13.406184</ele>
        <time>2020-07-15T19:53:41.925Z</time>
      </trkpt>
      <trkpt lat="63.28302" lon="9.81255">
        <ele>13.052849</ele>
        <time>2020-07-15T19:53:47.813Z</time>
      </trkpt>
      <trkpt lat="63.28365" lon="9.81262">
        <ele>12.459165</ele>
        <time>2020-07-15T19:53:57.638Z</time>
      </trkpt>
      <trkpt lat="63.28489" lon="9.81255">
        <ele>11.06247</ele>
        <time>2020-07-15T19:54:16.913Z</time>
      </trkpt>
      <trkpt lat="63.28495" lon="9.81256">
        <ele>10.982032</ele>
        <time>2020-07-15T19:54:17.733Z</time>
      </trkpt>
      <trkpt lat="63.28501" lon="9.81256">
        <ele>10.891398</ele>
        <time>2020-07-15T19:54:18.650Z</time>
      </trkpt>
      <trkpt lat="63.28525" lon="9.81263">
        <ele>10.535815</ele>
        <time>2020-07-15T19:54:22.305Z</time>
      </trkpt>
      <trkpt lat="63.28548" lon="9.81273">
        <ele>10.199532</ele>
        <time>2020-07-15T19:54:25.739Z</time>
      </trkpt>
      <trkpt lat="63.2857" lon="9.81288">
        <ele>9.855977</ele>
        <time>2020-07-15T19:54:29.112Z</time>
      </trkpt>
      <trkpt lat="63.2861" lon="9.81325">
        <ele>9.230241</ele>
        <time>2020-07-15T19:54:35.301Z</time>
      </trkpt>
      <trkpt lat="63.28664" lon="9.814">
        <ele>7.979578</ele>
        <time>2020-07-15T19:54:44.223Z</time>
      </trkpt>
      <trkpt lat="63.28791" lon="9.8164">
        <ele>4.909004</ele>
        <time>2020-07-15T19:55:07.609Z</time>
      </trkpt>
      <trkpt lat="63.28807" lon="9.81674">
        <ele>4.655507</ele>
        <time>2020-07-15T19:55:10.771Z</time>
      </trkpt>
      <trkpt lat="63.28821" lon="9.81707">
        <ele>4.421549</ele>
        <time>2020-07-15T19:55:13.803Z</time>
      </trkpt>
      <trkpt lat="63.28997" lon="9.82163">
        <ele>2.548328</ele>
        <time>2020-07-15T19:55:58.090Z</time>
      </trkpt>
      <trkpt lat="63.2909" lon="9.82365">
        <ele>2.79812</ele>
        <time>2020-07-15T19:56:21.713Z</time>
      </trkpt>
      <trkpt lat="63.2913" lon="9.82505">
        <ele>3.194608</ele>
        <time>2020-07-15T19:56:36.569Z</time>
      </trkpt>
      <trkpt lat="63.29136" lon="9.82535">
        <ele>3.406131</ele>
        <time>2020-07-15T19:56:39.594Z</time>
      </trkpt>
      <trkpt lat="63.29143" lon="9.82568">
        <ele>3.643105</ele>
        <time>2020-07-15T19:56:42.993Z</time>
      </trkpt>
      <trkpt lat="63.29145" lon="9.82578">
        <ele>3.710069</ele>
        <time>2020-07-15T19:56:44.031Z</time>
      </trkpt>
      <trkpt lat="63.29177" lon="9.8269">
        <ele>4.571405</ele>
        <time>2020-07-15T19:56:57.050Z</time>
      </trkpt>
      <trkpt lat="63.29222" lon="9.82766">
        <ele>5.385185</ele>
        <time>2020-07-15T19:57:10.519Z</time>
      </trkpt>
      <trkpt lat="63.29281" lon="9.82808">
        <ele>6.895993</ele>
        <time>2020-07-15T19:57:27.030Z</time>
      </trkpt>
      <trkpt lat="63.29351" lon="9.82837">
        <ele>8.773257</ele>
        <time>2020-07-15T19:57:46.498Z</time>
      </trkpt>
      <trkpt lat="63.29367" lon="9.8284">
        <ele>9.195813</ele>
        <time>2020-07-15T19:57:50.942Z</time>
      </trkpt>
      <trkpt lat="63.29371" lon="9.8284">
        <ele>9.290173</ele>
        <time>2020-07-15T19:57:51.822Z</time>
      </trkpt>
      <trkpt lat="63.29373" lon="9.82841">
        <ele>9.33244</ele>
        <time>2020-07-15T19:57:52.565Z</time>
      </trkpt>
      <trkpt lat="63.29392" lon="9.82842">
        <ele>9.840213</ele>
        <time>2020-07-15T19:57:57.171Z</time>
      </trkpt>
      <trkpt lat="63.29456" lon="9.82836">
        <ele>10.798286</ele>
        <time>2020-07-15T19:58:13.160Z</time>
      </trkpt>
      <trkpt lat="63.2949" lon="9.82832">
        <ele>11.198224</ele>
        <time>2020-07-15T19:58:21.277Z</time>
      </trkpt>
      <trkpt lat="63.29552" lon="9.82837">
        <ele>11.920942</ele>
        <time>2020-07-15T19:58:34.195Z</time>
      </trkpt>
      <trkpt lat="63.29577" lon="9.82838">
        <ele>12.202122</ele>
        <time>2020-07-15T19:58:38.568Z</time>
      </trkpt>
      <trkpt lat="63.29615" lon="9.82839">
        <ele>11.965965</ele>
        <time>2020-07-15T19:58:45.135Z</time>
      </trkpt>
      <trkpt lat="63.29751" lon="9.82816">
        <ele>10.271066</ele>
        <time>2020-07-15T19:59:05.378Z</time>
      </trkpt>
      <trkpt lat="63.29771" lon="9.82824">
        <ele>9.965604</ele>
        <time>2020-07-15T19:59:08.230Z</time>
      </trkpt>
      <trkpt lat="63.29774" lon="9.82827">
        <ele>9.893242</ele>
        <time>2020-07-15T19:59:08.617Z</time>
      </trkpt>
      <trkpt lat="63.29777" lon="9.82813">
        <ele>9.741176</ele>
        <time>2020-07-15T19:59:09.641Z</time>
      </trkpt>
      <trkpt lat="63.29784" lon="9.82822">
        <ele>9.552719</ele>
        <time>2020-07-15T19:59:10.880Z</time>
      </trkpt>
      <trkpt lat="63.29778" lon="9.82846">
        <ele>9.277408</ele>
        <time>2020-07-15T19:59:12.632Z</time>
      </trkpt>
      <trkpt lat="63.29767" lon="9.82927">
        <ele>8.405784</ele>
        <time>2020-07-15T19:59:18.188Z</time>
      </trkpt>
      <trkpt lat="63.29766" lon="9.82959">
        <ele>8.085369</ele>
        <time>2020-07-15T19:59:20.161Z</time>
      </trkpt>
      <trkpt lat="63.29736" lon="9.83501">
        <ele>2.69722</ele>
        <time>2020-07-15T19:59:55.603Z</time>
      </trkpt>
      <trkpt lat="63.29744" lon="9.8354">
        <ele>2.287935</ele>
        <time>2020-07-15T19:59:58.589Z</time>
      </trkpt>
      <trkpt lat="63.29744" lon="9.83564">
        <ele>2.131593</ele>
        <time>2020-07-15T20:00:00.138Z</time>
      </trkpt>
      <trkpt lat="63.29741" lon="9.83588">
        <ele>2.101437</ele>
        <time>2020-07-15T20:00:01.885Z</time>
      </trkpt>
      <trkpt lat="63.2973" lon="9.8362">
        <ele>2.051847</ele>
        <time>2020-07-15T20:00:04.767Z</time>
      </trkpt>
      <trkpt lat="63.29726" lon="9.83648">
        <ele>2.015901</ele>
        <time>2020-07-15T20:00:06.824Z</time>
      </trkpt>
      <trkpt lat="63.29708" lon="9.83988">
        <ele>2.024484</ele>
        <time>2020-07-15T20:00:36.038Z</time>
      </trkpt>
      <trkpt lat="63.29707" lon="9.84012">
        <ele>2.22131</ele>
        <time>2020-07-15T20:00:38.399Z</time>
      </trkpt>
      <trkpt lat="63.29693" lon="9.84272">
        <ele>4.381234</ele>
        <time>2020-07-15T20:01:06.878Z</time>
      </trkpt>
      <trkpt lat="63.29691" lon="9.84293">
        <ele>4.549975</ele>
        <time>2020-07-15T20:01:09.558Z</time>
      </trkpt>
      <trkpt lat="63.29681" lon="9.84485">
        <ele>7.159038</ele>
        <time>2020-07-15T20:01:36.414Z</time>
      </trkpt>
      <trkpt lat="63.2968" lon="9.84548">
        <ele>8.113984</ele>
        <time>2020-07-15T20:01:45.239Z</time>
      </trkpt>
      <trkpt lat="63.29685" lon="9.84604">
        <ele>8.978588</ele>
        <time>2020-07-15T20:01:52.399Z</time>
      </trkpt>
      <trkpt lat="63.29687" lon="9.84626">
        <ele>9.316024</ele>
        <time>2020-07-15T20:01:55.768Z</time>
      </trkpt>
      <trkpt lat="63.29687" lon="9.84632">
        <ele>9.405591</ele>
        <time>2020-07-15T20:01:56.498Z</time>
      </trkpt>
      <trkpt lat="63.29687" lon="9.84682">
        <ele>10.159404</ele>
        <time>2020-07-15T20:02:02.530Z</time>
      </trkpt>
      <trkpt lat="63.29688" lon="9.847">
        <ele>10.431627</ele>
        <time>2020-07-15T20:02:05.197Z</time>
      </trkpt>
      <trkpt lat="63.29714" lon="9.84688">
        <ele>11.200246</ele>
        <time>2020-07-15T20:02:12.241Z</time>
      </trkpt>
      <trkpt lat="63.2974" lon="9.84692">
        <ele>11.686435</ele>
        <time>2020-07-15T20:02:19.377Z</time>
      </trkpt>
      <trkpt lat="63.29756" lon="9.84695">
        <ele>12.008242</ele>
        <time>2020-07-15T20:02:23.894Z</time>
      </trkpt>
      <trkpt lat="63.29774" lon="9.84698">
        <ele>12.355221</ele>
        <time>2020-07-15T20:02:28.795Z</time>
      </trkpt>
      <trkpt lat="63.29782" lon="9.84702">
        <ele>12.502745</ele>
        <time>2020-07-15T20:02:30.567Z</time>
      </trkpt>
      <trkpt lat="63.29789" lon="9.84731">
        <ele>12.795411</ele>
        <time>2020-07-15T20:02:34.661Z</time>
      </trkpt>
      <trkpt lat="63.29799" lon="9.84738">
        <ele>12.995949</ele>
        <time>2020-07-15T20:02:37.308Z</time>
      </trkpt>
      <trkpt lat="63.29805" lon="9.84736">
        <ele>13.128138</ele>
        <time>2020-07-15T20:02:38.900Z</time>
      </trkpt>
      <trkpt lat="63.2981" lon="9.84718">
        <ele>13.307702</ele>
        <time>2020-07-15T20:02:40.983Z</time>
      </trkpt>
      <trkpt lat="63.29815" lon="9.84702">
        <ele>13.476147</ele>
        <time>2020-07-15T20:02:42.993Z</time>
      </trkpt>
      <trkpt lat="63.29823" lon="9.84684">
        <ele>13.703861</ele>
        <time>2020-07-15T20:02:45.489Z</time>
      </trkpt>
      <trkpt lat="63.29829" lon="9.84681">
        <ele>13.809948</ele>
        <time>2020-07-15T20:02:46.537Z</time>
      </trkpt>
      <trkpt lat="63.29844" lon="9.84679">
        <ele>14.101941</ele>
        <time>2020-07-15T20:02:49.380Z</time>
      </trkpt>
      <trkpt lat="63.29873" lon="9.84682">
        <ele>14.421153</ele>
        <time>2020-07-15T20:02:55.055Z</time>
      </trkpt>
      <trkpt lat="63.29878" lon="9.84683">
        <ele>14.38418</ele>
        <time>2020-07-15T20:02:56.009Z</time>
      </trkpt>
      <trkpt lat="63.29922" lon="9.84689">
        <ele>14.070267</ele>
        <time>2020-07-15T20:03:03.999Z</time>
      </trkpt>
      <trkpt lat="63.29936" lon="9.84692">
        <ele>13.971886</ele>
        <time>2020-07-15T20:03:06.330Z</time>
      </trkpt>
      <trkpt lat="63.29951" lon="9.84695">
        <ele>13.867025</ele>
        <time>2020-07-15T20:03:08.661Z</time>
      </trkpt>
      <trkpt lat="63.29984" lon="9.84701">
        <ele>13.630926</ele>
        <time>2020-07-15T20:03:13.655Z</time>
      </trkpt>
      <trkpt lat="63.29992" lon="9.84703">
        <ele>13.571745</ele>
        <time>2020-07-15T20:03:14.959Z</time>
      </trkpt>
      <trkpt lat="63.29998" lon="9.84704">
        <ele>13.533225</ele>
        <time>2020-07-15T20:03:15.770Z</time>
      </trkpt>
      <trkpt lat="63.30065" lon="9.84718">
        <ele>12.833528</ele>
        <time>2020-07-15T20:03:25.636Z</time>
      </trkpt>
      <trkpt lat="63.30067" lon="9.84718">
        <ele>12.790717</ele>
        <time>2020-07-15T20:03:26.010Z</time>
      </trkpt>
      <trkpt lat="63.30117" lon="9.84732">
        <ele>11.938456</ele>
        <time>2020-07-15T20:03:33.214Z</time>
      </trkpt>
      <trkpt lat="63.30124" lon="9.84735">
        <ele>11.82174</ele>
        <time>2020-07-15T20:03:34.105Z</time>
      </trkpt>
      <trkpt lat="63.30164" lon="9.84753">
        <ele>11.119463</ele>
        <time>2020-07-15T20:03:39.974Z</time>
      </trkpt>
      <trkpt lat="63.3021" lon="9.84777">
        <ele>10.314674</ele>
        <time>2020-07-15T20:03:46.818Z</time>
      </trkpt>
      <trkpt lat="63.30229" lon="9.84818">
        <ele>10.067063</ele>
        <time>2020-07-15T20:03:50.589Z</time>
      </trkpt>
      <trkpt lat="63.30264" lon="9.84807">
        <ele>9.898376</ele>
        <time>2020-07-15T20:03:56.032Z</time>
      </trkpt>
      <trkpt lat="63.30453" lon="9.84917">
        <ele>9.683097</ele>
        <time>2020-07-15T20:04:30.854Z</time>
      </trkpt>
      <trkpt lat="63.30463" lon="9.84915">
        <ele>9.73582</ele>
        <time>2020-07-15T20:04:32.712Z</time>
      </trkpt>
      <trkpt lat="63.30471" lon="9.84911">
        <ele>9.784852</ele>
        <time>2020-07-15T20:04:34.553Z</time>
      </trkpt>
      <trkpt lat="63.30559" lon="9.84957">
        <ele>10.289212</ele>
        <time>2020-07-15T20:04:53.358Z</time>
      </trkpt>
      <trkpt lat="63.30616" lon="9.84988">
        <ele>10.873001</ele>
        <time>2020-07-15T20:05:05.978Z</time>
      </trkpt>
      <trkpt lat="63.30623" lon="9.84992">
        <ele>10.945075</ele>
        <time>2020-07-15T20:05:07.469Z</time>
      </trkpt>
      <trkpt lat="63.30664" lon="9.8503">
        <ele>11.401925</ele>
        <time>2020-07-15T20:05:16.899Z</time>
      </trkpt>
      <trkpt lat="63.30691" lon="9.85062">
        <ele>11.716609</ele>
        <time>2020-07-15T20:05:23.229Z</time>
      </trkpt>
      <trkpt lat="63.30726" lon="9.8511">
        <ele>12.142498</ele>
        <time>2020-07-15T20:05:31.694Z</time>
      </trkpt>
      <trkpt lat="63.30733" lon="9.8512">
        <ele>12.246532</ele>
        <time>2020-07-15T20:05:33.453Z</time>
      </trkpt>
      <trkpt lat="63.3078" lon="9.8518">
        <ele>12.958005</ele>
        <time>2020-07-15T20:05:44.732Z</time>
      </trkpt>
      <trkpt lat="63.30794" lon="9.85199">
        <ele>13.173354</ele>
        <time>2020-07-15T20:05:48.341Z</time>
      </trkpt>
      <trkpt lat="63.30801" lon="9.85209">
        <ele>13.280006</ele>
        <time>2020-07-15T20:05:50.058Z</time>
      </trkpt>
      <trkpt lat="63.30821" lon="9.85241">
        <ele>13.602583</ele>
        <time>2020-07-15T20:05:55.493Z</time>
      </trkpt>
      <trkpt lat="63.30839" lon="9.85278">
        <ele>13.925298</ele>
        <time>2020-07-15T20:06:01.004Z</time>
      </trkpt>
      <trkpt lat="63.30871" lon="9.8536">
        <ele>14.583877</ele>
        <time>2020-07-15T20:06:12.590Z</time>
      </trkpt>
      <trkpt lat="63.309" lon="9.85448">
        <ele>15.415252</ele>
        <time>2020-07-15T20:06:24.245Z</time>
      </trkpt>
      <trkpt lat="63.30924" lon="9.85545">
        <ele>16.257854</ele>
        <time>2020-07-15T20:06:35.955Z</time>
      </trkpt>
      <trkpt lat="63.30934" lon="9.85609">
        <ele>16.775039</ele>
        <time>2020-07-15T20:06:43.090Z</time>
      </trkpt>
      <trkpt lat="63.30933" lon="9.85657">
        <ele>17.141308</ele>
        <time>2020-07-15T20:06:48.298Z</time>
      </trkpt>
      <trkpt lat="63.30941" lon="9.85688">
        <ele>17.409278</ele>
        <time>2020-07-15T20:06:51.849Z</time>
      </trkpt>
      <trkpt lat="63.30972" lon="9.85715">
        <ele>17.84841</ele>
        <time>2020-07-15T20:06:59.610Z</time>
      </trkpt>
      <trkpt lat="63.31018" lon="9.85822">
        <ele>18.607702</ele>
        <time>2020-07-15T20:07:14.297Z</time>
      </trkpt>
      <trkpt lat="63.31105" lon="9.86028">
        <ele>20.368279</ele>
        <time>2020-07-15T20:07:41.767Z</time>
      </trkpt>
      <trkpt lat="63.31177" lon="9.86206">
        <ele>22.462788</ele>
        <time>2020-07-15T20:08:09.022Z</time>
      </trkpt>
      <trkpt lat="63.31229" lon="9.86333">
        <ele>23.547526</ele>
        <time>2020-07-15T20:08:30.770Z</time>
      </trkpt>
      <trkpt lat="63.31274" lon="9.86468">
        <ele>24.249175</ele>
        <time>2020-07-15T20:08:45.814Z</time>
      </trkpt>
      <trkpt lat="63.3131" lon="9.8655">
        <ele>24.725072</ele>
        <time>2020-07-15T20:08:55.315Z</time>
      </trkpt>
      <trkpt lat="63.31321" lon="9.8656">
        <ele>24.851255</ele>
        <time>2020-07-15T20:08:58.709Z</time>
      </trkpt>
      <trkpt lat="63.31339" lon="9.86553">
        <ele>25.166788</ele>
        <time>2020-07-15T20:09:01.184Z</time>
      </trkpt>
      <trkpt lat="63.31369" lon="9.86519">
        <ele>25.777153</ele>
        <time>2020-07-15T20:09:07.731Z</time>
      </trkpt>
      <trkpt lat="63.31389" lon="9.86582">
        <ele>26.394167</ele>
        <time>2020-07-15T20:09:15.259Z</time>
      </trkpt>
      <trkpt lat="63.31405" lon="9.86617">
        <ele>26.80089</ele>
        <time>2020-07-15T20:09:21.267Z</time>
      </trkpt>
      <trkpt lat="63.31464" lon="9.86713">
        <ele>28.168721</ele>
        <time>2020-07-15T20:09:39.943Z</time>
      </trkpt>
      <trkpt lat="63.31488" lon="9.86761">
        <ele>29.454724</ele>
        <time>2020-07-15T20:09:51.137Z</time>
      </trkpt>
      <trkpt lat="63.31508" lon="9.86807">
        <ele>30.559562</ele>
        <time>2020-07-15T20:10:00.732Z</time>
      </trkpt>
      <trkpt lat="63.31526" lon="9.86875">
        <ele>31.956846</ele>
        <time>2020-07-15T20:10:12.323Z</time>
      </trkpt>
      <trkpt lat="63.31542" lon="9.86938">
        <ele>33.235773</ele>
        <time>2020-07-15T20:10:22.727Z</time>
      </trkpt>
      <trkpt lat="63.3155" lon="9.86986">
        <ele>34.145434</ele>
        <time>2020-07-15T20:10:30.279Z</time>
      </trkpt>
      <trkpt lat="63.31553" lon="9.87012">
        <ele>34.615145</ele>
        <time>2020-07-15T20:10:33.593Z</time>
      </trkpt>
      <trkpt lat="63.31567" lon="9.87062">
        <ele>35.370492</ele>
        <time>2020-07-15T20:10:41.301Z</time>
      </trkpt>
      <trkpt lat="63.31647" lon="9.87216">
        <ele>37.272314</ele>
        <time>2020-07-15T20:11:03.676Z</time>
      </trkpt>
      <trkpt lat="63.3169" lon="9.87326">
        <ele>38.712995</ele>
        <time>2020-07-15T20:11:15.346Z</time>
      </trkpt>
      <trkpt lat="63.31724" lon="9.8743">
        <ele>42.69359</ele>
        <time>2020-07-15T20:11:36.229Z</time>
      </trkpt>
      <trkpt lat="63.31745" lon="9.87519">
        <ele>45.803111</ele>
        <time>2020-07-15T20:11:55.731Z</time>
      </trkpt>
      <trkpt lat="63.3176" lon="9.87593">
        <ele>48.31703</ele>
        <time>2020-07-15T20:12:12.624Z</time>
      </trkpt>
      <trkpt lat="63.31772" lon="9.87654">
        <ele>50.410056</ele>
        <time>2020-07-15T20:12:26.440Z</time>
      </trkpt>
      <trkpt lat="63.31777" lon="9.87679">
        <ele>51.204676</ele>
        <time>2020-07-15T20:12:33.885Z</time>
      </trkpt>
      <trkpt lat="63.31814" lon="9.87821">
        <ele>55.862568</ele>
        <time>2020-07-15T20:13:08.537Z</time>
      </trkpt>
      <trkpt lat="63.31835" lon="9.87882">
        <ele>58.06288</ele>
        <time>2020-07-15T20:13:24.617Z</time>
      </trkpt>
      <trkpt lat="63.3219" lon="9.88732">
        <ele>66.673012</ele>
        <time>2020-07-15T20:15:20.862Z</time>
      </trkpt>
      <trkpt lat="63.3229" lon="9.88958">
        <ele>63.005251</ele>
        <time>2020-07-15T20:15:39.967Z</time>
      </trkpt>
      <trkpt lat="63.3239" lon="9.89173">
        <ele>55.583881</ele>
        <time>2020-07-15T20:15:56.056Z</time>
      </trkpt>
      <trkpt lat="63.32457" lon="9.89313">
        <ele>50.5325</ele>
        <time>2020-07-15T20:16:06.648Z</time>
      </trkpt>
      <trkpt lat="63.3255" lon="9.89592">
        <ele>44.074554</ele>
        <time>2020-07-15T20:16:26.603Z</time>
      </trkpt>
      <trkpt lat="63.32609" lon="9.89729">
        <ele>41.489867</ele>
        <time>2020-07-15T20:16:38.590Z</time>
      </trkpt>
      <trkpt lat="63.32641" lon="9.8982">
        <ele>39.880029</ele>
        <time>2020-07-15T20:16:45.424Z</time>
      </trkpt>
      <trkpt lat="63.32702" lon="9.90021">
        <ele>36.522401</ele>
        <time>2020-07-15T20:16:59.411Z</time>
      </trkpt>
      <trkpt lat="63.32726" lon="9.901">
        <ele>35.695462</ele>
        <time>2020-07-15T20:17:05.064Z</time>
      </trkpt>
      <trkpt lat="63.32769" lon="9.90241">
        <ele>35.771725</ele>
        <time>2020-07-15T20:17:16.472Z</time>
      </trkpt>
      <trkpt lat="63.32809" lon="9.90389">
        <ele>35.848318</ele>
        <time>2020-07-15T20:17:33.083Z</time>
      </trkpt>
      <trkpt lat="63.32842" lon="9.90542">
        <ele>39.036541</ele>
        <time>2020-07-15T20:17:58.357Z</time>
      </trkpt>
      <trkpt lat="63.32885" lon="9.9068">
        <ele>42.658545</ele>
        <time>2020-07-15T20:18:24.893Z</time>
      </trkpt>
      <trkpt lat="63.329" lon="9.90734">
        <ele>44.030771</ele>
        <time>2020-07-15T20:18:35.234Z</time>
      </trkpt>
      <trkpt lat="63.32917" lon="9.90801">
        <ele>45.696549</ele>
        <time>2020-07-15T20:18:47.323Z</time>
      </trkpt>
      <trkpt lat="63.32941" lon="9.90888">
        <ele>47.848353</ele>
        <time>2020-07-15T20:19:02.369Z</time>
      </trkpt>
      <trkpt lat="63.32976" lon="9.91065">
        <ele>51.991779</ele>
        <time>2020-07-15T20:19:31.094Z</time>
      </trkpt>
      <trkpt lat="63.3301" lon="9.91202">
        <ele>55.469241</ele>
        <time>2020-07-15T20:19:52.461Z</time>
      </trkpt>
      <trkpt lat="63.33013" lon="9.91215">
        <ele>55.817091</ele>
        <time>2020-07-15T20:19:54.737Z</time>
      </trkpt>
      <trkpt lat="63.33105" lon="9.91559">
        <ele>64.930111</ele>
        <time>2020-07-15T20:20:58.183Z</time>
      </trkpt>
      <trkpt lat="63.3313" lon="9.91667">
        <ele>67.721798</ele>
        <time>2020-07-15T20:21:18.694Z</time>
      </trkpt>
      <trkpt lat="63.33185" lon="9.91959">
        <ele>70.216507</ele>
        <time>2020-07-15T20:22:03.457Z</time>
      </trkpt>
      <trkpt lat="63.33279" lon="9.92234">
        <ele>62.556299</ele>
        <time>2020-07-15T20:22:22.223Z</time>
      </trkpt>
      <trkpt lat="63.33293" lon="9.92286">
        <ele>59.021874</ele>
        <time>2020-07-15T20:22:25.117Z</time>
      </trkpt>
      <trkpt lat="63.33304" lon="9.92334">
        <ele>55.949262</ele>
        <time>2020-07-15T20:22:27.579Z</time>
      </trkpt>
      <trkpt lat="63.33311" lon="9.92368">
        <ele>53.73153</ele>
        <time>2020-07-15T20:22:29.401Z</time>
      </trkpt>
      <trkpt lat="63.33322" lon="9.92426">
        <ele>50.107498</ele>
        <time>2020-07-15T20:22:32.308Z</time>
      </trkpt>
      <trkpt lat="63.3334" lon="9.92539">
        <ele>43.140744</ele>
        <time>2020-07-15T20:22:37.813Z</time>
      </trkpt>
      <trkpt lat="63.33364" lon="9.92635">
        <ele>36.551541</ele>
        <time>2020-07-15T20:22:42.913Z</time>
      </trkpt>
      <trkpt lat="63.33436" lon="9.92785">
        <ele>23.536239</ele>
        <time>2020-07-15T20:22:53.355Z</time>
      </trkpt>
      <trkpt lat="63.3348" lon="9.929">
        <ele>20.362525</ele>
        <time>2020-07-15T20:23:01.391Z</time>
      </trkpt>
      <trkpt lat="63.33538" lon="9.93108">
        <ele>18.020994</ele>
        <time>2020-07-15T20:23:18.504Z</time>
      </trkpt>
      <trkpt lat="63.33609" lon="9.93334">
        <ele>22.32717</ele>
        <time>2020-07-15T20:23:56.513Z</time>
      </trkpt>
      <trkpt lat="63.33631" lon="9.93448">
        <ele>24.792795</ele>
        <time>2020-07-15T20:24:18.195Z</time>
      </trkpt>
      <trkpt lat="63.33646" lon="9.93567">
        <ele>27.237549</ele>
        <time>2020-07-15T20:24:37.213Z</time>
      </trkpt>
      <trkpt lat="63.33653" lon="9.93606">
        <ele>28.058257</ele>
        <time>2020-07-15T20:24:43.668Z</time>
      </trkpt>
      <trkpt lat="63.33659" lon="9.93636">
        <ele>28.708323</ele>
        <time>2020-07-15T20:24:48.008Z</time>
      </trkpt>
      <trkpt lat="63.33665" lon="9.93662">
        <ele>29.292473</ele>
        <time>2020-07-15T20:24:52.870Z</time>
      </trkpt>
      <trkpt lat="63.33667" lon="9.93669">
        <ele>29.464298</ele>
        <time>2020-07-15T20:24:53.997Z</time>
      </trkpt>
      <trkpt lat="63.33735" lon="9.93876">
        <ele>34.170756</ele>
        <time>2020-07-15T20:25:28.673Z</time>
      </trkpt>
      <trkpt lat="63.33898" lon="9.94333">
        <ele>40.467581</ele>
        <time>2020-07-15T20:26:36.728Z</time>
      </trkpt>
      <trkpt lat="63.33952" lon="9.94545">
        <ele>40.966851</ele>
        <time>2020-07-15T20:27:00.959Z</time>
      </trkpt>
      <trkpt lat="63.34036" lon="9.94791">
        <ele>37.510119</ele>
        <time>2020-07-15T20:27:19.117Z</time>
      </trkpt>
      <trkpt lat="63.34086" lon="9.94965">
        <ele>33.675125</ele>
        <time>2020-07-15T20:27:30.048Z</time>
      </trkpt>
      <trkpt lat="63.34174" lon="9.95194">
        <ele>29.331868</ele>
        <time>2020-07-15T20:27:47.571Z</time>
      </trkpt>
      <trkpt lat="63.34239" lon="9.95362">
        <ele>28.530377</ele>
        <time>2020-07-15T20:28:05.230Z</time>
      </trkpt>
      <trkpt lat="63.34246" lon="9.95382">
        <ele>28.435311</ele>
        <time>2020-07-15T20:28:07.488Z</time>
      </trkpt>
      <trkpt lat="63.34258" lon="9.95412">
        <ele>28.29086</ele>
        <time>2020-07-15T20:28:10.995Z</time>
      </trkpt>
      <trkpt lat="63.34288" lon="9.95479">
        <ele>27.962815</ele>
        <time>2020-07-15T20:28:19.730Z</time>
      </trkpt>
      <trkpt lat="63.34351" lon="9.95597">
        <ele>27.330441</ele>
        <time>2020-07-15T20:28:33.405Z</time>
      </trkpt>
      <trkpt lat="63.34456" lon="9.95735">
        <ele>25.954236</ele>
        <time>2020-07-15T20:28:50.682Z</time>
      </trkpt>
      <trkpt lat="63.34466" lon="9.95746">
        <ele>25.787855</ele>
        <time>2020-07-15T20:28:52.034Z</time>
      </trkpt>
      <trkpt lat="63.34475" lon="9.95756">
        <ele>25.636334</ele>
        <time>2020-07-15T20:28:53.571Z</time>
      </trkpt>
      <trkpt lat="63.34505" lon="9.95792">
        <ele>25.099627</ele>
        <time>2020-07-15T20:28:58.631Z</time>
      </trkpt>
      <trkpt lat="63.34536" lon="9.95833">
        <ele>24.546395</ele>
        <time>2020-07-15T20:29:04.018Z</time>
      </trkpt>
      <trkpt lat="63.34557" lon="9.9588">
        <ele>24.083665</ele>
        <time>2020-07-15T20:29:08.799Z</time>
      </trkpt>
      <trkpt lat="63.34592" lon="9.96065">
        <ele>23.682239</ele>
        <time>2020-07-15T20:29:23.262Z</time>
      </trkpt>
      <trkpt lat="63.3461" lon="9.96133">
        <ele>23.528775</ele>
        <time>2020-07-15T20:29:29.403Z</time>
      </trkpt>
      <trkpt lat="63.34623" lon="9.96169">
        <ele>23.438514</ele>
        <time>2020-07-15T20:29:33.474Z</time>
      </trkpt>
      <trkpt lat="63.34629" lon="9.96185">
        <ele>23.396641</ele>
        <time>2020-07-15T20:29:34.899Z</time>
      </trkpt>
      <trkpt lat="63.34687" lon="9.96297">
        <ele>22.617048</ele>
        <time>2020-07-15T20:29:48.799Z</time>
      </trkpt>
      <trkpt lat="63.34694" lon="9.96315">
        <ele>22.469906</ele>
        <time>2020-07-15T20:29:50.233Z</time>
      </trkpt>
      <trkpt lat="63.34698" lon="9.96327">
        <ele>22.387838</ele>
        <time>2020-07-15T20:29:51.937Z</time>
      </trkpt>
      <trkpt lat="63.34712" lon="9.96384">
        <ele>22.004919</ele>
        <time>2020-07-15T20:29:56.046Z</time>
      </trkpt>
      <trkpt lat="63.34735" lon="9.96557">
        <ele>20.935779</ele>
        <time>2020-07-15T20:30:07.705Z</time>
      </trkpt>
      <trkpt lat="63.3474" lon="9.9658">
        <ele>20.626707</ele>
        <time>2020-07-15T20:30:09.973Z</time>
      </trkpt>
      <trkpt lat="63.34745" lon="9.96597">
        <ele>20.355103</ele>
        <time>2020-07-15T20:30:11.033Z</time>
      </trkpt>
      <trkpt lat="63.34815" lon="9.96751">
        <ele>17.495964</ele>
        <time>2020-07-15T20:30:24.432Z</time>
      </trkpt>
      <trkpt lat="63.34851" lon="9.96854">
        <ele>15.784923</ele>
        <time>2020-07-15T20:30:31.714Z</time>
      </trkpt>
      <trkpt lat="63.34863" lon="9.96914">
        <ele>15.138881</ele>
        <time>2020-07-15T20:30:35.570Z</time>
      </trkpt>
      <trkpt lat="63.3487" lon="9.96981">
        <ele>14.508148</ele>
        <time>2020-07-15T20:30:39.644Z</time>
      </trkpt>
      <trkpt lat="63.34868" lon="9.97122">
        <ele>13.201166</ele>
        <time>2020-07-15T20:30:48.498Z</time>
      </trkpt>
      <trkpt lat="63.34866" lon="9.9716">
        <ele>12.847129</ele>
        <time>2020-07-15T20:30:51.003Z</time>
      </trkpt>
      <trkpt lat="63.34862" lon="9.97197">
        <ele>12.49801</ele>
        <time>2020-07-15T20:30:53.597Z</time>
      </trkpt>
      <trkpt lat="63.34841" lon="9.97342">
        <ele>12.910066</ele>
        <time>2020-07-15T20:31:05.072Z</time>
      </trkpt>
      <trkpt lat="63.34813" lon="9.97476">
        <ele>14.367843</ele>
        <time>2020-07-15T20:31:21.059Z</time>
      </trkpt>
      <trkpt lat="63.3477" lon="9.97666">
        <ele>16.673732</ele>
        <time>2020-07-15T20:31:51.543Z</time>
      </trkpt>
      <trkpt lat="63.34767" lon="9.97677">
        <ele>16.835596</ele>
        <time>2020-07-15T20:31:53.120Z</time>
      </trkpt>
      <trkpt lat="63.34752" lon="9.97746">
        <ele>17.865956</ele>
        <time>2020-07-15T20:32:04.231Z</time>
      </trkpt>
      <trkpt lat="63.34741" lon="9.97821">
        <ele>18.925329</ele>
        <time>2020-07-15T20:32:14.717Z</time>
      </trkpt>
      <trkpt lat="63.34738" lon="9.97912">
        <ele>20.152089</ele>
        <time>2020-07-15T20:32:25.094Z</time>
      </trkpt>
      <trkpt lat="63.34738" lon="9.97953">
        <ele>20.711168</ele>
        <time>2020-07-15T20:32:30.334Z</time>
      </trkpt>
      <trkpt lat="63.34741" lon="9.98145">
        <ele>20.077804</ele>
        <time>2020-07-15T20:32:46.619Z</time>
      </trkpt>
      <trkpt lat="63.34742" lon="9.982">
        <ele>19.621819</ele>
        <time>2020-07-15T20:32:50.084Z</time>
      </trkpt>
      <trkpt lat="63.34738" lon="9.98325">
        <ele>18.567676</ele>
        <time>2020-07-15T20:32:57.234Z</time>
      </trkpt>
      <trkpt lat="63.34721" lon="9.985">
        <ele>16.80902</ele>
        <time>2020-07-15T20:33:07.338Z</time>
      </trkpt>
      <trkpt lat="63.34719" lon="9.98517">
        <ele>16.625714</ele>
        <time>2020-07-15T20:33:08.256Z</time>
      </trkpt>
      <trkpt lat="63.34708" lon="9.98608">
        <ele>15.60313</ele>
        <time>2020-07-15T20:33:14.141Z</time>
      </trkpt>
      <trkpt lat="63.34694" lon="9.98688">
        <ele>14.67271</ele>
        <time>2020-07-15T20:33:19.685Z</time>
      </trkpt>
      <trkpt lat="63.3467" lon="9.98755">
        <ele>13.750989</ele>
        <time>2020-07-15T20:33:25.449Z</time>
      </trkpt>
      <trkpt lat="63.34646" lon="9.98796">
        <ele>13.547732</ele>
        <time>2020-07-15T20:33:30.213Z</time>
      </trkpt>
      <trkpt lat="63.34581" lon="9.98878">
        <ele>13.3363</ele>
        <time>2020-07-15T20:33:44.779Z</time>
      </trkpt>
      <trkpt lat="63.34546" lon="9.98951">
        <ele>13.200965</ele>
        <time>2020-07-15T20:33:53.262Z</time>
      </trkpt>
      <trkpt lat="63.34532" lon="9.98997">
        <ele>13.129984</ele>
        <time>2020-07-15T20:33:56.973Z</time>
      </trkpt>
      <trkpt lat="63.34526" lon="9.99056">
        <ele>12.769787</ele>
        <time>2020-07-15T20:34:01.710Z</time>
      </trkpt>
      <trkpt lat="63.34526" lon="9.99088">
        <ele>12.523393</ele>
        <time>2020-07-15T20:34:03.721Z</time>
      </trkpt>
      <trkpt lat="63.34523" lon="9.99089">
        <ele>12.473424</ele>
        <time>2020-07-15T20:34:04.438Z</time>
      </trkpt>
      <trkpt lat="63.34509" lon="9.99092">
        <ele>12.235217</ele>
        <time>2020-07-15T20:34:06.904Z</time>
      </trkpt>
      <trkpt lat="63.34511" lon="9.99109">
        <ele>12.1058</ele>
        <time>2020-07-15T20:34:07.937Z</time>
      </trkpt>
      <trkpt lat="63.3452" lon="9.99159">
        <ele>11.684319</ele>
        <time>2020-07-15T20:34:11.971Z</time>
      </trkpt>
      <trkpt lat="63.34522" lon="9.9917">
        <ele>11.593616</ele>
        <time>2020-07-15T20:34:12.659Z</time>
      </trkpt>
      <trkpt lat="63.34526" lon="9.99186">
        <ele>11.45526</ele>
        <time>2020-07-15T20:34:13.763Z</time>
      </trkpt>
      <trkpt lat="63.34527" lon="9.99194">
        <ele>11.387843</ele>
        <time>2020-07-15T20:34:14.236Z</time>
      </trkpt>
      <trkpt lat="63.34532" lon="9.99338">
        <ele>10.27555</ele>
        <time>2020-07-15T20:34:23.380Z</time>
      </trkpt>
      <trkpt lat="63.34527" lon="9.99411">
        <ele>9.906244</ele>
        <time>2020-07-15T20:34:27.927Z</time>
      </trkpt>
      <trkpt lat="63.34517" lon="9.99451">
        <ele>9.777493</ele>
        <time>2020-07-15T20:34:30.793Z</time>
      </trkpt>
      <trkpt lat="63.34511" lon="9.99476">
        <ele>9.698082</ele>
        <time>2020-07-15T20:34:32.493Z</time>
      </trkpt>
      <trkpt lat="63.34511" lon="9.99481">
        <ele>9.682986</ele>
        <time>2020-07-15T20:34:32.788Z</time>
      </trkpt>
      <trkpt lat="63.34521" lon="9.99557">
        <ele>9.458447</ele>
        <time>2020-07-15T20:34:38.012Z</time>
      </trkpt>
      <trkpt lat="63.34509" lon="9.99776">
        <ele>9.110458</ele>
        <time>2020-07-15T20:34:56.624Z</time>
      </trkpt>
      <trkpt lat="63.34503" lon="9.99995">
        <ele>11.679733</ele>
        <time>2020-07-15T20:35:22.154Z</time>
      </trkpt>
      <trkpt lat="63.34502" lon="10.00025">
        <ele>12.038894</ele>
        <time>2020-07-15T20:35:25.920Z</time>
      </trkpt>
      <trkpt lat="63.34502" lon="10.00052">
        <ele>12.359288</ele>
        <time>2020-07-15T20:35:29.877Z</time>
      </trkpt>
      <trkpt lat="63.34501" lon="10.00249">
        <ele>14.582383</ele>
        <time>2020-07-15T20:35:56.075Z</time>
      </trkpt>
      <trkpt lat="63.34514" lon="10.00548">
        <ele>17.821624</ele>
        <time>2020-07-15T20:36:30.655Z</time>
      </trkpt>
      <trkpt lat="63.34513" lon="10.00599">
        <ele>17.73111</ele>
        <time>2020-07-15T20:36:34.854Z</time>
      </trkpt>
      <trkpt lat="63.34514" lon="10.00607">
        <ele>17.693827</ele>
        <time>2020-07-15T20:36:36.346Z</time>
      </trkpt>
      <trkpt lat="63.34523" lon="10.00603">
        <ele>17.599941</ele>
        <time>2020-07-15T20:36:38.176Z</time>
      </trkpt>
      <trkpt lat="63.34527" lon="10.00649">
        <ele>17.394842</ele>
        <time>2020-07-15T20:36:41.538Z</time>
      </trkpt>
      <trkpt lat="63.34592" lon="10.01295">
        <ele>14.05226</ele>
        <time>2020-07-15T20:37:24.304Z</time>
      </trkpt>
      <trkpt lat="63.34599" lon="10.0139">
        <ele>15.039898</ele>
        <time>2020-07-15T20:37:32.816Z</time>
      </trkpt>
      <trkpt lat="63.34634" lon="10.02035">
        <ele>27.044757</ele>
        <time>2020-07-15T20:39:06.011Z</time>
      </trkpt>
      <trkpt lat="63.34649" lon="10.02341">
        <ele>35.333711</ele>
        <time>2020-07-15T20:40:00.511Z</time>
      </trkpt>
      <trkpt lat="63.34653" lon="10.02418">
        <ele>37.548961</ele>
        <time>2020-07-15T20:40:14.170Z</time>
      </trkpt>
      <trkpt lat="63.34657" lon="10.02515">
        <ele>40.326502</ele>
        <time>2020-07-15T20:40:30.525Z</time>
      </trkpt>
      <trkpt lat="63.3466" lon="10.02628">
        <ele>43.157397</ele>
        <time>2020-07-15T20:40:48.234Z</time>
      </trkpt>
      <trkpt lat="63.34667" lon="10.02924">
        <ele>50.510736</ele>
        <time>2020-07-15T20:41:35.386Z</time>
      </trkpt>
      <trkpt lat="63.34669" lon="10.03">
        <ele>51.943889</ele>
        <time>2020-07-15T20:41:47.956Z</time>
      </trkpt>
      <trkpt lat="63.3467" lon="10.03036">
        <ele>52.635968</ele>
        <time>2020-07-15T20:41:54.085Z</time>
      </trkpt>
      <trkpt lat="63.34676" lon="10.03289">
        <ele>57.458428</ele>
        <time>2020-07-15T20:42:30.661Z</time>
      </trkpt>
      <trkpt lat="63.34679" lon="10.03449">
        <ele>56.77</ele>
        <time>2020-07-15T20:42:43.843Z</time>
      </trkpt>
      <trkpt lat="63.34679" lon="10.03455">
        <ele>56.714741</ele>
        <time>2020-07-15T20:42:44.502Z</time>
      </trkpt>
      <trkpt lat="63.34679" lon="10.03477">
        <ele>56.543265</ele>
        <time>2020-07-15T20:42:45.693Z</time>
      </trkpt>
      <trkpt lat="63.34678" lon="10.03515">
        <ele>56.232613</ele>
        <time>2020-07-15T20:42:48.234Z</time>
      </trkpt>
      <trkpt lat="63.34676" lon="10.03542">
        <ele>56.009184</ele>
        <time>2020-07-15T20:42:49.883Z</time>
      </trkpt>
      <trkpt lat="63.34675" lon="10.03557">
        <ele>55.885034</ele>
        <time>2020-07-15T20:42:50.710Z</time>
      </trkpt>
      <trkpt lat="63.34671" lon="10.03592">
        <ele>55.593601</ele>
        <time>2020-07-15T20:42:52.843Z</time>
      </trkpt>
      <trkpt lat="63.3466" lon="10.03694">
        <ele>54.741093</ele>
        <time>2020-07-15T20:42:58.730Z</time>
      </trkpt>
      <trkpt lat="63.34636" lon="10.03913">
        <ele>52.876112</ele>
        <time>2020-07-15T20:43:11.247Z</time>
      </trkpt>
      <trkpt lat="63.34608" lon="10.04167">
        <ele>52.280675</ele>
        <time>2020-07-15T20:43:34.818Z</time>
      </trkpt>
      <trkpt lat="63.34587" lon="10.04346">
        <ele>54.754874</ele>
        <time>2020-07-15T20:43:59.247Z</time>
      </trkpt>
      <trkpt lat="63.34559" lon="10.04531">
        <ele>57.200188</ele>
        <time>2020-07-15T20:44:25.900Z</time>
      </trkpt>
      <trkpt lat="63.34528" lon="10.04699">
        <ele>59.060149</ele>
        <time>2020-07-15T20:44:47.960Z</time>
      </trkpt>
      <trkpt lat="63.34524" lon="10.0472">
        <ele>59.28649</ele>
        <time>2020-07-15T20:44:50.261Z</time>
      </trkpt>
      <trkpt lat="63.34518" lon="10.04752">
        <ele>59.640399</ele>
        <time>2020-07-15T20:44:53.710Z</time>
      </trkpt>
      <trkpt lat="63.34488" lon="10.04868">
        <ele>60.712995</ele>
        <time>2020-07-15T20:45:06.684Z</time>
      </trkpt>
      <trkpt lat="63.34412" lon="10.05055">
        <ele>60.156099</ele>
        <time>2020-07-15T20:45:27.194Z</time>
      </trkpt>
      <trkpt lat="63.34338" lon="10.05263">
        <ele>56.924359</ele>
        <time>2020-07-15T20:45:43.895Z</time>
      </trkpt>
      <trkpt lat="63.34293" lon="10.05374">
        <ele>53.770111</ele>
        <time>2020-07-15T20:45:51.852Z</time>
      </trkpt>
      <trkpt lat="63.34272" lon="10.05427">
        <ele>52.295981</ele>
        <time>2020-07-15T20:45:55.461Z</time>
      </trkpt>
      <trkpt lat="63.34262" lon="10.05455">
        <ele>51.548256</ele>
        <time>2020-07-15T20:45:57.384Z</time>
      </trkpt>
      <trkpt lat="63.34248" lon="10.05498">
        <ele>50.328912</ele>
        <time>2020-07-15T20:46:00.124Z</time>
      </trkpt>
      <trkpt lat="63.34238" lon="10.05529">
        <ele>49.455587</ele>
        <time>2020-07-15T20:46:02.077Z</time>
      </trkpt>
      <trkpt lat="63.34219" lon="10.05581">
        <ele>47.902472</ele>
        <time>2020-07-15T20:46:05.660Z</time>
      </trkpt>
      <trkpt lat="63.34208" lon="10.05605">
        <ele>47.101141</ele>
        <time>2020-07-15T20:46:07.420Z</time>
      </trkpt>
      <trkpt lat="63.34202" lon="10.05617">
        <ele>46.671837</ele>
        <time>2020-07-15T20:46:08.457Z</time>
      </trkpt>
      <trkpt lat="63.34169" lon="10.05664">
        <ele>44.661632</ele>
        <time>2020-07-15T20:46:13.150Z</time>
      </trkpt>
      <trkpt lat="63.3412" lon="10.05698">
        <ele>42.144756</ele>
        <time>2020-07-15T20:46:19.576Z</time>
      </trkpt>
      <trkpt lat="63.3409" lon="10.05701">
        <ele>41.558443</ele>
        <time>2020-07-15T20:46:24.036Z</time>
      </trkpt>
      <trkpt lat="63.34032" lon="10.05681">
        <ele>40.427634</ele>
        <time>2020-07-15T20:46:33.222Z</time>
      </trkpt>
      <trkpt lat="63.34016" lon="10.05677">
        <ele>40.113024</ele>
        <time>2020-07-15T20:46:35.455Z</time>
      </trkpt>
      <trkpt lat="63.34009" lon="10.05676">
        <ele>39.981261</ele>
        <time>2020-07-15T20:46:36.413Z</time>
      </trkpt>
      <trkpt lat="63.33997" lon="10.05676">
        <ele>39.745376</ele>
        <time>2020-07-15T20:46:38.482Z</time>
      </trkpt>
      <trkpt lat="63.33982" lon="10.05678">
        <ele>39.452852</ele>
        <time>2020-07-15T20:46:40.550Z</time>
      </trkpt>
      <trkpt lat="63.33931" lon="10.05702">
        <ele>38.338797</ele>
        <time>2020-07-15T20:46:47.939Z</time>
      </trkpt>
      <trkpt lat="63.33893" lon="10.05739">
        <ele>37.250361</ele>
        <time>2020-07-15T20:46:53.624Z</time>
      </trkpt>
      <trkpt lat="63.33884" lon="10.05755">
        <ele>36.940918</ele>
        <time>2020-07-15T20:46:55.173Z</time>
      </trkpt>
      <trkpt lat="63.33878" lon="10.05744">
        <ele>36.732673</ele>
        <time>2020-07-15T20:46:56.123Z</time>
      </trkpt>
      <trkpt lat="63.33822" lon="10.05887">
        <ele>34.459375</ele>
        <time>2020-07-15T20:47:07.631Z</time>
      </trkpt>
      <trkpt lat="63.33762" lon="10.05964">
        <ele>32.715541</ele>
        <time>2020-07-15T20:47:16.747Z</time>
      </trkpt>
      <trkpt lat="63.3375" lon="10.05981">
        <ele>32.3711</ele>
        <time>2020-07-15T20:47:18.761Z</time>
      </trkpt>
      <trkpt lat="63.33743" lon="10.0599">
        <ele>32.15983</ele>
        <time>2020-07-15T20:47:20.021Z</time>
      </trkpt>
      <trkpt lat="63.33682" lon="10.06065">
        <ele>30.432724</ele>
        <time>2020-07-15T20:47:29.804Z</time>
      </trkpt>
      <trkpt lat="63.33649" lon="10.0612">
        <ele>29.368854</ele>
        <time>2020-07-15T20:47:35.349Z</time>
      </trkpt>
      <trkpt lat="63.33623" lon="10.06179">
        <ele>27.821227</ele>
        <time>2020-07-15T20:47:40.252Z</time>
      </trkpt>
      <trkpt lat="63.33592" lon="10.0628">
        <ele>25.499621</ele>
        <time>2020-07-15T20:47:47.369Z</time>
      </trkpt>
      <trkpt lat="63.33547" lon="10.06393">
        <ele>22.647903</ele>
        <time>2020-07-15T20:47:55.815Z</time>
      </trkpt>
      <trkpt lat="63.33444" lon="10.06576">
        <ele>14.205248</ele>
        <time>2020-07-15T20:48:10.815Z</time>
      </trkpt>
      <trkpt lat="63.33431" lon="10.06603">
        <ele>13.01951</ele>
        <time>2020-07-15T20:48:12.800Z</time>
      </trkpt>
      <trkpt lat="63.33413" lon="10.06639">
        <ele>11.383788</ele>
        <time>2020-07-15T20:48:15.587Z</time>
      </trkpt>
      <trkpt lat="63.33398" lon="10.06671">
        <ele>9.938182</ele>
        <time>2020-07-15T20:48:18.116Z</time>
      </trkpt>
      <trkpt lat="63.33378" lon="10.06709">
        <ele>8.801858</ele>
        <time>2020-07-15T20:48:21.078Z</time>
      </trkpt>
      <trkpt lat="63.33382" lon="10.06717">
        <ele>8.575082</ele>
        <time>2020-07-15T20:48:21.999Z</time>
      </trkpt>
      <trkpt lat="63.3337" lon="10.06742">
        <ele>7.883444</ele>
        <time>2020-07-15T20:48:23.940Z</time>
      </trkpt>
      <trkpt lat="63.3334" lon="10.06788">
        <ele>6.347386</ele>
        <time>2020-07-15T20:48:28.298Z</time>
      </trkpt>
      <trkpt lat="63.33265" lon="10.06839">
        <ele>3.095176</ele>
        <time>2020-07-15T20:48:38.264Z</time>
      </trkpt>
      <trkpt lat="63.33207" lon="10.06921">
        <ele>2.181121</ele>
        <time>2020-07-15T20:48:49.612Z</time>
      </trkpt>
      <trkpt lat="63.33167" lon="10.06955">
        <ele>2.106831</ele>
        <time>2020-07-15T20:48:57.324Z</time>
      </trkpt>
      <trkpt lat="63.33103" lon="10.06977">
        <ele>1.995135</ele>
        <time>2020-07-15T20:49:09.316Z</time>
      </trkpt>
      <trkpt lat="63.33023" lon="10.06985">
        <ele>2.409114</ele>
        <time>2020-07-15T20:49:25.182Z</time>
      </trkpt>
      <trkpt lat="63.32929" lon="10.06962">
        <ele>3.170945</ele>
        <time>2020-07-15T20:49:44.917Z</time>
      </trkpt>
      <trkpt lat="63.32908" lon="10.06951">
        <ele>3.340461</ele>
        <time>2020-07-15T20:49:49.319Z</time>
      </trkpt>
      <trkpt lat="63.32899" lon="10.06946">
        <ele>3.40936</ele>
        <time>2020-07-15T20:49:51.322Z</time>
      </trkpt>
      <trkpt lat="63.32801" lon="10.06869">
        <ele>4.084726</ele>
        <time>2020-07-15T20:50:13.345Z</time>
      </trkpt>
      <trkpt lat="63.32767" lon="10.06868">
        <ele>4.300092</ele>
        <time>2020-07-15T20:50:19.731Z</time>
      </trkpt>
      <trkpt lat="63.32728" lon="10.06887">
        <ele>4.553304</ele>
        <time>2020-07-15T20:50:27.144Z</time>
      </trkpt>
      <trkpt lat="63.32725" lon="10.06889">
        <ele>4.537285</ele>
        <time>2020-07-15T20:50:27.885Z</time>
      </trkpt>
      <trkpt lat="63.32688" lon="10.06917">
        <ele>4.262309</ele>
        <time>2020-07-15T20:50:34.476Z</time>
      </trkpt>
      <trkpt lat="63.32676" lon="10.06926">
        <ele>4.173947</ele>
        <time>2020-07-15T20:50:36.528Z</time>
      </trkpt>
      <trkpt lat="63.32669" lon="10.06931">
        <ele>4.123626</ele>
        <time>2020-07-15T20:50:37.622Z</time>
      </trkpt>
      <trkpt lat="63.32649" lon="10.06946">
        <ele>3.979819</ele>
        <time>2020-07-15T20:50:41.065Z</time>
      </trkpt>
      <trkpt lat="63.3264" lon="10.06953">
        <ele>3.910459</ele>
        <time>2020-07-15T20:50:42.629Z</time>
      </trkpt>
      <trkpt lat="63.32632" lon="10.06959">
        <ele>3.855706</ele>
        <time>2020-07-15T20:50:43.796Z</time>
      </trkpt>
      <trkpt lat="63.32602" lon="10.06982">
        <ele>3.63287</ele>
        <time>2020-07-15T20:50:48.849Z</time>
      </trkpt>
      <trkpt lat="63.32573" lon="10.0701">
        <ele>3.415856</ele>
        <time>2020-07-15T20:50:53.724Z</time>
      </trkpt>
      <trkpt lat="63.32569" lon="10.07015">
        <ele>3.385574</ele>
        <time>2020-07-15T20:50:54.345Z</time>
      </trkpt>
      <trkpt lat="63.32559" lon="10.07029">
        <ele>3.316642</ele>
        <time>2020-07-15T20:50:56.122Z</time>
      </trkpt>
      <trkpt lat="63.32525" lon="10.07102">
        <ele>3.396866</ele>
        <time>2020-07-15T20:51:03.330Z</time>
      </trkpt>
      <trkpt lat="63.3247" lon="10.07293">
        <ele>3.569052</ele>
        <time>2020-07-15T20:51:21.733Z</time>
      </trkpt>
      <trkpt lat="63.32455" lon="10.07346">
        <ele>3.616817</ele>
        <time>2020-07-15T20:51:28.494Z</time>
      </trkpt>
      <trkpt lat="63.32431" lon="10.07432">
        <ele>4.654548</ele>
        <time>2020-07-15T20:51:39.652Z</time>
      </trkpt>
      <trkpt lat="63.32402" lon="10.07584">
        <ele>6.396748</ele>
        <time>2020-07-15T20:51:59.400Z</time>
      </trkpt>
      <trkpt lat="63.32401" lon="10.07595">
        <ele>6.515309</ele>
        <time>2020-07-15T20:52:01.108Z</time>
      </trkpt>
      <trkpt lat="63.32396" lon="10.07645">
        <ele>7.058857</ele>
        <time>2020-07-15T20:52:07.326Z</time>
      </trkpt>
      <trkpt lat="63.32392" lon="10.07744">
        <ele>7.881628</ele>
        <time>2020-07-15T20:52:18.970Z</time>
      </trkpt>
      <trkpt lat="63.32395" lon="10.07841">
        <ele>8.063417</ele>
        <time>2020-07-15T20:52:29.215Z</time>
      </trkpt>
      <trkpt lat="63.32401" lon="10.07896">
        <ele>8.168608</ele>
        <time>2020-07-15T20:52:34.511Z</time>
      </trkpt>
      <trkpt lat="63.3241" lon="10.07964">
        <ele>8.299874</ele>
        <time>2020-07-15T20:52:40.970Z</time>
      </trkpt>
      <trkpt lat="63.32442" lon="10.08096">
        <ele>8.579377</ele>
        <time>2020-07-15T20:52:51.353Z</time>
      </trkpt>
      <trkpt lat="63.3251" lon="10.08258">
        <ele>6.468464</ele>
        <time>2020-07-15T20:53:05.065Z</time>
      </trkpt>
      <trkpt lat="63.32525" lon="10.08316">
        <ele>5.829218</ele>
        <time>2020-07-15T20:53:09.117Z</time>
      </trkpt>
      <trkpt lat="63.32533" lon="10.08412">
        <ele>4.888975</ele>
        <time>2020-07-15T20:53:15.175Z</time>
      </trkpt>
      <trkpt lat="63.3253" lon="10.08559">
        <ele>4.440179</ele>
        <time>2020-07-15T20:53:24.636Z</time>
      </trkpt>
      <trkpt lat="63.32542" lon="10.08741">
        <ele>4.012157</ele>
        <time>2020-07-15T20:53:37.951Z</time>
      </trkpt>
      <trkpt lat="63.3254" lon="10.08872">
        <ele>4.70002</ele>
        <time>2020-07-15T20:53:50.754Z</time>
      </trkpt>
      <trkpt lat="63.32544" lon="10.08926">
        <ele>5.74321</ele>
        <time>2020-07-15T20:53:57.117Z</time>
      </trkpt>
      <trkpt lat="63.32557" lon="10.08998">
        <ele>7.216311</ele>
        <time>2020-07-15T20:54:07.067Z</time>
      </trkpt>
      <trkpt lat="63.32595" lon="10.09147">
        <ele>10.512023</ele>
        <time>2020-07-15T20:54:32.966Z</time>
      </trkpt>
      <trkpt lat="63.32618" lon="10.09423">
        <ele>18.094897</ele>
        <time>2020-07-15T20:55:27.595Z</time>
      </trkpt>
      <trkpt lat="63.32635" lon="10.09494">
        <ele>20.385178</ele>
        <time>2020-07-15T20:55:42.273Z</time>
      </trkpt>
      <trkpt lat="63.32654" lon="10.09548">
        <ele>22.348552</ele>
        <time>2020-07-15T20:55:52.196Z</time>
      </trkpt>
      <trkpt lat="63.32663" lon="10.09569">
        <ele>22.90468</ele>
        <time>2020-07-15T20:55:57.557Z</time>
      </trkpt>
      <trkpt lat="63.32691" lon="10.09635">
        <ele>21.801401</ele>
        <time>2020-07-15T20:56:07.887Z</time>
      </trkpt>
      <trkpt lat="63.3272" lon="10.09707">
        <ele>20.623318</ele>
        <time>2020-07-15T20:56:14.419Z</time>
      </trkpt>
      <trkpt lat="63.32749" lon="10.09776">
        <ele>19.468659</ele>
        <time>2020-07-15T20:56:19.606Z</time>
      </trkpt>
      <trkpt lat="63.3278" lon="10.09838">
        <ele>18.348935</ele>
        <time>2020-07-15T20:56:24.354Z</time>
      </trkpt>
      <trkpt lat="63.32854" lon="10.09955">
        <ele>12.205858</ele>
        <time>2020-07-15T20:56:34.322Z</time>
      </trkpt>
      <trkpt lat="63.32866" lon="10.09976">
        <ele>11.094948</ele>
        <time>2020-07-15T20:56:36.063Z</time>
      </trkpt>
      <trkpt lat="63.32875" lon="10.09996">
        <ele>10.176738</ele>
        <time>2020-07-15T20:56:37.487Z</time>
      </trkpt>
      <trkpt lat="63.3288" lon="10.10011">
        <ele>9.580218</ele>
        <time>2020-07-15T20:56:38.472Z</time>
      </trkpt>
      <trkpt lat="63.3289" lon="10.1005">
        <ele>8.129743</ele>
        <time>2020-07-15T20:56:40.809Z</time>
      </trkpt>
      <trkpt lat="63.32895" lon="10.1009">
        <ele>6.781663</ele>
        <time>2020-07-15T20:56:43.021Z</time>
      </trkpt>
      <trkpt lat="63.32894" lon="10.10132">
        <ele>5.425364</ele>
        <time>2020-07-15T20:56:45.267Z</time>
      </trkpt>
      <trkpt lat="63.32886" lon="10.10183">
        <ele>4.945262</ele>
        <time>2020-07-15T20:56:48.347Z</time>
      </trkpt>
      <trkpt lat="63.32868" lon="10.10232">
        <ele>4.61365</ele>
        <time>2020-07-15T20:56:52.144Z</time>
      </trkpt>
      <trkpt lat="63.32785" lon="10.10385">
        <ele>3.342021</ele>
        <time>2020-07-15T20:57:12.067Z</time>
      </trkpt>
      <trkpt lat="63.32768" lon="10.10439">
        <ele>3.043543</ele>
        <time>2020-07-15T20:57:17.818Z</time>
      </trkpt>
      <trkpt lat="63.32771" lon="10.10505">
        <ele>2.897868</ele>
        <time>2020-07-15T20:57:23.015Z</time>
      </trkpt>
      <trkpt lat="63.3281" lon="10.10605">
        <ele>2.606838</ele>
        <time>2020-07-15T20:57:32.710Z</time>
      </trkpt>
      <trkpt lat="63.32814" lon="10.10642">
        <ele>2.521924</ele>
        <time>2020-07-15T20:57:35.470Z</time>
      </trkpt>
      <trkpt lat="63.32811" lon="10.10679">
        <ele>2.43865</ele>
        <time>2020-07-15T20:57:38.215Z</time>
      </trkpt>
      <trkpt lat="63.32799" lon="10.10717">
        <ele>2.338459</ele>
        <time>2020-07-15T20:57:41.468Z</time>
      </trkpt>
      <trkpt lat="63.32748" lon="10.10809">
        <ele>2.016687</ele>
        <time>2020-07-15T20:57:52.036Z</time>
      </trkpt>
      <trkpt lat="63.32716" lon="10.1089">
        <ele>1.783505</ele>
        <time>2020-07-15T20:57:59.783Z</time>
      </trkpt>
      <trkpt lat="63.32697" lon="10.10956">
        <ele>1.612534</ele>
        <time>2020-07-15T20:58:05.434Z</time>
      </trkpt>
      <trkpt lat="63.32677" lon="10.11079">
        <ele>1.330528</ele>
        <time>2020-07-15T20:58:14.858Z</time>
      </trkpt>
      <trkpt lat="63.32638" lon="10.11177">
        <ele>1.784567</ele>
        <time>2020-07-15T20:58:27.498Z</time>
      </trkpt>
      <trkpt lat="63.32622" lon="10.11244">
        <ele>2.05648</ele>
        <time>2020-07-15T20:58:34.802Z</time>
      </trkpt>
      <trkpt lat="63.32614" lon="10.11277">
        <ele>2.187072</ele>
        <time>2020-07-15T20:58:37.678Z</time>
      </trkpt>
      <trkpt lat="63.32611" lon="10.11289">
        <ele>2.23813</ele>
        <time>2020-07-15T20:58:39.246Z</time>
      </trkpt>
      <trkpt lat="63.32594" lon="10.1133">
        <ele>2.433703</ele>
        <time>2020-07-15T20:58:44.436Z</time>
      </trkpt>
      <trkpt lat="63.32588" lon="10.11338">
        <ele>2.488872</ele>
        <time>2020-07-15T20:58:45.614Z</time>
      </trkpt>
      <trkpt lat="63.32579" lon="10.11351">
        <ele>2.576656</ele>
        <time>2020-07-15T20:58:48.820Z</time>
      </trkpt>
      <trkpt lat="63.32506" lon="10.11434">
        <ele>2.82471</ele>
        <time>2020-07-15T20:59:05.389Z</time>
      </trkpt>
      <trkpt lat="63.32473" lon="10.11499">
        <ele>2.88091</ele>
        <time>2020-07-15T20:59:13.550Z</time>
      </trkpt>
      <trkpt lat="63.32462" lon="10.11567">
        <ele>2.923136</ele>
        <time>2020-07-15T20:59:19.775Z</time>
      </trkpt>
      <trkpt lat="63.32458" lon="10.117">
        <ele>2.876763</ele>
        <time>2020-07-15T20:59:29.006Z</time>
      </trkpt>
      <trkpt lat="63.32444" lon="10.11824">
        <ele>2.522768</ele>
        <time>2020-07-15T20:59:37.710Z</time>
      </trkpt>
      <trkpt lat="63.3242" lon="10.11931">
        <ele>2.189754</ele>
        <time>2020-07-15T20:59:46.032Z</time>
      </trkpt>
      <trkpt lat="63.32386" lon="10.11985">
        <ele>1.929875</ele>
        <time>2020-07-15T20:59:53.017Z</time>
      </trkpt>
      <trkpt lat="63.3238" lon="10.11998">
        <ele>1.878295</ele>
        <time>2020-07-15T20:59:54.522Z</time>
      </trkpt>
      <trkpt lat="63.32374" lon="10.12012">
        <ele>1.992372</ele>
        <time>2020-07-15T20:59:56.181Z</time>
      </trkpt>
      <trkpt lat="63.32363" lon="10.12058">
        <ele>2.444525</ele>
        <time>2020-07-15T21:00:00.814Z</time>
      </trkpt>
      <trkpt lat="63.32347" lon="10.12187">
        <ele>3.597695</ele>
        <time>2020-07-15T21:00:14.693Z</time>
      </trkpt>
      <trkpt lat="63.32325" lon="10.12273">
        <ele>4.461895</ele>
        <time>2020-07-15T21:00:26.764Z</time>
      </trkpt>
      <trkpt lat="63.32313" lon="10.12305">
        <ele>4.831199</ele>
        <time>2020-07-15T21:00:31.963Z</time>
      </trkpt>
      <trkpt lat="63.32269" lon="10.12377">
        <ele>5.766176</ele>
        <time>2020-07-15T21:00:46.756Z</time>
      </trkpt>
      <trkpt lat="63.32253" lon="10.12444">
        <ele>6.297937</ele>
        <time>2020-07-15T21:00:55.996Z</time>
      </trkpt>
      <trkpt lat="63.32252" lon="10.12537">
        <ele>6.945375</ele>
        <time>2020-07-15T21:01:06.897Z</time>
      </trkpt>
      <trkpt lat="63.32263" lon="10.12842">
        <ele>7.319589</ele>
        <time>2020-07-15T21:01:31.217Z</time>
      </trkpt>
      <trkpt lat="63.32288" lon="10.13006">
        <ele>6.282764</ele>
        <time>2020-07-15T21:01:42.008Z</time>
      </trkpt>
      <trkpt lat="63.32282" lon="10.13088">
        <ele>5.786142</ele>
        <time>2020-07-15T21:01:47.277Z</time>
      </trkpt>
      <trkpt lat="63.32259" lon="10.13217">
        <ele>5.366946</ele>
        <time>2020-07-15T21:01:56.324Z</time>
      </trkpt>
      <trkpt lat="63.32245" lon="10.1326">
        <ele>5.214313</ele>
        <time>2020-07-15T21:02:00.070Z</time>
      </trkpt>
      <trkpt lat="63.32227" lon="10.13278">
        <ele>5.096295</ele>
        <time>2020-07-15T21:02:03.111Z</time>
      </trkpt>
      <trkpt lat="63.32184" lon="10.13279">
        <ele>4.827112</ele>
        <time>2020-07-15T21:02:10.726Z</time>
      </trkpt>
      <trkpt lat="63.32162" lon="10.13292">
        <ele>4.684674</ele>
        <time>2020-07-15T21:02:15.103Z</time>
      </trkpt>
      <trkpt lat="63.32137" lon="10.13326">
        <ele>4.885075</ele>
        <time>2020-07-15T21:02:20.948Z</time>
      </trkpt>
      <trkpt lat="63.32117" lon="10.13378">
        <ele>5.38748</ele>
        <time>2020-07-15T21:02:27.741Z</time>
      </trkpt>
      <trkpt lat="63.32107" lon="10.13426">
        <ele>5.776355</ele>
        <time>2020-07-15T21:02:32.602Z</time>
      </trkpt>
      <trkpt lat="63.32104" lon="10.13481">
        <ele>6.179006</ele>
        <time>2020-07-15T21:02:39.460Z</time>
      </trkpt>
      <trkpt lat="63.32115" lon="10.13648">
        <ele>7.421462</ele>
        <time>2020-07-15T21:02:59.050Z</time>
      </trkpt>
      <trkpt lat="63.32115" lon="10.13664">
        <ele>7.536834</ele>
        <time>2020-07-15T21:03:00.311Z</time>
      </trkpt>
      <trkpt lat="63.32114" lon="10.13687">
        <ele>7.628949</ele>
        <time>2020-07-15T21:03:03.137Z</time>
      </trkpt>
      <trkpt lat="63.32106" lon="10.13741">
        <ele>7.844228</ele>
        <time>2020-07-15T21:03:07.670Z</time>
      </trkpt>
      <trkpt lat="63.32097" lon="10.13779">
        <ele>8.005955</ele>
        <time>2020-07-15T21:03:12.233Z</time>
      </trkpt>
      <trkpt lat="63.32083" lon="10.13828">
        <ele>8.226896</ele>
        <time>2020-07-15T21:03:17.314Z</time>
      </trkpt>
      <trkpt lat="63.32069" lon="10.13877">
        <ele>8.441896</ele>
        <time>2020-07-15T21:03:22.079Z</time>
      </trkpt>
      <trkpt lat="63.32026" lon="10.14029">
        <ele>9.043436</ele>
        <time>2020-07-15T21:03:38.858Z</time>
      </trkpt>
      <trkpt lat="63.32023" lon="10.14026">
        <ele>9.038035</ele>
        <time>2020-07-15T21:03:39.911Z</time>
      </trkpt>
      <trkpt lat="63.31969" lon="10.14204">
        <ele>8.87981</ele>
        <time>2020-07-15T21:03:56.456Z</time>
      </trkpt>
      <trkpt lat="63.31952" lon="10.14263">
        <ele>8.828131</ele>
        <time>2020-07-15T21:04:02.109Z</time>
      </trkpt>
      <trkpt lat="63.31946" lon="10.14285">
        <ele>8.809292</ele>
        <time>2020-07-15T21:04:04.187Z</time>
      </trkpt>
      <trkpt lat="63.31919" lon="10.14378">
        <ele>8.455344</ele>
        <time>2020-07-15T21:04:13.738Z</time>
      </trkpt>
      <trkpt lat="63.31908" lon="10.14422">
        <ele>8.123253</ele>
        <time>2020-07-15T21:04:17.618Z</time>
      </trkpt>
      <trkpt lat="63.31899" lon="10.14455">
        <ele>7.869601</ele>
        <time>2020-07-15T21:04:20.331Z</time>
      </trkpt>
      <trkpt lat="63.31878" lon="10.14566">
        <ele>7.071635</ele>
        <time>2020-07-15T21:04:28.579Z</time>
      </trkpt>
      <trkpt lat="63.31871" lon="10.14615">
        <ele>6.728646</ele>
        <time>2020-07-15T21:04:31.948Z</time>
      </trkpt>
      <trkpt lat="63.31855" lon="10.14768">
        <ele>5.506485</ele>
        <time>2020-07-15T21:04:42.052Z</time>
      </trkpt>
      <trkpt lat="63.31846" lon="10.14857">
        <ele>4.639891</ele>
        <time>2020-07-15T21:04:47.804Z</time>
      </trkpt>
      <trkpt lat="63.3183" lon="10.14946">
        <ele>3.710443</ele>
        <time>2020-07-15T21:04:53.979Z</time>
      </trkpt>
      <trkpt lat="63.31801" lon="10.1501">
        <ele>2.851442</ele>
        <time>2020-07-15T21:04:59.876Z</time>
      </trkpt>
      <trkpt lat="63.31767" lon="10.15046">
        <ele>2.322186</ele>
        <time>2020-07-15T21:05:05.887Z</time>
      </trkpt>
      <trkpt lat="63.31704" lon="10.15085">
        <ele>2.546381</ele>
        <time>2020-07-15T21:05:18.065Z</time>
      </trkpt>
      <trkpt lat="63.31657" lon="10.15112">
        <ele>2.711928</ele>
        <time>2020-07-15T21:05:28.132Z</time>
      </trkpt>
      <trkpt lat="63.3162" lon="10.15134">
        <ele>2.841532</ele>
        <time>2020-07-15T21:05:37.126Z</time>
      </trkpt>
      <trkpt lat="63.31559" lon="10.15187">
        <ele>3.117759</ele>
        <time>2020-07-15T21:05:51.515Z</time>
      </trkpt>
      <trkpt lat="63.31519" lon="10.15244">
        <ele>3.331859</ele>
        <time>2020-07-15T21:06:01.280Z</time>
      </trkpt>
      <trkpt lat="63.31497" lon="10.15284">
        <ele>3.458246</ele>
        <time>2020-07-15T21:06:07.200Z</time>
      </trkpt>
      <trkpt lat="63.31487" lon="10.15305">
        <ele>3.520747</ele>
        <time>2020-07-15T21:06:09.623Z</time>
      </trkpt>
      <trkpt lat="63.31471" lon="10.15343">
        <ele>3.625612</ele>
        <time>2020-07-15T21:06:14.158Z</time>
      </trkpt>
      <trkpt lat="63.31466" lon="10.15358">
        <ele>3.664166</ele>
        <time>2020-07-15T21:06:15.537Z</time>
      </trkpt>
      <trkpt lat="63.31459" lon="10.15377">
        <ele>3.701494</ele>
        <time>2020-07-15T21:06:17.483Z</time>
      </trkpt>
      <trkpt lat="63.31396" lon="10.15621">
        <ele>3.192808</ele>
        <time>2020-07-15T21:06:38.728Z</time>
      </trkpt>
      <trkpt lat="63.31366" lon="10.1576">
        <ele>2.996663</ele>
        <time>2020-07-15T21:06:51.233Z</time>
      </trkpt>
      <trkpt lat="63.31342" lon="10.15802">
        <ele>3.022304</ele>
        <time>2020-07-15T21:06:57.172Z</time>
      </trkpt>
      <trkpt lat="63.31286" lon="10.15832">
        <ele>3.070198</ele>
        <time>2020-07-15T21:07:08.246Z</time>
      </trkpt>
      <trkpt lat="63.3127" lon="10.15842">
        <ele>3.084408</ele>
        <time>2020-07-15T21:07:11.683Z</time>
      </trkpt>
      <trkpt lat="63.31255" lon="10.15852">
        <ele>3.097062</ele>
        <time>2020-07-15T21:07:14.480Z</time>
      </trkpt>
      <trkpt lat="63.31224" lon="10.15895">
        <ele>3.128001</ele>
        <time>2020-07-15T21:07:21.492Z</time>
      </trkpt>
      <trkpt lat="63.31206" lon="10.15948">
        <ele>3.026442</ele>
        <time>2020-07-15T21:07:27.104Z</time>
      </trkpt>
      <trkpt lat="63.31189" lon="10.16016">
        <ele>2.87435</ele>
        <time>2020-07-15T21:07:33.523Z</time>
      </trkpt>
      <trkpt lat="63.31188" lon="10.16021">
        <ele>2.863611</ele>
        <time>2020-07-15T21:07:33.918Z</time>
      </trkpt>
      <trkpt lat="63.31156" lon="10.16257">
        <ele>2.381683</ele>
        <time>2020-07-15T21:07:52.644Z</time>
      </trkpt>
      <trkpt lat="63.31154" lon="10.16441">
        <ele>1.889886</ele>
        <time>2020-07-15T21:08:06.250Z</time>
      </trkpt>
      <trkpt lat="63.31149" lon="10.16478">
        <ele>1.785427</ele>
        <time>2020-07-15T21:08:09.117Z</time>
      </trkpt>
      <trkpt lat="63.31134" lon="10.16523">
        <ele>1.631897</ele>
        <time>2020-07-15T21:08:13.487Z</time>
      </trkpt>
      <trkpt lat="63.31076" lon="10.16608">
        <ele>1.24562</ele>
        <time>2020-07-15T21:08:25.580Z</time>
      </trkpt>
      <trkpt lat="63.31066" lon="10.16634">
        <ele>1.236686</ele>
        <time>2020-07-15T21:08:28.198Z</time>
      </trkpt>
      <trkpt lat="63.31059" lon="10.16653">
        <ele>1.230332</ele>
        <time>2020-07-15T21:08:30.182Z</time>
      </trkpt>
      <trkpt lat="63.31041" lon="10.16732">
        <ele>1.207301</ele>
        <time>2020-07-15T21:08:37.238Z</time>
      </trkpt>
      <trkpt lat="63.31037" lon="10.16739">
        <ele>1.20422</ele>
        <time>2020-07-15T21:08:38.294Z</time>
      </trkpt>
      <trkpt lat="63.31039" lon="10.16752">
        <ele>1.20064</ele>
        <time>2020-07-15T21:08:39.374Z</time>
      </trkpt>
      <trkpt lat="63.3104" lon="10.16764">
        <ele>1.19755</ele>
        <time>2020-07-15T21:08:40.317Z</time>
      </trkpt>
      <trkpt lat="63.3104" lon="10.16769">
        <ele>1.196259</ele>
        <time>2020-07-15T21:08:40.704Z</time>
      </trkpt>
      <trkpt lat="63.3104" lon="10.168">
        <ele>1.188055</ele>
        <time>2020-07-15T21:08:43.363Z</time>
      </trkpt>
      <trkpt lat="63.31045" lon="10.16868">
        <ele>1.170283</ele>
        <time>2020-07-15T21:08:49.123Z</time>
      </trkpt>
      <trkpt lat="63.31055" lon="10.16978">
        <ele>1.161352</ele>
        <time>2020-07-15T21:08:59.125Z</time>
      </trkpt>
      <trkpt lat="63.31058" lon="10.1701">
        <ele>1.192274</ele>
        <time>2020-07-15T21:09:01.823Z</time>
      </trkpt>
      <trkpt lat="63.31062" lon="10.17008">
        <ele>1.202452</ele>
        <time>2020-07-15T21:09:02.964Z</time>
      </trkpt>
      <trkpt lat="63.31084" lon="10.17251">
        <ele>1.439827</ele>
        <time>2020-07-15T21:09:23.847Z</time>
      </trkpt>
      <trkpt lat="63.31097" lon="10.1739">
        <ele>1.501674</ele>
        <time>2020-07-15T21:09:35.528Z</time>
      </trkpt>
      <trkpt lat="63.31099" lon="10.17411">
        <ele>1.489546</ele>
        <time>2020-07-15T21:09:37.312Z</time>
      </trkpt>
      <trkpt lat="63.31104" lon="10.17466">
        <ele>1.457496</ele>
        <time>2020-07-15T21:09:41.735Z</time>
      </trkpt>
      <trkpt lat="63.31111" lon="10.17543">
        <ele>1.411792</ele>
        <time>2020-07-15T21:09:47.996Z</time>
      </trkpt>
      <trkpt lat="63.31126" lon="10.17645">
        <ele>1.350711</ele>
        <time>2020-07-15T21:09:56.194Z</time>
      </trkpt>
      <trkpt lat="63.31175" lon="10.1789">
        <ele>1.558174</ele>
        <time>2020-07-15T21:10:16.674Z</time>
      </trkpt>
      <trkpt lat="63.31186" lon="10.17974">
        <ele>1.6852</ele>
        <time>2020-07-15T21:10:24.376Z</time>
      </trkpt>
      <trkpt lat="63.31187" lon="10.17978">
        <ele>1.69147</ele>
        <time>2020-07-15T21:10:24.695Z</time>
      </trkpt>
      <trkpt lat="63.31193" lon="10.18062">
        <ele>1.81328</ele>
        <time>2020-07-15T21:10:32.654Z</time>
      </trkpt>
      <trkpt lat="63.31196" lon="10.18098">
        <ele>1.866487</ele>
        <time>2020-07-15T21:10:36.345Z</time>
      </trkpt>
      <trkpt lat="63.31207" lon="10.18235">
        <ele>2.254349</ele>
        <time>2020-07-15T21:10:49.057Z</time>
      </trkpt>
      <trkpt lat="63.31211" lon="10.18262">
        <ele>2.337788</ele>
        <time>2020-07-15T21:10:52.143Z</time>
      </trkpt>
      <trkpt lat="63.31217" lon="10.18286">
        <ele>2.416744</ele>
        <time>2020-07-15T21:10:54.600Z</time>
      </trkpt>
      <trkpt lat="63.31222" lon="10.18306">
        <ele>2.481895</ele>
        <time>2020-07-15T21:10:56.411Z</time>
      </trkpt>
      <trkpt lat="63.31229" lon="10.18327">
        <ele>2.557328</ele>
        <time>2020-07-15T21:10:59.200Z</time>
      </trkpt>
      <trkpt lat="63.3124" lon="10.18364">
        <ele>2.684549</ele>
        <time>2020-07-15T21:11:02.988Z</time>
      </trkpt>
      <trkpt lat="63.31253" lon="10.18402">
        <ele>2.819926</ele>
        <time>2020-07-15T21:11:07.421Z</time>
      </trkpt>
      <trkpt lat="63.31263" lon="10.18433">
        <ele>2.929668</ele>
        <time>2020-07-15T21:11:10.335Z</time>
      </trkpt>
      <trkpt lat="63.31322" lon="10.18607">
        <ele>2.735013</ele>
        <time>2020-07-15T21:11:27.699Z</time>
      </trkpt>
      <trkpt lat="63.31371" lon="10.18744">
        <ele>2.461683</ele>
        <time>2020-07-15T21:11:39.955Z</time>
      </trkpt>
      <trkpt lat="63.31414" lon="10.18862">
        <ele>2.8494</ele>
        <time>2020-07-15T21:11:51.644Z</time>
      </trkpt>
      <trkpt lat="63.31438" lon="10.18928">
        <ele>3.194028</ele>
        <time>2020-07-15T21:11:58.987Z</time>
      </trkpt>
      <trkpt lat="63.31465" lon="10.19004">
        <ele>3.590606</ele>
        <time>2020-07-15T21:12:08.168Z</time>
      </trkpt>
      <trkpt lat="63.31471" lon="10.1902">
        <ele>3.673957</ele>
        <time>2020-07-15T21:12:10.164Z</time>
      </trkpt>
      <trkpt lat="63.31507" lon="10.19119">
        <ele>4.448141</ele>
        <time>2020-07-15T21:12:25.164Z</time>
      </trkpt>
      <trkpt lat="63.31574" lon="10.19261">
        <ele>6.607691</ele>
        <time>2020-07-15T21:12:49.808Z</time>
      </trkpt>
      <trkpt lat="63.31593" lon="10.19292">
        <ele>7.160945</ele>
        <time>2020-07-15T21:12:56.180Z</time>
      </trkpt>
      <trkpt lat="63.31613" lon="10.19321">
        <ele>7.709676</ele>
        <time>2020-07-15T21:13:02.175Z</time>
      </trkpt>
      <trkpt lat="63.31664" lon="10.19381">
        <ele>8.147041</ele>
        <time>2020-07-15T21:13:14.984Z</time>
      </trkpt>
      <trkpt lat="63.31697" lon="10.19397">
        <ele>8.090086</ele>
        <time>2020-07-15T21:13:21.797Z</time>
      </trkpt>
      <trkpt lat="63.3173" lon="10.19384">
        <ele>8.032808</ele>
        <time>2020-07-15T21:13:28.054Z</time>
      </trkpt>
      <trkpt lat="63.31783" lon="10.19314">
        <ele>7.927629</ele>
        <time>2020-07-15T21:13:37.179Z</time>
      </trkpt>
      <trkpt lat="63.31809" lon="10.19295">
        <ele>7.680954</ele>
        <time>2020-07-15T21:13:41.022Z</time>
      </trkpt>
      <trkpt lat="63.31913" lon="10.19308">
        <ele>5.86089</ele>
        <time>2020-07-15T21:13:55.527Z</time>
      </trkpt>
      <trkpt lat="63.32075" lon="10.1945">
        <ele>4.528469</ele>
        <time>2020-07-15T21:14:21.769Z</time>
      </trkpt>
      <trkpt lat="63.32103" lon="10.19496">
        <ele>4.45578</ele>
        <time>2020-07-15T21:14:28.672Z</time>
      </trkpt>
      <trkpt lat="63.32119" lon="10.19558">
        <ele>4.390121</ele>
        <time>2020-07-15T21:14:35.666Z</time>
      </trkpt>
      <trkpt lat="63.32119" lon="10.19564">
        <ele>4.396857</ele>
        <time>2020-07-15T21:14:36.332Z</time>
      </trkpt>
      <trkpt lat="63.3212" lon="10.19604">
        <ele>4.860282</ele>
        <time>2020-07-15T21:14:40.593Z</time>
      </trkpt>
      <trkpt lat="63.32089" lon="10.19761">
        <ele>6.85741</ele>
        <time>2020-07-15T21:15:01.244Z</time>
      </trkpt>
      <trkpt lat="63.32088" lon="10.19826">
        <ele>7.621224</ele>
        <time>2020-07-15T21:15:09.640Z</time>
      </trkpt>
      <trkpt lat="63.3213" lon="10.19962">
        <ele>9.248727</ele>
        <time>2020-07-15T21:15:30.201Z</time>
      </trkpt>
      <trkpt lat="63.32143" lon="10.20102">
        <ele>9.926095</ele>
        <time>2020-07-15T21:15:45.910Z</time>
      </trkpt>
      <trkpt lat="63.3215" lon="10.20136">
        <ele>10.104799</ele>
        <time>2020-07-15T21:15:49.496Z</time>
      </trkpt>
      <trkpt lat="63.32168" lon="10.20192">
        <ele>10.432574</ele>
        <time>2020-07-15T21:15:55.504Z</time>
      </trkpt>
      <trkpt lat="63.3223" lon="10.2033">
        <ele>11.102109</ele>
        <time>2020-07-15T21:16:09.234Z</time>
      </trkpt>
      <trkpt lat="63.32246" lon="10.20392">
        <ele>11.226579</ele>
        <time>2020-07-15T21:16:13.995Z</time>
      </trkpt>
      <trkpt lat="63.3227" lon="10.20566">
        <ele>11.546596</ele>
        <time>2020-07-15T21:16:28.794Z</time>
      </trkpt>
      <trkpt lat="63.32276" lon="10.20636">
        <ele>11.869197</ele>
        <time>2020-07-15T21:16:37.388Z</time>
      </trkpt>
      <trkpt lat="63.32273" lon="10.20722">
        <ele>13.563262</ele>
        <time>2020-07-15T21:16:49.630Z</time>
      </trkpt>
      <trkpt lat="63.32261" lon="10.20824">
        <ele>15.63001</ele>
        <time>2020-07-15T21:17:04.354Z</time>
      </trkpt>
      <trkpt lat="63.32257" lon="10.20859">
        <ele>16.334095</ele>
        <time>2020-07-15T21:17:09.429Z</time>
      </trkpt>
      <trkpt lat="63.32256" lon="10.20878">
        <ele>16.708817</ele>
        <time>2020-07-15T21:17:13.591Z</time>
      </trkpt>
      <trkpt lat="63.32255" lon="10.20938">
        <ele>17.901916</ele>
        <time>2020-07-15T21:17:22.249Z</time>
      </trkpt>
      <trkpt lat="63.32255" lon="10.20956">
        <ele>18.240558</ele>
        <time>2020-07-15T21:17:26.146Z</time>
      </trkpt>
      <trkpt lat="63.32257" lon="10.20985">
        <ele>18.817446</ele>
        <time>2020-07-15T21:17:30.323Z</time>
      </trkpt>
      <trkpt lat="63.3227" lon="10.21072">
        <ele>20.004974</ele>
        <time>2020-07-15T21:17:44.897Z</time>
      </trkpt>
      <trkpt lat="63.32299" lon="10.21187">
        <ele>21.114456</ele>
        <time>2020-07-15T21:18:02.661Z</time>
      </trkpt>
      <trkpt lat="63.32301" lon="10.21195">
        <ele>21.195604</ele>
        <time>2020-07-15T21:18:03.818Z</time>
      </trkpt>
      <trkpt lat="63.32348" lon="10.21353">
        <ele>22.795506</ele>
        <time>2020-07-15T21:18:18.184Z</time>
      </trkpt>
      <trkpt lat="63.32358" lon="10.21386">
        <ele>22.812648</ele>
        <time>2020-07-15T21:18:20.549Z</time>
      </trkpt>
      <trkpt lat="63.32371" lon="10.21417">
        <ele>22.661076</ele>
        <time>2020-07-15T21:18:24.408Z</time>
      </trkpt>
      <trkpt lat="63.32388" lon="10.21449">
        <ele>22.4796</ele>
        <time>2020-07-15T21:18:27.539Z</time>
      </trkpt>
      <trkpt lat="63.32401" lon="10.21478">
        <ele>22.335455</ele>
        <time>2020-07-15T21:18:30.665Z</time>
      </trkpt>
      <trkpt lat="63.32415" lon="10.21521">
        <ele>22.139905</ele>
        <time>2020-07-15T21:18:34.307Z</time>
      </trkpt>
      <trkpt lat="63.32423" lon="10.21552">
        <ele>22.00882</ele>
        <time>2020-07-15T21:18:36.722Z</time>
      </trkpt>
      <trkpt lat="63.32429" lon="10.21583">
        <ele>21.885929</ele>
        <time>2020-07-15T21:18:39.161Z</time>
      </trkpt>
      <trkpt lat="63.32432" lon="10.216">
        <ele>21.820458</ele>
        <time>2020-07-15T21:18:41.071Z</time>
      </trkpt>
      <trkpt lat="63.32439" lon="10.21668">
        <ele>21.567508</ele>
        <time>2020-07-15T21:18:45.656Z</time>
      </trkpt>
      <trkpt lat="63.32447" lon="10.21877">
        <ele>21.143966</ele>
        <time>2020-07-15T21:19:02.238Z</time>
      </trkpt>
      <trkpt lat="63.32448" lon="10.21884">
        <ele>21.131112</ele>
        <time>2020-07-15T21:19:03.367Z</time>
      </trkpt>
      <trkpt lat="63.32454" lon="10.21994">
        <ele>20.93858</ele>
        <time>2020-07-15T21:19:12.065Z</time>
      </trkpt>
      <trkpt lat="63.32472" lon="10.22231">
        <ele>19.852242</ele>
        <time>2020-07-15T21:19:28.434Z</time>
      </trkpt>
      <trkpt lat="63.32475" lon="10.22372">
        <ele>18.910151</ele>
        <time>2020-07-15T21:19:37.468Z</time>
      </trkpt>
      <trkpt lat="63.32482" lon="10.22542">
        <ele>17.788333</ele>
        <time>2020-07-15T21:19:48.821Z</time>
      </trkpt>
      <trkpt lat="63.32487" lon="10.2265">
        <ele>17.107077</ele>
        <time>2020-07-15T21:19:56.163Z</time>
      </trkpt>
      <trkpt lat="63.32489" lon="10.22808">
        <ele>16.116069</ele>
        <time>2020-07-15T21:20:06.834Z</time>
      </trkpt>
      <trkpt lat="63.32481" lon="10.23003">
        <ele>14.559399</ele>
        <time>2020-07-15T21:20:19.808Z</time>
      </trkpt>
      <trkpt lat="63.32456" lon="10.23338">
        <ele>11.392039</ele>
        <time>2020-07-15T21:20:40.852Z</time>
      </trkpt>
      <trkpt lat="63.32441" lon="10.23545">
        <ele>9.332875</ele>
        <time>2020-07-15T21:20:53.663Z</time>
      </trkpt>
      <trkpt lat="63.32426" lon="10.23731">
        <ele>7.848171</ele>
        <time>2020-07-15T21:21:05.774Z</time>
      </trkpt>
      <trkpt lat="63.32415" lon="10.2387">
        <ele>7.608117</ele>
        <time>2020-07-15T21:21:15.613Z</time>
      </trkpt>
      <trkpt lat="63.32407" lon="10.23971">
        <ele>7.433186</ele>
        <time>2020-07-15T21:21:23.539Z</time>
      </trkpt>
      <trkpt lat="63.32375" lon="10.24395">
        <ele>8.881178</ele>
        <time>2020-07-15T21:22:04.194Z</time>
      </trkpt>
      <trkpt lat="63.32327" lon="10.25036">
        <ele>12.91736</ele>
        <time>2020-07-15T21:23:12.622Z</time>
      </trkpt>
      <trkpt lat="63.32295" lon="10.2539">
        <ele>13.415206</ele>
        <time>2020-07-15T21:23:41.460Z</time>
      </trkpt>
      <trkpt lat="63.32291" lon="10.25407">
        <ele>13.376726</ele>
        <time>2020-07-15T21:23:42.763Z</time>
      </trkpt>
      <trkpt lat="63.32287" lon="10.25427">
        <ele>13.333153</ele>
        <time>2020-07-15T21:23:44.358Z</time>
      </trkpt>
      <trkpt lat="63.32281" lon="10.25464">
        <ele>13.254736</ele>
        <time>2020-07-15T21:23:47.369Z</time>
      </trkpt>
      <trkpt lat="63.32275" lon="10.25536">
        <ele>13.107536</ele>
        <time>2020-07-15T21:23:52.734Z</time>
      </trkpt>
      <trkpt lat="63.32261" lon="10.25676">
        <ele>12.801541</ele>
        <time>2020-07-15T21:24:03.103Z</time>
      </trkpt>
      <trkpt lat="63.32228" lon="10.26077">
        <ele>11.525021</ele>
        <time>2020-07-15T21:24:32.971Z</time>
      </trkpt>
      <trkpt lat="63.32223" lon="10.26225">
        <ele>10.652472</ele>
        <time>2020-07-15T21:24:43.161Z</time>
      </trkpt>
      <trkpt lat="63.32231" lon="10.26397">
        <ele>9.630619</ele>
        <time>2020-07-15T21:24:54.563Z</time>
      </trkpt>
      <trkpt lat="63.32241" lon="10.26496">
        <ele>8.850486</ele>
        <time>2020-07-15T21:25:01.095Z</time>
      </trkpt>
      <trkpt lat="63.32251" lon="10.26539">
        <ele>8.398744</ele>
        <time>2020-07-15T21:25:04.175Z</time>
      </trkpt>
      <trkpt lat="63.32248" lon="10.26554">
        <ele>8.258589</ele>
        <time>2020-07-15T21:25:05.153Z</time>
      </trkpt>
      <trkpt lat="63.32246" lon="10.26555">
        <ele>8.2027</ele>
        <time>2020-07-15T21:25:05.475Z</time>
      </trkpt>
      <trkpt lat="63.32249" lon="10.26638">
        <ele>7.425313</ele>
        <time>2020-07-15T21:25:10.682Z</time>
      </trkpt>
      <trkpt lat="63.32258" lon="10.26812">
        <ele>5.792676</ele>
        <time>2020-07-15T21:25:21.581Z</time>
      </trkpt>
      <trkpt lat="63.32261" lon="10.26829">
        <ele>5.61691</ele>
        <time>2020-07-15T21:25:22.737Z</time>
      </trkpt>
      <trkpt lat="63.32272" lon="10.26899">
        <ele>5.131971</ele>
        <time>2020-07-15T21:25:27.392Z</time>
      </trkpt>
      <trkpt lat="63.32305" lon="10.27095">
        <ele>3.790476</ele>
        <time>2020-07-15T21:25:41.114Z</time>
      </trkpt>
      <trkpt lat="63.32306" lon="10.271">
        <ele>3.754106</ele>
        <time>2020-07-15T21:25:41.425Z</time>
      </trkpt>
      <trkpt lat="63.32375" lon="10.27454">
        <ele>2.938851</ele>
        <time>2020-07-15T21:26:10.137Z</time>
      </trkpt>
      <trkpt lat="63.32378" lon="10.2747">
        <ele>2.933209</ele>
        <time>2020-07-15T21:26:11.745Z</time>
      </trkpt>
      <trkpt lat="63.32386" lon="10.27507">
        <ele>2.92014</ele>
        <time>2020-07-15T21:26:15.267Z</time>
      </trkpt>
      <trkpt lat="63.32409" lon="10.27615">
        <ele>3.212883</ele>
        <time>2020-07-15T21:26:26.431Z</time>
      </trkpt>
      <trkpt lat="63.32423" lon="10.27656">
        <ele>3.544839</ele>
        <time>2020-07-15T21:26:31.228Z</time>
      </trkpt>
      <trkpt lat="63.32429" lon="10.27665">
        <ele>3.645288</ele>
        <time>2020-07-15T21:26:32.913Z</time>
      </trkpt>
      <trkpt lat="63.3243" lon="10.27673">
        <ele>3.700739</ele>
        <time>2020-07-15T21:26:34.008Z</time>
      </trkpt>
      <trkpt lat="63.32433" lon="10.2779">
        <ele>4.448432</ele>
        <time>2020-07-15T21:26:48.518Z</time>
      </trkpt>
      <trkpt lat="63.32435" lon="10.27804">
        <ele>4.546157</ele>
        <time>2020-07-15T21:26:50.467Z</time>
      </trkpt>
      <trkpt lat="63.32435" lon="10.27815">
        <ele>4.613334</ele>
        <time>2020-07-15T21:26:51.745Z</time>
      </trkpt>
      <trkpt lat="63.32443" lon="10.27929">
        <ele>5.352569</ele>
        <time>2020-07-15T21:27:03.820Z</time>
      </trkpt>
      <trkpt lat="63.32472" lon="10.28752">
        <ele>13.508867</ele>
        <time>2020-07-15T21:28:36.313Z</time>
      </trkpt>
      <trkpt lat="63.32472" lon="10.2888">
        <ele>14.85168</ele>
        <time>2020-07-15T21:28:51.418Z</time>
      </trkpt>
      <trkpt lat="63.32465" lon="10.28995">
        <ele>16.084924</ele>
        <time>2020-07-15T21:29:04.386Z</time>
      </trkpt>
      <trkpt lat="63.32461" lon="10.29026">
        <ele>16.422155</ele>
        <time>2020-07-15T21:29:08.067Z</time>
      </trkpt>
      <trkpt lat="63.32461" lon="10.29033">
        <ele>16.490571</ele>
        <time>2020-07-15T21:29:09.028Z</time>
      </trkpt>
      <trkpt lat="63.32416" lon="10.29334">
        <ele>19.724231</ele>
        <time>2020-07-15T21:29:44.633Z</time>
      </trkpt>
      <trkpt lat="63.32411" lon="10.29432">
        <ele>20.714154</ele>
        <time>2020-07-15T21:29:55.522Z</time>
      </trkpt>
      <trkpt lat="63.32411" lon="10.29451">
        <ele>20.899693</ele>
        <time>2020-07-15T21:29:57.623Z</time>
      </trkpt>
      <trkpt lat="63.32413" lon="10.29474">
        <ele>21.136533</ele>
        <time>2020-07-15T21:30:00.405Z</time>
      </trkpt>
      <trkpt lat="63.32422" lon="10.29533">
        <ele>21.762051</ele>
        <time>2020-07-15T21:30:07.276Z</time>
      </trkpt>
      <trkpt lat="63.32427" lon="10.29559">
        <ele>22.05644</ele>
        <time>2020-07-15T21:30:10.653Z</time>
      </trkpt>
      <trkpt lat="63.32429" lon="10.29566">
        <ele>22.142559</ele>
        <time>2020-07-15T21:30:11.565Z</time>
      </trkpt>
      <trkpt lat="63.32431" lon="10.29572">
        <ele>22.218563</ele>
        <time>2020-07-15T21:30:12.389Z</time>
      </trkpt>
      <trkpt lat="63.32449" lon="10.29637">
        <ele>23.009128</ele>
        <time>2020-07-15T21:30:21.406Z</time>
      </trkpt>
      <trkpt lat="63.3246" lon="10.29677">
        <ele>23.495453</ele>
        <time>2020-07-15T21:30:26.954Z</time>
      </trkpt>
      <trkpt lat="63.32469" lon="10.2971">
        <ele>23.895374</ele>
        <time>2020-07-15T21:30:31.614Z</time>
      </trkpt>
      <trkpt lat="63.32567" lon="10.30068">
        <ele>27.772024</ele>
        <time>2020-07-15T21:31:19.690Z</time>
      </trkpt>
      <trkpt lat="63.32569" lon="10.30078">
        <ele>27.859469</ele>
        <time>2020-07-15T21:31:20.857Z</time>
      </trkpt>
      <trkpt lat="63.32583" lon="10.30165">
        <ele>28.638105</ele>
        <time>2020-07-15T21:31:30.762Z</time>
      </trkpt>
      <trkpt lat="63.32586" lon="10.30232">
        <ele>29.193614</ele>
        <time>2020-07-15T21:31:37.549Z</time>
      </trkpt>
      <trkpt lat="63.32586" lon="10.30248">
        <ele>29.292605</ele>
        <time>2020-07-15T21:31:39.340Z</time>
      </trkpt>
      <trkpt lat="63.32584" lon="10.30271">
        <ele>29.439833</ele>
        <time>2020-07-15T21:31:41.557Z</time>
      </trkpt>
      <trkpt lat="63.32572" lon="10.30356">
        <ele>30.013931</ele>
        <time>2020-07-15T21:31:50.852Z</time>
      </trkpt>
      <trkpt lat="63.32525" lon="10.30587">
        <ele>31.614543</ele>
        <time>2020-07-15T21:32:17.220Z</time>
      </trkpt>
      <trkpt lat="63.32523" lon="10.30618">
        <ele>31.827983</ele>
        <time>2020-07-15T21:32:20.340Z</time>
      </trkpt>
      <trkpt lat="63.32524" lon="10.30636">
        <ele>31.952385</ele>
        <time>2020-07-15T21:32:22.289Z</time>
      </trkpt>
      <trkpt lat="63.32525" lon="10.30647">
        <ele>32.034018</ele>
        <time>2020-07-15T21:32:23.613Z</time>
      </trkpt>
      <trkpt lat="63.3252" lon="10.30651">
        <ele>32.123928</ele>
        <time>2020-07-15T21:32:24.895Z</time>
      </trkpt>
      <trkpt lat="63.32512" lon="10.30663">
        <ele>32.271593</ele>
        <time>2020-07-15T21:32:26.829Z</time>
      </trkpt>
      <trkpt lat="63.32508" lon="10.30674">
        <ele>32.368428</ele>
        <time>2020-07-15T21:32:28.206Z</time>
      </trkpt>
      <trkpt lat="63.32504" lon="10.3068">
        <ele>32.445405</ele>
        <time>2020-07-15T21:32:29.368Z</time>
      </trkpt>
      <trkpt lat="63.32501" lon="10.30686">
        <ele>32.508995</ele>
        <time>2020-07-15T21:32:30.333Z</time>
      </trkpt>
      <trkpt lat="63.32498" lon="10.30691">
        <ele>32.568614</ele>
        <time>2020-07-15T21:32:31.305Z</time>
      </trkpt>
      <trkpt lat="63.32501" lon="10.30699">
        <ele>32.64882</ele>
        <time>2020-07-15T21:32:32.770Z</time>
      </trkpt>
      <trkpt lat="63.32502" lon="10.30702">
        <ele>32.672236</ele>
        <time>2020-07-15T21:32:33.200Z</time>
      </trkpt>
      <trkpt lat="63.32505" lon="10.30706">
        <ele>32.728188</ele>
        <time>2020-07-15T21:32:34.133Z</time>
      </trkpt>
      <trkpt lat="63.32492" lon="10.30765">
        <ele>33.18855</ele>
        <time>2020-07-15T21:32:40.922Z</time>
      </trkpt>
      <trkpt lat="63.32485" lon="10.30786">
        <ele>33.365875</ele>
        <time>2020-07-15T21:32:43.398Z</time>
      </trkpt>
      <trkpt lat="63.32482" lon="10.30798">
        <ele>33.465614</ele>
        <time>2020-07-15T21:32:44.850Z</time>
      </trkpt>
      <trkpt lat="63.3248" lon="10.3081">
        <ele>33.552766</ele>
        <time>2020-07-15T21:32:46.139Z</time>
      </trkpt>
      <trkpt lat="63.32476" lon="10.3081">
        <ele>33.624435</ele>
        <time>2020-07-15T21:32:47.241Z</time>
      </trkpt>
      <trkpt lat="63.32476" lon="10.30824">
        <ele>33.723749</ele>
        <time>2020-07-15T21:32:48.863Z</time>
      </trkpt>
      <trkpt lat="63.32481" lon="10.3107">
        <ele>35.469942</ele>
        <time>2020-07-15T21:33:14.406Z</time>
      </trkpt>
      <trkpt lat="63.32482" lon="10.31101">
        <ele>35.691273</ele>
        <time>2020-07-15T21:33:17.590Z</time>
      </trkpt>
      <trkpt lat="63.32474" lon="10.31102">
        <ele>35.817452</ele>
        <time>2020-07-15T21:33:19.303Z</time>
      </trkpt>
      <trkpt lat="63.32478" lon="10.31222">
        <ele>36.675894</ele>
        <time>2020-07-15T21:33:31.934Z</time>
      </trkpt>
      <trkpt lat="63.32479" lon="10.31289">
        <ele>37.154285</ele>
        <time>2020-07-15T21:33:38.918Z</time>
      </trkpt>
      <trkpt lat="63.32492" lon="10.31802">
        <ele>41.5715</ele>
        <time>2020-07-15T21:34:35.144Z</time>
      </trkpt>
      <trkpt lat="63.32495" lon="10.31841">
        <ele>42.033405</ele>
        <time>2020-07-15T21:34:40.163Z</time>
      </trkpt>
      <trkpt lat="63.325" lon="10.31858">
        <ele>42.257112</ele>
        <time>2020-07-15T21:34:42.311Z</time>
      </trkpt>
      <trkpt lat="63.32506" lon="10.31873">
        <ele>42.490668</ele>
        <time>2020-07-15T21:34:44.539Z</time>
      </trkpt>
      <trkpt lat="63.32511" lon="10.31884">
        <ele>42.676543</ele>
        <time>2020-07-15T21:34:46.877Z</time>
      </trkpt>
      <trkpt lat="63.32564" lon="10.31963">
        <ele>44.317867</ele>
        <time>2020-07-15T21:35:03.765Z</time>
      </trkpt>
      <trkpt lat="63.32633" lon="10.32074">
        <ele>46.830631</ele>
        <time>2020-07-15T21:35:28.528Z</time>
      </trkpt>
      <trkpt lat="63.3272" lon="10.3221">
        <ele>50.243768</ele>
        <time>2020-07-15T21:35:59.132Z</time>
      </trkpt>
      <trkpt lat="63.32737" lon="10.32241">
        <ele>50.956163</ele>
        <time>2020-07-15T21:36:05.644Z</time>
      </trkpt>
      <trkpt lat="63.32756" lon="10.32277">
        <ele>51.687888</ele>
        <time>2020-07-15T21:36:13.137Z</time>
      </trkpt>
      <trkpt lat="63.32782" lon="10.3233">
        <ele>52.70462</ele>
        <time>2020-07-15T21:36:23.358Z</time>
      </trkpt>
      <trkpt lat="63.32807" lon="10.32419">
        <ele>54.066015</ele>
        <time>2020-07-15T21:36:36.691Z</time>
      </trkpt>
      <trkpt lat="63.32811" lon="10.32433">
        <ele>54.277075</ele>
        <time>2020-07-15T21:36:38.963Z</time>
      </trkpt>
      <trkpt lat="63.32814" lon="10.32451">
        <ele>54.534131</ele>
        <time>2020-07-15T21:36:41.309Z</time>
      </trkpt>
      <trkpt lat="63.32815" lon="10.32462">
        <ele>54.6693</ele>
        <time>2020-07-15T21:36:42.577Z</time>
      </trkpt>
      <trkpt lat="63.32817" lon="10.32486">
        <ele>54.982014</ele>
        <time>2020-07-15T21:36:45.657Z</time>
      </trkpt>
      <trkpt lat="63.32816" lon="10.32607">
        <ele>56.399261</ele>
        <time>2020-07-15T21:36:59.831Z</time>
      </trkpt>
      <trkpt lat="63.32828" lon="10.32658">
        <ele>56.807586</ele>
        <time>2020-07-15T21:37:06.366Z</time>
      </trkpt>
      <trkpt lat="63.32843" lon="10.32687">
        <ele>57.121327</ele>
        <time>2020-07-15T21:37:11.247Z</time>
      </trkpt>
      <trkpt lat="63.32892" lon="10.32743">
        <ele>57.982361</ele>
        <time>2020-07-15T21:37:24.521Z</time>
      </trkpt>
      <trkpt lat="63.3292" lon="10.32833">
        <ele>58.749907</ele>
        <time>2020-07-15T21:37:35.278Z</time>
      </trkpt>
      <trkpt lat="63.32935" lon="10.32862">
        <ele>59.050206</ele>
        <time>2020-07-15T21:37:39.534Z</time>
      </trkpt>
      <trkpt lat="63.32951" lon="10.32884">
        <ele>59.227648</ele>
        <time>2020-07-15T21:37:43.693Z</time>
      </trkpt>
      <trkpt lat="63.32977" lon="10.32884">
        <ele>59.456767</ele>
        <time>2020-07-15T21:37:49.000Z</time>
      </trkpt>
      <trkpt lat="63.33027" lon="10.32862">
        <ele>59.919737</ele>
        <time>2020-07-15T21:37:59.439Z</time>
      </trkpt>
      <trkpt lat="63.33049" lon="10.32868">
        <ele>60.127573</ele>
        <time>2020-07-15T21:38:04.039Z</time>
      </trkpt>
      <trkpt lat="63.33085" lon="10.32898">
        <ele>60.476053</ele>
        <time>2020-07-15T21:38:12.260Z</time>
      </trkpt>
      <trkpt lat="63.33116" lon="10.32939">
        <ele>61.046977</ele>
        <time>2020-07-15T21:38:20.311Z</time>
      </trkpt>
      <trkpt lat="63.33159" lon="10.33042">
        <ele>62.737473</ele>
        <time>2020-07-15T21:38:35.912Z</time>
      </trkpt>
      <trkpt lat="63.33169" lon="10.33075">
        <ele>63.217935</ele>
        <time>2020-07-15T21:38:40.598Z</time>
      </trkpt>
      <trkpt lat="63.33182" lon="10.3312">
        <ele>63.863682</ele>
        <time>2020-07-15T21:38:47.461Z</time>
      </trkpt>
      <trkpt lat="63.332" lon="10.33193">
        <ele>64.859861</ele>
        <time>2020-07-15T21:38:58.459Z</time>
      </trkpt>
      <trkpt lat="63.33211" lon="10.33219">
        <ele>65.288893</ele>
        <time>2020-07-15T21:39:03.357Z</time>
      </trkpt>
      <trkpt lat="63.33223" lon="10.33236">
        <ele>65.865974</ele>
        <time>2020-07-15T21:39:08.013Z</time>
      </trkpt>
      <trkpt lat="63.33249" lon="10.33251">
        <ele>67.315826</ele>
        <time>2020-07-15T21:39:16.873Z</time>
      </trkpt>
      <trkpt lat="63.33341" lon="10.33271">
        <ele>72.267397</ele>
        <time>2020-07-15T21:39:50.646Z</time>
      </trkpt>
      <trkpt lat="63.3337" lon="10.3327">
        <ele>73.773034</ele>
        <time>2020-07-15T21:40:01.256Z</time>
      </trkpt>
      <trkpt lat="63.33399" lon="10.3325">
        <ele>75.453213</ele>
        <time>2020-07-15T21:40:12.896Z</time>
      </trkpt>
      <trkpt lat="63.33418" lon="10.33248">
        <ele>76.546269</ele>
        <time>2020-07-15T21:40:20.239Z</time>
      </trkpt>
      <trkpt lat="63.33436" lon="10.33259">
        <ele>77.646958</ele>
        <time>2020-07-15T21:40:26.880Z</time>
      </trkpt>
      <trkpt lat="63.33447" lon="10.33274">
        <ele>78.431052</ele>
        <time>2020-07-15T21:40:32.046Z</time>
      </trkpt>
      <trkpt lat="63.33451" lon="10.33288">
        <ele>78.858595</ele>
        <time>2020-07-15T21:40:35.167Z</time>
      </trkpt>
      <trkpt lat="63.335" lon="10.33461">
        <ele>84.2346</ele>
        <time>2020-07-15T21:41:08.080Z</time>
      </trkpt>
      <trkpt lat="63.33516" lon="10.33496">
        <ele>85.572185</ele>
        <time>2020-07-15T21:41:17.106Z</time>
      </trkpt>
      <trkpt lat="63.33547" lon="10.33522">
        <ele>87.580232</ele>
        <time>2020-07-15T21:41:30.355Z</time>
      </trkpt>
      <trkpt lat="63.33647" lon="10.33522">
        <ele>93.677684</ele>
        <time>2020-07-15T21:42:07.305Z</time>
      </trkpt>
      <trkpt lat="63.3366" lon="10.33527">
        <ele>94.456204</ele>
        <time>2020-07-15T21:42:12.350Z</time>
      </trkpt>
      <trkpt lat="63.33672" lon="10.33531">
        <ele>95.245909</ele>
        <time>2020-07-15T21:42:17.639Z</time>
      </trkpt>
      <trkpt lat="63.33696" lon="10.33561">
        <ele>96.889547</ele>
        <time>2020-07-15T21:42:27.879Z</time>
      </trkpt>
      <trkpt lat="63.33742" lon="10.33667">
        <ele>101.205301</ele>
        <time>2020-07-15T21:42:54.324Z</time>
      </trkpt>
      <trkpt lat="63.33754" lon="10.33769">
        <ele>104.258583</ele>
        <time>2020-07-15T21:43:13.631Z</time>
      </trkpt>
      <trkpt lat="63.33775" lon="10.33831">
        <ele>106.528335</ele>
        <time>2020-07-15T21:43:27.513Z</time>
      </trkpt>
      <trkpt lat="63.33829" lon="10.33901">
        <ele>110.178996</ele>
        <time>2020-07-15T21:43:50.775Z</time>
      </trkpt>
      <trkpt lat="63.33863" lon="10.33978">
        <ele>112.775721</ele>
        <time>2020-07-15T21:44:09.241Z</time>
      </trkpt>
      <trkpt lat="63.33885" lon="10.34">
        <ele>114.051646</ele>
        <time>2020-07-15T21:44:17.053Z</time>
      </trkpt>
      <trkpt lat="63.33888" lon="10.34004">
        <ele>114.244897</ele>
        <time>2020-07-15T21:44:19.134Z</time>
      </trkpt>
      <trkpt lat="63.33913" lon="10.34009">
        <ele>115.579557</ele>
        <time>2020-07-15T21:44:27.086Z</time>
      </trkpt>
      <trkpt lat="63.33948" lon="10.33991">
        <ele>117.464093</ele>
        <time>2020-07-15T21:44:38.939Z</time>
      </trkpt>
      <trkpt lat="63.34017" lon="10.3386">
        <ele>121.480319</ele>
        <time>2020-07-15T21:45:09.028Z</time>
      </trkpt>
      <trkpt lat="63.34034" lon="10.33842">
        <ele>122.305021</ele>
        <time>2020-07-15T21:45:14.878Z</time>
      </trkpt>
      <trkpt lat="63.34053" lon="10.33837">
        <ele>123.15356</ele>
        <time>2020-07-15T21:45:20.800Z</time>
      </trkpt>
      <trkpt lat="63.3407" lon="10.33848">
        <ele>123.92522</ele>
        <time>2020-07-15T21:45:26.343Z</time>
      </trkpt>
      <trkpt lat="63.34091" lon="10.33874">
        <ele>124.988981</ele>
        <time>2020-07-15T21:45:34.157Z</time>
      </trkpt>
      <trkpt lat="63.3414" lon="10.34042">
        <ele>128.951992</ele>
        <time>2020-07-15T21:46:04.038Z</time>
      </trkpt>
      <trkpt lat="63.34169" lon="10.34163">
        <ele>131.690094</ele>
        <time>2020-07-15T21:46:24.984Z</time>
      </trkpt>
      <trkpt lat="63.34198" lon="10.34248">
        <ele>133.7822</ele>
        <time>2020-07-15T21:46:40.823Z</time>
      </trkpt>
      <trkpt lat="63.34238" lon="10.34315">
        <ele>135.062501</ele>
        <time>2020-07-15T21:46:55.636Z</time>
      </trkpt>
      <trkpt lat="63.34288" lon="10.34388">
        <ele>136.610361</ele>
        <time>2020-07-15T21:47:11.971Z</time>
      </trkpt>
      <trkpt lat="63.34313" lon="10.34423">
        <ele>137.377629</ele>
        <time>2020-07-15T21:47:19.296Z</time>
      </trkpt>
      <trkpt lat="63.34344" lon="10.34529">
        <ele>138.457737</ele>
        <time>2020-07-15T21:47:32.261Z</time>
      </trkpt>
      <trkpt lat="63.34426" lon="10.34711">
        <ele>138.95514</ele>
        <time>2020-07-15T21:47:55.122Z</time>
      </trkpt>
      <trkpt lat="63.34453" lon="10.3479">
        <ele>139.14389</ele>
        <time>2020-07-15T21:48:03.229Z</time>
      </trkpt>
      <trkpt lat="63.34478" lon="10.34903">
        <ele>139.188551</ele>
        <time>2020-07-15T21:48:13.720Z</time>
      </trkpt>
      <trkpt lat="63.34486" lon="10.34955">
        <ele>139.205175</ele>
        <time>2020-07-15T21:48:18.214Z</time>
      </trkpt>
      <trkpt lat="63.34487" lon="10.34963">
        <ele>139.207954</ele>
        <time>2020-07-15T21:48:19.028Z</time>
      </trkpt>
      <trkpt lat="63.34497" lon="10.35012">
        <ele>139.224552</ele>
        <time>2020-07-15T21:48:23.564Z</time>
      </trkpt>
      <trkpt lat="63.34531" lon="10.35084">
        <ele>139.255967</ele>
        <time>2020-07-15T21:48:32.324Z</time>
      </trkpt>
      <trkpt lat="63.34542" lon="10.351">
        <ele>139.265317</ele>
        <time>2020-07-15T21:48:34.914Z</time>
      </trkpt>
      <trkpt lat="63.34588" lon="10.35173">
        <ele>139.412688</ele>
        <time>2020-07-15T21:48:45.708Z</time>
      </trkpt>
      <trkpt lat="63.3459" lon="10.35176">
        <ele>139.418475</ele>
        <time>2020-07-15T21:48:46.111Z</time>
      </trkpt>
      <trkpt lat="63.34594" lon="10.35182">
        <ele>139.434742</ele>
        <time>2020-07-15T21:48:47.112Z</time>
      </trkpt>
      <trkpt lat="63.34628" lon="10.35238">
        <ele>139.567985</ele>
        <time>2020-07-15T21:48:55.394Z</time>
      </trkpt>
      <trkpt lat="63.34677" lon="10.35315">
        <ele>139.755527</ele>
        <time>2020-07-15T21:49:07.071Z</time>
      </trkpt>
      <trkpt lat="63.34742" lon="10.35371">
        <ele>140.278964</ele>
        <time>2020-07-15T21:49:20.983Z</time>
      </trkpt>
      <trkpt lat="63.34754" lon="10.35381">
        <ele>140.411024</ele>
        <time>2020-07-15T21:49:23.664Z</time>
      </trkpt>
      <trkpt lat="63.34756" lon="10.35367">
        <ele>140.481033</ele>
        <time>2020-07-15T21:49:25.386Z</time>
      </trkpt>
      <trkpt lat="63.34765" lon="10.35371">
        <ele>140.574786</ele>
        <time>2020-07-15T21:49:27.243Z</time>
      </trkpt>
      <trkpt lat="63.34765" lon="10.35379">
        <ele>140.612056</ele>
        <time>2020-07-15T21:49:27.997Z</time>
      </trkpt>
      <trkpt lat="63.3477" lon="10.35399">
        <ele>140.719878</ele>
        <time>2020-07-15T21:49:30.208Z</time>
      </trkpt>
      <trkpt lat="63.34773" lon="10.35403">
        <ele>140.757507</ele>
        <time>2020-07-15T21:49:30.976Z</time>
      </trkpt>
      <trkpt lat="63.34777" lon="10.35403">
        <ele>140.793299</ele>
        <time>2020-07-15T21:49:31.696Z</time>
      </trkpt>
      <trkpt lat="63.34786" lon="10.35392">
        <ele>140.895732</ele>
        <time>2020-07-15T21:49:33.773Z</time>
      </trkpt>
      <trkpt lat="63.34787" lon="10.35385">
        <ele>140.930785</ele>
        <time>2020-07-15T21:49:34.515Z</time>
      </trkpt>
      <trkpt lat="63.34796" lon="10.35393">
        <ele>141.027452</ele>
        <time>2020-07-15T21:49:36.558Z</time>
      </trkpt>
      <trkpt lat="63.34818" lon="10.35409">
        <ele>141.264644</ele>
        <time>2020-07-15T21:49:41.827Z</time>
      </trkpt>
      <trkpt lat="63.34844" lon="10.35426">
        <ele>141.540057</ele>
        <time>2020-07-15T21:49:48.168Z</time>
      </trkpt>
      <trkpt lat="63.34884" lon="10.35457">
        <ele>142.176717</ele>
        <time>2020-07-15T21:49:58.111Z</time>
      </trkpt>
      <trkpt lat="63.34917" lon="10.35483">
        <ele>142.786499</ele>
        <time>2020-07-15T21:50:06.591Z</time>
      </trkpt>
      <trkpt lat="63.34932" lon="10.35494">
        <ele>143.049814</ele>
        <time>2020-07-15T21:50:09.988Z</time>
      </trkpt>
      <trkpt lat="63.34935" lon="10.35496">
        <ele>143.114989</ele>
        <time>2020-07-15T21:50:10.960Z</time>
      </trkpt>
      <trkpt lat="63.34938" lon="10.35499">
        <ele>143.167552</ele>
        <time>2020-07-15T21:50:11.918Z</time>
      </trkpt>
      <trkpt lat="63.34975" lon="10.35529">
        <ele>143.839618</ele>
        <time>2020-07-15T21:50:21.258Z</time>
      </trkpt>
      <trkpt lat="63.34982" lon="10.35535">
        <ele>143.974731</ele>
        <time>2020-07-15T21:50:23.273Z</time>
      </trkpt>
      <trkpt lat="63.34985" lon="10.35522">
        <ele>144.080232</ele>
        <time>2020-07-15T21:50:24.534Z</time>
      </trkpt>
      <trkpt lat="63.35015" lon="10.3555">
        <ele>144.649681</ele>
        <time>2020-07-15T21:50:32.380Z</time>
      </trkpt>
      <trkpt lat="63.35055" lon="10.35589">
        <ele>144.787885</ele>
        <time>2020-07-15T21:50:41.748Z</time>
      </trkpt>
      <trkpt lat="63.35089" lon="10.35617">
        <ele>144.818614</ele>
        <time>2020-07-15T21:50:49.167Z</time>
      </trkpt>
      <trkpt lat="63.3511" lon="10.35635">
        <ele>144.837707</ele>
        <time>2020-07-15T21:50:53.541Z</time>
      </trkpt>
      <trkpt lat="63.35116" lon="10.35635">
        <ele>144.842644</ele>
        <time>2020-07-15T21:50:54.606Z</time>
      </trkpt>
      <trkpt lat="63.35123" lon="10.3564">
        <ele>144.848338</ele>
        <time>2020-07-15T21:50:56.098Z</time>
      </trkpt>
      <trkpt lat="63.3513" lon="10.35647">
        <ele>144.85512</ele>
        <time>2020-07-15T21:50:57.941Z</time>
      </trkpt>
      <trkpt lat="63.35132" lon="10.35656">
        <ele>144.858791</ele>
        <time>2020-07-15T21:50:58.708Z</time>
      </trkpt>
      <trkpt lat="63.35136" lon="10.35659">
        <ele>144.861891</ele>
        <time>2020-07-15T21:50:59.353Z</time>
      </trkpt>
      <trkpt lat="63.35183" lon="10.35691">
        <ele>144.903461</ele>
        <time>2020-07-15T21:51:07.125Z</time>
      </trkpt>
      <trkpt lat="63.352" lon="10.35704">
        <ele>144.674987</ele>
        <time>2020-07-15T21:51:09.608Z</time>
      </trkpt>
      <trkpt lat="63.35272" lon="10.35743">
        <ele>143.259072</ele>
        <time>2020-07-15T21:51:20.288Z</time>
      </trkpt>
      <trkpt lat="63.35286" lon="10.35748">
        <ele>143.001857</ele>
        <time>2020-07-15T21:51:22.252Z</time>
      </trkpt>
      <trkpt lat="63.35293" lon="10.35749">
        <ele>142.859315</ele>
        <time>2020-07-15T21:51:23.284Z</time>
      </trkpt>
      <trkpt lat="63.35305" lon="10.35748">
        <ele>142.643011</ele>
        <time>2020-07-15T21:51:24.836Z</time>
      </trkpt>
      <trkpt lat="63.35312" lon="10.35747">
        <ele>142.503765</ele>
        <time>2020-07-15T21:51:25.854Z</time>
      </trkpt>
      <trkpt lat="63.35312" lon="10.35765">
        <ele>142.343623</ele>
        <time>2020-07-15T21:51:27.104Z</time>
      </trkpt>
      <trkpt lat="63.35337" lon="10.35763">
        <ele>141.880432</ele>
        <time>2020-07-15T21:51:30.367Z</time>
      </trkpt>
      <trkpt lat="63.3537" lon="10.35775">
        <ele>141.372677</ele>
        <time>2020-07-15T21:51:35.071Z</time>
      </trkpt>
      <trkpt lat="63.35425" lon="10.35837">
        <ele>140.808298</ele>
        <time>2020-07-15T21:51:43.773Z</time>
      </trkpt>
      <trkpt lat="63.35451" lon="10.35849">
        <ele>140.558024</ele>
        <time>2020-07-15T21:51:47.923Z</time>
      </trkpt>
      <trkpt lat="63.35477" lon="10.35854">
        <ele>140.320312</ele>
        <time>2020-07-15T21:51:52.111Z</time>
      </trkpt>
      <trkpt lat="63.35492" lon="10.35857">
        <ele>140.177883</ele>
        <time>2020-07-15T21:51:54.698Z</time>
      </trkpt>
      <trkpt lat="63.35492" lon="10.35873">
        <ele>140.10922</ele>
        <time>2020-07-15T21:51:56.112Z</time>
      </trkpt>
      <trkpt lat="63.3551" lon="10.35923">
        <ele>139.84339</ele>
        <time>2020-07-15T21:52:01.385Z</time>
      </trkpt>
      <trkpt lat="63.35559" lon="10.36025">
        <ele>141.530617</ele>
        <time>2020-07-15T21:52:16.077Z</time>
      </trkpt>
      <trkpt lat="63.35569" lon="10.36046">
        <ele>141.864216</ele>
        <time>2020-07-15T21:52:19.230Z</time>
      </trkpt>
      <trkpt lat="63.35571" lon="10.36084">
        <ele>142.310686</ele>
        <time>2020-07-15T21:52:23.879Z</time>
      </trkpt>
      <trkpt lat="63.3559" lon="10.36093">
        <ele>142.795807</ele>
        <time>2020-07-15T21:52:29.165Z</time>
      </trkpt>
      <trkpt lat="63.35596" lon="10.36102">
        <ele>142.991523</ele>
        <time>2020-07-15T21:52:31.496Z</time>
      </trkpt>
      <trkpt lat="63.35623" lon="10.36152">
        <ele>143.872279</ele>
        <time>2020-07-15T21:52:42.092Z</time>
      </trkpt>
      <trkpt lat="63.35652" lon="10.3621">
        <ele>145.252706</ele>
        <time>2020-07-15T21:52:55.034Z</time>
      </trkpt>
      <trkpt lat="63.35695" lon="10.36298">
        <ele>148.018281</ele>
        <time>2020-07-15T21:53:15.683Z</time>
      </trkpt>
      <trkpt lat="63.35817" lon="10.36546">
        <ele>153.864796</ele>
        <time>2020-07-15T21:54:11.332Z</time>
      </trkpt>
      <trkpt lat="63.35847" lon="10.36604">
        <ele>154.472246</ele>
        <time>2020-07-15T21:54:21.056Z</time>
      </trkpt>
      <trkpt lat="63.35861" lon="10.36634">
        <ele>154.760205</ele>
        <time>2020-07-15T21:54:25.098Z</time>
      </trkpt>
      <trkpt lat="63.35879" lon="10.36671">
        <ele>155.124276</ele>
        <time>2020-07-15T21:54:29.433Z</time>
      </trkpt>
      <trkpt lat="63.35886" lon="10.36686">
        <ele>155.277234</ele>
        <time>2020-07-15T21:54:31.134Z</time>
      </trkpt>
      <trkpt lat="63.35946" lon="10.36814">
        <ele>153.721801</ele>
        <time>2020-07-15T21:54:43.027Z</time>
      </trkpt>
      <trkpt lat="63.35965" lon="10.36845">
        <ele>152.943439</ele>
        <time>2020-07-15T21:54:46.148Z</time>
      </trkpt>
      <trkpt lat="63.35979" lon="10.36869">
        <ele>152.358904</ele>
        <time>2020-07-15T21:54:48.420Z</time>
      </trkpt>
      <trkpt lat="63.35995" lon="10.36881">
        <ele>151.78058</ele>
        <time>2020-07-15T21:54:50.576Z</time>
      </trkpt>
      <trkpt lat="63.36006" lon="10.36888">
        <ele>151.391243</ele>
        <time>2020-07-15T21:54:51.999Z</time>
      </trkpt>
      <trkpt lat="63.36027" lon="10.36902">
        <ele>150.666811</ele>
        <time>2020-07-15T21:54:54.707Z</time>
      </trkpt>
      <trkpt lat="63.36119" lon="10.36948">
        <ele>147.674303</ele>
        <time>2020-07-15T21:55:06.772Z</time>
      </trkpt>
      <trkpt lat="63.36186" lon="10.36988">
        <ele>145.552412</ele>
        <time>2020-07-15T21:55:15.918Z</time>
      </trkpt>
      <trkpt lat="63.36195" lon="10.36992">
        <ele>145.281434</ele>
        <time>2020-07-15T21:55:17.088Z</time>
      </trkpt>
      <trkpt lat="63.36191" lon="10.37012">
        <ele>144.984131</ele>
        <time>2020-07-15T21:55:18.540Z</time>
      </trkpt>
      <trkpt lat="63.36197" lon="10.37015">
        <ele>144.785253</ele>
        <time>2020-07-15T21:55:20.099Z</time>
      </trkpt>
      <trkpt lat="63.36317" lon="10.37076">
        <ele>142.205846</ele>
        <time>2020-07-15T21:55:50.959Z</time>
      </trkpt>
      <trkpt lat="63.36338" lon="10.37086">
        <ele>141.81698</ele>
        <time>2020-07-15T21:55:56.363Z</time>
      </trkpt>
      <trkpt lat="63.36351" lon="10.37091">
        <ele>141.568272</ele>
        <time>2020-07-15T21:55:59.751Z</time>
      </trkpt>
      <trkpt lat="63.3639" lon="10.3712">
        <ele>140.794596</ele>
        <time>2020-07-15T21:56:10.347Z</time>
      </trkpt>
      <trkpt lat="63.36394" lon="10.37124">
        <ele>140.713015</ele>
        <time>2020-07-15T21:56:11.097Z</time>
      </trkpt>
      <trkpt lat="63.3643" lon="10.37156">
        <ele>140.289681</ele>
        <time>2020-07-15T21:56:17.165Z</time>
      </trkpt>
      <trkpt lat="63.36497" lon="10.37233">
        <ele>139.467924</ele>
        <time>2020-07-15T21:56:29.327Z</time>
      </trkpt>
      <trkpt lat="63.36554" lon="10.3732">
        <ele>138.719101</ele>
        <time>2020-07-15T21:56:40.721Z</time>
      </trkpt>
      <trkpt lat="63.36565" lon="10.37344">
        <ele>138.530036</ele>
        <time>2020-07-15T21:56:43.310Z</time>
      </trkpt>
      <trkpt lat="63.36629" lon="10.37443">
        <ele>137.595469</ele>
        <time>2020-07-15T21:56:56.105Z</time>
      </trkpt>
      <trkpt lat="63.36633" lon="10.37456">
        <ele>137.50641</ele>
        <time>2020-07-15T21:56:57.323Z</time>
      </trkpt>
      <trkpt lat="63.36682" lon="10.37521">
        <ele>136.82321</ele>
        <time>2020-07-15T21:57:06.073Z</time>
      </trkpt>
      <trkpt lat="63.36763" lon="10.37604">
        <ele>134.834368</ele>
        <time>2020-07-15T21:57:19.242Z</time>
      </trkpt>
      <trkpt lat="63.3677" lon="10.37608">
        <ele>134.655687</ele>
        <time>2020-07-15T21:57:20.232Z</time>
      </trkpt>
      <trkpt lat="63.36815" lon="10.37636">
        <ele>133.498087</ele>
        <time>2020-07-15T21:57:26.901Z</time>
      </trkpt>
      <trkpt lat="63.36854" lon="10.37656">
        <ele>132.50394</ele>
        <time>2020-07-15T21:57:32.600Z</time>
      </trkpt>
      <trkpt lat="63.36925" lon="10.3768">
        <ele>130.141877</ele>
        <time>2020-07-15T21:57:42.377Z</time>
      </trkpt>
      <trkpt lat="63.36998" lon="10.37704">
        <ele>127.599031</ele>
        <time>2020-07-15T21:57:52.241Z</time>
      </trkpt>
      <trkpt lat="63.37003" lon="10.37713">
        <ele>127.372219</ele>
        <time>2020-07-15T21:57:53.074Z</time>
      </trkpt>
      <trkpt lat="63.37005" lon="10.37707">
        <ele>127.249334</ele>
        <time>2020-07-15T21:57:53.714Z</time>
      </trkpt>
      <trkpt lat="63.37008" lon="10.37701">
        <ele>127.122843</ele>
        <time>2020-07-15T21:57:54.358Z</time>
      </trkpt>
      <trkpt lat="63.37008" lon="10.3768">
        <ele>126.790366</ele>
        <time>2020-07-15T21:57:56.115Z</time>
      </trkpt>
      <trkpt lat="63.37019" lon="10.37685">
        <ele>126.411302</ele>
        <time>2020-07-15T21:57:57.605Z</time>
      </trkpt>
      <trkpt lat="63.37027" lon="10.37688">
        <ele>126.116708</ele>
        <time>2020-07-15T21:57:58.658Z</time>
      </trkpt>
      <trkpt lat="63.37027" lon="10.3767">
        <ele>125.807084</ele>
        <time>2020-07-15T21:57:59.737Z</time>
      </trkpt>
      <trkpt lat="63.37027" lon="10.3763">
        <ele>124.898784</ele>
        <time>2020-07-15T21:58:02.157Z</time>
      </trkpt>
      <trkpt lat="63.37027" lon="10.37563">
        <ele>123.378171</ele>
        <time>2020-07-15T21:58:05.880Z</time>
      </trkpt>
      <trkpt lat="63.37028" lon="10.37531">
        <ele>122.653723</ele>
        <time>2020-07-15T21:58:07.601Z</time>
      </trkpt>
      <trkpt lat="63.37031" lon="10.37488">
        <ele>121.673316</ele>
        <time>2020-07-15T21:58:09.930Z</time>
      </trkpt>
      <trkpt lat="63.37032" lon="10.37477">
        <ele>121.42396</ele>
        <time>2020-07-15T21:58:10.531Z</time>
      </trkpt>
      <trkpt lat="63.37035" lon="10.37391">
        <ele>119.473725</ele>
        <time>2020-07-15T21:58:15.038Z</time>
      </trkpt>
      <trkpt lat="63.37035" lon="10.37314">
        <ele>117.747389</ele>
        <time>2020-07-15T21:58:19.124Z</time>
      </trkpt>
      <trkpt lat="63.3705" lon="10.37091">
        <ele>114.705708</ele>
        <time>2020-07-15T21:58:31.459Z</time>
      </trkpt>
      <trkpt lat="63.37084" lon="10.36508">
        <ele>112.775826</ele>
        <time>2020-07-15T21:59:15.535Z</time>
      </trkpt>
      <trkpt lat="63.37088" lon="10.3637">
        <ele>114.576073</ele>
        <time>2020-07-15T21:59:34.436Z</time>
      </trkpt>
      <trkpt lat="63.3708" lon="10.35926">
        <ele>121.496715</ele>
        <time>2020-07-15T22:00:35.727Z</time>
      </trkpt>
      <trkpt lat="63.37071" lon="10.35767">
        <ele>123.801733</ele>
        <time>2020-07-15T22:00:54.239Z</time>
      </trkpt>
      <trkpt lat="63.37044" lon="10.35287">
        <ele>130.961643</ele>
        <time>2020-07-15T22:01:54.160Z</time>
      </trkpt>
      <trkpt lat="63.37031" lon="10.35">
        <ele>137.218023</ele>
        <time>2020-07-15T22:02:38.227Z</time>
      </trkpt>
      <trkpt lat="63.37032" lon="10.34888">
        <ele>139.676708</ele>
        <time>2020-07-15T22:02:56.198Z</time>
      </trkpt>
      <trkpt lat="63.37034" lon="10.34766">
        <ele>142.156978</ele>
        <time>2020-07-15T22:03:14.684Z</time>
      </trkpt>
      <trkpt lat="63.37038" lon="10.34644">
        <ele>144.633919</ele>
        <time>2020-07-15T22:03:32.239Z</time>
      </trkpt>
      <trkpt lat="63.37045" lon="10.34489">
        <ele>147.783218</ele>
        <time>2020-07-15T22:03:54.021Z</time>
      </trkpt>
      <trkpt lat="63.37054" lon="10.34369">
        <ele>149.779885</ele>
        <time>2020-07-15T22:04:10.256Z</time>
      </trkpt>
      <trkpt lat="63.37055" lon="10.34352">
        <ele>150.061791</ele>
        <time>2020-07-15T22:04:13.314Z</time>
      </trkpt>
      <trkpt lat="63.37056" lon="10.34341">
        <ele>150.228905</ele>
        <time>2020-07-15T22:04:14.629Z</time>
      </trkpt>
      <trkpt lat="63.37061" lon="10.3429">
        <ele>151.069934</ele>
        <time>2020-07-15T22:04:21.052Z</time>
      </trkpt>
      <trkpt lat="63.37062" lon="10.34283">
        <ele>151.189417</ele>
        <time>2020-07-15T22:04:22.455Z</time>
      </trkpt>
      <trkpt lat="63.37066" lon="10.34239">
        <ele>151.907069</ele>
        <time>2020-07-15T22:04:28.222Z</time>
      </trkpt>
      <trkpt lat="63.37087" lon="10.34087">
        <ele>154.440672</ele>
        <time>2020-07-15T22:04:48.287Z</time>
      </trkpt>
      <trkpt lat="63.37124" lon="10.3387">
        <ele>157.901377</ele>
        <time>2020-07-15T22:05:16.824Z</time>
      </trkpt>
      <trkpt lat="63.37157" lon="10.33716">
        <ele>160.469905</ele>
        <time>2020-07-15T22:05:38.665Z</time>
      </trkpt>
      <trkpt lat="63.37254" lon="10.33358">
        <ele>169.053757</ele>
        <time>2020-07-15T22:06:41.139Z</time>
      </trkpt>
      <trkpt lat="63.3734" lon="10.3305">
        <ele>175.948381</ele>
        <time>2020-07-15T22:07:33.046Z</time>
      </trkpt>
      <trkpt lat="63.37381" lon="10.33111">
        <ele>177.16315</ele>
        <time>2020-07-15T22:07:47.151Z</time>
      </trkpt>
      <trkpt lat="63.37387" lon="10.33115">
        <ele>177.288881</ele>
        <time>2020-07-15T22:07:48.686Z</time>
      </trkpt>
      <trkpt lat="63.37392" lon="10.33131">
        <ele>177.477404</ele>
        <time>2020-07-15T22:07:50.994Z</time>
      </trkpt>
      <trkpt lat="63.37393" lon="10.33111">
        <ele>177.670567</ele>
        <time>2020-07-15T22:07:54.308Z</time>
      </trkpt>
      <trkpt lat="63.37387" lon="10.33096">
        <ele>177.860858</ele>
        <time>2020-07-15T22:07:57.468Z</time>
      </trkpt>
      <trkpt lat="63.37375" lon="10.33056">
        <ele>178.324799</ele>
        <time>2020-07-15T22:08:05.227Z</time>
      </trkpt>
      <trkpt lat="63.37362" lon="10.3303">
        <ele>178.703772</ele>
        <time>2020-07-15T22:08:11.211Z</time>
      </trkpt>
      <trkpt lat="63.37333" lon="10.32991">
        <ele>179.425472</ele>
        <time>2020-07-15T22:08:18.783Z</time>
      </trkpt>
      <trkpt lat="63.37325" lon="10.3298">
        <ele>179.635197</ele>
        <time>2020-07-15T22:08:20.865Z</time>
      </trkpt>
      <trkpt lat="63.37318" lon="10.32968">
        <ele>179.818067</ele>
        <time>2020-07-15T22:08:22.794Z</time>
      </trkpt>
      <trkpt lat="63.37321" lon="10.32955">
        <ele>179.961816</ele>
        <time>2020-07-15T22:08:24.187Z</time>
      </trkpt>
      <trkpt lat="63.37348" lon="10.32924">
        <ele>180.564472</ele>
        <time>2020-07-15T22:08:31.261Z</time>
      </trkpt>
      <trkpt lat="63.37368" lon="10.32909">
        <ele>180.976926</ele>
        <time>2020-07-15T22:08:36.362Z</time>
      </trkpt>
      <trkpt lat="63.3741" lon="10.32768">
        <ele>182.439247</ele>
        <time>2020-07-15T22:08:54.283Z</time>
      </trkpt>
      <trkpt lat="63.37547" lon="10.32269">
        <ele>189.266249</ele>
        <time>2020-07-15T22:10:06.535Z</time>
      </trkpt>
      <trkpt lat="63.37562" lon="10.32215">
        <ele>189.964913</ele>
        <time>2020-07-15T22:10:15.278Z</time>
      </trkpt>
      <trkpt lat="63.37574" lon="10.32172">
        <ele>190.520871</ele>
        <time>2020-07-15T22:10:22.163Z</time>
      </trkpt>
      <trkpt lat="63.37582" lon="10.32143">
        <ele>190.903341</ele>
        <time>2020-07-15T22:10:26.506Z</time>
      </trkpt>
      <trkpt lat="63.37623" lon="10.32016">
        <ele>192.630584</ele>
        <time>2020-07-15T22:10:44.892Z</time>
      </trkpt>
      <trkpt lat="63.37632" lon="10.31997">
        <ele>192.939626</ele>
        <time>2020-07-15T22:10:48.222Z</time>
      </trkpt>
      <trkpt lat="63.37653" lon="10.31954">
        <ele>192.711657</ele>
        <time>2020-07-15T22:10:54.379Z</time>
      </trkpt>
      <trkpt lat="63.37693" lon="10.31899">
        <ele>191.643684</ele>
        <time>2020-07-15T22:11:02.272Z</time>
      </trkpt>
      <trkpt lat="63.37802" lon="10.31784">
        <ele>188.790917</ele>
        <time>2020-07-15T22:11:18.236Z</time>
      </trkpt>
      <trkpt lat="63.37875" lon="10.31704">
        <ele>185.696982</ele>
        <time>2020-07-15T22:11:28.834Z</time>
      </trkpt>
      <trkpt lat="63.37881" lon="10.31698">
        <ele>185.474582</ele>
        <time>2020-07-15T22:11:29.606Z</time>
      </trkpt>
      <trkpt lat="63.37887" lon="10.3169">
        <ele>185.179839</ele>
        <time>2020-07-15T22:11:30.649Z</time>
      </trkpt>
      <trkpt lat="63.37901" lon="10.31671">
        <ele>184.565659</ele>
        <time>2020-07-15T22:11:32.809Z</time>
      </trkpt>
      <trkpt lat="63.3791" lon="10.31662">
        <ele>184.209285</ele>
        <time>2020-07-15T22:11:34.053Z</time>
      </trkpt>
      <trkpt lat="63.37916" lon="10.31655">
        <ele>183.933052</ele>
        <time>2020-07-15T22:11:35.037Z</time>
      </trkpt>
      <trkpt lat="63.37925" lon="10.31648">
        <ele>183.591716</ele>
        <time>2020-07-15T22:11:36.255Z</time>
      </trkpt>
      <trkpt lat="63.38019" lon="10.31548">
        <ele>181.120396</ele>
        <time>2020-07-15T22:11:51.003Z</time>
      </trkpt>
      <trkpt lat="63.38077" lon="10.31487">
        <ele>180.068641</ele>
        <time>2020-07-15T22:12:01.237Z</time>
      </trkpt>
      <trkpt lat="63.38106" lon="10.31469">
        <ele>179.57889</ele>
        <time>2020-07-15T22:12:06.205Z</time>
      </trkpt>
      <trkpt lat="63.38152" lon="10.31455">
        <ele>179.048765</ele>
        <time>2020-07-15T22:12:14.123Z</time>
      </trkpt>
      <trkpt lat="63.38199" lon="10.31488">
        <ele>178.635577</ele>
        <time>2020-07-15T22:12:22.501Z</time>
      </trkpt>
      <trkpt lat="63.3822" lon="10.31519">
        <ele>178.421548</ele>
        <time>2020-07-15T22:12:26.830Z</time>
      </trkpt>
      <trkpt lat="63.38278" lon="10.31677">
        <ele>177.442503</ele>
        <time>2020-07-15T22:12:41.621Z</time>
      </trkpt>
      <trkpt lat="63.38282" lon="10.31696">
        <ele>177.239368</ele>
        <time>2020-07-15T22:12:43.027Z</time>
      </trkpt>
      <trkpt lat="63.38297" lon="10.31802">
        <ele>176.153119</ele>
        <time>2020-07-15T22:12:50.566Z</time>
      </trkpt>
      <trkpt lat="63.38307" lon="10.31874">
        <ele>175.408832</ele>
        <time>2020-07-15T22:12:55.523Z</time>
      </trkpt>
      <trkpt lat="63.38323" lon="10.32009">
        <ele>174.042214</ele>
        <time>2020-07-15T22:13:04.181Z</time>
      </trkpt>
      <trkpt lat="63.38343" lon="10.32109">
        <ele>173.066464</ele>
        <time>2020-07-15T22:13:11.033Z</time>
      </trkpt>
      <trkpt lat="63.38363" lon="10.32156">
        <ele>172.516142</ele>
        <time>2020-07-15T22:13:15.147Z</time>
      </trkpt>
      <trkpt lat="63.38371" lon="10.3217">
        <ele>172.322962</ele>
        <time>2020-07-15T22:13:16.466Z</time>
      </trkpt>
      <trkpt lat="63.38378" lon="10.32184">
        <ele>172.134958</ele>
        <time>2020-07-15T22:13:17.895Z</time>
      </trkpt>
      <trkpt lat="63.38385" lon="10.32197">
        <ele>171.952129</ele>
        <time>2020-07-15T22:13:19.339Z</time>
      </trkpt>
      <trkpt lat="63.38394" lon="10.32213">
        <ele>171.736765</ele>
        <time>2020-07-15T22:13:20.952Z</time>
      </trkpt>
      <trkpt lat="63.38625" lon="10.3259">
        <ele>168.969528</ele>
        <time>2020-07-15T22:14:09.303Z</time>
      </trkpt>
      <trkpt lat="63.38685" lon="10.32688">
        <ele>168.378991</ele>
        <time>2020-07-15T22:14:22.460Z</time>
      </trkpt>
      <trkpt lat="63.38703" lon="10.32715">
        <ele>168.207944</ele>
        <time>2020-07-15T22:14:26.089Z</time>
      </trkpt>
      <trkpt lat="63.38708" lon="10.32724">
        <ele>168.156065</ele>
        <time>2020-07-15T22:14:27.016Z</time>
      </trkpt>
      <trkpt lat="63.38715" lon="10.32733">
        <ele>168.090713</ele>
        <time>2020-07-15T22:14:28.503Z</time>
      </trkpt>
      <trkpt lat="63.38756" lon="10.32789">
        <ele>167.213089</ele>
        <time>2020-07-15T22:14:36.204Z</time>
      </trkpt>
      <trkpt lat="63.38781" lon="10.32806">
        <ele>166.097961</ele>
        <time>2020-07-15T22:14:40.116Z</time>
      </trkpt>
      <trkpt lat="63.38782" lon="10.32817">
        <ele>165.888664</ele>
        <time>2020-07-15T22:14:40.878Z</time>
      </trkpt>
      <trkpt lat="63.38786" lon="10.32842">
        <ele>165.395287</ele>
        <time>2020-07-15T22:14:42.363Z</time>
      </trkpt>
      <trkpt lat="63.38788" lon="10.32861">
        <ele>165.01888</ele>
        <time>2020-07-15T22:14:43.524Z</time>
      </trkpt>
      <trkpt lat="63.38778" lon="10.32889">
        <ele>164.321616</ele>
        <time>2020-07-15T22:14:45.957Z</time>
      </trkpt>
      <trkpt lat="63.38775" lon="10.32921">
        <ele>163.719066</ele>
        <time>2020-07-15T22:14:47.721Z</time>
      </trkpt>
      <trkpt lat="63.38793" lon="10.3303">
        <ele>161.507941</ele>
        <time>2020-07-15T22:14:54.495Z</time>
      </trkpt>
      <trkpt lat="63.38809" lon="10.33119">
        <ele>159.246006</ele>
        <time>2020-07-15T22:14:59.694Z</time>
      </trkpt>
      <trkpt lat="63.38812" lon="10.33138">
        <ele>158.511796</ele>
        <time>2020-07-15T22:15:00.740Z</time>
      </trkpt>
      <trkpt lat="63.38828" lon="10.33337">
        <ele>151.27968</ele>
        <time>2020-07-15T22:15:11.320Z</time>
      </trkpt>
      <trkpt lat="63.38823" lon="10.33533">
        <ele>144.846355</ele>
        <time>2020-07-15T22:15:21.632Z</time>
      </trkpt>
      <trkpt lat="63.38823" lon="10.33553">
        <ele>144.40949</ele>
        <time>2020-07-15T22:15:22.704Z</time>
      </trkpt>
      <trkpt lat="63.38821" lon="10.33631">
        <ele>142.656352</ele>
        <time>2020-07-15T22:15:27.020Z</time>
      </trkpt>
      <trkpt lat="63.38819" lon="10.33759">
        <ele>139.802073</ele>
        <time>2020-07-15T22:15:34.269Z</time>
      </trkpt>
      <trkpt lat="63.3882" lon="10.33793">
        <ele>139.032557</ele>
        <time>2020-07-15T22:15:36.355Z</time>
      </trkpt>
      <trkpt lat="63.38823" lon="10.3382">
        <ele>138.410036</ele>
        <time>2020-07-15T22:15:38.074Z</time>
      </trkpt>
      <trkpt lat="63.38827" lon="10.33826">
        <ele>138.162256</ele>
        <time>2020-07-15T22:15:38.774Z</time>
      </trkpt>
      <trkpt lat="63.38833" lon="10.33836">
        <ele>137.808072</ele>
        <time>2020-07-15T22:15:39.815Z</time>
      </trkpt>
      <trkpt lat="63.38833" lon="10.33866">
        <ele>137.134817</ele>
        <time>2020-07-15T22:15:41.854Z</time>
      </trkpt>
      <trkpt lat="63.38822" lon="10.339">
        <ele>136.646982</ele>
        <time>2020-07-15T22:15:44.698Z</time>
      </trkpt>
      <trkpt lat="63.38821" lon="10.33955">
        <ele>136.258538</ele>
        <time>2020-07-15T22:15:48.558Z</time>
      </trkpt>
      <trkpt lat="63.38829" lon="10.34068">
        <ele>135.447465</ele>
        <time>2020-07-15T22:15:56.544Z</time>
      </trkpt>
      <trkpt lat="63.38846" lon="10.34193">
        <ele>134.518595</ele>
        <time>2020-07-15T22:16:05.726Z</time>
      </trkpt>
      <trkpt lat="63.38846" lon="10.34196">
        <ele>134.496398</ele>
        <time>2020-07-15T22:16:05.918Z</time>
      </trkpt>
      <trkpt lat="63.38852" lon="10.34239">
        <ele>134.175665</ele>
        <time>2020-07-15T22:16:08.998Z</time>
      </trkpt>
      <trkpt lat="63.38867" lon="10.34303">
        <ele>133.793849</ele>
        <time>2020-07-15T22:16:14.013Z</time>
      </trkpt>
      <trkpt lat="63.38873" lon="10.34323">
        <ele>133.681325</ele>
        <time>2020-07-15T22:16:15.676Z</time>
      </trkpt>
      <trkpt lat="63.38906" lon="10.34426">
        <ele>133.116186</ele>
        <time>2020-07-15T22:16:24.572Z</time>
      </trkpt>
      <trkpt lat="63.38964" lon="10.34557">
        <ele>132.289507</ele>
        <time>2020-07-15T22:16:37.951Z</time>
      </trkpt>
      <trkpt lat="63.39059" lon="10.34683">
        <ele>131.996003</ele>
        <time>2020-07-15T22:16:58.805Z</time>
      </trkpt>
      <trkpt lat="63.39128" lon="10.34746">
        <ele>131.845119</ele>
        <time>2020-07-15T22:17:12.513Z</time>
      </trkpt>
      <trkpt lat="63.39191" lon="10.34804">
        <ele>130.767756</ele>
        <time>2020-07-15T22:17:23.800Z</time>
      </trkpt>
      <trkpt lat="63.39222" lon="10.34831">
        <ele>130.221044</ele>
        <time>2020-07-15T22:17:29.024Z</time>
      </trkpt>
      <trkpt lat="63.39254" lon="10.34854">
        <ele>129.682749</ele>
        <time>2020-07-15T22:17:33.972Z</time>
      </trkpt>
      <trkpt lat="63.39412" lon="10.34988">
        <ele>125.664498</ele>
        <time>2020-07-15T22:17:57.425Z</time>
      </trkpt>
      <trkpt lat="63.39452" lon="10.35034">
        <ele>124.485161</ele>
        <time>2020-07-15T22:18:03.691Z</time>
      </trkpt>
      <trkpt lat="63.3949" lon="10.35078">
        <ele>124.522844</ele>
        <time>2020-07-15T22:18:10.062Z</time>
      </trkpt>
      <trkpt lat="63.39539" lon="10.35147">
        <ele>125.345091</ele>
        <time>2020-07-15T22:18:20.469Z</time>
      </trkpt>
      <trkpt lat="63.3962" lon="10.35301">
        <ele>127.378459</ele>
        <time>2020-07-15T22:18:52.199Z</time>
      </trkpt>
      <trkpt lat="63.39621" lon="10.35306">
        <ele>127.520445</ele>
        <time>2020-07-15T22:18:53.851Z</time>
      </trkpt>
      <trkpt lat="63.39635" lon="10.35333">
        <ele>128.499582</ele>
        <time>2020-07-15T22:18:59.501Z</time>
      </trkpt>
      <trkpt lat="63.39644" lon="10.35349">
        <ele>129.106118</ele>
        <time>2020-07-15T22:19:03.594Z</time>
      </trkpt>
      <trkpt lat="63.39652" lon="10.35362">
        <ele>129.616003</ele>
        <time>2020-07-15T22:19:07.963Z</time>
      </trkpt>
      <trkpt lat="63.39662" lon="10.35368">
        <ele>130.178692</ele>
        <time>2020-07-15T22:19:10.856Z</time>
      </trkpt>
      <trkpt lat="63.39667" lon="10.35374">
        <ele>130.484837</ele>
        <time>2020-07-15T22:19:13.002Z</time>
      </trkpt>
      <trkpt lat="63.39676" lon="10.35385">
        <ele>131.036838</ele>
        <time>2020-07-15T22:19:16.753Z</time>
      </trkpt>
      <trkpt lat="63.39679" lon="10.35408">
        <ele>131.614914</ele>
        <time>2020-07-15T22:19:21.640Z</time>
      </trkpt>
      <trkpt lat="63.39697" lon="10.35504">
        <ele>134.072032</ele>
        <time>2020-07-15T22:19:37.915Z</time>
      </trkpt>
      <trkpt lat="63.39706" lon="10.35534">
        <ele>134.938926</ele>
        <time>2020-07-15T22:19:44.227Z</time>
      </trkpt>
      <trkpt lat="63.39766" lon="10.35649">
        <ele>139.080861</ele>
        <time>2020-07-15T22:20:13.952Z</time>
      </trkpt>
      <trkpt lat="63.39809" lon="10.35703">
        <ele>141.653111</ele>
        <time>2020-07-15T22:20:29.691Z</time>
      </trkpt>
      <trkpt lat="63.39859" lon="10.35753">
        <ele>144.502256</ele>
        <time>2020-07-15T22:20:48.327Z</time>
      </trkpt>
      <trkpt lat="63.39865" lon="10.35764">
        <ele>144.916763</ele>
        <time>2020-07-15T22:20:51.353Z</time>
      </trkpt>
      <trkpt lat="63.39883" lon="10.35783">
        <ele>145.959057</ele>
        <time>2020-07-15T22:20:58.882Z</time>
      </trkpt>
      <trkpt lat="63.39897" lon="10.35796">
        <ele>146.815286</ele>
        <time>2020-07-15T22:21:04.675Z</time>
      </trkpt>
      <trkpt lat="63.39912" lon="10.35801">
        <ele>147.626176</ele>
        <time>2020-07-15T22:21:10.401Z</time>
      </trkpt>
      <trkpt lat="63.3995" lon="10.35807">
        <ele>149.681496</ele>
        <time>2020-07-15T22:21:24.248Z</time>
      </trkpt>
      <trkpt lat="63.39957" lon="10.35798">
        <ele>150.088088</ele>
        <time>2020-07-15T22:21:27.276Z</time>
      </trkpt>
      <trkpt lat="63.39985" lon="10.35791">
        <ele>151.65022</ele>
        <time>2020-07-15T22:21:38.007Z</time>
      </trkpt>
      <trkpt lat="63.39999" lon="10.35778">
        <ele>152.484184</ele>
        <time>2020-07-15T22:21:43.716Z</time>
      </trkpt>
      <trkpt lat="63.40006" lon="10.35774">
        <ele>152.863992</ele>
        <time>2020-07-15T22:21:46.622Z</time>
      </trkpt>
      <trkpt lat="63.40025" lon="10.35771">
        <ele>153.883643</ele>
        <time>2020-07-15T22:21:52.983Z</time>
      </trkpt>
      <trkpt lat="63.40092" lon="10.35737">
        <ele>156.558301</ele>
        <time>2020-07-15T22:22:15.419Z</time>
      </trkpt>
      <trkpt lat="63.40108" lon="10.35727">
        <ele>157.034329</ele>
        <time>2020-07-15T22:22:20.945Z</time>
      </trkpt>
      <trkpt lat="63.40119" lon="10.35725">
        <ele>157.365553</ele>
        <time>2020-07-15T22:22:24.390Z</time>
      </trkpt>
      <trkpt lat="63.40126" lon="10.35718">
        <ele>157.600195</ele>
        <time>2020-07-15T22:22:26.604Z</time>
      </trkpt>
      <trkpt lat="63.40131" lon="10.35708">
        <ele>157.782818</ele>
        <time>2020-07-15T22:22:28.358Z</time>
      </trkpt>
      <trkpt lat="63.40136" lon="10.35705">
        <ele>157.942161</ele>
        <time>2020-07-15T22:22:29.882Z</time>
      </trkpt>
      <trkpt lat="63.40142" lon="10.35702">
        <ele>158.107803</ele>
        <time>2020-07-15T22:22:31.722Z</time>
      </trkpt>
      <trkpt lat="63.40146" lon="10.35707">
        <ele>158.257191</ele>
        <time>2020-07-15T22:22:33.252Z</time>
      </trkpt>
      <trkpt lat="63.4015" lon="10.35712">
        <ele>158.383824</ele>
        <time>2020-07-15T22:22:34.329Z</time>
      </trkpt>
      <trkpt lat="63.40155" lon="10.35719">
        <ele>158.550251</ele>
        <time>2020-07-15T22:22:35.737Z</time>
      </trkpt>
      <trkpt lat="63.40163" lon="10.35726">
        <ele>158.806235</ele>
        <time>2020-07-15T22:22:38.088Z</time>
      </trkpt>
      <trkpt lat="63.40186" lon="10.35738">
        <ele>159.504772</ele>
        <time>2020-07-15T22:22:43.666Z</time>
      </trkpt>
      <trkpt lat="63.40191" lon="10.35742">
        <ele>159.670344</ele>
        <time>2020-07-15T22:22:44.837Z</time>
      </trkpt>
      <trkpt lat="63.40236" lon="10.3576">
        <ele>160.607423</ele>
        <time>2020-07-15T22:22:55.365Z</time>
      </trkpt>
      <trkpt lat="63.4029" lon="10.3578">
        <ele>160.672253</ele>
        <time>2020-07-15T22:23:06.170Z</time>
      </trkpt>
      <trkpt lat="63.40337" lon="10.35799">
        <ele>160.729748</ele>
        <time>2020-07-15T22:23:14.900Z</time>
      </trkpt>
      <trkpt lat="63.40356" lon="10.35805">
        <ele>160.752749</ele>
        <time>2020-07-15T22:23:18.548Z</time>
      </trkpt>
      <trkpt lat="63.40359" lon="10.358">
        <ele>160.757014</ele>
        <time>2020-07-15T22:23:19.265Z</time>
      </trkpt>
      <trkpt lat="63.40378" lon="10.35792">
        <ele>160.780217</ele>
        <time>2020-07-15T22:23:22.610Z</time>
      </trkpt>
      <trkpt lat="63.40387" lon="10.35794">
        <ele>160.791883</ele>
        <time>2020-07-15T22:23:24.421Z</time>
      </trkpt>
      <trkpt lat="63.40391" lon="10.35796">
        <ele>160.796242</ele>
        <time>2020-07-15T22:23:25.004Z</time>
      </trkpt>
      <trkpt lat="63.40393" lon="10.35815">
        <ele>160.796952</ele>
        <time>2020-07-15T22:23:26.510Z</time>
      </trkpt>
      <trkpt lat="63.40399" lon="10.35823">
        <ele>160.696033</ele>
        <time>2020-07-15T22:23:27.604Z</time>
      </trkpt>
      <trkpt lat="63.40496" lon="10.35861">
        <ele>159.198619</ele>
        <time>2020-07-15T22:23:43.496Z</time>
      </trkpt>
      <trkpt lat="63.40496" lon="10.3586">
        <ele>159.180825</ele>
        <time>2020-07-15T22:23:43.645Z</time>
      </trkpt>
      <trkpt lat="63.40561" lon="10.35882">
        <ele>158.178538</ele>
        <time>2020-07-15T22:23:53.360Z</time>
      </trkpt>
      <trkpt lat="63.40572" lon="10.35874">
        <ele>157.9039</ele>
        <time>2020-07-15T22:23:54.990Z</time>
      </trkpt>
      <trkpt lat="63.40574" lon="10.35865">
        <ele>157.763161</ele>
        <time>2020-07-15T22:23:55.572Z</time>
      </trkpt>
      <trkpt lat="63.40575" lon="10.3586">
        <ele>157.680935</ele>
        <time>2020-07-15T22:23:55.954Z</time>
      </trkpt>
      <trkpt lat="63.40579" lon="10.35848">
        <ele>157.455172</ele>
        <time>2020-07-15T22:23:56.981Z</time>
      </trkpt>
      <trkpt lat="63.40586" lon="10.3585">
        <ele>157.252628</ele>
        <time>2020-07-15T22:23:57.824Z</time>
      </trkpt>
      <trkpt lat="63.40593" lon="10.35853">
        <ele>157.019268</ele>
        <time>2020-07-15T22:23:58.784Z</time>
      </trkpt>
      <trkpt lat="63.40612" lon="10.35882">
        <ele>156.24888</ele>
        <time>2020-07-15T22:24:02.114Z</time>
      </trkpt>
      <trkpt lat="63.40615" lon="10.35884">
        <ele>156.138332</ele>
        <time>2020-07-15T22:24:02.552Z</time>
      </trkpt>
      <trkpt lat="63.40651" lon="10.35906">
        <ele>154.927974</ele>
        <time>2020-07-15T22:24:07.597Z</time>
      </trkpt>
      <trkpt lat="63.40693" lon="10.35915">
        <ele>153.534165</ele>
        <time>2020-07-15T22:24:13.220Z</time>
      </trkpt>
      <trkpt lat="63.40743" lon="10.35933">
        <ele>151.847624</ele>
        <time>2020-07-15T22:24:19.973Z</time>
      </trkpt>
      <trkpt lat="63.40788" lon="10.35945">
        <ele>150.1955</ele>
        <time>2020-07-15T22:24:26.040Z</time>
      </trkpt>
      <trkpt lat="63.40798" lon="10.35952">
        <ele>149.826542</ele>
        <time>2020-07-15T22:24:27.351Z</time>
      </trkpt>
      <trkpt lat="63.40848" lon="10.35973">
        <ele>147.969524</ele>
        <time>2020-07-15T22:24:34.262Z</time>
      </trkpt>
      <trkpt lat="63.4088" lon="10.35985">
        <ele>146.805623</ele>
        <time>2020-07-15T22:24:38.632Z</time>
      </trkpt>
      <trkpt lat="63.40898" lon="10.35993">
        <ele>146.143748</ele>
        <time>2020-07-15T22:24:41.119Z</time>
      </trkpt>
      <trkpt lat="63.40984" lon="10.36027">
        <ele>143.488634</ele>
        <time>2020-07-15T22:24:53.239Z</time>
      </trkpt>
      <trkpt lat="63.41125" lon="10.36094">
        <ele>139.064364</ele>
        <time>2020-07-15T22:25:13.341Z</time>
      </trkpt>
      <trkpt lat="63.41134" lon="10.36102">
        <ele>138.709763</ele>
        <time>2020-07-15T22:25:14.733Z</time>
      </trkpt>
      <trkpt lat="63.41157" lon="10.36122">
        <ele>137.877616</ele>
        <time>2020-07-15T22:25:18.177Z</time>
      </trkpt>
      <trkpt lat="63.41159" lon="10.36124">
        <ele>137.809016</ele>
        <time>2020-07-15T22:25:18.457Z</time>
      </trkpt>
      <trkpt lat="63.4116" lon="10.36125">
        <ele>137.778756</ele>
        <time>2020-07-15T22:25:18.578Z</time>
      </trkpt>
      <trkpt lat="63.41246" lon="10.36218">
        <ele>134.549699</ele>
        <time>2020-07-15T22:25:31.406Z</time>
      </trkpt>
      <trkpt lat="63.41332" lon="10.36337">
        <ele>130.685801</ele>
        <time>2020-07-15T22:25:44.831Z</time>
      </trkpt>
      <trkpt lat="63.41398" lon="10.36455">
        <ele>127.389356</ele>
        <time>2020-07-15T22:25:56.292Z</time>
      </trkpt>
      <trkpt lat="63.41407" lon="10.3647">
        <ele>126.799272</ele>
        <time>2020-07-15T22:25:57.672Z</time>
      </trkpt>
      <trkpt lat="63.4144" lon="10.36547">
        <ele>124.034312</ele>
        <time>2020-07-15T22:26:03.791Z</time>
      </trkpt>
      <trkpt lat="63.41482" lon="10.36639">
        <ele>120.649816</ele>
        <time>2020-07-15T22:26:11.146Z</time>
      </trkpt>
      <trkpt lat="63.41484" lon="10.36638">
        <ele>120.555174</ele>
        <time>2020-07-15T22:26:12.346Z</time>
      </trkpt>
      <trkpt lat="63.4149" lon="10.36651">
        <ele>120.070367</ele>
        <time>2020-07-15T22:26:13.682Z</time>
      </trkpt>
      <trkpt lat="63.41486" lon="10.36674">
        <ele>119.440354</ele>
        <time>2020-07-15T22:26:14.980Z</time>
      </trkpt>
      <trkpt lat="63.41483" lon="10.36692">
        <ele>118.926249</ele>
        <time>2020-07-15T22:26:16.038Z</time>
      </trkpt>
      <trkpt lat="63.41491" lon="10.36716">
        <ele>118.155248</ele>
        <time>2020-07-15T22:26:17.557Z</time>
      </trkpt>
      <trkpt lat="63.41631" lon="10.37044">
        <ele>102.09039</ele>
        <time>2020-07-15T22:26:40.319Z</time>
      </trkpt>
      <trkpt lat="63.41693" lon="10.37142">
        <ele>95.734487</ele>
        <time>2020-07-15T22:26:48.677Z</time>
      </trkpt>
      <trkpt lat="63.41742" lon="10.37196">
        <ele>91.185887</ele>
        <time>2020-07-15T22:26:54.784Z</time>
      </trkpt>
      <trkpt lat="63.41761" lon="10.37217">
        <ele>89.363786</ele>
        <time>2020-07-15T22:26:57.225Z</time>
      </trkpt>
      <trkpt lat="63.41783" lon="10.3724">
        <ele>87.390116</ele>
        <time>2020-07-15T22:26:59.917Z</time>
      </trkpt>
      <trkpt lat="63.41849" lon="10.37293">
        <ele>83.875389</ele>
        <time>2020-07-15T22:27:08.097Z</time>
      </trkpt>
      <trkpt lat="63.41906" lon="10.37285">
        <ele>81.040551</ele>
        <time>2020-07-15T22:27:15.127Z</time>
      </trkpt>
      <trkpt lat="63.41917" lon="10.37268">
        <ele>80.395399</ele>
        <time>2020-07-15T22:27:16.744Z</time>
      </trkpt>
      <trkpt lat="63.41928" lon="10.37259">
        <ele>79.815295</ele>
        <time>2020-07-15T22:27:18.508Z</time>
      </trkpt>
      <trkpt lat="63.41945" lon="10.37254">
        <ele>78.974214</ele>
        <time>2020-07-15T22:27:20.796Z</time>
      </trkpt>
      <trkpt lat="63.41975" lon="10.37255">
        <ele>77.746021</ele>
        <time>2020-07-15T22:27:25.109Z</time>
      </trkpt>
      <trkpt lat="63.42042" lon="10.37296">
        <ele>75.359761</ele>
        <time>2020-07-15T22:27:34.330Z</time>
      </trkpt>
      <trkpt lat="63.4212" lon="10.37292">
        <ele>72.663979</ele>
        <time>2020-07-15T22:27:44.427Z</time>
      </trkpt>
      <trkpt lat="63.42125" lon="10.37291">
        <ele>72.483268</ele>
        <time>2020-07-15T22:27:45.062Z</time>
      </trkpt>
      <trkpt lat="63.42137" lon="10.37287">
        <ele>71.996116</ele>
        <time>2020-07-15T22:27:46.608Z</time>
      </trkpt>
      <trkpt lat="63.42143" lon="10.37284">
        <ele>71.597406</ele>
        <time>2020-07-15T22:27:47.323Z</time>
      </trkpt>
      <trkpt lat="63.42211" lon="10.37241">
        <ele>66.92723</ele>
        <time>2020-07-15T22:27:55.524Z</time>
      </trkpt>
      <trkpt lat="63.42238" lon="10.37231">
        <ele>65.088435</ele>
        <time>2020-07-15T22:27:58.695Z</time>
      </trkpt>
      <trkpt lat="63.42259" lon="10.37231">
        <ele>63.763844</ele>
        <time>2020-07-15T22:28:00.979Z</time>
      </trkpt>
      <trkpt lat="63.42289" lon="10.37234">
        <ele>61.73841</ele>
        <time>2020-07-15T22:28:04.502Z</time>
      </trkpt>
      <trkpt lat="63.42303" lon="10.37235">
        <ele>60.828683</ele>
        <time>2020-07-15T22:28:06.044Z</time>
      </trkpt>
      <trkpt lat="63.42323" lon="10.37231">
        <ele>59.570882</ele>
        <time>2020-07-15T22:28:08.372Z</time>
      </trkpt>
      <trkpt lat="63.42339" lon="10.37221">
        <ele>58.47804</ele>
        <time>2020-07-15T22:28:10.321Z</time>
      </trkpt>
      <trkpt lat="63.42347" lon="10.37213">
        <ele>57.950719</ele>
        <time>2020-07-15T22:28:11.323Z</time>
      </trkpt>
      <trkpt lat="63.42361" lon="10.372">
        <ele>57.026476</ele>
        <time>2020-07-15T22:28:13.006Z</time>
      </trkpt>
      <trkpt lat="63.42381" lon="10.37173">
        <ele>55.56955</ele>
        <time>2020-07-15T22:28:15.656Z</time>
      </trkpt>
      <trkpt lat="63.42423" lon="10.37111">
        <ele>52.406486</ele>
        <time>2020-07-15T22:28:21.495Z</time>
      </trkpt>
      <trkpt lat="63.42493" lon="10.37008">
        <ele>47.560856</ele>
        <time>2020-07-15T22:28:31.762Z</time>
      </trkpt>
      <trkpt lat="63.4256" lon="10.36911">
        <ele>43.719142</ele>
        <time>2020-07-15T22:28:41.831Z</time>
      </trkpt>
      <trkpt lat="63.42719" lon="10.3675">
        <ele>33.391275</ele>
        <time>2020-07-15T22:29:02.653Z</time>
      </trkpt>
      <trkpt lat="63.42747" lon="10.3673">
        <ele>31.461656</ele>
        <time>2020-07-15T22:29:05.928Z</time>
      </trkpt>
      <trkpt lat="63.42769" lon="10.36722">
        <ele>30.008445</ele>
        <time>2020-07-15T22:29:08.372Z</time>
      </trkpt>
      <trkpt lat="63.4279" lon="10.36722">
        <ele>28.644604</ele>
        <time>2020-07-15T22:29:10.725Z</time>
      </trkpt>
      <trkpt lat="63.42811" lon="10.36716">
        <ele>27.574715</ele>
        <time>2020-07-15T22:29:13.118Z</time>
      </trkpt>
      <trkpt lat="63.42812" lon="10.36718">
        <ele>27.510385</ele>
        <time>2020-07-15T22:29:13.270Z</time>
      </trkpt>
      <trkpt lat="63.42816" lon="10.3672">
        <ele>27.323809</ele>
        <time>2020-07-15T22:29:13.720Z</time>
      </trkpt>
      <trkpt lat="63.42823" lon="10.36718">
        <ele>26.981337</ele>
        <time>2020-07-15T22:29:14.559Z</time>
      </trkpt>
      <trkpt lat="63.42825" lon="10.36714">
        <ele>26.857854</ele>
        <time>2020-07-15T22:29:14.842Z</time>
      </trkpt>
      <trkpt lat="63.42826" lon="10.36711">
        <ele>26.754579</ele>
        <time>2020-07-15T22:29:15.092Z</time>
      </trkpt>
      <trkpt lat="63.42842" lon="10.3672">
        <ele>25.976981</ele>
        <time>2020-07-15T22:29:16.952Z</time>
      </trkpt>
      <trkpt lat="63.4285" lon="10.36714">
        <ele>25.589409</ele>
        <time>2020-07-15T22:29:17.895Z</time>
      </trkpt>
      <trkpt lat="63.42854" lon="10.36714">
        <ele>25.406405</ele>
        <time>2020-07-15T22:29:18.358Z</time>
      </trkpt>
      <trkpt lat="63.4287" lon="10.36712">
        <ele>24.591784</ele>
        <time>2020-07-15T22:29:20.322Z</time>
      </trkpt>
      <trkpt lat="63.42889" lon="10.36709">
        <ele>23.675795</ele>
        <time>2020-07-15T22:29:22.572Z</time>
      </trkpt>
      <trkpt lat="63.42905" lon="10.36703">
        <ele>22.911323</ele>
        <time>2020-07-15T22:29:24.511Z</time>
      </trkpt>
      <trkpt lat="63.4291" lon="10.36698">
        <ele>22.639859</ele>
        <time>2020-07-15T22:29:25.178Z</time>
      </trkpt>
      <trkpt lat="63.42915" lon="10.36668">
        <ele>21.951287</ele>
        <time>2020-07-15T22:29:27.042Z</time>
      </trkpt>
      <trkpt lat="63.42918" lon="10.36651">
        <ele>21.567525</ele>
        <time>2020-07-15T22:29:28.112Z</time>
      </trkpt>
      <trkpt lat="63.42926" lon="10.36605">
        <ele>20.516026</ele>
        <time>2020-07-15T22:29:31.142Z</time>
      </trkpt>
      <trkpt lat="63.42928" lon="10.36593">
        <ele>20.244141</ele>
        <time>2020-07-15T22:29:32.060Z</time>
      </trkpt>
      <trkpt lat="63.42931" lon="10.36575">
        <ele>19.81944</ele>
        <time>2020-07-15T22:29:33.534Z</time>
      </trkpt>
      <trkpt lat="63.42931" lon="10.3657">
        <ele>19.915117</ele>
        <time>2020-07-15T22:29:33.920Z</time>
      </trkpt>
      <trkpt lat="63.42931" lon="10.36569">
        <ele>19.927076</ele>
        <time>2020-07-15T22:29:33.977Z</time>
      </trkpt>
      <trkpt lat="63.42933" lon="10.36559">
        <ele>20.138853</ele>
        <time>2020-07-15T22:29:34.913Z</time>
      </trkpt>
      <trkpt lat="63.42955" lon="10.36427">
        <ele>22.764828</ele>
        <time>2020-07-15T22:29:50.560Z</time>
      </trkpt>
      <trkpt lat="63.42955" lon="10.36423">
        <ele>22.836585</ele>
        <time>2020-07-15T22:29:51.747Z</time>
      </trkpt>
      <trkpt lat="63.42963" lon="10.36377">
        <ele>23.751699</ele>
        <time>2020-07-15T22:29:59.420Z</time>
      </trkpt>
      <trkpt lat="63.42969" lon="10.36345">
        <ele>24.405469</ele>
        <time>2020-07-15T22:30:05.433Z</time>
      </trkpt>
      <trkpt lat="63.42972" lon="10.36329">
        <ele>24.72619</ele>
        <time>2020-07-15T22:30:09.064Z</time>
      </trkpt>
      <trkpt lat="63.42976" lon="10.36305">
        <ele>25.196111</ele>
        <time>2020-07-15T22:30:12.648Z</time>
      </trkpt>
      <trkpt lat="63.4298" lon="10.36277">
        <ele>25.754805</ele>
        <time>2020-07-15T22:30:17.245Z</time>
      </trkpt>
      <trkpt lat="63.42985" lon="10.3624">
        <ele>26.484019</ele>
        <time>2020-07-15T22:30:25.358Z</time>
      </trkpt>
      <trkpt lat="63.42991" lon="10.36201">
        <ele>27.242461</ele>
        <time>2020-07-15T22:30:31.779Z</time>
      </trkpt>
      <trkpt lat="63.4299" lon="10.36182">
        <ele>27.760216</ele>
        <time>2020-07-15T22:30:36.565Z</time>
      </trkpt>
      <trkpt lat="63.42984" lon="10.35962">
        <ele>34.45112</ele>
        <time>2020-07-15T22:31:20.382Z</time>
      </trkpt>
      <trkpt lat="63.42987" lon="10.35859">
        <ele>37.614685</ele>
        <time>2020-07-15T22:31:40.035Z</time>
      </trkpt>
      <trkpt lat="63.42999" lon="10.35748">
        <ele>39.547703</ele>
        <time>2020-07-15T22:31:55.005Z</time>
      </trkpt>
      <trkpt lat="63.43002" lon="10.35735">
        <ele>39.547703</ele>
        <time>2020-07-15T22:31:58.419Z</time>
      </trkpt>
      <trkpt lat="63.43004" lon="10.35725">
        <ele>39.547703</ele>
        <time>2020-07-15T22:31:59.707Z</time>
      </trkpt>
      <trkpt lat="63.4301" lon="10.35705">
        <ele>39.547703</ele>
        <time>2020-07-15T22:32:02.222Z</time>
      </trkpt>
      <trkpt lat="63.43037" lon="10.35651">
        <ele>39.547703</ele>
        <time>2020-07-15T22:32:11.158Z</time>
      </trkpt>
      <trkpt lat="63.43048" lon="10.35635">
        <ele>39.547703</ele>
        <time>2020-07-15T22:32:13.353Z</time>
      </trkpt>
      <trkpt lat="63.43065" lon="10.35614">
        <ele>39.547703</ele>
        <time>2020-07-15T22:32:18.791Z</time>
      </trkpt>
      <trkpt lat="63.43073" lon="10.35602">
        <ele>39.547703</ele>
        <time>2020-07-15T22:32:20.226Z</time>
      </trkpt>
      <trkpt lat="63.43082" lon="10.3559">
        <ele>39.547703</ele>
        <time>2020-07-15T22:32:22.603Z</time>
      </trkpt>
      <trkpt lat="63.43124" lon="10.35497">
        <ele>39.547703</ele>
        <time>2020-07-15T22:32:32.751Z</time>
      </trkpt>
      <trkpt lat="63.43125" lon="10.35498">
        <ele>39.547703</ele>
        <time>2020-07-15T22:32:32.839Z</time>
      </trkpt>
    </trkseg>
  </trk>
</gpx>